<?xml version="1.0" encoding="UTF-8" standalone="no" ?>
<gpx xmlns="http://www.topografix.com/GPX/1/1" xmlns:xsi="http://www.w3.org/2001/XMLSchema-instance" xsi:schemaLocation="http://www.topografix.com/GPX/1/1 http://www.topografix.com/GPX/1/1/gpx.xsd" version="1.1" creator="VisuGPX - https://www.visugpx.com">
  <metadata>
    <name>lundi 2015 01 19</name>
    <desc><![CDATA[rando du lundi]]></desc>
  </metadata>
  <trk>
    <name><![CDATA[19/01/2015 20:18]]></name>
    <desc><![CDATA[]]></desc>
    <trkseg>
      <trkpt lat="48.85738" lon="2.34735">
        <ele>103</ele>
        <time>2015-01-19T19:18:28.631Z</time>
      </trkpt>
      <trkpt lat="48.8574" lon="2.34733">
        <ele>99.1</ele>
        <time>2015-01-19T19:19:23.150Z</time>
      </trkpt>
      <trkpt lat="48.85739" lon="2.34733">
        <ele>98.9</ele>
        <time>2015-01-19T19:19:24.163Z</time>
      </trkpt>
      <trkpt lat="48.85738" lon="2.34734">
        <ele>98.9</ele>
        <time>2015-01-19T19:19:25.175Z</time>
      </trkpt>
      <trkpt lat="48.85738" lon="2.34738">
        <ele>99.1</ele>
        <time>2015-01-19T19:19:28.076Z</time>
      </trkpt>
      <trkpt lat="48.85738" lon="2.34738">
        <ele>99.1</ele>
        <time>2015-01-19T19:19:29.088Z</time>
      </trkpt>
      <trkpt lat="48.85737" lon="2.34738">
        <ele>99.2</ele>
        <time>2015-01-19T19:19:43.152Z</time>
      </trkpt>
      <trkpt lat="48.85737" lon="2.34734">
        <ele>99.1</ele>
        <time>2015-01-19T19:19:44.118Z</time>
      </trkpt>
      <trkpt lat="48.85737" lon="2.34734">
        <ele>99.1</ele>
        <time>2015-01-19T19:19:44.225Z</time>
      </trkpt>
      <trkpt lat="48.85737" lon="2.34734">
        <ele>99</ele>
        <time>2015-01-19T19:19:45.054Z</time>
      </trkpt>
      <trkpt lat="48.85737" lon="2.34734">
        <ele>99.2</ele>
        <time>2015-01-19T19:19:46.093Z</time>
      </trkpt>
      <trkpt lat="48.85743" lon="2.34723">
        <ele>93.9</ele>
        <time>2015-01-19T19:21:42.079Z</time>
      </trkpt>
      <trkpt lat="48.85743" lon="2.34721">
        <ele>93.8</ele>
        <time>2015-01-19T19:21:43.138Z</time>
      </trkpt>
      <trkpt lat="48.85751" lon="2.34717">
        <ele>94.8</ele>
        <time>2015-01-19T19:21:51.053Z</time>
      </trkpt>
      <trkpt lat="48.85752" lon="2.34718">
        <ele>94.9</ele>
        <time>2015-01-19T19:21:52.071Z</time>
      </trkpt>
      <trkpt lat="48.85758" lon="2.34724">
        <ele>94.5</ele>
        <time>2015-01-19T19:21:56.182Z</time>
      </trkpt>
      <trkpt lat="48.85761" lon="2.34725">
        <ele>93.9</ele>
        <time>2015-01-19T19:21:57.088Z</time>
      </trkpt>
      <trkpt lat="48.85769" lon="2.34723">
        <ele>91.9</ele>
        <time>2015-01-19T19:21:59.169Z</time>
      </trkpt>
      <trkpt lat="48.85774" lon="2.34722">
        <ele>90.8</ele>
        <time>2015-01-19T19:22:00.155Z</time>
      </trkpt>
      <trkpt lat="48.8578" lon="2.34719">
        <ele>90.4</ele>
        <time>2015-01-19T19:22:02.110Z</time>
      </trkpt>
      <trkpt lat="48.85783" lon="2.34717">
        <ele>90.3</ele>
        <time>2015-01-19T19:22:03.125Z</time>
      </trkpt>
      <trkpt lat="48.85791" lon="2.34711">
        <ele>89.9</ele>
        <time>2015-01-19T19:22:06.133Z</time>
      </trkpt>
      <trkpt lat="48.85792" lon="2.34708">
        <ele>90</ele>
        <time>2015-01-19T19:22:07.126Z</time>
      </trkpt>
      <trkpt lat="48.85796" lon="2.347">
        <ele>90.4</ele>
        <time>2015-01-19T19:22:09.067Z</time>
      </trkpt>
      <trkpt lat="48.85798" lon="2.34695">
        <ele>90.5</ele>
        <time>2015-01-19T19:22:10.090Z</time>
      </trkpt>
      <trkpt lat="48.858" lon="2.34684">
        <ele>90.9</ele>
        <time>2015-01-19T19:22:12.075Z</time>
      </trkpt>
      <trkpt lat="48.85802" lon="2.34678">
        <ele>91.3</ele>
        <time>2015-01-19T19:22:13.129Z</time>
      </trkpt>
      <trkpt lat="48.85805" lon="2.3467">
        <ele>91.5</ele>
        <time>2015-01-19T19:22:15.165Z</time>
      </trkpt>
      <trkpt lat="48.85807" lon="2.34667">
        <ele>91.5</ele>
        <time>2015-01-19T19:22:16.071Z</time>
      </trkpt>
      <trkpt lat="48.85811" lon="2.3466">
        <ele>91</ele>
        <time>2015-01-19T19:22:18.158Z</time>
      </trkpt>
      <trkpt lat="48.85812" lon="2.34653">
        <ele>90.2</ele>
        <time>2015-01-19T19:22:19.168Z</time>
      </trkpt>
      <trkpt lat="48.85816" lon="2.34642">
        <ele>89.9</ele>
        <time>2015-01-19T19:22:21.087Z</time>
      </trkpt>
      <trkpt lat="48.85819" lon="2.34637">
        <ele>90.2</ele>
        <time>2015-01-19T19:22:22.155Z</time>
      </trkpt>
      <trkpt lat="48.85823" lon="2.34627">
        <ele>90.7</ele>
        <time>2015-01-19T19:22:24.152Z</time>
      </trkpt>
      <trkpt lat="48.85824" lon="2.34623">
        <ele>91</ele>
        <time>2015-01-19T19:22:25.237Z</time>
      </trkpt>
      <trkpt lat="48.85827" lon="2.34613">
        <ele>91.7</ele>
        <time>2015-01-19T19:22:28.092Z</time>
      </trkpt>
      <trkpt lat="48.85828" lon="2.3461">
        <ele>91.8</ele>
        <time>2015-01-19T19:22:29.134Z</time>
      </trkpt>
      <trkpt lat="48.85834" lon="2.34605">
        <ele>91.8</ele>
        <time>2015-01-19T19:22:33.096Z</time>
      </trkpt>
      <trkpt lat="48.85837" lon="2.34606">
        <ele>91.8</ele>
        <time>2015-01-19T19:22:34.154Z</time>
      </trkpt>
      <trkpt lat="48.85844" lon="2.34606">
        <ele>91.9</ele>
        <time>2015-01-19T19:22:36.057Z</time>
      </trkpt>
      <trkpt lat="48.85848" lon="2.34605">
        <ele>91.9</ele>
        <time>2015-01-19T19:22:37.095Z</time>
      </trkpt>
      <trkpt lat="48.85855" lon="2.34605">
        <ele>91.9</ele>
        <time>2015-01-19T19:22:40.143Z</time>
      </trkpt>
      <trkpt lat="48.85857" lon="2.34605">
        <ele>92.1</ele>
        <time>2015-01-19T19:22:41.062Z</time>
      </trkpt>
      <trkpt lat="48.85865" lon="2.34602">
        <ele>92.6</ele>
        <time>2015-01-19T19:22:44.136Z</time>
      </trkpt>
      <trkpt lat="48.85868" lon="2.34598">
        <ele>92.7</ele>
        <time>2015-01-19T19:22:45.056Z</time>
      </trkpt>
      <trkpt lat="48.85902" lon="2.34552">
        <ele>93.6</ele>
        <time>2015-01-19T19:22:58.166Z</time>
      </trkpt>
      <trkpt lat="48.85904" lon="2.3454">
        <ele>93.7</ele>
        <time>2015-01-19T19:23:01.124Z</time>
      </trkpt>
      <trkpt lat="48.85908" lon="2.34535">
        <ele>94.3</ele>
        <time>2015-01-19T19:23:02.135Z</time>
      </trkpt>
      <trkpt lat="48.85914" lon="2.34529">
        <ele>93.5</ele>
        <time>2015-01-19T19:23:09.117Z</time>
      </trkpt>
      <trkpt lat="48.85918" lon="2.3453">
        <ele>92.6</ele>
        <time>2015-01-19T19:23:10.123Z</time>
      </trkpt>
      <trkpt lat="48.85926" lon="2.34529">
        <ele>89.9</ele>
        <time>2015-01-19T19:23:12.067Z</time>
      </trkpt>
      <trkpt lat="48.85931" lon="2.34528">
        <ele>87</ele>
        <time>2015-01-19T19:23:13.212Z</time>
      </trkpt>
      <trkpt lat="48.85937" lon="2.34531">
        <ele>83.4</ele>
        <time>2015-01-19T19:23:14.064Z</time>
      </trkpt>
      <trkpt lat="48.85941" lon="2.34534">
        <ele>80.9</ele>
        <time>2015-01-19T19:23:15.059Z</time>
      </trkpt>
      <trkpt lat="48.85946" lon="2.34527">
        <ele>79</ele>
        <time>2015-01-19T19:23:18.078Z</time>
      </trkpt>
      <trkpt lat="48.85949" lon="2.34523">
        <ele>77.1</ele>
        <time>2015-01-19T19:23:19.103Z</time>
      </trkpt>
      <trkpt lat="48.85952" lon="2.34512">
        <ele>84.7</ele>
        <time>2015-01-19T19:23:25.137Z</time>
      </trkpt>
      <trkpt lat="48.85953" lon="2.34509">
        <ele>85.8</ele>
        <time>2015-01-19T19:23:26.070Z</time>
      </trkpt>
      <trkpt lat="48.85953" lon="2.34507">
        <ele>88.2</ele>
        <time>2015-01-19T19:23:27.094Z</time>
      </trkpt>
      <trkpt lat="48.85954" lon="2.34508">
        <ele>89.2</ele>
        <time>2015-01-19T19:23:28.108Z</time>
      </trkpt>
      <trkpt lat="48.85955" lon="2.34509">
        <ele>89.6</ele>
        <time>2015-01-19T19:23:34.098Z</time>
      </trkpt>
      <trkpt lat="48.85958" lon="2.34511">
        <ele>91.5</ele>
        <time>2015-01-19T19:23:35.140Z</time>
      </trkpt>
      <trkpt lat="48.85959" lon="2.34512">
        <ele>92.8</ele>
        <time>2015-01-19T19:23:36.164Z</time>
      </trkpt>
      <trkpt lat="48.85958" lon="2.34512">
        <ele>93.8</ele>
        <time>2015-01-19T19:23:37.169Z</time>
      </trkpt>
      <trkpt lat="48.85958" lon="2.34516">
        <ele>95.7</ele>
        <time>2015-01-19T19:23:41.073Z</time>
      </trkpt>
      <trkpt lat="48.85959" lon="2.34516">
        <ele>95.8</ele>
        <time>2015-01-19T19:23:42.178Z</time>
      </trkpt>
      <trkpt lat="48.85959" lon="2.34517">
        <ele>96.1</ele>
        <time>2015-01-19T19:23:46.072Z</time>
      </trkpt>
      <trkpt lat="48.85959" lon="2.34518">
        <ele>96.3</ele>
        <time>2015-01-19T19:23:47.161Z</time>
      </trkpt>
      <trkpt lat="48.85959" lon="2.34521">
        <ele>99.1</ele>
        <time>2015-01-19T19:23:58.140Z</time>
      </trkpt>
      <trkpt lat="48.85961" lon="2.3452">
        <ele>98.7</ele>
        <time>2015-01-19T19:23:59.152Z</time>
      </trkpt>
      <trkpt lat="48.85963" lon="2.34519">
        <ele>98.2</ele>
        <time>2015-01-19T19:24:00.074Z</time>
      </trkpt>
      <trkpt lat="48.85964" lon="2.34517">
        <ele>97.8</ele>
        <time>2015-01-19T19:24:01.094Z</time>
      </trkpt>
      <trkpt lat="48.85968" lon="2.34509">
        <ele>97.2</ele>
        <time>2015-01-19T19:24:04.122Z</time>
      </trkpt>
      <trkpt lat="48.85969" lon="2.34505">
        <ele>97.7</ele>
        <time>2015-01-19T19:24:05.148Z</time>
      </trkpt>
      <trkpt lat="48.85973" lon="2.34495">
        <ele>98</ele>
        <time>2015-01-19T19:24:08.115Z</time>
      </trkpt>
      <trkpt lat="48.85973" lon="2.3449">
        <ele>97.6</ele>
        <time>2015-01-19T19:24:09.063Z</time>
      </trkpt>
      <trkpt lat="48.85974" lon="2.34478">
        <ele>97.5</ele>
        <time>2015-01-19T19:24:12.076Z</time>
      </trkpt>
      <trkpt lat="48.85976" lon="2.34474">
        <ele>97.7</ele>
        <time>2015-01-19T19:24:13.120Z</time>
      </trkpt>
      <trkpt lat="48.85978" lon="2.34466">
        <ele>97.8</ele>
        <time>2015-01-19T19:24:15.073Z</time>
      </trkpt>
      <trkpt lat="48.85979" lon="2.34459">
        <ele>98.8</ele>
        <time>2015-01-19T19:24:16.116Z</time>
      </trkpt>
      <trkpt lat="48.85979" lon="2.34452">
        <ele>99.3</ele>
        <time>2015-01-19T19:24:17.165Z</time>
      </trkpt>
      <trkpt lat="48.85978" lon="2.34439">
        <ele>100.7</ele>
        <time>2015-01-19T19:24:18.069Z</time>
      </trkpt>
      <trkpt lat="48.85979" lon="2.34425">
        <ele>100.9</ele>
        <time>2015-01-19T19:24:20.158Z</time>
      </trkpt>
      <trkpt lat="48.8598" lon="2.3442">
        <ele>101.5</ele>
        <time>2015-01-19T19:24:21.078Z</time>
      </trkpt>
      <trkpt lat="48.85985" lon="2.34412">
        <ele>102.9</ele>
        <time>2015-01-19T19:24:24.146Z</time>
      </trkpt>
      <trkpt lat="48.85987" lon="2.3441">
        <ele>103.5</ele>
        <time>2015-01-19T19:24:25.532Z</time>
      </trkpt>
      <trkpt lat="48.85988" lon="2.344">
        <ele>104.2</ele>
        <time>2015-01-19T19:24:27.148Z</time>
      </trkpt>
      <trkpt lat="48.85987" lon="2.34392">
        <ele>104.5</ele>
        <time>2015-01-19T19:24:28.163Z</time>
      </trkpt>
      <trkpt lat="48.85989" lon="2.34381">
        <ele>105</ele>
        <time>2015-01-19T19:24:30.072Z</time>
      </trkpt>
      <trkpt lat="48.85991" lon="2.34375">
        <ele>105.1</ele>
        <time>2015-01-19T19:24:31.122Z</time>
      </trkpt>
      <trkpt lat="48.85994" lon="2.34363">
        <ele>104.7</ele>
        <time>2015-01-19T19:24:33.065Z</time>
      </trkpt>
      <trkpt lat="48.85995" lon="2.34356">
        <ele>104.6</ele>
        <time>2015-01-19T19:24:34.073Z</time>
      </trkpt>
      <trkpt lat="48.85999" lon="2.34344">
        <ele>104.4</ele>
        <time>2015-01-19T19:24:36.139Z</time>
      </trkpt>
      <trkpt lat="48.86" lon="2.34338">
        <ele>104.5</ele>
        <time>2015-01-19T19:24:37.156Z</time>
      </trkpt>
      <trkpt lat="48.86005" lon="2.34328">
        <ele>104.6</ele>
        <time>2015-01-19T19:24:39.090Z</time>
      </trkpt>
      <trkpt lat="48.86007" lon="2.34323">
        <ele>104.4</ele>
        <time>2015-01-19T19:24:40.156Z</time>
      </trkpt>
      <trkpt lat="48.86009" lon="2.34317">
        <ele>104.7</ele>
        <time>2015-01-19T19:24:41.068Z</time>
      </trkpt>
      <trkpt lat="48.86011" lon="2.3431">
        <ele>104.6</ele>
        <time>2015-01-19T19:24:42.067Z</time>
      </trkpt>
      <trkpt lat="48.86013" lon="2.34303">
        <ele>104.8</ele>
        <time>2015-01-19T19:24:43.123Z</time>
      </trkpt>
      <trkpt lat="48.86015" lon="2.34296">
        <ele>105.1</ele>
        <time>2015-01-19T19:24:44.134Z</time>
      </trkpt>
      <trkpt lat="48.86018" lon="2.34283">
        <ele>105.8</ele>
        <time>2015-01-19T19:24:46.172Z</time>
      </trkpt>
      <trkpt lat="48.86019" lon="2.34277">
        <ele>105.9</ele>
        <time>2015-01-19T19:24:47.090Z</time>
      </trkpt>
      <trkpt lat="48.86023" lon="2.34268">
        <ele>105.7</ele>
        <time>2015-01-19T19:24:49.108Z</time>
      </trkpt>
      <trkpt lat="48.86025" lon="2.34262">
        <ele>105.2</ele>
        <time>2015-01-19T19:24:50.118Z</time>
      </trkpt>
      <trkpt lat="48.86029" lon="2.34251">
        <ele>104.1</ele>
        <time>2015-01-19T19:24:52.087Z</time>
      </trkpt>
      <trkpt lat="48.86031" lon="2.34246">
        <ele>103.6</ele>
        <time>2015-01-19T19:24:53.099Z</time>
      </trkpt>
      <trkpt lat="48.86034" lon="2.34234">
        <ele>103.1</ele>
        <time>2015-01-19T19:24:55.128Z</time>
      </trkpt>
      <trkpt lat="48.86036" lon="2.34229">
        <ele>103.1</ele>
        <time>2015-01-19T19:24:56.133Z</time>
      </trkpt>
      <trkpt lat="48.8604" lon="2.34218">
        <ele>103.1</ele>
        <time>2015-01-19T19:24:58.080Z</time>
      </trkpt>
      <trkpt lat="48.86041" lon="2.34212">
        <ele>103</ele>
        <time>2015-01-19T19:24:59.121Z</time>
      </trkpt>
      <trkpt lat="48.86042" lon="2.34205">
        <ele>103.2</ele>
        <time>2015-01-19T19:25:00.177Z</time>
      </trkpt>
      <trkpt lat="48.86044" lon="2.34199">
        <ele>103.2</ele>
        <time>2015-01-19T19:25:01.175Z</time>
      </trkpt>
      <trkpt lat="48.86046" lon="2.34192">
        <ele>103.4</ele>
        <time>2015-01-19T19:25:02.100Z</time>
      </trkpt>
      <trkpt lat="48.86049" lon="2.34186">
        <ele>103.5</ele>
        <time>2015-01-19T19:25:03.108Z</time>
      </trkpt>
      <trkpt lat="48.86053" lon="2.34176">
        <ele>103.6</ele>
        <time>2015-01-19T19:25:05.065Z</time>
      </trkpt>
      <trkpt lat="48.86055" lon="2.3417">
        <ele>103.5</ele>
        <time>2015-01-19T19:25:06.064Z</time>
      </trkpt>
      <trkpt lat="48.86057" lon="2.34164">
        <ele>103.5</ele>
        <time>2015-01-19T19:25:07.094Z</time>
      </trkpt>
      <trkpt lat="48.86058" lon="2.34156">
        <ele>103.5</ele>
        <time>2015-01-19T19:25:08.127Z</time>
      </trkpt>
      <trkpt lat="48.8606" lon="2.34148">
        <ele>103.4</ele>
        <time>2015-01-19T19:25:09.167Z</time>
      </trkpt>
      <trkpt lat="48.86061" lon="2.34141">
        <ele>103.2</ele>
        <time>2015-01-19T19:25:10.071Z</time>
      </trkpt>
      <trkpt lat="48.86062" lon="2.34132">
        <ele>103.1</ele>
        <time>2015-01-19T19:25:11.125Z</time>
      </trkpt>
      <trkpt lat="48.86062" lon="2.34123">
        <ele>103</ele>
        <time>2015-01-19T19:25:12.124Z</time>
      </trkpt>
      <trkpt lat="48.86065" lon="2.34111">
        <ele>103.1</ele>
        <time>2015-01-19T19:25:14.052Z</time>
      </trkpt>
      <trkpt lat="48.86067" lon="2.34105">
        <ele>103.3</ele>
        <time>2015-01-19T19:25:15.068Z</time>
      </trkpt>
      <trkpt lat="48.86069" lon="2.34095">
        <ele>103.3</ele>
        <time>2015-01-19T19:25:17.118Z</time>
      </trkpt>
      <trkpt lat="48.86069" lon="2.3409">
        <ele>103.3</ele>
        <time>2015-01-19T19:25:18.126Z</time>
      </trkpt>
      <trkpt lat="48.86073" lon="2.34078">
        <ele>103.1</ele>
        <time>2015-01-19T19:25:21.071Z</time>
      </trkpt>
      <trkpt lat="48.86075" lon="2.34074">
        <ele>102.9</ele>
        <time>2015-01-19T19:25:22.095Z</time>
      </trkpt>
      <trkpt lat="48.86083" lon="2.34066">
        <ele>102.9</ele>
        <time>2015-01-19T19:25:24.130Z</time>
      </trkpt>
      <trkpt lat="48.86087" lon="2.34062">
        <ele>103</ele>
        <time>2015-01-19T19:25:25.195Z</time>
      </trkpt>
      <trkpt lat="48.86091" lon="2.34056">
        <ele>103.1</ele>
        <time>2015-01-19T19:25:26.069Z</time>
      </trkpt>
      <trkpt lat="48.86094" lon="2.34051">
        <ele>103</ele>
        <time>2015-01-19T19:25:27.075Z</time>
      </trkpt>
      <trkpt lat="48.86098" lon="2.34044">
        <ele>102.9</ele>
        <time>2015-01-19T19:25:28.087Z</time>
      </trkpt>
      <trkpt lat="48.86101" lon="2.34038">
        <ele>102.8</ele>
        <time>2015-01-19T19:25:29.095Z</time>
      </trkpt>
      <trkpt lat="48.86103" lon="2.34032">
        <ele>101.9</ele>
        <time>2015-01-19T19:25:30.098Z</time>
      </trkpt>
      <trkpt lat="48.86106" lon="2.34025">
        <ele>101.4</ele>
        <time>2015-01-19T19:25:31.112Z</time>
      </trkpt>
      <trkpt lat="48.86109" lon="2.34018">
        <ele>101.2</ele>
        <time>2015-01-19T19:25:32.118Z</time>
      </trkpt>
      <trkpt lat="48.86112" lon="2.34011">
        <ele>100.7</ele>
        <time>2015-01-19T19:25:33.123Z</time>
      </trkpt>
      <trkpt lat="48.86115" lon="2.34004">
        <ele>100.2</ele>
        <time>2015-01-19T19:25:34.134Z</time>
      </trkpt>
      <trkpt lat="48.86118" lon="2.33997">
        <ele>100.2</ele>
        <time>2015-01-19T19:25:35.146Z</time>
      </trkpt>
      <trkpt lat="48.8612" lon="2.3399">
        <ele>100</ele>
        <time>2015-01-19T19:25:36.153Z</time>
      </trkpt>
      <trkpt lat="48.86123" lon="2.33983">
        <ele>99.9</ele>
        <time>2015-01-19T19:25:37.164Z</time>
      </trkpt>
      <trkpt lat="48.86125" lon="2.33976">
        <ele>99.7</ele>
        <time>2015-01-19T19:25:38.083Z</time>
      </trkpt>
      <trkpt lat="48.86128" lon="2.33969">
        <ele>99.6</ele>
        <time>2015-01-19T19:25:39.088Z</time>
      </trkpt>
      <trkpt lat="48.8613" lon="2.33961">
        <ele>99.4</ele>
        <time>2015-01-19T19:25:40.121Z</time>
      </trkpt>
      <trkpt lat="48.86132" lon="2.33953">
        <ele>99.3</ele>
        <time>2015-01-19T19:25:41.140Z</time>
      </trkpt>
      <trkpt lat="48.86134" lon="2.33947">
        <ele>99</ele>
        <time>2015-01-19T19:25:42.064Z</time>
      </trkpt>
      <trkpt lat="48.86136" lon="2.3394">
        <ele>98.8</ele>
        <time>2015-01-19T19:25:43.119Z</time>
      </trkpt>
      <trkpt lat="48.86137" lon="2.33933">
        <ele>98.6</ele>
        <time>2015-01-19T19:25:44.116Z</time>
      </trkpt>
      <trkpt lat="48.86139" lon="2.33927">
        <ele>98.7</ele>
        <time>2015-01-19T19:25:45.133Z</time>
      </trkpt>
      <trkpt lat="48.86141" lon="2.33915">
        <ele>99</ele>
        <time>2015-01-19T19:25:47.148Z</time>
      </trkpt>
      <trkpt lat="48.86142" lon="2.33909">
        <ele>99</ele>
        <time>2015-01-19T19:25:48.159Z</time>
      </trkpt>
      <trkpt lat="48.86145" lon="2.33898">
        <ele>98.4</ele>
        <time>2015-01-19T19:25:50.044Z</time>
      </trkpt>
      <trkpt lat="48.86147" lon="2.33893">
        <ele>98.1</ele>
        <time>2015-01-19T19:25:51.052Z</time>
      </trkpt>
      <trkpt lat="48.86151" lon="2.33882">
        <ele>97.8</ele>
        <time>2015-01-19T19:25:53.067Z</time>
      </trkpt>
      <trkpt lat="48.86153" lon="2.33875">
        <ele>97.8</ele>
        <time>2015-01-19T19:25:54.082Z</time>
      </trkpt>
      <trkpt lat="48.86155" lon="2.33868">
        <ele>97.9</ele>
        <time>2015-01-19T19:25:55.082Z</time>
      </trkpt>
      <trkpt lat="48.86157" lon="2.33861">
        <ele>97.8</ele>
        <time>2015-01-19T19:25:56.086Z</time>
      </trkpt>
      <trkpt lat="48.86159" lon="2.33854">
        <ele>97.8</ele>
        <time>2015-01-19T19:25:57.097Z</time>
      </trkpt>
      <trkpt lat="48.86161" lon="2.33847">
        <ele>97.9</ele>
        <time>2015-01-19T19:25:58.110Z</time>
      </trkpt>
      <trkpt lat="48.86163" lon="2.3384">
        <ele>98.2</ele>
        <time>2015-01-19T19:26:00.061Z</time>
      </trkpt>
      <trkpt lat="48.86165" lon="2.33834">
        <ele>97.9</ele>
        <time>2015-01-19T19:26:00.174Z</time>
      </trkpt>
      <trkpt lat="48.86167" lon="2.33827">
        <ele>98</ele>
        <time>2015-01-19T19:26:01.182Z</time>
      </trkpt>
      <trkpt lat="48.86169" lon="2.3382">
        <ele>98.2</ele>
        <time>2015-01-19T19:26:02.189Z</time>
      </trkpt>
      <trkpt lat="48.86172" lon="2.33807">
        <ele>98.7</ele>
        <time>2015-01-19T19:26:04.060Z</time>
      </trkpt>
      <trkpt lat="48.86174" lon="2.338">
        <ele>99</ele>
        <time>2015-01-19T19:26:05.075Z</time>
      </trkpt>
      <trkpt lat="48.86176" lon="2.33793">
        <ele>99.2</ele>
        <time>2015-01-19T19:26:06.084Z</time>
      </trkpt>
      <trkpt lat="48.86178" lon="2.33786">
        <ele>99.2</ele>
        <time>2015-01-19T19:26:07.101Z</time>
      </trkpt>
      <trkpt lat="48.8618" lon="2.33779">
        <ele>99.4</ele>
        <time>2015-01-19T19:26:08.118Z</time>
      </trkpt>
      <trkpt lat="48.86182" lon="2.33772">
        <ele>99.4</ele>
        <time>2015-01-19T19:26:09.127Z</time>
      </trkpt>
      <trkpt lat="48.86183" lon="2.33765">
        <ele>99.4</ele>
        <time>2015-01-19T19:26:10.143Z</time>
      </trkpt>
      <trkpt lat="48.86185" lon="2.33758">
        <ele>99.5</ele>
        <time>2015-01-19T19:26:11.052Z</time>
      </trkpt>
      <trkpt lat="48.86187" lon="2.33752">
        <ele>99.4</ele>
        <time>2015-01-19T19:26:12.060Z</time>
      </trkpt>
      <trkpt lat="48.86189" lon="2.33745">
        <ele>99.4</ele>
        <time>2015-01-19T19:26:13.105Z</time>
      </trkpt>
      <trkpt lat="48.86192" lon="2.33738">
        <ele>99.4</ele>
        <time>2015-01-19T19:26:14.116Z</time>
      </trkpt>
      <trkpt lat="48.86194" lon="2.33732">
        <ele>99.3</ele>
        <time>2015-01-19T19:26:15.071Z</time>
      </trkpt>
      <trkpt lat="48.86196" lon="2.33725">
        <ele>99.3</ele>
        <time>2015-01-19T19:26:16.118Z</time>
      </trkpt>
      <trkpt lat="48.86199" lon="2.33719">
        <ele>99.2</ele>
        <time>2015-01-19T19:26:17.146Z</time>
      </trkpt>
      <trkpt lat="48.86202" lon="2.33713">
        <ele>99</ele>
        <time>2015-01-19T19:26:18.054Z</time>
      </trkpt>
      <trkpt lat="48.86204" lon="2.33706">
        <ele>98.8</ele>
        <time>2015-01-19T19:26:19.089Z</time>
      </trkpt>
      <trkpt lat="48.86206" lon="2.337">
        <ele>98.6</ele>
        <time>2015-01-19T19:26:20.114Z</time>
      </trkpt>
      <trkpt lat="48.8621" lon="2.33694">
        <ele>97.1</ele>
        <time>2015-01-19T19:26:21.129Z</time>
      </trkpt>
      <trkpt lat="48.86213" lon="2.33688">
        <ele>96.4</ele>
        <time>2015-01-19T19:26:22.150Z</time>
      </trkpt>
      <trkpt lat="48.86215" lon="2.33681">
        <ele>96</ele>
        <time>2015-01-19T19:26:23.056Z</time>
      </trkpt>
      <trkpt lat="48.86219" lon="2.33669">
        <ele>95.9</ele>
        <time>2015-01-19T19:26:25.104Z</time>
      </trkpt>
      <trkpt lat="48.8622" lon="2.33663">
        <ele>96</ele>
        <time>2015-01-19T19:26:26.129Z</time>
      </trkpt>
      <trkpt lat="48.86225" lon="2.33654">
        <ele>95.8</ele>
        <time>2015-01-19T19:26:28.059Z</time>
      </trkpt>
      <trkpt lat="48.86227" lon="2.33649">
        <ele>95.8</ele>
        <time>2015-01-19T19:26:29.091Z</time>
      </trkpt>
      <trkpt lat="48.86232" lon="2.3364">
        <ele>95.9</ele>
        <time>2015-01-19T19:26:31.129Z</time>
      </trkpt>
      <trkpt lat="48.86234" lon="2.33634">
        <ele>96</ele>
        <time>2015-01-19T19:26:32.133Z</time>
      </trkpt>
      <trkpt lat="48.86238" lon="2.33623">
        <ele>96.3</ele>
        <time>2015-01-19T19:26:34.146Z</time>
      </trkpt>
      <trkpt lat="48.8624" lon="2.33618">
        <ele>96.4</ele>
        <time>2015-01-19T19:26:35.096Z</time>
      </trkpt>
      <trkpt lat="48.86246" lon="2.33609">
        <ele>96.6</ele>
        <time>2015-01-19T19:26:37.169Z</time>
      </trkpt>
      <trkpt lat="48.86248" lon="2.33605">
        <ele>96.7</ele>
        <time>2015-01-19T19:26:38.093Z</time>
      </trkpt>
      <trkpt lat="48.86252" lon="2.33595">
        <ele>97</ele>
        <time>2015-01-19T19:26:40.097Z</time>
      </trkpt>
      <trkpt lat="48.86254" lon="2.3359">
        <ele>97.1</ele>
        <time>2015-01-19T19:26:41.114Z</time>
      </trkpt>
      <trkpt lat="48.86257" lon="2.3358">
        <ele>97.3</ele>
        <time>2015-01-19T19:26:43.150Z</time>
      </trkpt>
      <trkpt lat="48.86259" lon="2.33576">
        <ele>97.4</ele>
        <time>2015-01-19T19:26:44.068Z</time>
      </trkpt>
      <trkpt lat="48.86262" lon="2.33566">
        <ele>97.7</ele>
        <time>2015-01-19T19:26:46.712Z</time>
      </trkpt>
      <trkpt lat="48.86264" lon="2.3356">
        <ele>97.9</ele>
        <time>2015-01-19T19:26:47.074Z</time>
      </trkpt>
      <trkpt lat="48.86267" lon="2.33547">
        <ele>98</ele>
        <time>2015-01-19T19:26:49.140Z</time>
      </trkpt>
      <trkpt lat="48.86268" lon="2.33541">
        <ele>97.9</ele>
        <time>2015-01-19T19:26:50.273Z</time>
      </trkpt>
      <trkpt lat="48.8627" lon="2.33533">
        <ele>97.7</ele>
        <time>2015-01-19T19:26:51.834Z</time>
      </trkpt>
      <trkpt lat="48.86271" lon="2.33526">
        <ele>97.5</ele>
        <time>2015-01-19T19:26:52.101Z</time>
      </trkpt>
      <trkpt lat="48.86273" lon="2.33519">
        <ele>97.2</ele>
        <time>2015-01-19T19:26:53.108Z</time>
      </trkpt>
      <trkpt lat="48.86275" lon="2.33513">
        <ele>97.2</ele>
        <time>2015-01-19T19:26:54.114Z</time>
      </trkpt>
      <trkpt lat="48.86277" lon="2.33507">
        <ele>97.1</ele>
        <time>2015-01-19T19:26:55.129Z</time>
      </trkpt>
      <trkpt lat="48.86278" lon="2.335">
        <ele>97.1</ele>
        <time>2015-01-19T19:26:56.147Z</time>
      </trkpt>
      <trkpt lat="48.86281" lon="2.33493">
        <ele>97</ele>
        <time>2015-01-19T19:26:57.093Z</time>
      </trkpt>
      <trkpt lat="48.86283" lon="2.33487">
        <ele>96.9</ele>
        <time>2015-01-19T19:26:58.103Z</time>
      </trkpt>
      <trkpt lat="48.86285" lon="2.3348">
        <ele>96.8</ele>
        <time>2015-01-19T19:26:59.075Z</time>
      </trkpt>
      <trkpt lat="48.86288" lon="2.33474">
        <ele>96.8</ele>
        <time>2015-01-19T19:27:00.163Z</time>
      </trkpt>
      <trkpt lat="48.8629" lon="2.33468">
        <ele>96.8</ele>
        <time>2015-01-19T19:27:01.192Z</time>
      </trkpt>
      <trkpt lat="48.86292" lon="2.33462">
        <ele>96.8</ele>
        <time>2015-01-19T19:27:02.105Z</time>
      </trkpt>
      <trkpt lat="48.86294" lon="2.33455">
        <ele>96.8</ele>
        <time>2015-01-19T19:27:03.838Z</time>
      </trkpt>
      <trkpt lat="48.86297" lon="2.33447">
        <ele>96.8</ele>
        <time>2015-01-19T19:27:04.065Z</time>
      </trkpt>
      <trkpt lat="48.863" lon="2.33441">
        <ele>96.9</ele>
        <time>2015-01-19T19:27:05.073Z</time>
      </trkpt>
      <trkpt lat="48.86302" lon="2.33435">
        <ele>97.1</ele>
        <time>2015-01-19T19:27:06.082Z</time>
      </trkpt>
      <trkpt lat="48.86304" lon="2.33428">
        <ele>97</ele>
        <time>2015-01-19T19:27:07.112Z</time>
      </trkpt>
      <trkpt lat="48.86307" lon="2.33422">
        <ele>96.9</ele>
        <time>2015-01-19T19:27:08.124Z</time>
      </trkpt>
      <trkpt lat="48.86311" lon="2.3341">
        <ele>97</ele>
        <time>2015-01-19T19:27:10.041Z</time>
      </trkpt>
      <trkpt lat="48.86313" lon="2.33404">
        <ele>97</ele>
        <time>2015-01-19T19:27:11.063Z</time>
      </trkpt>
      <trkpt lat="48.86316" lon="2.33393">
        <ele>96.8</ele>
        <time>2015-01-19T19:27:13.112Z</time>
      </trkpt>
      <trkpt lat="48.86318" lon="2.33387">
        <ele>96.7</ele>
        <time>2015-01-19T19:27:14.116Z</time>
      </trkpt>
      <trkpt lat="48.86322" lon="2.33377">
        <ele>96.7</ele>
        <time>2015-01-19T19:27:16.051Z</time>
      </trkpt>
      <trkpt lat="48.86324" lon="2.33376">
        <ele>96.5</ele>
        <time>2015-01-19T19:27:17.071Z</time>
      </trkpt>
      <trkpt lat="48.86329" lon="2.33381">
        <ele>96.7</ele>
        <time>2015-01-19T19:27:19.100Z</time>
      </trkpt>
      <trkpt lat="48.86333" lon="2.33384">
        <ele>97.1</ele>
        <time>2015-01-19T19:27:20.108Z</time>
      </trkpt>
      <trkpt lat="48.86337" lon="2.33386">
        <ele>97.5</ele>
        <time>2015-01-19T19:27:21.053Z</time>
      </trkpt>
      <trkpt lat="48.86342" lon="2.33389">
        <ele>98</ele>
        <time>2015-01-19T19:27:22.055Z</time>
      </trkpt>
      <trkpt lat="48.86349" lon="2.33394">
        <ele>98.3</ele>
        <time>2015-01-19T19:27:24.076Z</time>
      </trkpt>
      <trkpt lat="48.86353" lon="2.33395">
        <ele>98.4</ele>
        <time>2015-01-19T19:27:25.137Z</time>
      </trkpt>
      <trkpt lat="48.86358" lon="2.33401">
        <ele>98.8</ele>
        <time>2015-01-19T19:27:27.069Z</time>
      </trkpt>
      <trkpt lat="48.8636" lon="2.33404">
        <ele>98.8</ele>
        <time>2015-01-19T19:27:28.975Z</time>
      </trkpt>
      <trkpt lat="48.86366" lon="2.33407">
        <ele>98.9</ele>
        <time>2015-01-19T19:27:30.907Z</time>
      </trkpt>
      <trkpt lat="48.86371" lon="2.33407">
        <ele>98.1</ele>
        <time>2015-01-19T19:27:31.952Z</time>
      </trkpt>
      <trkpt lat="48.86378" lon="2.3341">
        <ele>97.6</ele>
        <time>2015-01-19T19:27:33.964Z</time>
      </trkpt>
      <trkpt lat="48.86382" lon="2.33414">
        <ele>97.8</ele>
        <time>2015-01-19T19:27:34.974Z</time>
      </trkpt>
      <trkpt lat="48.86388" lon="2.3342">
        <ele>98.8</ele>
        <time>2015-01-19T19:27:36.912Z</time>
      </trkpt>
      <trkpt lat="48.86392" lon="2.33422">
        <ele>99.1</ele>
        <time>2015-01-19T19:27:37.959Z</time>
      </trkpt>
      <trkpt lat="48.86399" lon="2.33426">
        <ele>99.5</ele>
        <time>2015-01-19T19:27:39.979Z</time>
      </trkpt>
      <trkpt lat="48.86402" lon="2.33426">
        <ele>99.7</ele>
        <time>2015-01-19T19:27:40.998Z</time>
      </trkpt>
      <trkpt lat="48.86407" lon="2.33425">
        <ele>100.1</ele>
        <time>2015-01-19T19:27:41.932Z</time>
      </trkpt>
      <trkpt lat="48.86411" lon="2.33423">
        <ele>100.5</ele>
        <time>2015-01-19T19:27:42.903Z</time>
      </trkpt>
      <trkpt lat="48.86419" lon="2.33417">
        <ele>101</ele>
        <time>2015-01-19T19:27:44.917Z</time>
      </trkpt>
      <trkpt lat="48.86423" lon="2.33414">
        <ele>101.1</ele>
        <time>2015-01-19T19:27:45.905Z</time>
      </trkpt>
      <trkpt lat="48.8643" lon="2.33409">
        <ele>101.5</ele>
        <time>2015-01-19T19:27:47.925Z</time>
      </trkpt>
      <trkpt lat="48.86433" lon="2.33407">
        <ele>101.5</ele>
        <time>2015-01-19T19:27:48.914Z</time>
      </trkpt>
      <trkpt lat="48.86438" lon="2.33402">
        <ele>101.8</ele>
        <time>2015-01-19T19:27:51.889Z</time>
      </trkpt>
      <trkpt lat="48.86441" lon="2.334">
        <ele>101.9</ele>
        <time>2015-01-19T19:27:52.977Z</time>
      </trkpt>
      <trkpt lat="48.8645" lon="2.334">
        <ele>102.1</ele>
        <time>2015-01-19T19:27:54.982Z</time>
      </trkpt>
      <trkpt lat="48.86454" lon="2.334">
        <ele>102.2</ele>
        <time>2015-01-19T19:27:55.998Z</time>
      </trkpt>
      <trkpt lat="48.86458" lon="2.334">
        <ele>102.3</ele>
        <time>2015-01-19T19:27:56.955Z</time>
      </trkpt>
      <trkpt lat="48.86463" lon="2.334">
        <ele>102.4</ele>
        <time>2015-01-19T19:27:57.990Z</time>
      </trkpt>
      <trkpt lat="48.86471" lon="2.33401">
        <ele>102.4</ele>
        <time>2015-01-19T19:27:59.931Z</time>
      </trkpt>
      <trkpt lat="48.86475" lon="2.33401">
        <ele>102.4</ele>
        <time>2015-01-19T19:28:00.948Z</time>
      </trkpt>
      <trkpt lat="48.86483" lon="2.33402">
        <ele>102.3</ele>
        <time>2015-01-19T19:28:02.923Z</time>
      </trkpt>
      <trkpt lat="48.86487" lon="2.33401">
        <ele>102.3</ele>
        <time>2015-01-19T19:28:03.951Z</time>
      </trkpt>
      <trkpt lat="48.86495" lon="2.334">
        <ele>102.3</ele>
        <time>2015-01-19T19:28:05.898Z</time>
      </trkpt>
      <trkpt lat="48.86498" lon="2.33398">
        <ele>102.4</ele>
        <time>2015-01-19T19:28:06.923Z</time>
      </trkpt>
      <trkpt lat="48.86504" lon="2.33396">
        <ele>102.6</ele>
        <time>2015-01-19T19:28:08.954Z</time>
      </trkpt>
      <trkpt lat="48.86508" lon="2.33396">
        <ele>102.7</ele>
        <time>2015-01-19T19:28:09.962Z</time>
      </trkpt>
      <trkpt lat="48.86514" lon="2.33394">
        <ele>102.9</ele>
        <time>2015-01-19T19:28:11.890Z</time>
      </trkpt>
      <trkpt lat="48.86517" lon="2.33393">
        <ele>102.9</ele>
        <time>2015-01-19T19:28:12.899Z</time>
      </trkpt>
      <trkpt lat="48.86524" lon="2.33389">
        <ele>103.1</ele>
        <time>2015-01-19T19:28:14.932Z</time>
      </trkpt>
      <trkpt lat="48.86527" lon="2.33384">
        <ele>103.3</ele>
        <time>2015-01-19T19:28:15.949Z</time>
      </trkpt>
      <trkpt lat="48.8653" lon="2.3338">
        <ele>103.5</ele>
        <time>2015-01-19T19:28:16.970Z</time>
      </trkpt>
      <trkpt lat="48.86535" lon="2.33375">
        <ele>103.7</ele>
        <time>2015-01-19T19:28:17.980Z</time>
      </trkpt>
      <trkpt lat="48.86542" lon="2.33367">
        <ele>104</ele>
        <time>2015-01-19T19:28:19.430Z</time>
      </trkpt>
      <trkpt lat="48.86543" lon="2.33362">
        <ele>104</ele>
        <time>2015-01-19T19:28:20.440Z</time>
      </trkpt>
      <trkpt lat="48.86549" lon="2.33357">
        <ele>104.2</ele>
        <time>2015-01-19T19:28:22.455Z</time>
      </trkpt>
      <trkpt lat="48.86552" lon="2.33357">
        <ele>104.3</ele>
        <time>2015-01-19T19:28:23.481Z</time>
      </trkpt>
      <trkpt lat="48.86559" lon="2.33351">
        <ele>106</ele>
        <time>2015-01-19T19:28:25.535Z</time>
      </trkpt>
      <trkpt lat="48.86561" lon="2.33349">
        <ele>106.5</ele>
        <time>2015-01-19T19:28:26.440Z</time>
      </trkpt>
      <trkpt lat="48.86562" lon="2.33347">
        <ele>106.6</ele>
        <time>2015-01-19T19:28:28.430Z</time>
      </trkpt>
      <trkpt lat="48.86562" lon="2.33346">
        <ele>106.9</ele>
        <time>2015-01-19T19:28:29.431Z</time>
      </trkpt>
      <trkpt lat="48.86561" lon="2.33346">
        <ele>107.1</ele>
        <time>2015-01-19T19:28:32.476Z</time>
      </trkpt>
      <trkpt lat="48.8656" lon="2.33347">
        <ele>107</ele>
        <time>2015-01-19T19:28:33.511Z</time>
      </trkpt>
      <trkpt lat="48.86553" lon="2.33339">
        <ele>106.3</ele>
        <time>2015-01-19T19:28:39.489Z</time>
      </trkpt>
      <trkpt lat="48.86553" lon="2.33338">
        <ele>106.5</ele>
        <time>2015-01-19T19:28:40.437Z</time>
      </trkpt>
      <trkpt lat="48.86544" lon="2.33337">
        <ele>108.9</ele>
        <time>2015-01-19T19:28:46.470Z</time>
      </trkpt>
      <trkpt lat="48.86543" lon="2.33336">
        <ele>109</ele>
        <time>2015-01-19T19:28:47.484Z</time>
      </trkpt>
      <trkpt lat="48.86536" lon="2.33328">
        <ele>109</ele>
        <time>2015-01-19T19:28:54.505Z</time>
      </trkpt>
      <trkpt lat="48.86534" lon="2.33326">
        <ele>109</ele>
        <time>2015-01-19T19:28:55.538Z</time>
      </trkpt>
      <trkpt lat="48.86529" lon="2.33316">
        <ele>109.4</ele>
        <time>2015-01-19T19:28:57.437Z</time>
      </trkpt>
      <trkpt lat="48.86527" lon="2.33311">
        <ele>109.4</ele>
        <time>2015-01-19T19:28:58.451Z</time>
      </trkpt>
      <trkpt lat="48.86483" lon="2.33248">
        <ele>105.5</ele>
        <time>2015-01-19T19:29:14.423Z</time>
      </trkpt>
      <trkpt lat="48.86483" lon="2.33234">
        <ele>106.8</ele>
        <time>2015-01-19T19:29:17.528Z</time>
      </trkpt>
      <trkpt lat="48.86485" lon="2.3323">
        <ele>106.9</ele>
        <time>2015-01-19T19:29:18.425Z</time>
      </trkpt>
      <trkpt lat="48.86489" lon="2.3322">
        <ele>106.6</ele>
        <time>2015-01-19T19:29:21.481Z</time>
      </trkpt>
      <trkpt lat="48.86492" lon="2.33214">
        <ele>105.4</ele>
        <time>2015-01-19T19:29:22.488Z</time>
      </trkpt>
      <trkpt lat="48.86492" lon="2.33201">
        <ele>104.7</ele>
        <time>2015-01-19T19:29:24.847Z</time>
      </trkpt>
      <trkpt lat="48.86491" lon="2.33198">
        <ele>104.5</ele>
        <time>2015-01-19T19:29:25.447Z</time>
      </trkpt>
      <trkpt lat="48.86492" lon="2.33189">
        <ele>102.2</ele>
        <time>2015-01-19T19:29:31.456Z</time>
      </trkpt>
      <trkpt lat="48.86494" lon="2.33185">
        <ele>100.8</ele>
        <time>2015-01-19T19:29:32.433Z</time>
      </trkpt>
      <trkpt lat="48.86499" lon="2.33178">
        <ele>98.7</ele>
        <time>2015-01-19T19:29:35.481Z</time>
      </trkpt>
      <trkpt lat="48.865" lon="2.33175">
        <ele>98.1</ele>
        <time>2015-01-19T19:29:36.546Z</time>
      </trkpt>
      <trkpt lat="48.86507" lon="2.33168">
        <ele>98.2</ele>
        <time>2015-01-19T19:29:40.421Z</time>
      </trkpt>
      <trkpt lat="48.86508" lon="2.33167">
        <ele>98.4</ele>
        <time>2015-01-19T19:29:41.421Z</time>
      </trkpt>
      <trkpt lat="48.86513" lon="2.33158">
        <ele>98.2</ele>
        <time>2015-01-19T19:29:45.514Z</time>
      </trkpt>
      <trkpt lat="48.86513" lon="2.33154">
        <ele>97.9</ele>
        <time>2015-01-19T19:29:46.423Z</time>
      </trkpt>
      <trkpt lat="48.86513" lon="2.33154">
        <ele>96.8</ele>
        <time>2015-01-19T19:29:52.514Z</time>
      </trkpt>
      <trkpt lat="48.86513" lon="2.33154">
        <ele>96.9</ele>
        <time>2015-01-19T19:29:53.393Z</time>
      </trkpt>
      <trkpt lat="48.86513" lon="2.33154">
        <ele>96.9</ele>
        <time>2015-01-19T19:29:54.425Z</time>
      </trkpt>
      <trkpt lat="48.86517" lon="2.33153">
        <ele>96.8</ele>
        <time>2015-01-19T19:29:58.415Z</time>
      </trkpt>
      <trkpt lat="48.8656" lon="2.33213">
        <ele>95.9</ele>
        <time>2015-01-19T19:30:17.374Z</time>
      </trkpt>
      <trkpt lat="48.8656" lon="2.33217">
        <ele>95.9</ele>
        <time>2015-01-19T19:30:18.424Z</time>
      </trkpt>
      <trkpt lat="48.86688" lon="2.33304">
        <ele>98.9</ele>
        <time>2015-01-19T19:30:58.460Z</time>
      </trkpt>
      <trkpt lat="48.86695" lon="2.33301">
        <ele>98.6</ele>
        <time>2015-01-19T19:31:00.424Z</time>
      </trkpt>
      <trkpt lat="48.86697" lon="2.333">
        <ele>98.5</ele>
        <time>2015-01-19T19:31:01.455Z</time>
      </trkpt>
      <trkpt lat="48.86705" lon="2.33298">
        <ele>98.3</ele>
        <time>2015-01-19T19:31:03.502Z</time>
      </trkpt>
      <trkpt lat="48.86711" lon="2.33294">
        <ele>97.9</ele>
        <time>2015-01-19T19:31:04.408Z</time>
      </trkpt>
      <trkpt lat="48.86717" lon="2.33287">
        <ele>96.2</ele>
        <time>2015-01-19T19:31:07.457Z</time>
      </trkpt>
      <trkpt lat="48.86719" lon="2.33283">
        <ele>95.5</ele>
        <time>2015-01-19T19:31:08.463Z</time>
      </trkpt>
      <trkpt lat="48.86723" lon="2.33275">
        <ele>95.6</ele>
        <time>2015-01-19T19:31:11.976Z</time>
      </trkpt>
      <trkpt lat="48.86724" lon="2.3327">
        <ele>95.5</ele>
        <time>2015-01-19T19:31:12.471Z</time>
      </trkpt>
      <trkpt lat="48.86723" lon="2.33263">
        <ele>95.6</ele>
        <time>2015-01-19T19:31:13.476Z</time>
      </trkpt>
      <trkpt lat="48.86722" lon="2.33255">
        <ele>96.4</ele>
        <time>2015-01-19T19:31:14.487Z</time>
      </trkpt>
      <trkpt lat="48.86719" lon="2.33246">
        <ele>97.6</ele>
        <time>2015-01-19T19:31:16.420Z</time>
      </trkpt>
      <trkpt lat="48.86716" lon="2.33242">
        <ele>98.2</ele>
        <time>2015-01-19T19:31:17.451Z</time>
      </trkpt>
      <trkpt lat="48.8671" lon="2.33236">
        <ele>99.2</ele>
        <time>2015-01-19T19:31:20.155Z</time>
      </trkpt>
      <trkpt lat="48.86707" lon="2.33232">
        <ele>99.8</ele>
        <time>2015-01-19T19:31:20.402Z</time>
      </trkpt>
      <trkpt lat="48.867" lon="2.33225">
        <ele>100.4</ele>
        <time>2015-01-19T19:31:22.429Z</time>
      </trkpt>
      <trkpt lat="48.86697" lon="2.33223">
        <ele>100.5</ele>
        <time>2015-01-19T19:31:23.437Z</time>
      </trkpt>
      <trkpt lat="48.8669" lon="2.33215">
        <ele>100.9</ele>
        <time>2015-01-19T19:31:26.474Z</time>
      </trkpt>
      <trkpt lat="48.86689" lon="2.33213">
        <ele>101.1</ele>
        <time>2015-01-19T19:31:27.477Z</time>
      </trkpt>
      <trkpt lat="48.86686" lon="2.33207">
        <ele>101.3</ele>
        <time>2015-01-19T19:31:29.402Z</time>
      </trkpt>
      <trkpt lat="48.86686" lon="2.33197">
        <ele>101.2</ele>
        <time>2015-01-19T19:31:34.506Z</time>
      </trkpt>
      <trkpt lat="48.86683" lon="2.33192">
        <ele>101.3</ele>
        <time>2015-01-19T19:31:37.433Z</time>
      </trkpt>
      <trkpt lat="48.86658" lon="2.33159">
        <ele>101.5</ele>
        <time>2015-01-19T19:31:47.472Z</time>
      </trkpt>
      <trkpt lat="48.86651" lon="2.33153">
        <ele>101.6</ele>
        <time>2015-01-19T19:31:49.581Z</time>
      </trkpt>
      <trkpt lat="48.8665" lon="2.33149">
        <ele>101.5</ele>
        <time>2015-01-19T19:31:50.522Z</time>
      </trkpt>
      <trkpt lat="48.86643" lon="2.33145">
        <ele>101.3</ele>
        <time>2015-01-19T19:31:52.421Z</time>
      </trkpt>
      <trkpt lat="48.8664" lon="2.33143">
        <ele>101.2</ele>
        <time>2015-01-19T19:31:53.440Z</time>
      </trkpt>
      <trkpt lat="48.86632" lon="2.3314">
        <ele>101</ele>
        <time>2015-01-19T19:31:55.465Z</time>
      </trkpt>
      <trkpt lat="48.86628" lon="2.33139">
        <ele>101</ele>
        <time>2015-01-19T19:31:56.412Z</time>
      </trkpt>
      <trkpt lat="48.8662" lon="2.33134">
        <ele>100.8</ele>
        <time>2015-01-19T19:31:59.754Z</time>
      </trkpt>
      <trkpt lat="48.86617" lon="2.33129">
        <ele>100.6</ele>
        <time>2015-01-19T19:32:00.438Z</time>
      </trkpt>
      <trkpt lat="48.86614" lon="2.33125">
        <ele>100.6</ele>
        <time>2015-01-19T19:32:01.447Z</time>
      </trkpt>
      <trkpt lat="48.86609" lon="2.33123">
        <ele>100.4</ele>
        <time>2015-01-19T19:32:02.450Z</time>
      </trkpt>
      <trkpt lat="48.86604" lon="2.3312">
        <ele>100.2</ele>
        <time>2015-01-19T19:32:03.469Z</time>
      </trkpt>
      <trkpt lat="48.866" lon="2.33117">
        <ele>100.1</ele>
        <time>2015-01-19T19:32:04.483Z</time>
      </trkpt>
      <trkpt lat="48.86595" lon="2.33114">
        <ele>99.9</ele>
        <time>2015-01-19T19:32:05.495Z</time>
      </trkpt>
      <trkpt lat="48.8659" lon="2.33111">
        <ele>99.7</ele>
        <time>2015-01-19T19:32:06.503Z</time>
      </trkpt>
      <trkpt lat="48.86586" lon="2.33108">
        <ele>99.3</ele>
        <time>2015-01-19T19:32:07.508Z</time>
      </trkpt>
      <trkpt lat="48.86581" lon="2.33104">
        <ele>99.1</ele>
        <time>2015-01-19T19:32:08.392Z</time>
      </trkpt>
      <trkpt lat="48.86577" lon="2.33102">
        <ele>99.1</ele>
        <time>2015-01-19T19:32:09.899Z</time>
      </trkpt>
      <trkpt lat="48.86571" lon="2.33098">
        <ele>99.3</ele>
        <time>2015-01-19T19:32:10.411Z</time>
      </trkpt>
      <trkpt lat="48.86566" lon="2.33093">
        <ele>100</ele>
        <time>2015-01-19T19:32:11.429Z</time>
      </trkpt>
      <trkpt lat="48.86561" lon="2.33092">
        <ele>100.3</ele>
        <time>2015-01-19T19:32:12.428Z</time>
      </trkpt>
      <trkpt lat="48.86553" lon="2.33086">
        <ele>100.5</ele>
        <time>2015-01-19T19:32:14.998Z</time>
      </trkpt>
      <trkpt lat="48.8655" lon="2.33084">
        <ele>100.7</ele>
        <time>2015-01-19T19:32:15.481Z</time>
      </trkpt>
      <trkpt lat="48.86543" lon="2.33079">
        <ele>100.6</ele>
        <time>2015-01-19T19:32:17.493Z</time>
      </trkpt>
      <trkpt lat="48.8654" lon="2.33076">
        <ele>100.5</ele>
        <time>2015-01-19T19:32:18.505Z</time>
      </trkpt>
      <trkpt lat="48.86532" lon="2.33072">
        <ele>100.3</ele>
        <time>2015-01-19T19:32:20.421Z</time>
      </trkpt>
      <trkpt lat="48.86529" lon="2.3307">
        <ele>100.2</ele>
        <time>2015-01-19T19:32:21.449Z</time>
      </trkpt>
      <trkpt lat="48.86525" lon="2.33068">
        <ele>100.3</ele>
        <time>2015-01-19T19:32:22.497Z</time>
      </trkpt>
      <trkpt lat="48.86509" lon="2.33058">
        <ele>99.7</ele>
        <time>2015-01-19T19:32:28.490Z</time>
      </trkpt>
      <trkpt lat="48.86501" lon="2.33052">
        <ele>99.4</ele>
        <time>2015-01-19T19:32:31.477Z</time>
      </trkpt>
      <trkpt lat="48.86498" lon="2.3305">
        <ele>99.3</ele>
        <time>2015-01-19T19:32:32.663Z</time>
      </trkpt>
      <trkpt lat="48.86472" lon="2.33023">
        <ele>96.3</ele>
        <time>2015-01-19T19:32:42.403Z</time>
      </trkpt>
      <trkpt lat="48.86466" lon="2.33018">
        <ele>94.8</ele>
        <time>2015-01-19T19:32:44.474Z</time>
      </trkpt>
      <trkpt lat="48.86462" lon="2.33017">
        <ele>94.6</ele>
        <time>2015-01-19T19:32:45.480Z</time>
      </trkpt>
      <trkpt lat="48.86458" lon="2.33007">
        <ele>93.8</ele>
        <time>2015-01-19T19:32:49.325Z</time>
      </trkpt>
      <trkpt lat="48.86458" lon="2.33">
        <ele>93.3</ele>
        <time>2015-01-19T19:32:49.437Z</time>
      </trkpt>
      <trkpt lat="48.86459" lon="2.32994">
        <ele>92.8</ele>
        <time>2015-01-19T19:32:50.450Z</time>
      </trkpt>
      <trkpt lat="48.86461" lon="2.32986">
        <ele>91.8</ele>
        <time>2015-01-19T19:32:51.479Z</time>
      </trkpt>
      <trkpt lat="48.86462" lon="2.32978">
        <ele>91.4</ele>
        <time>2015-01-19T19:32:52.430Z</time>
      </trkpt>
      <trkpt lat="48.86464" lon="2.32971">
        <ele>91</ele>
        <time>2015-01-19T19:32:53.428Z</time>
      </trkpt>
      <trkpt lat="48.86466" lon="2.32964">
        <ele>90.7</ele>
        <time>2015-01-19T19:32:54.461Z</time>
      </trkpt>
      <trkpt lat="48.86467" lon="2.32956">
        <ele>90.3</ele>
        <time>2015-01-19T19:32:55.474Z</time>
      </trkpt>
      <trkpt lat="48.86468" lon="2.32949">
        <ele>89.8</ele>
        <time>2015-01-19T19:32:56.492Z</time>
      </trkpt>
      <trkpt lat="48.8647" lon="2.32943">
        <ele>89.6</ele>
        <time>2015-01-19T19:32:57.512Z</time>
      </trkpt>
      <trkpt lat="48.86476" lon="2.32935">
        <ele>89.3</ele>
        <time>2015-01-19T19:32:59.482Z</time>
      </trkpt>
      <trkpt lat="48.86479" lon="2.32934">
        <ele>89.3</ele>
        <time>2015-01-19T19:33:00.494Z</time>
      </trkpt>
      <trkpt lat="48.86485" lon="2.32938">
        <ele>88.9</ele>
        <time>2015-01-19T19:33:02.518Z</time>
      </trkpt>
      <trkpt lat="48.86487" lon="2.3294">
        <ele>88.8</ele>
        <time>2015-01-19T19:33:03.485Z</time>
      </trkpt>
      <trkpt lat="48.86492" lon="2.32945">
        <ele>88.8</ele>
        <time>2015-01-19T19:33:05.434Z</time>
      </trkpt>
      <trkpt lat="48.86513" lon="2.32965">
        <ele>88.7</ele>
        <time>2015-01-19T19:33:16.400Z</time>
      </trkpt>
      <trkpt lat="48.86518" lon="2.32965">
        <ele>88.5</ele>
        <time>2015-01-19T19:33:17.414Z</time>
      </trkpt>
      <trkpt lat="48.86523" lon="2.32963">
        <ele>88</ele>
        <time>2015-01-19T19:33:18.423Z</time>
      </trkpt>
      <trkpt lat="48.86529" lon="2.32958">
        <ele>87.5</ele>
        <time>2015-01-19T19:33:20.469Z</time>
      </trkpt>
      <trkpt lat="48.86532" lon="2.32952">
        <ele>87.6</ele>
        <time>2015-01-19T19:33:21.502Z</time>
      </trkpt>
      <trkpt lat="48.86535" lon="2.32947">
        <ele>87.2</ele>
        <time>2015-01-19T19:33:22.409Z</time>
      </trkpt>
      <trkpt lat="48.86539" lon="2.32942">
        <ele>87.3</ele>
        <time>2015-01-19T19:33:23.412Z</time>
      </trkpt>
      <trkpt lat="48.86542" lon="2.32938">
        <ele>87.6</ele>
        <time>2015-01-19T19:33:24.423Z</time>
      </trkpt>
      <trkpt lat="48.86545" lon="2.32933">
        <ele>87.7</ele>
        <time>2015-01-19T19:33:25.453Z</time>
      </trkpt>
      <trkpt lat="48.86548" lon="2.32926">
        <ele>87.6</ele>
        <time>2015-01-19T19:33:26.472Z</time>
      </trkpt>
      <trkpt lat="48.86551" lon="2.32919">
        <ele>87.7</ele>
        <time>2015-01-19T19:33:27.416Z</time>
      </trkpt>
      <trkpt lat="48.86554" lon="2.32907">
        <ele>87.7</ele>
        <time>2015-01-19T19:33:29.402Z</time>
      </trkpt>
      <trkpt lat="48.86556" lon="2.32901">
        <ele>87.8</ele>
        <time>2015-01-19T19:33:30.412Z</time>
      </trkpt>
      <trkpt lat="48.86558" lon="2.32894">
        <ele>87.7</ele>
        <time>2015-01-19T19:33:31.451Z</time>
      </trkpt>
      <trkpt lat="48.86561" lon="2.32888">
        <ele>87.8</ele>
        <time>2015-01-19T19:33:32.406Z</time>
      </trkpt>
      <trkpt lat="48.86564" lon="2.32883">
        <ele>87.7</ele>
        <time>2015-01-19T19:33:33.426Z</time>
      </trkpt>
      <trkpt lat="48.86568" lon="2.32878">
        <ele>87.8</ele>
        <time>2015-01-19T19:33:34.433Z</time>
      </trkpt>
      <trkpt lat="48.86571" lon="2.32872">
        <ele>87.8</ele>
        <time>2015-01-19T19:33:35.453Z</time>
      </trkpt>
      <trkpt lat="48.86574" lon="2.32866">
        <ele>87.9</ele>
        <time>2015-01-19T19:33:36.469Z</time>
      </trkpt>
      <trkpt lat="48.86577" lon="2.32858">
        <ele>87.9</ele>
        <time>2015-01-19T19:33:37.488Z</time>
      </trkpt>
      <trkpt lat="48.8658" lon="2.32851">
        <ele>87.9</ele>
        <time>2015-01-19T19:33:38.493Z</time>
      </trkpt>
      <trkpt lat="48.86581" lon="2.32843">
        <ele>87.9</ele>
        <time>2015-01-19T19:33:39.502Z</time>
      </trkpt>
      <trkpt lat="48.86584" lon="2.32836">
        <ele>88</ele>
        <time>2015-01-19T19:33:40.422Z</time>
      </trkpt>
      <trkpt lat="48.86586" lon="2.3283">
        <ele>88.1</ele>
        <time>2015-01-19T19:33:41.413Z</time>
      </trkpt>
      <trkpt lat="48.86588" lon="2.32824">
        <ele>88.4</ele>
        <time>2015-01-19T19:33:42.419Z</time>
      </trkpt>
      <trkpt lat="48.86591" lon="2.32813">
        <ele>89.3</ele>
        <time>2015-01-19T19:33:44.463Z</time>
      </trkpt>
      <trkpt lat="48.86594" lon="2.32805">
        <ele>89.5</ele>
        <time>2015-01-19T19:33:45.475Z</time>
      </trkpt>
      <trkpt lat="48.86596" lon="2.32798">
        <ele>89.7</ele>
        <time>2015-01-19T19:33:46.521Z</time>
      </trkpt>
      <trkpt lat="48.86598" lon="2.32792">
        <ele>89.8</ele>
        <time>2015-01-19T19:33:47.386Z</time>
      </trkpt>
      <trkpt lat="48.866" lon="2.32782">
        <ele>90.2</ele>
        <time>2015-01-19T19:33:49.445Z</time>
      </trkpt>
      <trkpt lat="48.86603" lon="2.32777">
        <ele>90.3</ele>
        <time>2015-01-19T19:33:50.453Z</time>
      </trkpt>
      <trkpt lat="48.86608" lon="2.32769">
        <ele>90.7</ele>
        <time>2015-01-19T19:33:52.477Z</time>
      </trkpt>
      <trkpt lat="48.86611" lon="2.32766">
        <ele>90.7</ele>
        <time>2015-01-19T19:33:53.619Z</time>
      </trkpt>
      <trkpt lat="48.86618" lon="2.32762">
        <ele>91</ele>
        <time>2015-01-19T19:33:55.449Z</time>
      </trkpt>
      <trkpt lat="48.86622" lon="2.32762">
        <ele>91</ele>
        <time>2015-01-19T19:33:56.465Z</time>
      </trkpt>
      <trkpt lat="48.8663" lon="2.32759">
        <ele>91.3</ele>
        <time>2015-01-19T19:33:58.415Z</time>
      </trkpt>
      <trkpt lat="48.86634" lon="2.32758">
        <ele>91.4</ele>
        <time>2015-01-19T19:33:59.424Z</time>
      </trkpt>
      <trkpt lat="48.86641" lon="2.32756">
        <ele>91.6</ele>
        <time>2015-01-19T19:34:01.462Z</time>
      </trkpt>
      <trkpt lat="48.86644" lon="2.32753">
        <ele>91.8</ele>
        <time>2015-01-19T19:34:02.471Z</time>
      </trkpt>
      <trkpt lat="48.86649" lon="2.32747">
        <ele>91.9</ele>
        <time>2015-01-19T19:34:04.401Z</time>
      </trkpt>
      <trkpt lat="48.86651" lon="2.32744">
        <ele>92</ele>
        <time>2015-01-19T19:34:05.411Z</time>
      </trkpt>
      <trkpt lat="48.86658" lon="2.32736">
        <ele>92.3</ele>
        <time>2015-01-19T19:34:08.415Z</time>
      </trkpt>
      <trkpt lat="48.8666" lon="2.32732">
        <ele>92.2</ele>
        <time>2015-01-19T19:34:09.412Z</time>
      </trkpt>
      <trkpt lat="48.86657" lon="2.32721">
        <ele>91.2</ele>
        <time>2015-01-19T19:34:11.432Z</time>
      </trkpt>
      <trkpt lat="48.86653" lon="2.32715">
        <ele>90.5</ele>
        <time>2015-01-19T19:34:12.442Z</time>
      </trkpt>
      <trkpt lat="48.86655" lon="2.32705">
        <ele>90.2</ele>
        <time>2015-01-19T19:34:14.399Z</time>
      </trkpt>
      <trkpt lat="48.86657" lon="2.327">
        <ele>90.1</ele>
        <time>2015-01-19T19:34:15.416Z</time>
      </trkpt>
      <trkpt lat="48.8666" lon="2.32687">
        <ele>90.1</ele>
        <time>2015-01-19T19:34:17.417Z</time>
      </trkpt>
      <trkpt lat="48.86661" lon="2.3268">
        <ele>90</ele>
        <time>2015-01-19T19:34:18.486Z</time>
      </trkpt>
      <trkpt lat="48.86663" lon="2.32674">
        <ele>89.9</ele>
        <time>2015-01-19T19:34:19.482Z</time>
      </trkpt>
      <trkpt lat="48.86664" lon="2.32667">
        <ele>89.7</ele>
        <time>2015-01-19T19:34:20.511Z</time>
      </trkpt>
      <trkpt lat="48.86666" lon="2.3266">
        <ele>89.6</ele>
        <time>2015-01-19T19:34:21.404Z</time>
      </trkpt>
      <trkpt lat="48.86668" lon="2.32653">
        <ele>89.5</ele>
        <time>2015-01-19T19:34:22.393Z</time>
      </trkpt>
      <trkpt lat="48.86669" lon="2.32647">
        <ele>89.4</ele>
        <time>2015-01-19T19:34:23.426Z</time>
      </trkpt>
      <trkpt lat="48.86671" lon="2.3264">
        <ele>89.3</ele>
        <time>2015-01-19T19:34:24.449Z</time>
      </trkpt>
      <trkpt lat="48.86672" lon="2.32632">
        <ele>89.3</ele>
        <time>2015-01-19T19:34:25.477Z</time>
      </trkpt>
      <trkpt lat="48.86672" lon="2.32623">
        <ele>89.3</ele>
        <time>2015-01-19T19:34:26.411Z</time>
      </trkpt>
      <trkpt lat="48.86673" lon="2.32612">
        <ele>89.5</ele>
        <time>2015-01-19T19:34:27.569Z</time>
      </trkpt>
      <trkpt lat="48.86675" lon="2.32604">
        <ele>89.4</ele>
        <time>2015-01-19T19:34:28.411Z</time>
      </trkpt>
      <trkpt lat="48.86677" lon="2.32596">
        <ele>89.4</ele>
        <time>2015-01-19T19:34:29.434Z</time>
      </trkpt>
      <trkpt lat="48.86679" lon="2.32589">
        <ele>89.5</ele>
        <time>2015-01-19T19:34:30.436Z</time>
      </trkpt>
      <trkpt lat="48.86681" lon="2.32583">
        <ele>89.5</ele>
        <time>2015-01-19T19:34:31.451Z</time>
      </trkpt>
      <trkpt lat="48.86683" lon="2.32576">
        <ele>89.5</ele>
        <time>2015-01-19T19:34:32.453Z</time>
      </trkpt>
      <trkpt lat="48.86685" lon="2.32564">
        <ele>89.5</ele>
        <time>2015-01-19T19:34:34.489Z</time>
      </trkpt>
      <trkpt lat="48.86645" lon="2.32438">
        <ele>90</ele>
        <time>2015-01-19T19:35:00.442Z</time>
      </trkpt>
      <trkpt lat="48.86642" lon="2.32431">
        <ele>90.1</ele>
        <time>2015-01-19T19:35:02.530Z</time>
      </trkpt>
      <trkpt lat="48.86641" lon="2.32426">
        <ele>89.7</ele>
        <time>2015-01-19T19:35:03.509Z</time>
      </trkpt>
      <trkpt lat="48.8664" lon="2.32415">
        <ele>89.1</ele>
        <time>2015-01-19T19:35:05.400Z</time>
      </trkpt>
      <trkpt lat="48.86641" lon="2.3241">
        <ele>88.7</ele>
        <time>2015-01-19T19:35:06.409Z</time>
      </trkpt>
      <trkpt lat="48.86642" lon="2.32398">
        <ele>88.4</ele>
        <time>2015-01-19T19:35:08.443Z</time>
      </trkpt>
      <trkpt lat="48.86643" lon="2.32393">
        <ele>88.3</ele>
        <time>2015-01-19T19:35:09.489Z</time>
      </trkpt>
      <trkpt lat="48.86644" lon="2.32382">
        <ele>87.8</ele>
        <time>2015-01-19T19:35:11.422Z</time>
      </trkpt>
      <trkpt lat="48.86646" lon="2.32378">
        <ele>87.6</ele>
        <time>2015-01-19T19:35:12.431Z</time>
      </trkpt>
      <trkpt lat="48.86649" lon="2.32369">
        <ele>87.2</ele>
        <time>2015-01-19T19:35:14.481Z</time>
      </trkpt>
      <trkpt lat="48.8665" lon="2.32365">
        <ele>87</ele>
        <time>2015-01-19T19:35:15.421Z</time>
      </trkpt>
      <trkpt lat="48.86655" lon="2.32354">
        <ele>87</ele>
        <time>2015-01-19T19:35:18.411Z</time>
      </trkpt>
      <trkpt lat="48.86656" lon="2.32353">
        <ele>87</ele>
        <time>2015-01-19T19:35:19.426Z</time>
      </trkpt>
      <trkpt lat="48.86663" lon="2.32359">
        <ele>87.3</ele>
        <time>2015-01-19T19:35:22.414Z</time>
      </trkpt>
      <trkpt lat="48.86665" lon="2.32361">
        <ele>87.2</ele>
        <time>2015-01-19T19:35:23.420Z</time>
      </trkpt>
      <trkpt lat="48.86687" lon="2.32391">
        <ele>87.1</ele>
        <time>2015-01-19T19:35:33.396Z</time>
      </trkpt>
      <trkpt lat="48.86771" lon="2.32458">
        <ele>88.8</ele>
        <time>2015-01-19T19:35:54.493Z</time>
      </trkpt>
      <trkpt lat="48.86775" lon="2.3246">
        <ele>88.8</ele>
        <time>2015-01-19T19:35:55.408Z</time>
      </trkpt>
      <trkpt lat="48.86797" lon="2.32484">
        <ele>88.5</ele>
        <time>2015-01-19T19:36:08.368Z</time>
      </trkpt>
      <trkpt lat="48.86803" lon="2.32486">
        <ele>88.4</ele>
        <time>2015-01-19T19:36:10.402Z</time>
      </trkpt>
      <trkpt lat="48.86807" lon="2.32487">
        <ele>88.3</ele>
        <time>2015-01-19T19:36:11.489Z</time>
      </trkpt>
      <trkpt lat="48.86813" lon="2.3249">
        <ele>88.3</ele>
        <time>2015-01-19T19:36:13.430Z</time>
      </trkpt>
      <trkpt lat="48.86816" lon="2.32492">
        <ele>88.2</ele>
        <time>2015-01-19T19:36:14.440Z</time>
      </trkpt>
      <trkpt lat="48.86824" lon="2.32498">
        <ele>88.1</ele>
        <time>2015-01-19T19:36:17.230Z</time>
      </trkpt>
      <trkpt lat="48.86827" lon="2.32498">
        <ele>88.1</ele>
        <time>2015-01-19T19:36:17.433Z</time>
      </trkpt>
      <trkpt lat="48.86835" lon="2.32497">
        <ele>88</ele>
        <time>2015-01-19T19:36:20.492Z</time>
      </trkpt>
      <trkpt lat="48.86838" lon="2.32496">
        <ele>88.1</ele>
        <time>2015-01-19T19:36:21.504Z</time>
      </trkpt>
      <trkpt lat="48.86845" lon="2.32496">
        <ele>88.3</ele>
        <time>2015-01-19T19:36:24.019Z</time>
      </trkpt>
      <trkpt lat="48.8685" lon="2.32495">
        <ele>89</ele>
        <time>2015-01-19T19:36:24.418Z</time>
      </trkpt>
      <trkpt lat="48.86856" lon="2.32494">
        <ele>89.7</ele>
        <time>2015-01-19T19:36:25.448Z</time>
      </trkpt>
      <trkpt lat="48.86861" lon="2.32493">
        <ele>90.1</ele>
        <time>2015-01-19T19:36:26.462Z</time>
      </trkpt>
      <trkpt lat="48.86866" lon="2.32492">
        <ele>90.5</ele>
        <time>2015-01-19T19:36:27.506Z</time>
      </trkpt>
      <trkpt lat="48.86872" lon="2.32492">
        <ele>90.9</ele>
        <time>2015-01-19T19:36:28.500Z</time>
      </trkpt>
      <trkpt lat="48.86878" lon="2.32493">
        <ele>91.2</ele>
        <time>2015-01-19T19:36:29.416Z</time>
      </trkpt>
      <trkpt lat="48.86884" lon="2.32494">
        <ele>91.4</ele>
        <time>2015-01-19T19:36:30.426Z</time>
      </trkpt>
      <trkpt lat="48.86889" lon="2.32496">
        <ele>91.6</ele>
        <time>2015-01-19T19:36:31.447Z</time>
      </trkpt>
      <trkpt lat="48.86893" lon="2.32499">
        <ele>93</ele>
        <time>2015-01-19T19:36:32.457Z</time>
      </trkpt>
      <trkpt lat="48.869" lon="2.32499">
        <ele>94.3</ele>
        <time>2015-01-19T19:36:34.491Z</time>
      </trkpt>
      <trkpt lat="48.86904" lon="2.32499">
        <ele>94.5</ele>
        <time>2015-01-19T19:36:35.417Z</time>
      </trkpt>
      <trkpt lat="48.8691" lon="2.32493">
        <ele>100.1</ele>
        <time>2015-01-19T19:36:47.423Z</time>
      </trkpt>
      <trkpt lat="48.8691" lon="2.32489">
        <ele>101.4</ele>
        <time>2015-01-19T19:36:48.426Z</time>
      </trkpt>
      <trkpt lat="48.86916" lon="2.32484">
        <ele>104.2</ele>
        <time>2015-01-19T19:36:51.445Z</time>
      </trkpt>
      <trkpt lat="48.86921" lon="2.32483">
        <ele>104.5</ele>
        <time>2015-01-19T19:36:52.482Z</time>
      </trkpt>
      <trkpt lat="48.86928" lon="2.32481">
        <ele>104.6</ele>
        <time>2015-01-19T19:36:54.619Z</time>
      </trkpt>
      <trkpt lat="48.86932" lon="2.3248">
        <ele>105</ele>
        <time>2015-01-19T19:36:55.449Z</time>
      </trkpt>
      <trkpt lat="48.86939" lon="2.32481">
        <ele>105.7</ele>
        <time>2015-01-19T19:36:57.463Z</time>
      </trkpt>
      <trkpt lat="48.86943" lon="2.32482">
        <ele>106.4</ele>
        <time>2015-01-19T19:36:58.478Z</time>
      </trkpt>
      <trkpt lat="48.86949" lon="2.32485">
        <ele>107.6</ele>
        <time>2015-01-19T19:37:00.487Z</time>
      </trkpt>
      <trkpt lat="48.86953" lon="2.32487">
        <ele>108.1</ele>
        <time>2015-01-19T19:37:01.502Z</time>
      </trkpt>
      <trkpt lat="48.86959" lon="2.3249">
        <ele>109</ele>
        <time>2015-01-19T19:37:03.406Z</time>
      </trkpt>
      <trkpt lat="48.86962" lon="2.32491">
        <ele>109.5</ele>
        <time>2015-01-19T19:37:04.417Z</time>
      </trkpt>
      <trkpt lat="48.8697" lon="2.32494">
        <ele>110.6</ele>
        <time>2015-01-19T19:37:07.489Z</time>
      </trkpt>
      <trkpt lat="48.86973" lon="2.32495">
        <ele>111</ele>
        <time>2015-01-19T19:37:08.395Z</time>
      </trkpt>
      <trkpt lat="48.86979" lon="2.32499">
        <ele>111.7</ele>
        <time>2015-01-19T19:37:10.472Z</time>
      </trkpt>
      <trkpt lat="48.86982" lon="2.32503">
        <ele>111.9</ele>
        <time>2015-01-19T19:37:11.604Z</time>
      </trkpt>
      <trkpt lat="48.86987" lon="2.3251">
        <ele>112.5</ele>
        <time>2015-01-19T19:37:13.510Z</time>
      </trkpt>
      <trkpt lat="48.86993" lon="2.3251">
        <ele>111.4</ele>
        <time>2015-01-19T19:37:14.567Z</time>
      </trkpt>
      <trkpt lat="48.87" lon="2.32511">
        <ele>110.6</ele>
        <time>2015-01-19T19:37:15.415Z</time>
      </trkpt>
      <trkpt lat="48.87006" lon="2.32512">
        <ele>109.8</ele>
        <time>2015-01-19T19:37:16.419Z</time>
      </trkpt>
      <trkpt lat="48.87012" lon="2.32514">
        <ele>109.6</ele>
        <time>2015-01-19T19:37:17.418Z</time>
      </trkpt>
      <trkpt lat="48.87017" lon="2.32516">
        <ele>109.1</ele>
        <time>2015-01-19T19:37:18.433Z</time>
      </trkpt>
      <trkpt lat="48.87022" lon="2.32519">
        <ele>108.7</ele>
        <time>2015-01-19T19:37:19.987Z</time>
      </trkpt>
      <trkpt lat="48.87028" lon="2.3252">
        <ele>108.3</ele>
        <time>2015-01-19T19:37:20.450Z</time>
      </trkpt>
      <trkpt lat="48.87032" lon="2.32521">
        <ele>108.2</ele>
        <time>2015-01-19T19:37:21.460Z</time>
      </trkpt>
      <trkpt lat="48.87037" lon="2.32523">
        <ele>107.9</ele>
        <time>2015-01-19T19:37:22.469Z</time>
      </trkpt>
      <trkpt lat="48.87041" lon="2.32525">
        <ele>107.7</ele>
        <time>2015-01-19T19:37:23.493Z</time>
      </trkpt>
      <trkpt lat="48.87048" lon="2.32526">
        <ele>107</ele>
        <time>2015-01-19T19:37:24.411Z</time>
      </trkpt>
      <trkpt lat="48.87054" lon="2.32526">
        <ele>106.7</ele>
        <time>2015-01-19T19:37:25.537Z</time>
      </trkpt>
      <trkpt lat="48.87057" lon="2.32523">
        <ele>106.7</ele>
        <time>2015-01-19T19:37:26.413Z</time>
      </trkpt>
      <trkpt lat="48.87064" lon="2.32517">
        <ele>106.4</ele>
        <time>2015-01-19T19:37:29.164Z</time>
      </trkpt>
      <trkpt lat="48.87067" lon="2.32514">
        <ele>106.3</ele>
        <time>2015-01-19T19:37:29.433Z</time>
      </trkpt>
      <trkpt lat="48.87073" lon="2.32507">
        <ele>106.1</ele>
        <time>2015-01-19T19:37:31.594Z</time>
      </trkpt>
      <trkpt lat="48.87076" lon="2.32503">
        <ele>105.9</ele>
        <time>2015-01-19T19:37:32.427Z</time>
      </trkpt>
      <trkpt lat="48.87081" lon="2.32495">
        <ele>105.7</ele>
        <time>2015-01-19T19:37:34.390Z</time>
      </trkpt>
      <trkpt lat="48.87084" lon="2.32494">
        <ele>105.8</ele>
        <time>2015-01-19T19:37:35.510Z</time>
      </trkpt>
      <trkpt lat="48.87091" lon="2.32492">
        <ele>105.7</ele>
        <time>2015-01-19T19:37:37.472Z</time>
      </trkpt>
      <trkpt lat="48.87094" lon="2.32492">
        <ele>105.4</ele>
        <time>2015-01-19T19:37:38.484Z</time>
      </trkpt>
      <trkpt lat="48.871" lon="2.32494">
        <ele>105</ele>
        <time>2015-01-19T19:37:40.411Z</time>
      </trkpt>
      <trkpt lat="48.87103" lon="2.32495">
        <ele>104.9</ele>
        <time>2015-01-19T19:37:41.428Z</time>
      </trkpt>
      <trkpt lat="48.87109" lon="2.32498">
        <ele>104.8</ele>
        <time>2015-01-19T19:37:44.526Z</time>
      </trkpt>
      <trkpt lat="48.87111" lon="2.32502">
        <ele>104.4</ele>
        <time>2015-01-19T19:37:45.446Z</time>
      </trkpt>
      <trkpt lat="48.87117" lon="2.3251">
        <ele>103.2</ele>
        <time>2015-01-19T19:37:47.489Z</time>
      </trkpt>
      <trkpt lat="48.8712" lon="2.32513">
        <ele>102.9</ele>
        <time>2015-01-19T19:37:48.426Z</time>
      </trkpt>
      <trkpt lat="48.87126" lon="2.32519">
        <ele>102.5</ele>
        <time>2015-01-19T19:37:50.459Z</time>
      </trkpt>
      <trkpt lat="48.87129" lon="2.32521">
        <ele>102.3</ele>
        <time>2015-01-19T19:37:51.468Z</time>
      </trkpt>
      <trkpt lat="48.87136" lon="2.32526">
        <ele>102</ele>
        <time>2015-01-19T19:37:53.422Z</time>
      </trkpt>
      <trkpt lat="48.87139" lon="2.32528">
        <ele>101.8</ele>
        <time>2015-01-19T19:37:54.430Z</time>
      </trkpt>
      <trkpt lat="48.87144" lon="2.32532">
        <ele>101.4</ele>
        <time>2015-01-19T19:37:56.457Z</time>
      </trkpt>
      <trkpt lat="48.87147" lon="2.32534">
        <ele>101.2</ele>
        <time>2015-01-19T19:37:57.473Z</time>
      </trkpt>
      <trkpt lat="48.87154" lon="2.32535">
        <ele>101</ele>
        <time>2015-01-19T19:37:59.649Z</time>
      </trkpt>
      <trkpt lat="48.87157" lon="2.32534">
        <ele>101.3</ele>
        <time>2015-01-19T19:38:00.442Z</time>
      </trkpt>
      <trkpt lat="48.87247" lon="2.32477">
        <ele>97.6</ele>
        <time>2015-01-19T19:38:48.607Z</time>
      </trkpt>
      <trkpt lat="48.87251" lon="2.32469">
        <ele>94.8</ele>
        <time>2015-01-19T19:38:51.668Z</time>
      </trkpt>
      <trkpt lat="48.87253" lon="2.32466">
        <ele>93.9</ele>
        <time>2015-01-19T19:38:52.807Z</time>
      </trkpt>
      <trkpt lat="48.87254" lon="2.32456">
        <ele>92</ele>
        <time>2015-01-19T19:38:54.649Z</time>
      </trkpt>
      <trkpt lat="48.87255" lon="2.32451">
        <ele>90.4</ele>
        <time>2015-01-19T19:38:55.667Z</time>
      </trkpt>
      <trkpt lat="48.87257" lon="2.32447">
        <ele>89.8</ele>
        <time>2015-01-19T19:38:56.723Z</time>
      </trkpt>
      <trkpt lat="48.87262" lon="2.32416">
        <ele>86.8</ele>
        <time>2015-01-19T19:39:03.002Z</time>
      </trkpt>
      <trkpt lat="48.8726" lon="2.32405">
        <ele>84.2</ele>
        <time>2015-01-19T19:39:05.466Z</time>
      </trkpt>
      <trkpt lat="48.87261" lon="2.32401">
        <ele>84.8</ele>
        <time>2015-01-19T19:39:05.959Z</time>
      </trkpt>
      <trkpt lat="48.8726" lon="2.32391">
        <ele>100.5</ele>
        <time>2015-01-19T19:39:21.036Z</time>
      </trkpt>
      <trkpt lat="48.87295" lon="2.32418">
        <ele>97.5</ele>
        <time>2015-01-19T19:39:34.917Z</time>
      </trkpt>
      <trkpt lat="48.87303" lon="2.32412">
        <ele>96.8</ele>
        <time>2015-01-19T19:39:37.974Z</time>
      </trkpt>
      <trkpt lat="48.87305" lon="2.32408">
        <ele>95.5</ele>
        <time>2015-01-19T19:39:38.980Z</time>
      </trkpt>
      <trkpt lat="48.87308" lon="2.324">
        <ele>93</ele>
        <time>2015-01-19T19:39:40.987Z</time>
      </trkpt>
      <trkpt lat="48.87309" lon="2.32394">
        <ele>92.8</ele>
        <time>2015-01-19T19:39:41.993Z</time>
      </trkpt>
      <trkpt lat="48.87311" lon="2.32388">
        <ele>91.9</ele>
        <time>2015-01-19T19:39:43.009Z</time>
      </trkpt>
      <trkpt lat="48.87315" lon="2.32383">
        <ele>90.8</ele>
        <time>2015-01-19T19:39:44.048Z</time>
      </trkpt>
      <trkpt lat="48.87319" lon="2.32376">
        <ele>90</ele>
        <time>2015-01-19T19:39:44.916Z</time>
      </trkpt>
      <trkpt lat="48.87323" lon="2.3237">
        <ele>89.3</ele>
        <time>2015-01-19T19:39:46.030Z</time>
      </trkpt>
      <trkpt lat="48.87326" lon="2.32364">
        <ele>87.7</ele>
        <time>2015-01-19T19:39:47.075Z</time>
      </trkpt>
      <trkpt lat="48.87329" lon="2.32358">
        <ele>86.8</ele>
        <time>2015-01-19T19:39:47.941Z</time>
      </trkpt>
      <trkpt lat="48.87331" lon="2.32351">
        <ele>85.8</ele>
        <time>2015-01-19T19:39:49.892Z</time>
      </trkpt>
      <trkpt lat="48.87331" lon="2.32342">
        <ele>84.9</ele>
        <time>2015-01-19T19:39:49.981Z</time>
      </trkpt>
      <trkpt lat="48.87332" lon="2.32331">
        <ele>83</ele>
        <time>2015-01-19T19:39:50.996Z</time>
      </trkpt>
      <trkpt lat="48.87333" lon="2.32323">
        <ele>82.6</ele>
        <time>2015-01-19T19:39:51.995Z</time>
      </trkpt>
      <trkpt lat="48.87333" lon="2.32314">
        <ele>82.1</ele>
        <time>2015-01-19T19:39:53.011Z</time>
      </trkpt>
      <trkpt lat="48.87332" lon="2.32307">
        <ele>82</ele>
        <time>2015-01-19T19:39:54.018Z</time>
      </trkpt>
      <trkpt lat="48.87329" lon="2.32294">
        <ele>82.9</ele>
        <time>2015-01-19T19:39:55.959Z</time>
      </trkpt>
      <trkpt lat="48.87328" lon="2.32288">
        <ele>83.3</ele>
        <time>2015-01-19T19:39:56.987Z</time>
      </trkpt>
      <trkpt lat="48.87327" lon="2.32281">
        <ele>84.5</ele>
        <time>2015-01-19T19:39:57.996Z</time>
      </trkpt>
      <trkpt lat="48.87326" lon="2.32272">
        <ele>86.2</ele>
        <time>2015-01-19T19:39:59.008Z</time>
      </trkpt>
      <trkpt lat="48.87328" lon="2.32261">
        <ele>88.7</ele>
        <time>2015-01-19T19:40:00.959Z</time>
      </trkpt>
      <trkpt lat="48.87329" lon="2.32259">
        <ele>88.8</ele>
        <time>2015-01-19T19:40:01.971Z</time>
      </trkpt>
      <trkpt lat="48.87333" lon="2.3225">
        <ele>90.1</ele>
        <time>2015-01-19T19:40:04.954Z</time>
      </trkpt>
      <trkpt lat="48.87332" lon="2.32244">
        <ele>90.2</ele>
        <time>2015-01-19T19:40:05.959Z</time>
      </trkpt>
      <trkpt lat="48.87333" lon="2.32237">
        <ele>89.6</ele>
        <time>2015-01-19T19:40:06.968Z</time>
      </trkpt>
      <trkpt lat="48.87334" lon="2.32228">
        <ele>89.2</ele>
        <time>2015-01-19T19:40:07.978Z</time>
      </trkpt>
      <trkpt lat="48.87334" lon="2.32221">
        <ele>88.7</ele>
        <time>2015-01-19T19:40:08.988Z</time>
      </trkpt>
      <trkpt lat="48.87334" lon="2.32214">
        <ele>88.1</ele>
        <time>2015-01-19T19:40:09.999Z</time>
      </trkpt>
      <trkpt lat="48.87334" lon="2.32207">
        <ele>88</ele>
        <time>2015-01-19T19:40:11.008Z</time>
      </trkpt>
      <trkpt lat="48.87334" lon="2.32199">
        <ele>87.7</ele>
        <time>2015-01-19T19:40:12.020Z</time>
      </trkpt>
      <trkpt lat="48.87335" lon="2.3219">
        <ele>86.9</ele>
        <time>2015-01-19T19:40:12.940Z</time>
      </trkpt>
      <trkpt lat="48.87335" lon="2.32178">
        <ele>83.5</ele>
        <time>2015-01-19T19:40:14.046Z</time>
      </trkpt>
      <trkpt lat="48.87336" lon="2.32168">
        <ele>82.1</ele>
        <time>2015-01-19T19:40:15.073Z</time>
      </trkpt>
      <trkpt lat="48.87336" lon="2.3216">
        <ele>81.4</ele>
        <time>2015-01-19T19:40:16.006Z</time>
      </trkpt>
      <trkpt lat="48.87336" lon="2.32152">
        <ele>80.7</ele>
        <time>2015-01-19T19:40:17.048Z</time>
      </trkpt>
      <trkpt lat="48.87337" lon="2.32144">
        <ele>80.2</ele>
        <time>2015-01-19T19:40:17.979Z</time>
      </trkpt>
      <trkpt lat="48.87338" lon="2.32136">
        <ele>79.7</ele>
        <time>2015-01-19T19:40:18.937Z</time>
      </trkpt>
      <trkpt lat="48.87341" lon="2.32128">
        <ele>78.5</ele>
        <time>2015-01-19T19:40:19.991Z</time>
      </trkpt>
      <trkpt lat="48.87342" lon="2.3212">
        <ele>78</ele>
        <time>2015-01-19T19:40:21.530Z</time>
      </trkpt>
      <trkpt lat="48.87344" lon="2.32113">
        <ele>77.7</ele>
        <time>2015-01-19T19:40:22.006Z</time>
      </trkpt>
      <trkpt lat="48.87346" lon="2.321">
        <ele>78.8</ele>
        <time>2015-01-19T19:40:25.019Z</time>
      </trkpt>
      <trkpt lat="48.87347" lon="2.32096">
        <ele>79.8</ele>
        <time>2015-01-19T19:40:26.004Z</time>
      </trkpt>
      <trkpt lat="48.8735" lon="2.32086">
        <ele>82.3</ele>
        <time>2015-01-19T19:40:29.732Z</time>
      </trkpt>
      <trkpt lat="48.87352" lon="2.32084">
        <ele>83.2</ele>
        <time>2015-01-19T19:40:29.924Z</time>
      </trkpt>
      <trkpt lat="48.87358" lon="2.32079">
        <ele>86.8</ele>
        <time>2015-01-19T19:40:34.807Z</time>
      </trkpt>
      <trkpt lat="48.8736" lon="2.32078">
        <ele>87.5</ele>
        <time>2015-01-19T19:40:34.937Z</time>
      </trkpt>
      <trkpt lat="48.87365" lon="2.3207">
        <ele>91.9</ele>
        <time>2015-01-19T19:40:38.024Z</time>
      </trkpt>
      <trkpt lat="48.87366" lon="2.32068">
        <ele>93.2</ele>
        <time>2015-01-19T19:40:38.997Z</time>
      </trkpt>
      <trkpt lat="48.8737" lon="2.3206">
        <ele>96</ele>
        <time>2015-01-19T19:40:42.994Z</time>
      </trkpt>
      <trkpt lat="48.8737" lon="2.32059">
        <ele>96.8</ele>
        <time>2015-01-19T19:40:44.002Z</time>
      </trkpt>
      <trkpt lat="48.8737" lon="2.32058">
        <ele>97.4</ele>
        <time>2015-01-19T19:40:44.917Z</time>
      </trkpt>
      <trkpt lat="48.87376" lon="2.32051">
        <ele>99.5</ele>
        <time>2015-01-19T19:40:57.026Z</time>
      </trkpt>
      <trkpt lat="48.87377" lon="2.32047">
        <ele>99.2</ele>
        <time>2015-01-19T19:40:57.913Z</time>
      </trkpt>
      <trkpt lat="48.87377" lon="2.32036">
        <ele>98.6</ele>
        <time>2015-01-19T19:41:00.992Z</time>
      </trkpt>
      <trkpt lat="48.87377" lon="2.32031">
        <ele>98.4</ele>
        <time>2015-01-19T19:41:02.005Z</time>
      </trkpt>
      <trkpt lat="48.87379" lon="2.32018">
        <ele>98.1</ele>
        <time>2015-01-19T19:41:06.030Z</time>
      </trkpt>
      <trkpt lat="48.87379" lon="2.32017">
        <ele>98.1</ele>
        <time>2015-01-19T19:41:06.940Z</time>
      </trkpt>
      <trkpt lat="48.87379" lon="2.32017">
        <ele>98.1</ele>
        <time>2015-01-19T19:41:07.610Z</time>
      </trkpt>
      <trkpt lat="48.87206" lon="2.31961">
        <ele>95.6</ele>
        <time>2015-01-19T19:42:01.010Z</time>
      </trkpt>
      <trkpt lat="48.872" lon="2.31952">
        <ele>95.5</ele>
        <time>2015-01-19T19:42:02.994Z</time>
      </trkpt>
      <trkpt lat="48.87198" lon="2.31948">
        <ele>95</ele>
        <time>2015-01-19T19:42:04.007Z</time>
      </trkpt>
      <trkpt lat="48.87195" lon="2.31942">
        <ele>94.6</ele>
        <time>2015-01-19T19:42:05.530Z</time>
      </trkpt>
      <trkpt lat="48.87193" lon="2.31936">
        <ele>93.9</ele>
        <time>2015-01-19T19:42:05.934Z</time>
      </trkpt>
      <trkpt lat="48.87188" lon="2.31925">
        <ele>92.7</ele>
        <time>2015-01-19T19:42:07.955Z</time>
      </trkpt>
      <trkpt lat="48.87187" lon="2.3192">
        <ele>92.4</ele>
        <time>2015-01-19T19:42:08.995Z</time>
      </trkpt>
      <trkpt lat="48.87186" lon="2.31909">
        <ele>92.6</ele>
        <time>2015-01-19T19:42:11.122Z</time>
      </trkpt>
      <trkpt lat="48.87185" lon="2.31904">
        <ele>92.6</ele>
        <time>2015-01-19T19:42:11.956Z</time>
      </trkpt>
      <trkpt lat="48.87182" lon="2.31892">
        <ele>93.8</ele>
        <time>2015-01-19T19:42:15.631Z</time>
      </trkpt>
      <trkpt lat="48.87183" lon="2.31876">
        <ele>94.9</ele>
        <time>2015-01-19T19:42:16.000Z</time>
      </trkpt>
      <trkpt lat="48.87181" lon="2.31867">
        <ele>96</ele>
        <time>2015-01-19T19:42:16.922Z</time>
      </trkpt>
      <trkpt lat="48.87181" lon="2.31855">
        <ele>97.5</ele>
        <time>2015-01-19T19:42:18.960Z</time>
      </trkpt>
      <trkpt lat="48.87183" lon="2.31852">
        <ele>97.7</ele>
        <time>2015-01-19T19:42:20.699Z</time>
      </trkpt>
      <trkpt lat="48.87191" lon="2.3184">
        <ele>98.5</ele>
        <time>2015-01-19T19:42:23.044Z</time>
      </trkpt>
      <trkpt lat="48.87197" lon="2.3183">
        <ele>98.8</ele>
        <time>2015-01-19T19:42:25.820Z</time>
      </trkpt>
      <trkpt lat="48.872" lon="2.31825">
        <ele>99</ele>
        <time>2015-01-19T19:42:25.987Z</time>
      </trkpt>
      <trkpt lat="48.87203" lon="2.3182">
        <ele>99</ele>
        <time>2015-01-19T19:42:27.010Z</time>
      </trkpt>
      <trkpt lat="48.87206" lon="2.31813">
        <ele>99.1</ele>
        <time>2015-01-19T19:42:28.019Z</time>
      </trkpt>
      <trkpt lat="48.8721" lon="2.31806">
        <ele>99.2</ele>
        <time>2015-01-19T19:42:29.592Z</time>
      </trkpt>
      <trkpt lat="48.87214" lon="2.31799">
        <ele>99.2</ele>
        <time>2015-01-19T19:42:29.928Z</time>
      </trkpt>
      <trkpt lat="48.87218" lon="2.31793">
        <ele>99.1</ele>
        <time>2015-01-19T19:42:30.945Z</time>
      </trkpt>
      <trkpt lat="48.87222" lon="2.31787">
        <ele>99.1</ele>
        <time>2015-01-19T19:42:31.971Z</time>
      </trkpt>
      <trkpt lat="48.87231" lon="2.31774">
        <ele>99.1</ele>
        <time>2015-01-19T19:42:34.010Z</time>
      </trkpt>
      <trkpt lat="48.87234" lon="2.31768">
        <ele>99.1</ele>
        <time>2015-01-19T19:42:34.891Z</time>
      </trkpt>
      <trkpt lat="48.87238" lon="2.31762">
        <ele>99.1</ele>
        <time>2015-01-19T19:42:35.929Z</time>
      </trkpt>
      <trkpt lat="48.87241" lon="2.31757">
        <ele>99.1</ele>
        <time>2015-01-19T19:42:36.954Z</time>
      </trkpt>
      <trkpt lat="48.87245" lon="2.31751">
        <ele>99.1</ele>
        <time>2015-01-19T19:42:37.984Z</time>
      </trkpt>
      <trkpt lat="48.87248" lon="2.31745">
        <ele>99.1</ele>
        <time>2015-01-19T19:42:38.927Z</time>
      </trkpt>
      <trkpt lat="48.87304" lon="2.31764">
        <ele>97.4</ele>
        <time>2015-01-19T19:42:49.998Z</time>
      </trkpt>
      <trkpt lat="48.87312" lon="2.31769">
        <ele>97.1</ele>
        <time>2015-01-19T19:42:51.917Z</time>
      </trkpt>
      <trkpt lat="48.87315" lon="2.31773">
        <ele>97.3</ele>
        <time>2015-01-19T19:42:52.956Z</time>
      </trkpt>
      <trkpt lat="48.87322" lon="2.31777">
        <ele>98.6</ele>
        <time>2015-01-19T19:42:59.019Z</time>
      </trkpt>
      <trkpt lat="48.87324" lon="2.31779">
        <ele>98.9</ele>
        <time>2015-01-19T19:42:59.940Z</time>
      </trkpt>
      <trkpt lat="48.87332" lon="2.31778">
        <ele>99.4</ele>
        <time>2015-01-19T19:43:03.956Z</time>
      </trkpt>
      <trkpt lat="48.87336" lon="2.31777">
        <ele>99.5</ele>
        <time>2015-01-19T19:43:04.966Z</time>
      </trkpt>
      <trkpt lat="48.8734" lon="2.31777">
        <ele>99.5</ele>
        <time>2015-01-19T19:43:05.925Z</time>
      </trkpt>
      <trkpt lat="48.87346" lon="2.31777">
        <ele>99.5</ele>
        <time>2015-01-19T19:43:06.934Z</time>
      </trkpt>
      <trkpt lat="48.87352" lon="2.31779">
        <ele>99.4</ele>
        <time>2015-01-19T19:43:07.955Z</time>
      </trkpt>
      <trkpt lat="48.87357" lon="2.3178">
        <ele>99.5</ele>
        <time>2015-01-19T19:43:08.972Z</time>
      </trkpt>
      <trkpt lat="48.87366" lon="2.31781">
        <ele>99.6</ele>
        <time>2015-01-19T19:43:10.938Z</time>
      </trkpt>
      <trkpt lat="48.87369" lon="2.31781">
        <ele>99.8</ele>
        <time>2015-01-19T19:43:11.942Z</time>
      </trkpt>
      <trkpt lat="48.87377" lon="2.31779">
        <ele>100</ele>
        <time>2015-01-19T19:43:15.009Z</time>
      </trkpt>
      <trkpt lat="48.8738" lon="2.31778">
        <ele>99.9</ele>
        <time>2015-01-19T19:43:16.016Z</time>
      </trkpt>
      <trkpt lat="48.87386" lon="2.31776">
        <ele>99.8</ele>
        <time>2015-01-19T19:43:17.928Z</time>
      </trkpt>
      <trkpt lat="48.87389" lon="2.31774">
        <ele>99.7</ele>
        <time>2015-01-19T19:43:18.950Z</time>
      </trkpt>
      <trkpt lat="48.87396" lon="2.31769">
        <ele>98.4</ele>
        <time>2015-01-19T19:43:20.999Z</time>
      </trkpt>
      <trkpt lat="48.87397" lon="2.3176">
        <ele>96.5</ele>
        <time>2015-01-19T19:43:22.022Z</time>
      </trkpt>
      <trkpt lat="48.87398" lon="2.31747">
        <ele>95</ele>
        <time>2015-01-19T19:43:23.933Z</time>
      </trkpt>
      <trkpt lat="48.87398" lon="2.31741">
        <ele>94.2</ele>
        <time>2015-01-19T19:43:25.105Z</time>
      </trkpt>
      <trkpt lat="48.87401" lon="2.31731">
        <ele>92.4</ele>
        <time>2015-01-19T19:43:26.934Z</time>
      </trkpt>
      <trkpt lat="48.87404" lon="2.31725">
        <ele>91.3</ele>
        <time>2015-01-19T19:43:27.945Z</time>
      </trkpt>
      <trkpt lat="48.87403" lon="2.31716">
        <ele>90.7</ele>
        <time>2015-01-19T19:43:30.044Z</time>
      </trkpt>
      <trkpt lat="48.87403" lon="2.31711">
        <ele>90.4</ele>
        <time>2015-01-19T19:43:30.942Z</time>
      </trkpt>
      <trkpt lat="48.87401" lon="2.31699">
        <ele>90.2</ele>
        <time>2015-01-19T19:43:33.029Z</time>
      </trkpt>
      <trkpt lat="48.87401" lon="2.31692">
        <ele>90.1</ele>
        <time>2015-01-19T19:43:34.058Z</time>
      </trkpt>
      <trkpt lat="48.87401" lon="2.31686">
        <ele>90.1</ele>
        <time>2015-01-19T19:43:34.994Z</time>
      </trkpt>
      <trkpt lat="48.87402" lon="2.31678">
        <ele>90</ele>
        <time>2015-01-19T19:43:35.990Z</time>
      </trkpt>
      <trkpt lat="48.87402" lon="2.31671">
        <ele>89.4</ele>
        <time>2015-01-19T19:43:37.000Z</time>
      </trkpt>
      <trkpt lat="48.87402" lon="2.31664">
        <ele>88.9</ele>
        <time>2015-01-19T19:43:38.006Z</time>
      </trkpt>
      <trkpt lat="48.87401" lon="2.31656">
        <ele>88.5</ele>
        <time>2015-01-19T19:43:39.023Z</time>
      </trkpt>
      <trkpt lat="48.87401" lon="2.31649">
        <ele>88.2</ele>
        <time>2015-01-19T19:43:39.940Z</time>
      </trkpt>
      <trkpt lat="48.87401" lon="2.31642">
        <ele>87.9</ele>
        <time>2015-01-19T19:43:40.955Z</time>
      </trkpt>
      <trkpt lat="48.874" lon="2.31635">
        <ele>87.9</ele>
        <time>2015-01-19T19:43:41.979Z</time>
      </trkpt>
      <trkpt lat="48.87397" lon="2.31623">
        <ele>88.3</ele>
        <time>2015-01-19T19:43:44.020Z</time>
      </trkpt>
      <trkpt lat="48.87396" lon="2.31618">
        <ele>88.4</ele>
        <time>2015-01-19T19:43:45.112Z</time>
      </trkpt>
      <trkpt lat="48.87394" lon="2.31607">
        <ele>89.1</ele>
        <time>2015-01-19T19:43:47.964Z</time>
      </trkpt>
      <trkpt lat="48.87393" lon="2.31604">
        <ele>89.3</ele>
        <time>2015-01-19T19:43:48.977Z</time>
      </trkpt>
      <trkpt lat="48.87392" lon="2.31597">
        <ele>90</ele>
        <time>2015-01-19T19:43:52.951Z</time>
      </trkpt>
      <trkpt lat="48.87391" lon="2.31597">
        <ele>90.2</ele>
        <time>2015-01-19T19:43:53.975Z</time>
      </trkpt>
      <trkpt lat="48.87391" lon="2.31596">
        <ele>90.4</ele>
        <time>2015-01-19T19:43:56.018Z</time>
      </trkpt>
      <trkpt lat="48.87391" lon="2.31594">
        <ele>90.7</ele>
        <time>2015-01-19T19:43:57.030Z</time>
      </trkpt>
      <trkpt lat="48.8739" lon="2.31585">
        <ele>92.2</ele>
        <time>2015-01-19T19:43:59.952Z</time>
      </trkpt>
      <trkpt lat="48.87388" lon="2.31581">
        <ele>92.8</ele>
        <time>2015-01-19T19:44:01.016Z</time>
      </trkpt>
      <trkpt lat="48.87385" lon="2.31574">
        <ele>93.5</ele>
        <time>2015-01-19T19:44:03.081Z</time>
      </trkpt>
      <trkpt lat="48.87384" lon="2.31568">
        <ele>93.2</ele>
        <time>2015-01-19T19:44:03.941Z</time>
      </trkpt>
      <trkpt lat="48.87382" lon="2.31559">
        <ele>93</ele>
        <time>2015-01-19T19:44:05.943Z</time>
      </trkpt>
      <trkpt lat="48.87381" lon="2.31554">
        <ele>92.9</ele>
        <time>2015-01-19T19:44:06.953Z</time>
      </trkpt>
      <trkpt lat="48.87379" lon="2.31545">
        <ele>92.5</ele>
        <time>2015-01-19T19:44:08.986Z</time>
      </trkpt>
      <trkpt lat="48.87378" lon="2.3154">
        <ele>92.6</ele>
        <time>2015-01-19T19:44:10.022Z</time>
      </trkpt>
      <trkpt lat="48.87377" lon="2.31526">
        <ele>91.9</ele>
        <time>2015-01-19T19:44:11.957Z</time>
      </trkpt>
      <trkpt lat="48.87377" lon="2.31519">
        <ele>91.5</ele>
        <time>2015-01-19T19:44:13.054Z</time>
      </trkpt>
      <trkpt lat="48.87377" lon="2.31511">
        <ele>90.9</ele>
        <time>2015-01-19T19:44:14.024Z</time>
      </trkpt>
      <trkpt lat="48.87376" lon="2.31504">
        <ele>90.5</ele>
        <time>2015-01-19T19:44:15.049Z</time>
      </trkpt>
      <trkpt lat="48.87373" lon="2.31493">
        <ele>90.7</ele>
        <time>2015-01-19T19:44:16.931Z</time>
      </trkpt>
      <trkpt lat="48.87372" lon="2.31485">
        <ele>90.9</ele>
        <time>2015-01-19T19:44:17.949Z</time>
      </trkpt>
      <trkpt lat="48.87371" lon="2.31474">
        <ele>91.3</ele>
        <time>2015-01-19T19:44:19.968Z</time>
      </trkpt>
      <trkpt lat="48.8737" lon="2.3147">
        <ele>91.7</ele>
        <time>2015-01-19T19:44:20.975Z</time>
      </trkpt>
      <trkpt lat="48.87373" lon="2.31457">
        <ele>93.3</ele>
        <time>2015-01-19T19:44:24.931Z</time>
      </trkpt>
      <trkpt lat="48.87375" lon="2.31456">
        <ele>94</ele>
        <time>2015-01-19T19:44:25.959Z</time>
      </trkpt>
      <trkpt lat="48.87383" lon="2.3145">
        <ele>97.1</ele>
        <time>2015-01-19T19:44:29.913Z</time>
      </trkpt>
      <trkpt lat="48.87385" lon="2.31448">
        <ele>98</ele>
        <time>2015-01-19T19:44:30.983Z</time>
      </trkpt>
      <trkpt lat="48.87393" lon="2.31447">
        <ele>99.8</ele>
        <time>2015-01-19T19:44:33.989Z</time>
      </trkpt>
      <trkpt lat="48.87396" lon="2.31447">
        <ele>100.3</ele>
        <time>2015-01-19T19:44:35.022Z</time>
      </trkpt>
      <trkpt lat="48.87404" lon="2.31446">
        <ele>101.2</ele>
        <time>2015-01-19T19:44:36.953Z</time>
      </trkpt>
      <trkpt lat="48.87407" lon="2.31447">
        <ele>101.4</ele>
        <time>2015-01-19T19:44:37.981Z</time>
      </trkpt>
      <trkpt lat="48.87413" lon="2.31449">
        <ele>101.8</ele>
        <time>2015-01-19T19:44:40.002Z</time>
      </trkpt>
      <trkpt lat="48.87417" lon="2.31448">
        <ele>102</ele>
        <time>2015-01-19T19:44:41.086Z</time>
      </trkpt>
      <trkpt lat="48.87424" lon="2.31447">
        <ele>102.2</ele>
        <time>2015-01-19T19:44:42.950Z</time>
      </trkpt>
      <trkpt lat="48.87426" lon="2.31447">
        <ele>102.4</ele>
        <time>2015-01-19T19:44:44.120Z</time>
      </trkpt>
      <trkpt lat="48.87434" lon="2.31447">
        <ele>102.6</ele>
        <time>2015-01-19T19:44:47.492Z</time>
      </trkpt>
      <trkpt lat="48.87436" lon="2.31446">
        <ele>102.6</ele>
        <time>2015-01-19T19:44:47.938Z</time>
      </trkpt>
      <trkpt lat="48.87444" lon="2.31449">
        <ele>102.8</ele>
        <time>2015-01-19T19:44:51.998Z</time>
      </trkpt>
      <trkpt lat="48.87448" lon="2.31449">
        <ele>102.8</ele>
        <time>2015-01-19T19:44:53.130Z</time>
      </trkpt>
      <trkpt lat="48.87455" lon="2.31445">
        <ele>102.5</ele>
        <time>2015-01-19T19:44:56.008Z</time>
      </trkpt>
      <trkpt lat="48.87457" lon="2.31444">
        <ele>102.4</ele>
        <time>2015-01-19T19:44:56.966Z</time>
      </trkpt>
      <trkpt lat="48.87462" lon="2.31441">
        <ele>102.3</ele>
        <time>2015-01-19T19:44:58.948Z</time>
      </trkpt>
      <trkpt lat="48.87466" lon="2.31439">
        <ele>102.6</ele>
        <time>2015-01-19T19:44:59.957Z</time>
      </trkpt>
      <trkpt lat="48.87466" lon="2.31439">
        <ele>102.6</ele>
        <time>2015-01-19T19:45:00.680Z</time>
      </trkpt>
      <trkpt lat="48.87469" lon="2.31438">
        <ele>102.8</ele>
        <time>2015-01-19T19:45:00.966Z</time>
      </trkpt>
      <trkpt lat="48.87473" lon="2.31433">
        <ele>102.9</ele>
        <time>2015-01-19T19:45:01.975Z</time>
      </trkpt>
      <trkpt lat="48.87477" lon="2.31425">
        <ele>100.9</ele>
        <time>2015-01-19T19:45:02.981Z</time>
      </trkpt>
      <trkpt lat="48.87479" lon="2.3142">
        <ele>99.8</ele>
        <time>2015-01-19T19:45:04.018Z</time>
      </trkpt>
      <trkpt lat="48.87481" lon="2.31408">
        <ele>100.1</ele>
        <time>2015-01-19T19:45:09.076Z</time>
      </trkpt>
      <trkpt lat="48.87481" lon="2.31407">
        <ele>100.5</ele>
        <time>2015-01-19T19:45:09.991Z</time>
      </trkpt>
      <trkpt lat="48.87483" lon="2.31394">
        <ele>101.1</ele>
        <time>2015-01-19T19:45:14.989Z</time>
      </trkpt>
      <trkpt lat="48.87484" lon="2.31392">
        <ele>100.9</ele>
        <time>2015-01-19T19:45:16.064Z</time>
      </trkpt>
      <trkpt lat="48.87484" lon="2.31379">
        <ele>100.4</ele>
        <time>2015-01-19T19:45:19.983Z</time>
      </trkpt>
      <trkpt lat="48.87484" lon="2.31374">
        <ele>100.1</ele>
        <time>2015-01-19T19:45:20.993Z</time>
      </trkpt>
      <trkpt lat="48.87484" lon="2.31362">
        <ele>99.6</ele>
        <time>2015-01-19T19:45:23.030Z</time>
      </trkpt>
      <trkpt lat="48.87483" lon="2.31355">
        <ele>99.2</ele>
        <time>2015-01-19T19:45:24.043Z</time>
      </trkpt>
      <trkpt lat="48.87483" lon="2.31342">
        <ele>98.6</ele>
        <time>2015-01-19T19:45:26.363Z</time>
      </trkpt>
      <trkpt lat="48.87481" lon="2.31335">
        <ele>98.7</ele>
        <time>2015-01-19T19:45:26.986Z</time>
      </trkpt>
      <trkpt lat="48.87479" lon="2.31325">
        <ele>98.6</ele>
        <time>2015-01-19T19:45:29.675Z</time>
      </trkpt>
      <trkpt lat="48.87479" lon="2.31319">
        <ele>98.5</ele>
        <time>2015-01-19T19:45:29.908Z</time>
      </trkpt>
      <trkpt lat="48.87479" lon="2.31309">
        <ele>98.1</ele>
        <time>2015-01-19T19:45:31.973Z</time>
      </trkpt>
      <trkpt lat="48.87479" lon="2.31304">
        <ele>98</ele>
        <time>2015-01-19T19:45:32.986Z</time>
      </trkpt>
      <trkpt lat="48.87479" lon="2.31294">
        <ele>97.8</ele>
        <time>2015-01-19T19:45:36.008Z</time>
      </trkpt>
      <trkpt lat="48.87478" lon="2.3129">
        <ele>97.8</ele>
        <time>2015-01-19T19:45:36.903Z</time>
      </trkpt>
      <trkpt lat="48.87473" lon="2.31281">
        <ele>98.2</ele>
        <time>2015-01-19T19:45:39.974Z</time>
      </trkpt>
      <trkpt lat="48.87472" lon="2.31277">
        <ele>98.3</ele>
        <time>2015-01-19T19:45:40.997Z</time>
      </trkpt>
      <trkpt lat="48.87471" lon="2.31264">
        <ele>98.1</ele>
        <time>2015-01-19T19:45:44.981Z</time>
      </trkpt>
      <trkpt lat="48.8747" lon="2.31259">
        <ele>98</ele>
        <time>2015-01-19T19:45:45.038Z</time>
      </trkpt>
      <trkpt lat="48.8747" lon="2.31246">
        <ele>97.4</ele>
        <time>2015-01-19T19:45:46.988Z</time>
      </trkpt>
      <trkpt lat="48.87469" lon="2.31238">
        <ele>97.1</ele>
        <time>2015-01-19T19:45:48.046Z</time>
      </trkpt>
      <trkpt lat="48.87469" lon="2.31231">
        <ele>96.9</ele>
        <time>2015-01-19T19:45:48.930Z</time>
      </trkpt>
      <trkpt lat="48.87468" lon="2.31223">
        <ele>96.8</ele>
        <time>2015-01-19T19:45:49.932Z</time>
      </trkpt>
      <trkpt lat="48.87467" lon="2.31216">
        <ele>96.7</ele>
        <time>2015-01-19T19:45:50.949Z</time>
      </trkpt>
      <trkpt lat="48.87466" lon="2.31209">
        <ele>96.7</ele>
        <time>2015-01-19T19:45:51.953Z</time>
      </trkpt>
      <trkpt lat="48.87464" lon="2.312">
        <ele>97.2</ele>
        <time>2015-01-19T19:45:52.966Z</time>
      </trkpt>
      <trkpt lat="48.87464" lon="2.31191">
        <ele>97.6</ele>
        <time>2015-01-19T19:45:53.973Z</time>
      </trkpt>
      <trkpt lat="48.87464" lon="2.31183">
        <ele>97.7</ele>
        <time>2015-01-19T19:45:55.001Z</time>
      </trkpt>
      <trkpt lat="48.87464" lon="2.31175">
        <ele>97.5</ele>
        <time>2015-01-19T19:45:56.010Z</time>
      </trkpt>
      <trkpt lat="48.87464" lon="2.31168">
        <ele>97.2</ele>
        <time>2015-01-19T19:45:57.020Z</time>
      </trkpt>
      <trkpt lat="48.87463" lon="2.31161">
        <ele>97</ele>
        <time>2015-01-19T19:45:57.922Z</time>
      </trkpt>
      <trkpt lat="48.87461" lon="2.31149">
        <ele>96.8</ele>
        <time>2015-01-19T19:45:59.931Z</time>
      </trkpt>
      <trkpt lat="48.8746" lon="2.31142">
        <ele>96.5</ele>
        <time>2015-01-19T19:46:00.945Z</time>
      </trkpt>
      <trkpt lat="48.87459" lon="2.3113">
        <ele>96.2</ele>
        <time>2015-01-19T19:46:02.914Z</time>
      </trkpt>
      <trkpt lat="48.87459" lon="2.31124">
        <ele>96</ele>
        <time>2015-01-19T19:46:03.984Z</time>
      </trkpt>
      <trkpt lat="48.87457" lon="2.31114">
        <ele>95.5</ele>
        <time>2015-01-19T19:46:06.037Z</time>
      </trkpt>
      <trkpt lat="48.87456" lon="2.31109">
        <ele>95.4</ele>
        <time>2015-01-19T19:46:06.919Z</time>
      </trkpt>
      <trkpt lat="48.87453" lon="2.31096">
        <ele>95.1</ele>
        <time>2015-01-19T19:46:08.977Z</time>
      </trkpt>
      <trkpt lat="48.87452" lon="2.3109">
        <ele>95</ele>
        <time>2015-01-19T19:46:09.986Z</time>
      </trkpt>
      <trkpt lat="48.87449" lon="2.31077">
        <ele>94.7</ele>
        <time>2015-01-19T19:46:11.909Z</time>
      </trkpt>
      <trkpt lat="48.87448" lon="2.31071">
        <ele>94.6</ele>
        <time>2015-01-19T19:46:12.932Z</time>
      </trkpt>
      <trkpt lat="48.87447" lon="2.3106">
        <ele>94.3</ele>
        <time>2015-01-19T19:46:14.994Z</time>
      </trkpt>
      <trkpt lat="48.87446" lon="2.31055">
        <ele>94.2</ele>
        <time>2015-01-19T19:46:16.034Z</time>
      </trkpt>
      <trkpt lat="48.87444" lon="2.31045">
        <ele>94</ele>
        <time>2015-01-19T19:46:17.972Z</time>
      </trkpt>
      <trkpt lat="48.87443" lon="2.3104">
        <ele>93.9</ele>
        <time>2015-01-19T19:46:18.966Z</time>
      </trkpt>
      <trkpt lat="48.87439" lon="2.31028">
        <ele>93.8</ele>
        <time>2015-01-19T19:46:22.056Z</time>
      </trkpt>
      <trkpt lat="48.87439" lon="2.31025">
        <ele>93.8</ele>
        <time>2015-01-19T19:46:22.945Z</time>
      </trkpt>
      <trkpt lat="48.8744" lon="2.31012">
        <ele>97.5</ele>
        <time>2015-01-19T19:46:34.033Z</time>
      </trkpt>
      <trkpt lat="48.87441" lon="2.31011">
        <ele>98</ele>
        <time>2015-01-19T19:46:34.936Z</time>
      </trkpt>
      <trkpt lat="48.87446" lon="2.31003">
        <ele>99.2</ele>
        <time>2015-01-19T19:46:39.025Z</time>
      </trkpt>
      <trkpt lat="48.87447" lon="2.31001">
        <ele>99.5</ele>
        <time>2015-01-19T19:46:39.907Z</time>
      </trkpt>
      <trkpt lat="48.87453" lon="2.30997">
        <ele>100.3</ele>
        <time>2015-01-19T19:46:42.908Z</time>
      </trkpt>
      <trkpt lat="48.87455" lon="2.30995">
        <ele>100.6</ele>
        <time>2015-01-19T19:46:43.983Z</time>
      </trkpt>
      <trkpt lat="48.87458" lon="2.30983">
        <ele>102.1</ele>
        <time>2015-01-19T19:46:48.949Z</time>
      </trkpt>
      <trkpt lat="48.87458" lon="2.30979">
        <ele>102.4</ele>
        <time>2015-01-19T19:46:49.987Z</time>
      </trkpt>
      <trkpt lat="48.87454" lon="2.30968">
        <ele>103.2</ele>
        <time>2015-01-19T19:46:54.956Z</time>
      </trkpt>
      <trkpt lat="48.87454" lon="2.30966">
        <ele>103.3</ele>
        <time>2015-01-19T19:46:56.072Z</time>
      </trkpt>
      <trkpt lat="48.87455" lon="2.30954">
        <ele>104.2</ele>
        <time>2015-01-19T19:47:02.052Z</time>
      </trkpt>
      <trkpt lat="48.87454" lon="2.30952">
        <ele>104.4</ele>
        <time>2015-01-19T19:47:03.069Z</time>
      </trkpt>
      <trkpt lat="48.87448" lon="2.30946">
        <ele>104.8</ele>
        <time>2015-01-19T19:47:05.978Z</time>
      </trkpt>
      <trkpt lat="48.87443" lon="2.3094">
        <ele>105.2</ele>
        <time>2015-01-19T19:47:06.990Z</time>
      </trkpt>
      <trkpt lat="48.87437" lon="2.30932">
        <ele>105.1</ele>
        <time>2015-01-19T19:47:08.935Z</time>
      </trkpt>
      <trkpt lat="48.87434" lon="2.3093">
        <ele>105.1</ele>
        <time>2015-01-19T19:47:09.948Z</time>
      </trkpt>
      <trkpt lat="48.87428" lon="2.30924">
        <ele>105.1</ele>
        <time>2015-01-19T19:47:11.996Z</time>
      </trkpt>
      <trkpt lat="48.87426" lon="2.30921">
        <ele>105.1</ele>
        <time>2015-01-19T19:47:12.997Z</time>
      </trkpt>
      <trkpt lat="48.87421" lon="2.30914">
        <ele>105.1</ele>
        <time>2015-01-19T19:47:14.930Z</time>
      </trkpt>
      <trkpt lat="48.87417" lon="2.30909">
        <ele>104.9</ele>
        <time>2015-01-19T19:47:15.965Z</time>
      </trkpt>
      <trkpt lat="48.87411" lon="2.30898">
        <ele>104.3</ele>
        <time>2015-01-19T19:47:18.012Z</time>
      </trkpt>
      <trkpt lat="48.87408" lon="2.30893">
        <ele>104</ele>
        <time>2015-01-19T19:47:19.039Z</time>
      </trkpt>
      <trkpt lat="48.87402" lon="2.30885">
        <ele>103.6</ele>
        <time>2015-01-19T19:47:20.993Z</time>
      </trkpt>
      <trkpt lat="48.874" lon="2.30881">
        <ele>103.4</ele>
        <time>2015-01-19T19:47:22.007Z</time>
      </trkpt>
      <trkpt lat="48.87398" lon="2.30877">
        <ele>103.1</ele>
        <time>2015-01-19T19:47:23.042Z</time>
      </trkpt>
      <trkpt lat="48.87402" lon="2.30864">
        <ele>100.9</ele>
        <time>2015-01-19T19:47:23.936Z</time>
      </trkpt>
      <trkpt lat="48.874" lon="2.30853">
        <ele>100.2</ele>
        <time>2015-01-19T19:47:26.982Z</time>
      </trkpt>
      <trkpt lat="48.874" lon="2.3085">
        <ele>100.3</ele>
        <time>2015-01-19T19:47:28.127Z</time>
      </trkpt>
      <trkpt lat="48.87404" lon="2.30839">
        <ele>98.7</ele>
        <time>2015-01-19T19:47:31.009Z</time>
      </trkpt>
      <trkpt lat="48.87405" lon="2.30836">
        <ele>98.3</ele>
        <time>2015-01-19T19:47:32.024Z</time>
      </trkpt>
      <trkpt lat="48.87408" lon="2.30824">
        <ele>96.5</ele>
        <time>2015-01-19T19:47:35.967Z</time>
      </trkpt>
      <trkpt lat="48.87409" lon="2.30821">
        <ele>96.6</ele>
        <time>2015-01-19T19:47:36.980Z</time>
      </trkpt>
      <trkpt lat="48.87412" lon="2.30809">
        <ele>96.5</ele>
        <time>2015-01-19T19:47:40.035Z</time>
      </trkpt>
      <trkpt lat="48.87413" lon="2.30806">
        <ele>96.5</ele>
        <time>2015-01-19T19:47:40.949Z</time>
      </trkpt>
      <trkpt lat="48.87415" lon="2.30796">
        <ele>96.5</ele>
        <time>2015-01-19T19:47:43.969Z</time>
      </trkpt>
      <trkpt lat="48.87415" lon="2.30791">
        <ele>96.4</ele>
        <time>2015-01-19T19:47:44.983Z</time>
      </trkpt>
      <trkpt lat="48.87416" lon="2.30782">
        <ele>96.4</ele>
        <time>2015-01-19T19:47:46.932Z</time>
      </trkpt>
      <trkpt lat="48.87415" lon="2.30776">
        <ele>96.6</ele>
        <time>2015-01-19T19:47:47.945Z</time>
      </trkpt>
      <trkpt lat="48.87419" lon="2.30767">
        <ele>96.6</ele>
        <time>2015-01-19T19:47:51.923Z</time>
      </trkpt>
      <trkpt lat="48.87418" lon="2.30763">
        <ele>97</ele>
        <time>2015-01-19T19:47:52.943Z</time>
      </trkpt>
      <trkpt lat="48.87417" lon="2.30756">
        <ele>98.1</ele>
        <time>2015-01-19T19:48:15.970Z</time>
      </trkpt>
      <trkpt lat="48.87418" lon="2.30735">
        <ele>98.6</ele>
        <time>2015-01-19T19:48:17.008Z</time>
      </trkpt>
      <trkpt lat="48.87417" lon="2.3073">
        <ele>99</ele>
        <time>2015-01-19T19:48:23.022Z</time>
      </trkpt>
      <trkpt lat="48.87412" lon="2.30723">
        <ele>98.1</ele>
        <time>2015-01-19T19:48:29.999Z</time>
      </trkpt>
      <trkpt lat="48.87406" lon="2.30714">
        <ele>97.2</ele>
        <time>2015-01-19T19:48:34.964Z</time>
      </trkpt>
      <trkpt lat="48.87404" lon="2.30711">
        <ele>97</ele>
        <time>2015-01-19T19:48:35.986Z</time>
      </trkpt>
      <trkpt lat="48.87398" lon="2.307">
        <ele>96.9</ele>
        <time>2015-01-19T19:48:39.059Z</time>
      </trkpt>
      <trkpt lat="48.87396" lon="2.30696">
        <ele>97</ele>
        <time>2015-01-19T19:48:39.936Z</time>
      </trkpt>
      <trkpt lat="48.87392" lon="2.30689">
        <ele>97.2</ele>
        <time>2015-01-19T19:48:42.000Z</time>
      </trkpt>
      <trkpt lat="48.87389" lon="2.30681">
        <ele>97.8</ele>
        <time>2015-01-19T19:48:43.032Z</time>
      </trkpt>
      <trkpt lat="48.87383" lon="2.30673">
        <ele>98.4</ele>
        <time>2015-01-19T19:48:44.957Z</time>
      </trkpt>
      <trkpt lat="48.87381" lon="2.30669">
        <ele>98.6</ele>
        <time>2015-01-19T19:48:45.985Z</time>
      </trkpt>
      <trkpt lat="48.87376" lon="2.30657">
        <ele>99</ele>
        <time>2015-01-19T19:48:51.947Z</time>
      </trkpt>
      <trkpt lat="48.87378" lon="2.30654">
        <ele>99</ele>
        <time>2015-01-19T19:48:53.014Z</time>
      </trkpt>
      <trkpt lat="48.87372" lon="2.30647">
        <ele>98.7</ele>
        <time>2015-01-19T19:49:07.993Z</time>
      </trkpt>
      <trkpt lat="48.87371" lon="2.30644">
        <ele>98.9</ele>
        <time>2015-01-19T19:49:08.949Z</time>
      </trkpt>
      <trkpt lat="48.87365" lon="2.30636">
        <ele>98.7</ele>
        <time>2015-01-19T19:49:12.938Z</time>
      </trkpt>
      <trkpt lat="48.87362" lon="2.30635">
        <ele>98.6</ele>
        <time>2015-01-19T19:49:13.989Z</time>
      </trkpt>
      <trkpt lat="48.87355" lon="2.30632">
        <ele>98.1</ele>
        <time>2015-01-19T19:49:16.944Z</time>
      </trkpt>
      <trkpt lat="48.87353" lon="2.3063">
        <ele>98</ele>
        <time>2015-01-19T19:49:17.963Z</time>
      </trkpt>
      <trkpt lat="48.87349" lon="2.30618">
        <ele>98</ele>
        <time>2015-01-19T19:49:21.943Z</time>
      </trkpt>
      <trkpt lat="48.87348" lon="2.30615">
        <ele>98</ele>
        <time>2015-01-19T19:49:22.949Z</time>
      </trkpt>
      <trkpt lat="48.87342" lon="2.30607">
        <ele>97.9</ele>
        <time>2015-01-19T19:49:25.983Z</time>
      </trkpt>
      <trkpt lat="48.87339" lon="2.30603">
        <ele>97.7</ele>
        <time>2015-01-19T19:49:26.917Z</time>
      </trkpt>
      <trkpt lat="48.87335" lon="2.30596">
        <ele>97.5</ele>
        <time>2015-01-19T19:49:29.021Z</time>
      </trkpt>
      <trkpt lat="48.87331" lon="2.30591">
        <ele>97.4</ele>
        <time>2015-01-19T19:49:30.063Z</time>
      </trkpt>
      <trkpt lat="48.87326" lon="2.3058">
        <ele>97.1</ele>
        <time>2015-01-19T19:49:32.004Z</time>
      </trkpt>
      <trkpt lat="48.87324" lon="2.30575">
        <ele>97.1</ele>
        <time>2015-01-19T19:49:33.060Z</time>
      </trkpt>
      <trkpt lat="48.87319" lon="2.30564">
        <ele>97.2</ele>
        <time>2015-01-19T19:49:35.385Z</time>
      </trkpt>
      <trkpt lat="48.87317" lon="2.3056">
        <ele>97.3</ele>
        <time>2015-01-19T19:49:36.033Z</time>
      </trkpt>
      <trkpt lat="48.87313" lon="2.30552">
        <ele>98.2</ele>
        <time>2015-01-19T19:49:37.978Z</time>
      </trkpt>
      <trkpt lat="48.87311" lon="2.30546">
        <ele>98.3</ele>
        <time>2015-01-19T19:49:39.007Z</time>
      </trkpt>
      <trkpt lat="48.87308" lon="2.3054">
        <ele>98.3</ele>
        <time>2015-01-19T19:49:40.414Z</time>
      </trkpt>
      <trkpt lat="48.87305" lon="2.30535">
        <ele>98.4</ele>
        <time>2015-01-19T19:49:40.935Z</time>
      </trkpt>
      <trkpt lat="48.87302" lon="2.3053">
        <ele>98.6</ele>
        <time>2015-01-19T19:49:41.922Z</time>
      </trkpt>
      <trkpt lat="48.87299" lon="2.30524">
        <ele>98.8</ele>
        <time>2015-01-19T19:49:42.981Z</time>
      </trkpt>
      <trkpt lat="48.87296" lon="2.30517">
        <ele>99</ele>
        <time>2015-01-19T19:49:44.006Z</time>
      </trkpt>
      <trkpt lat="48.87293" lon="2.30511">
        <ele>99.1</ele>
        <time>2015-01-19T19:49:44.967Z</time>
      </trkpt>
      <trkpt lat="48.8729" lon="2.30505">
        <ele>99</ele>
        <time>2015-01-19T19:49:46.016Z</time>
      </trkpt>
      <trkpt lat="48.87287" lon="2.30499">
        <ele>99.2</ele>
        <time>2015-01-19T19:49:47.025Z</time>
      </trkpt>
      <trkpt lat="48.87281" lon="2.30489">
        <ele>99.4</ele>
        <time>2015-01-19T19:49:49.012Z</time>
      </trkpt>
      <trkpt lat="48.87278" lon="2.30484">
        <ele>99.4</ele>
        <time>2015-01-19T19:49:49.991Z</time>
      </trkpt>
      <trkpt lat="48.87274" lon="2.30475">
        <ele>99.2</ele>
        <time>2015-01-19T19:49:52.025Z</time>
      </trkpt>
      <trkpt lat="48.87272" lon="2.30472">
        <ele>99.2</ele>
        <time>2015-01-19T19:49:53.040Z</time>
      </trkpt>
      <trkpt lat="48.87268" lon="2.30464">
        <ele>99.1</ele>
        <time>2015-01-19T19:49:55.617Z</time>
      </trkpt>
      <trkpt lat="48.87264" lon="2.3045">
        <ele>98.9</ele>
        <time>2015-01-19T19:49:58.016Z</time>
      </trkpt>
      <trkpt lat="48.8726" lon="2.3044">
        <ele>98.8</ele>
        <time>2015-01-19T19:50:00.697Z</time>
      </trkpt>
      <trkpt lat="48.87257" lon="2.30435">
        <ele>98.9</ele>
        <time>2015-01-19T19:50:00.937Z</time>
      </trkpt>
      <trkpt lat="48.87252" lon="2.30424">
        <ele>99.2</ele>
        <time>2015-01-19T19:50:03.073Z</time>
      </trkpt>
      <trkpt lat="48.87249" lon="2.30419">
        <ele>99.4</ele>
        <time>2015-01-19T19:50:03.963Z</time>
      </trkpt>
      <trkpt lat="48.87247" lon="2.30413">
        <ele>99.5</ele>
        <time>2015-01-19T19:50:05.814Z</time>
      </trkpt>
      <trkpt lat="48.87244" lon="2.30407">
        <ele>99.5</ele>
        <time>2015-01-19T19:50:05.987Z</time>
      </trkpt>
      <trkpt lat="48.87241" lon="2.30401">
        <ele>99.6</ele>
        <time>2015-01-19T19:50:06.929Z</time>
      </trkpt>
      <trkpt lat="48.87237" lon="2.30397">
        <ele>99.7</ele>
        <time>2015-01-19T19:50:07.954Z</time>
      </trkpt>
      <trkpt lat="48.87234" lon="2.30391">
        <ele>100.1</ele>
        <time>2015-01-19T19:50:08.958Z</time>
      </trkpt>
      <trkpt lat="48.87231" lon="2.30386">
        <ele>100.2</ele>
        <time>2015-01-19T19:50:09.979Z</time>
      </trkpt>
      <trkpt lat="48.87225" lon="2.30378">
        <ele>100.3</ele>
        <time>2015-01-19T19:50:12.013Z</time>
      </trkpt>
      <trkpt lat="48.87222" lon="2.30374">
        <ele>100.4</ele>
        <time>2015-01-19T19:50:12.948Z</time>
      </trkpt>
      <trkpt lat="48.87217" lon="2.30366">
        <ele>100.8</ele>
        <time>2015-01-19T19:50:14.937Z</time>
      </trkpt>
      <trkpt lat="48.87215" lon="2.30362">
        <ele>101.1</ele>
        <time>2015-01-19T19:50:16.035Z</time>
      </trkpt>
      <trkpt lat="48.8721" lon="2.30352">
        <ele>101.5</ele>
        <time>2015-01-19T19:50:17.935Z</time>
      </trkpt>
      <trkpt lat="48.87207" lon="2.30347">
        <ele>101.8</ele>
        <time>2015-01-19T19:50:18.970Z</time>
      </trkpt>
      <trkpt lat="48.87203" lon="2.30338">
        <ele>102.5</ele>
        <time>2015-01-19T19:50:21.398Z</time>
      </trkpt>
      <trkpt lat="48.872" lon="2.30333">
        <ele>102.7</ele>
        <time>2015-01-19T19:50:21.985Z</time>
      </trkpt>
      <trkpt lat="48.87196" lon="2.30323">
        <ele>102.6</ele>
        <time>2015-01-19T19:50:23.973Z</time>
      </trkpt>
      <trkpt lat="48.87194" lon="2.3032">
        <ele>102.7</ele>
        <time>2015-01-19T19:50:24.982Z</time>
      </trkpt>
      <trkpt lat="48.8719" lon="2.30312">
        <ele>102.8</ele>
        <time>2015-01-19T19:50:27.009Z</time>
      </trkpt>
      <trkpt lat="48.87188" lon="2.30309">
        <ele>102.6</ele>
        <time>2015-01-19T19:50:27.915Z</time>
      </trkpt>
      <trkpt lat="48.87183" lon="2.30301">
        <ele>102.6</ele>
        <time>2015-01-19T19:50:29.940Z</time>
      </trkpt>
      <trkpt lat="48.87181" lon="2.30299">
        <ele>102.5</ele>
        <time>2015-01-19T19:50:30.979Z</time>
      </trkpt>
      <trkpt lat="48.87178" lon="2.30286">
        <ele>101.7</ele>
        <time>2015-01-19T19:50:34.761Z</time>
      </trkpt>
      <trkpt lat="48.87178" lon="2.30281">
        <ele>101</ele>
        <time>2015-01-19T19:50:35.017Z</time>
      </trkpt>
      <trkpt lat="48.87178" lon="2.30269">
        <ele>99.8</ele>
        <time>2015-01-19T19:50:38.993Z</time>
      </trkpt>
      <trkpt lat="48.87177" lon="2.30267">
        <ele>99.5</ele>
        <time>2015-01-19T19:50:40.012Z</time>
      </trkpt>
      <trkpt lat="48.87169" lon="2.30263">
        <ele>95.3</ele>
        <time>2015-01-19T19:50:45.934Z</time>
      </trkpt>
      <trkpt lat="48.87168" lon="2.30261">
        <ele>95.1</ele>
        <time>2015-01-19T19:50:47.048Z</time>
      </trkpt>
      <trkpt lat="48.87162" lon="2.30255">
        <ele>94.7</ele>
        <time>2015-01-19T19:50:51.001Z</time>
      </trkpt>
      <trkpt lat="48.87159" lon="2.30252">
        <ele>94.4</ele>
        <time>2015-01-19T19:50:52.090Z</time>
      </trkpt>
      <trkpt lat="48.87155" lon="2.30244">
        <ele>94.7</ele>
        <time>2015-01-19T19:50:53.963Z</time>
      </trkpt>
      <trkpt lat="48.87153" lon="2.30241">
        <ele>94.9</ele>
        <time>2015-01-19T19:50:54.989Z</time>
      </trkpt>
      <trkpt lat="48.87146" lon="2.30233">
        <ele>95.8</ele>
        <time>2015-01-19T19:51:00.385Z</time>
      </trkpt>
      <trkpt lat="48.87145" lon="2.30232">
        <ele>95.9</ele>
        <time>2015-01-19T19:51:00.971Z</time>
      </trkpt>
      <trkpt lat="48.87144" lon="2.30221">
        <ele>95.5</ele>
        <time>2015-01-19T19:51:04.003Z</time>
      </trkpt>
      <trkpt lat="48.87144" lon="2.30216">
        <ele>95.3</ele>
        <time>2015-01-19T19:51:05.018Z</time>
      </trkpt>
      <trkpt lat="48.87142" lon="2.30204">
        <ele>96.6</ele>
        <time>2015-01-19T19:51:10.639Z</time>
      </trkpt>
      <trkpt lat="48.87143" lon="2.30201">
        <ele>96.3</ele>
        <time>2015-01-19T19:51:10.995Z</time>
      </trkpt>
      <trkpt lat="48.87146" lon="2.30188">
        <ele>95.8</ele>
        <time>2015-01-19T19:51:14.055Z</time>
      </trkpt>
      <trkpt lat="48.87147" lon="2.30184">
        <ele>95.7</ele>
        <time>2015-01-19T19:51:15.056Z</time>
      </trkpt>
      <trkpt lat="48.87149" lon="2.30174">
        <ele>95.6</ele>
        <time>2015-01-19T19:51:17.011Z</time>
      </trkpt>
      <trkpt lat="48.8715" lon="2.30169">
        <ele>95.8</ele>
        <time>2015-01-19T19:51:18.021Z</time>
      </trkpt>
      <trkpt lat="48.87152" lon="2.30159">
        <ele>96.4</ele>
        <time>2015-01-19T19:51:20.811Z</time>
      </trkpt>
      <trkpt lat="48.87153" lon="2.30154">
        <ele>96.6</ele>
        <time>2015-01-19T19:51:21.124Z</time>
      </trkpt>
      <trkpt lat="48.87155" lon="2.30144">
        <ele>97.1</ele>
        <time>2015-01-19T19:51:23.016Z</time>
      </trkpt>
      <trkpt lat="48.87156" lon="2.30139">
        <ele>97.5</ele>
        <time>2015-01-19T19:51:24.033Z</time>
      </trkpt>
      <trkpt lat="48.87158" lon="2.3013">
        <ele>97.8</ele>
        <time>2015-01-19T19:51:25.971Z</time>
      </trkpt>
      <trkpt lat="48.87158" lon="2.30125">
        <ele>98</ele>
        <time>2015-01-19T19:51:27.024Z</time>
      </trkpt>
      <trkpt lat="48.8716" lon="2.30113">
        <ele>98.7</ele>
        <time>2015-01-19T19:51:29.045Z</time>
      </trkpt>
      <trkpt lat="48.87162" lon="2.30109">
        <ele>99</ele>
        <time>2015-01-19T19:51:29.961Z</time>
      </trkpt>
      <trkpt lat="48.87163" lon="2.30099">
        <ele>99.1</ele>
        <time>2015-01-19T19:51:31.997Z</time>
      </trkpt>
      <trkpt lat="48.87162" lon="2.30092">
        <ele>99.3</ele>
        <time>2015-01-19T19:51:33.001Z</time>
      </trkpt>
      <trkpt lat="48.87162" lon="2.30079">
        <ele>100</ele>
        <time>2015-01-19T19:51:36.025Z</time>
      </trkpt>
      <trkpt lat="48.87162" lon="2.30075">
        <ele>100.5</ele>
        <time>2015-01-19T19:51:37.044Z</time>
      </trkpt>
      <trkpt lat="48.87167" lon="2.30065">
        <ele>99</ele>
        <time>2015-01-19T19:52:20.707Z</time>
      </trkpt>
      <trkpt lat="48.87167" lon="2.30062">
        <ele>98.9</ele>
        <time>2015-01-19T19:52:20.948Z</time>
      </trkpt>
      <trkpt lat="48.8717" lon="2.30051">
        <ele>99.6</ele>
        <time>2015-01-19T19:52:23.965Z</time>
      </trkpt>
      <trkpt lat="48.87172" lon="2.30049">
        <ele>99.6</ele>
        <time>2015-01-19T19:52:24.951Z</time>
      </trkpt>
      <trkpt lat="48.87177" lon="2.30042">
        <ele>99.4</ele>
        <time>2015-01-19T19:52:29.718Z</time>
      </trkpt>
      <trkpt lat="48.87178" lon="2.30039">
        <ele>99.2</ele>
        <time>2015-01-19T19:52:29.996Z</time>
      </trkpt>
      <trkpt lat="48.87184" lon="2.30033">
        <ele>98.4</ele>
        <time>2015-01-19T19:52:33.028Z</time>
      </trkpt>
      <trkpt lat="48.87185" lon="2.30029">
        <ele>98.5</ele>
        <time>2015-01-19T19:52:33.933Z</time>
      </trkpt>
      <trkpt lat="48.87185" lon="2.30019">
        <ele>98.6</ele>
        <time>2015-01-19T19:52:37.008Z</time>
      </trkpt>
      <trkpt lat="48.87184" lon="2.30016">
        <ele>98.5</ele>
        <time>2015-01-19T19:52:38.067Z</time>
      </trkpt>
      <trkpt lat="48.87179" lon="2.30007">
        <ele>98.4</ele>
        <time>2015-01-19T19:52:41.097Z</time>
      </trkpt>
      <trkpt lat="48.87176" lon="2.30005">
        <ele>98.3</ele>
        <time>2015-01-19T19:52:41.918Z</time>
      </trkpt>
      <trkpt lat="48.8717" lon="2.29999">
        <ele>98.2</ele>
        <time>2015-01-19T19:52:45.012Z</time>
      </trkpt>
      <trkpt lat="48.87168" lon="2.29998">
        <ele>98.2</ele>
        <time>2015-01-19T19:52:45.907Z</time>
      </trkpt>
      <trkpt lat="48.87162" lon="2.2999">
        <ele>98.4</ele>
        <time>2015-01-19T19:52:50.051Z</time>
      </trkpt>
      <trkpt lat="48.87161" lon="2.29988">
        <ele>98.7</ele>
        <time>2015-01-19T19:52:50.939Z</time>
      </trkpt>
      <trkpt lat="48.87155" lon="2.29984">
        <ele>99.4</ele>
        <time>2015-01-19T19:52:55.072Z</time>
      </trkpt>
      <trkpt lat="48.8715" lon="2.29988">
        <ele>100.6</ele>
        <time>2015-01-19T19:52:55.949Z</time>
      </trkpt>
      <trkpt lat="48.87147" lon="2.2999">
        <ele>101.2</ele>
        <time>2015-01-19T19:52:57.001Z</time>
      </trkpt>
      <trkpt lat="48.87145" lon="2.29993">
        <ele>102.1</ele>
        <time>2015-01-19T19:53:00.333Z</time>
      </trkpt>
      <trkpt lat="48.87144" lon="2.29995">
        <ele>103.4</ele>
        <time>2015-01-19T19:53:00.929Z</time>
      </trkpt>
      <trkpt lat="48.8715" lon="2.29986">
        <ele>103.4</ele>
        <time>2015-01-19T19:53:10.506Z</time>
      </trkpt>
      <trkpt lat="48.87151" lon="2.29984">
        <ele>103.2</ele>
        <time>2015-01-19T19:53:10.922Z</time>
      </trkpt>
      <trkpt lat="48.87155" lon="2.29973">
        <ele>103.4</ele>
        <time>2015-01-19T19:53:15.023Z</time>
      </trkpt>
      <trkpt lat="48.87157" lon="2.2997">
        <ele>103.4</ele>
        <time>2015-01-19T19:53:15.888Z</time>
      </trkpt>
      <trkpt lat="48.8716" lon="2.29959">
        <ele>103.7</ele>
        <time>2015-01-19T19:53:19.008Z</time>
      </trkpt>
      <trkpt lat="48.87161" lon="2.29956">
        <ele>103.7</ele>
        <time>2015-01-19T19:53:19.982Z</time>
      </trkpt>
      <trkpt lat="48.87164" lon="2.29945">
        <ele>103.7</ele>
        <time>2015-01-19T19:53:25.635Z</time>
      </trkpt>
      <trkpt lat="48.87165" lon="2.29942">
        <ele>103.6</ele>
        <time>2015-01-19T19:53:25.982Z</time>
      </trkpt>
      <trkpt lat="48.87169" lon="2.29932">
        <ele>103.5</ele>
        <time>2015-01-19T19:53:29.689Z</time>
      </trkpt>
      <trkpt lat="48.8717" lon="2.29928">
        <ele>103.4</ele>
        <time>2015-01-19T19:53:29.910Z</time>
      </trkpt>
      <trkpt lat="48.87174" lon="2.29918">
        <ele>103.5</ele>
        <time>2015-01-19T19:53:32.945Z</time>
      </trkpt>
      <trkpt lat="48.87175" lon="2.29914">
        <ele>103.5</ele>
        <time>2015-01-19T19:53:33.950Z</time>
      </trkpt>
      <trkpt lat="48.87175" lon="2.29904">
        <ele>103.6</ele>
        <time>2015-01-19T19:53:36.965Z</time>
      </trkpt>
      <trkpt lat="48.87175" lon="2.299">
        <ele>103.6</ele>
        <time>2015-01-19T19:53:37.971Z</time>
      </trkpt>
      <trkpt lat="48.87179" lon="2.29889">
        <ele>104</ele>
        <time>2015-01-19T19:53:42.947Z</time>
      </trkpt>
      <trkpt lat="48.87179" lon="2.29887">
        <ele>104.2</ele>
        <time>2015-01-19T19:53:44.009Z</time>
      </trkpt>
      <trkpt lat="48.87183" lon="2.29875">
        <ele>105.2</ele>
        <time>2015-01-19T19:53:51.007Z</time>
      </trkpt>
      <trkpt lat="48.87185" lon="2.29872">
        <ele>105.6</ele>
        <time>2015-01-19T19:53:52.025Z</time>
      </trkpt>
      <trkpt lat="48.87187" lon="2.29862">
        <ele>106.5</ele>
        <time>2015-01-19T19:53:53.934Z</time>
      </trkpt>
      <trkpt lat="48.87188" lon="2.29857">
        <ele>107</ele>
        <time>2015-01-19T19:53:54.937Z</time>
      </trkpt>
      <trkpt lat="48.87191" lon="2.29846">
        <ele>107.8</ele>
        <time>2015-01-19T19:53:56.987Z</time>
      </trkpt>
      <trkpt lat="48.87192" lon="2.29842">
        <ele>108</ele>
        <time>2015-01-19T19:53:57.901Z</time>
      </trkpt>
      <trkpt lat="48.87195" lon="2.29832">
        <ele>108.6</ele>
        <time>2015-01-19T19:54:00.373Z</time>
      </trkpt>
      <trkpt lat="48.87196" lon="2.29828">
        <ele>108.7</ele>
        <time>2015-01-19T19:54:00.954Z</time>
      </trkpt>
      <trkpt lat="48.87199" lon="2.29819">
        <ele>108.7</ele>
        <time>2015-01-19T19:54:03.021Z</time>
      </trkpt>
      <trkpt lat="48.87201" lon="2.29812">
        <ele>108.6</ele>
        <time>2015-01-19T19:54:03.918Z</time>
      </trkpt>
      <trkpt lat="48.87203" lon="2.29802">
        <ele>108.8</ele>
        <time>2015-01-19T19:54:05.927Z</time>
      </trkpt>
      <trkpt lat="48.87204" lon="2.29796">
        <ele>108.9</ele>
        <time>2015-01-19T19:54:06.951Z</time>
      </trkpt>
      <trkpt lat="48.87208" lon="2.29786">
        <ele>108.6</ele>
        <time>2015-01-19T19:54:08.966Z</time>
      </trkpt>
      <trkpt lat="48.8721" lon="2.29781">
        <ele>108.4</ele>
        <time>2015-01-19T19:54:09.970Z</time>
      </trkpt>
      <trkpt lat="48.87215" lon="2.29774">
        <ele>108.2</ele>
        <time>2015-01-19T19:54:11.912Z</time>
      </trkpt>
      <trkpt lat="48.87218" lon="2.29769">
        <ele>107.9</ele>
        <time>2015-01-19T19:54:12.945Z</time>
      </trkpt>
      <trkpt lat="48.87222" lon="2.29761">
        <ele>107.9</ele>
        <time>2015-01-19T19:54:15.694Z</time>
      </trkpt>
      <trkpt lat="48.87224" lon="2.29757">
        <ele>108</ele>
        <time>2015-01-19T19:54:15.895Z</time>
      </trkpt>
      <trkpt lat="48.87225" lon="2.29749">
        <ele>108.4</ele>
        <time>2015-01-19T19:54:16.919Z</time>
      </trkpt>
      <trkpt lat="48.87226" lon="2.29742">
        <ele>108.9</ele>
        <time>2015-01-19T19:54:17.918Z</time>
      </trkpt>
      <trkpt lat="48.87229" lon="2.29734">
        <ele>109.2</ele>
        <time>2015-01-19T19:54:20.695Z</time>
      </trkpt>
      <trkpt lat="48.87231" lon="2.2973">
        <ele>109.2</ele>
        <time>2015-01-19T19:54:20.996Z</time>
      </trkpt>
      <trkpt lat="48.87234" lon="2.29724">
        <ele>108.4</ele>
        <time>2015-01-19T19:54:22.916Z</time>
      </trkpt>
      <trkpt lat="48.87235" lon="2.29718">
        <ele>108.4</ele>
        <time>2015-01-19T19:54:23.944Z</time>
      </trkpt>
      <trkpt lat="48.87237" lon="2.29707">
        <ele>108.1</ele>
        <time>2015-01-19T19:54:25.946Z</time>
      </trkpt>
      <trkpt lat="48.87239" lon="2.29703">
        <ele>108</ele>
        <time>2015-01-19T19:54:26.966Z</time>
      </trkpt>
      <trkpt lat="48.87243" lon="2.29693">
        <ele>107.6</ele>
        <time>2015-01-19T19:54:29.936Z</time>
      </trkpt>
      <trkpt lat="48.87244" lon="2.29689">
        <ele>107.4</ele>
        <time>2015-01-19T19:54:30.935Z</time>
      </trkpt>
      <trkpt lat="48.87247" lon="2.29679">
        <ele>107.3</ele>
        <time>2015-01-19T19:54:32.988Z</time>
      </trkpt>
      <trkpt lat="48.87248" lon="2.29674">
        <ele>107.3</ele>
        <time>2015-01-19T19:54:34.010Z</time>
      </trkpt>
      <trkpt lat="48.8725" lon="2.29664">
        <ele>107.2</ele>
        <time>2015-01-19T19:54:35.928Z</time>
      </trkpt>
      <trkpt lat="48.87251" lon="2.2966">
        <ele>107.4</ele>
        <time>2015-01-19T19:54:36.931Z</time>
      </trkpt>
      <trkpt lat="48.87253" lon="2.29648">
        <ele>108.3</ele>
        <time>2015-01-19T19:54:39.899Z</time>
      </trkpt>
      <trkpt lat="48.87252" lon="2.29644">
        <ele>108.5</ele>
        <time>2015-01-19T19:54:41.012Z</time>
      </trkpt>
      <trkpt lat="48.87244" lon="2.29647">
        <ele>106.4</ele>
        <time>2015-01-19T19:54:49.921Z</time>
      </trkpt>
      <trkpt lat="48.87243" lon="2.2965">
        <ele>106.1</ele>
        <time>2015-01-19T19:54:50.010Z</time>
      </trkpt>
      <trkpt lat="48.87234" lon="2.2965">
        <ele>106.8</ele>
        <time>2015-01-19T19:54:56.007Z</time>
      </trkpt>
      <trkpt lat="48.87233" lon="2.29651">
        <ele>107</ele>
        <time>2015-01-19T19:54:57.019Z</time>
      </trkpt>
      <trkpt lat="48.87232" lon="2.29651">
        <ele>107.2</ele>
        <time>2015-01-19T19:54:57.955Z</time>
      </trkpt>
      <trkpt lat="48.87232" lon="2.29651">
        <ele>107.6</ele>
        <time>2015-01-19T19:54:58.967Z</time>
      </trkpt>
      <trkpt lat="48.87232" lon="2.29651">
        <ele>107.9</ele>
        <time>2015-01-19T19:55:01.987Z</time>
      </trkpt>
      <trkpt lat="48.8723" lon="2.29651">
        <ele>108.9</ele>
        <time>2015-01-19T19:55:03.011Z</time>
      </trkpt>
      <trkpt lat="48.87224" lon="2.29653">
        <ele>115.2</ele>
        <time>2015-01-19T19:55:20.992Z</time>
      </trkpt>
      <trkpt lat="48.87224" lon="2.29654">
        <ele>115.6</ele>
        <time>2015-01-19T19:55:22.008Z</time>
      </trkpt>
      <trkpt lat="48.87224" lon="2.29658">
        <ele>117</ele>
        <time>2015-01-19T19:56:11.049Z</time>
      </trkpt>
      <trkpt lat="48.87233" lon="2.29676">
        <ele>124</ele>
        <time>2015-01-19T19:56:11.972Z</time>
      </trkpt>
      <trkpt lat="48.87226" lon="2.29673">
        <ele>126.6</ele>
        <time>2015-01-19T19:56:15.980Z</time>
      </trkpt>
      <trkpt lat="48.87222" lon="2.29672">
        <ele>127.1</ele>
        <time>2015-01-19T19:56:17.001Z</time>
      </trkpt>
      <trkpt lat="48.87215" lon="2.29675">
        <ele>128.1</ele>
        <time>2015-01-19T19:56:20.955Z</time>
      </trkpt>
      <trkpt lat="48.87213" lon="2.29677">
        <ele>128.3</ele>
        <time>2015-01-19T19:56:21.952Z</time>
      </trkpt>
      <trkpt lat="48.87207" lon="2.29682">
        <ele>128.2</ele>
        <time>2015-01-19T19:56:25.628Z</time>
      </trkpt>
      <trkpt lat="48.87205" lon="2.29684">
        <ele>128</ele>
        <time>2015-01-19T19:56:25.951Z</time>
      </trkpt>
      <trkpt lat="48.87197" lon="2.2969">
        <ele>128.4</ele>
        <time>2015-01-19T19:56:29.728Z</time>
      </trkpt>
      <trkpt lat="48.87195" lon="2.29692">
        <ele>128.5</ele>
        <time>2015-01-19T19:56:29.922Z</time>
      </trkpt>
      <trkpt lat="48.87189" lon="2.297">
        <ele>128.4</ele>
        <time>2015-01-19T19:56:34.797Z</time>
      </trkpt>
      <trkpt lat="48.87187" lon="2.29702">
        <ele>128.5</ele>
        <time>2015-01-19T19:56:34.915Z</time>
      </trkpt>
      <trkpt lat="48.87181" lon="2.29705">
        <ele>128.4</ele>
        <time>2015-01-19T19:56:36.926Z</time>
      </trkpt>
      <trkpt lat="48.87175" lon="2.29707">
        <ele>128.1</ele>
        <time>2015-01-19T19:56:37.978Z</time>
      </trkpt>
      <trkpt lat="48.87168" lon="2.29711">
        <ele>127.7</ele>
        <time>2015-01-19T19:56:39.910Z</time>
      </trkpt>
      <trkpt lat="48.87164" lon="2.29713">
        <ele>127.5</ele>
        <time>2015-01-19T19:56:40.976Z</time>
      </trkpt>
      <trkpt lat="48.87159" lon="2.29719">
        <ele>127.2</ele>
        <time>2015-01-19T19:56:42.993Z</time>
      </trkpt>
      <trkpt lat="48.87156" lon="2.29722">
        <ele>127.1</ele>
        <time>2015-01-19T19:56:44.017Z</time>
      </trkpt>
      <trkpt lat="48.87151" lon="2.29729">
        <ele>127</ele>
        <time>2015-01-19T19:56:46.110Z</time>
      </trkpt>
      <trkpt lat="48.87148" lon="2.29732">
        <ele>127</ele>
        <time>2015-01-19T19:56:46.945Z</time>
      </trkpt>
      <trkpt lat="48.87142" lon="2.29739">
        <ele>126.7</ele>
        <time>2015-01-19T19:56:48.952Z</time>
      </trkpt>
      <trkpt lat="48.8714" lon="2.29741">
        <ele>127</ele>
        <time>2015-01-19T19:56:49.994Z</time>
      </trkpt>
      <trkpt lat="48.87133" lon="2.29749">
        <ele>126.9</ele>
        <time>2015-01-19T19:56:52.943Z</time>
      </trkpt>
      <trkpt lat="48.8713" lon="2.29752">
        <ele>126.8</ele>
        <time>2015-01-19T19:56:54.053Z</time>
      </trkpt>
      <trkpt lat="48.87124" lon="2.2976">
        <ele>126.9</ele>
        <time>2015-01-19T19:56:56.979Z</time>
      </trkpt>
      <trkpt lat="48.87122" lon="2.29762">
        <ele>126.9</ele>
        <time>2015-01-19T19:56:58.001Z</time>
      </trkpt>
      <trkpt lat="48.87115" lon="2.29768">
        <ele>126.8</ele>
        <time>2015-01-19T19:57:01.023Z</time>
      </trkpt>
      <trkpt lat="48.87112" lon="2.29768">
        <ele>127.3</ele>
        <time>2015-01-19T19:57:02.026Z</time>
      </trkpt>
      <trkpt lat="48.8711" lon="2.29755">
        <ele>130</ele>
        <time>2015-01-19T19:57:09.057Z</time>
      </trkpt>
      <trkpt lat="48.87111" lon="2.2975">
        <ele>129.7</ele>
        <time>2015-01-19T19:57:09.931Z</time>
      </trkpt>
      <trkpt lat="48.8711" lon="2.2974">
        <ele>129</ele>
        <time>2015-01-19T19:57:11.946Z</time>
      </trkpt>
      <trkpt lat="48.87109" lon="2.29733">
        <ele>128.6</ele>
        <time>2015-01-19T19:57:12.963Z</time>
      </trkpt>
      <trkpt lat="48.87108" lon="2.29725">
        <ele>126.2</ele>
        <time>2015-01-19T19:57:14.020Z</time>
      </trkpt>
      <trkpt lat="48.87107" lon="2.29717">
        <ele>123.8</ele>
        <time>2015-01-19T19:57:14.913Z</time>
      </trkpt>
      <trkpt lat="48.87105" lon="2.2971">
        <ele>121.8</ele>
        <time>2015-01-19T19:57:15.931Z</time>
      </trkpt>
      <trkpt lat="48.87103" lon="2.29704">
        <ele>120.2</ele>
        <time>2015-01-19T19:57:16.962Z</time>
      </trkpt>
      <trkpt lat="48.871" lon="2.29698">
        <ele>118.8</ele>
        <time>2015-01-19T19:57:17.986Z</time>
      </trkpt>
      <trkpt lat="48.87098" lon="2.29691">
        <ele>117.4</ele>
        <time>2015-01-19T19:57:18.991Z</time>
      </trkpt>
      <trkpt lat="48.87095" lon="2.29679">
        <ele>116.1</ele>
        <time>2015-01-19T19:57:21.008Z</time>
      </trkpt>
      <trkpt lat="48.87091" lon="2.2967">
        <ele>115.5</ele>
        <time>2015-01-19T19:57:22.029Z</time>
      </trkpt>
      <trkpt lat="48.87088" lon="2.29662">
        <ele>115.2</ele>
        <time>2015-01-19T19:57:22.936Z</time>
      </trkpt>
      <trkpt lat="48.87085" lon="2.29655">
        <ele>114.8</ele>
        <time>2015-01-19T19:57:23.953Z</time>
      </trkpt>
      <trkpt lat="48.87082" lon="2.29647">
        <ele>114.5</ele>
        <time>2015-01-19T19:57:25.652Z</time>
      </trkpt>
      <trkpt lat="48.8708" lon="2.29641">
        <ele>114.3</ele>
        <time>2015-01-19T19:57:25.969Z</time>
      </trkpt>
      <trkpt lat="48.87078" lon="2.29634">
        <ele>114.2</ele>
        <time>2015-01-19T19:57:26.980Z</time>
      </trkpt>
      <trkpt lat="48.87077" lon="2.29627">
        <ele>113.7</ele>
        <time>2015-01-19T19:57:27.991Z</time>
      </trkpt>
      <trkpt lat="48.87073" lon="2.29617">
        <ele>113</ele>
        <time>2015-01-19T19:57:30.005Z</time>
      </trkpt>
      <trkpt lat="48.8707" lon="2.29613">
        <ele>112.7</ele>
        <time>2015-01-19T19:57:31.020Z</time>
      </trkpt>
      <trkpt lat="48.87066" lon="2.29605">
        <ele>112.2</ele>
        <time>2015-01-19T19:57:32.984Z</time>
      </trkpt>
      <trkpt lat="48.87064" lon="2.296">
        <ele>112</ele>
        <time>2015-01-19T19:57:33.992Z</time>
      </trkpt>
      <trkpt lat="48.8706" lon="2.2959">
        <ele>111.4</ele>
        <time>2015-01-19T19:57:36.040Z</time>
      </trkpt>
      <trkpt lat="48.87058" lon="2.29584">
        <ele>111.2</ele>
        <time>2015-01-19T19:57:36.947Z</time>
      </trkpt>
      <trkpt lat="48.87054" lon="2.29574">
        <ele>110.7</ele>
        <time>2015-01-19T19:57:38.980Z</time>
      </trkpt>
      <trkpt lat="48.87052" lon="2.29569">
        <ele>110.3</ele>
        <time>2015-01-19T19:57:39.988Z</time>
      </trkpt>
      <trkpt lat="48.87049" lon="2.29558">
        <ele>109.8</ele>
        <time>2015-01-19T19:57:41.929Z</time>
      </trkpt>
      <trkpt lat="48.87046" lon="2.29554">
        <ele>109.6</ele>
        <time>2015-01-19T19:57:42.904Z</time>
      </trkpt>
      <trkpt lat="48.87041" lon="2.29547">
        <ele>109.4</ele>
        <time>2015-01-19T19:57:44.988Z</time>
      </trkpt>
      <trkpt lat="48.87039" lon="2.29544">
        <ele>109.3</ele>
        <time>2015-01-19T19:57:45.998Z</time>
      </trkpt>
      <trkpt lat="48.87033" lon="2.29537">
        <ele>109.4</ele>
        <time>2015-01-19T19:57:48.016Z</time>
      </trkpt>
      <trkpt lat="48.8703" lon="2.29534">
        <ele>109.5</ele>
        <time>2015-01-19T19:57:49.026Z</time>
      </trkpt>
      <trkpt lat="48.87026" lon="2.29528">
        <ele>109.3</ele>
        <time>2015-01-19T19:57:50.916Z</time>
      </trkpt>
      <trkpt lat="48.87024" lon="2.29524">
        <ele>109.1</ele>
        <time>2015-01-19T19:57:51.949Z</time>
      </trkpt>
      <trkpt lat="48.8702" lon="2.29517">
        <ele>109.4</ele>
        <time>2015-01-19T19:57:54.862Z</time>
      </trkpt>
      <trkpt lat="48.87018" lon="2.29514">
        <ele>109.2</ele>
        <time>2015-01-19T19:57:54.970Z</time>
      </trkpt>
      <trkpt lat="48.87013" lon="2.29508">
        <ele>108.7</ele>
        <time>2015-01-19T19:57:56.985Z</time>
      </trkpt>
      <trkpt lat="48.8701" lon="2.29504">
        <ele>108.6</ele>
        <time>2015-01-19T19:57:57.991Z</time>
      </trkpt>
      <trkpt lat="48.87005" lon="2.29498">
        <ele>108.5</ele>
        <time>2015-01-19T19:58:00.020Z</time>
      </trkpt>
      <trkpt lat="48.87003" lon="2.29493">
        <ele>108.5</ele>
        <time>2015-01-19T19:58:00.932Z</time>
      </trkpt>
      <trkpt lat="48.87" lon="2.29484">
        <ele>108.4</ele>
        <time>2015-01-19T19:58:03.001Z</time>
      </trkpt>
      <trkpt lat="48.86997" lon="2.2948">
        <ele>108.4</ele>
        <time>2015-01-19T19:58:04.003Z</time>
      </trkpt>
      <trkpt lat="48.86994" lon="2.29472">
        <ele>108.4</ele>
        <time>2015-01-19T19:58:05.918Z</time>
      </trkpt>
      <trkpt lat="48.8699" lon="2.29466">
        <ele>109</ele>
        <time>2015-01-19T19:58:06.948Z</time>
      </trkpt>
      <trkpt lat="48.86987" lon="2.29459">
        <ele>109.3</ele>
        <time>2015-01-19T19:58:08.001Z</time>
      </trkpt>
      <trkpt lat="48.86984" lon="2.29452">
        <ele>109.8</ele>
        <time>2015-01-19T19:58:08.906Z</time>
      </trkpt>
      <trkpt lat="48.86981" lon="2.29445">
        <ele>110.4</ele>
        <time>2015-01-19T19:58:10.011Z</time>
      </trkpt>
      <trkpt lat="48.86978" lon="2.29436">
        <ele>111.2</ele>
        <time>2015-01-19T19:58:10.968Z</time>
      </trkpt>
      <trkpt lat="48.86977" lon="2.29427">
        <ele>111.6</ele>
        <time>2015-01-19T19:58:12.029Z</time>
      </trkpt>
      <trkpt lat="48.86977" lon="2.29419">
        <ele>111.6</ele>
        <time>2015-01-19T19:58:12.920Z</time>
      </trkpt>
      <trkpt lat="48.86973" lon="2.29408">
        <ele>111.8</ele>
        <time>2015-01-19T19:58:15.108Z</time>
      </trkpt>
      <trkpt lat="48.86971" lon="2.29404">
        <ele>111.8</ele>
        <time>2015-01-19T19:58:15.928Z</time>
      </trkpt>
      <trkpt lat="48.86967" lon="2.29397">
        <ele>112</ele>
        <time>2015-01-19T19:58:17.948Z</time>
      </trkpt>
      <trkpt lat="48.86965" lon="2.29393">
        <ele>112.1</ele>
        <time>2015-01-19T19:58:18.956Z</time>
      </trkpt>
      <trkpt lat="48.86963" lon="2.29382">
        <ele>112.4</ele>
        <time>2015-01-19T19:58:20.985Z</time>
      </trkpt>
      <trkpt lat="48.86961" lon="2.29377">
        <ele>112.5</ele>
        <time>2015-01-19T19:58:21.886Z</time>
      </trkpt>
      <trkpt lat="48.86959" lon="2.29367">
        <ele>112.8</ele>
        <time>2015-01-19T19:58:23.960Z</time>
      </trkpt>
      <trkpt lat="48.86958" lon="2.29363">
        <ele>112.8</ele>
        <time>2015-01-19T19:58:24.952Z</time>
      </trkpt>
      <trkpt lat="48.86955" lon="2.29352">
        <ele>113.3</ele>
        <time>2015-01-19T19:58:27.973Z</time>
      </trkpt>
      <trkpt lat="48.86952" lon="2.29349">
        <ele>113.5</ele>
        <time>2015-01-19T19:58:28.982Z</time>
      </trkpt>
      <trkpt lat="48.86944" lon="2.29345">
        <ele>113.8</ele>
        <time>2015-01-19T19:58:30.897Z</time>
      </trkpt>
      <trkpt lat="48.86941" lon="2.29342">
        <ele>114</ele>
        <time>2015-01-19T19:58:31.945Z</time>
      </trkpt>
      <trkpt lat="48.86937" lon="2.29334">
        <ele>114.3</ele>
        <time>2015-01-19T19:58:33.983Z</time>
      </trkpt>
      <trkpt lat="48.86935" lon="2.29328">
        <ele>114.4</ele>
        <time>2015-01-19T19:58:34.988Z</time>
      </trkpt>
      <trkpt lat="48.8693" lon="2.29319">
        <ele>114.7</ele>
        <time>2015-01-19T19:58:36.923Z</time>
      </trkpt>
      <trkpt lat="48.86927" lon="2.29315">
        <ele>114.8</ele>
        <time>2015-01-19T19:58:37.925Z</time>
      </trkpt>
      <trkpt lat="48.86924" lon="2.2931">
        <ele>114.9</ele>
        <time>2015-01-19T19:58:39.812Z</time>
      </trkpt>
      <trkpt lat="48.86921" lon="2.29304">
        <ele>114.9</ele>
        <time>2015-01-19T19:58:39.896Z</time>
      </trkpt>
      <trkpt lat="48.86916" lon="2.29296">
        <ele>115</ele>
        <time>2015-01-19T19:58:41.926Z</time>
      </trkpt>
      <trkpt lat="48.86909" lon="2.2929">
        <ele>115.2</ele>
        <time>2015-01-19T19:58:43.960Z</time>
      </trkpt>
      <trkpt lat="48.86902" lon="2.29284">
        <ele>115.3</ele>
        <time>2015-01-19T19:58:45.996Z</time>
      </trkpt>
      <trkpt lat="48.86898" lon="2.29283">
        <ele>115.3</ele>
        <time>2015-01-19T19:58:47.015Z</time>
      </trkpt>
      <trkpt lat="48.86894" lon="2.29282">
        <ele>115.3</ele>
        <time>2015-01-19T19:58:47.930Z</time>
      </trkpt>
      <trkpt lat="48.86881" lon="2.29293">
        <ele>114.9</ele>
        <time>2015-01-19T19:58:48.919Z</time>
      </trkpt>
      <trkpt lat="48.86876" lon="2.29295">
        <ele>114.9</ele>
        <time>2015-01-19T19:58:50.056Z</time>
      </trkpt>
      <trkpt lat="48.86871" lon="2.29293">
        <ele>114.9</ele>
        <time>2015-01-19T19:58:50.974Z</time>
      </trkpt>
      <trkpt lat="48.86864" lon="2.29291">
        <ele>115</ele>
        <time>2015-01-19T19:58:52.988Z</time>
      </trkpt>
      <trkpt lat="48.8686" lon="2.29289">
        <ele>115.1</ele>
        <time>2015-01-19T19:58:54.002Z</time>
      </trkpt>
      <trkpt lat="48.86853" lon="2.29286">
        <ele>115.3</ele>
        <time>2015-01-19T19:58:55.968Z</time>
      </trkpt>
      <trkpt lat="48.86847" lon="2.2928">
        <ele>116.3</ele>
        <time>2015-01-19T19:58:57.039Z</time>
      </trkpt>
      <trkpt lat="48.86842" lon="2.29275">
        <ele>117</ele>
        <time>2015-01-19T19:58:57.926Z</time>
      </trkpt>
      <trkpt lat="48.86837" lon="2.29272">
        <ele>117.4</ele>
        <time>2015-01-19T19:58:58.927Z</time>
      </trkpt>
      <trkpt lat="48.86831" lon="2.29265">
        <ele>116.9</ele>
        <time>2015-01-19T19:59:00.934Z</time>
      </trkpt>
      <trkpt lat="48.86828" lon="2.29261">
        <ele>116.3</ele>
        <time>2015-01-19T19:59:01.996Z</time>
      </trkpt>
      <trkpt lat="48.86824" lon="2.29255">
        <ele>115.3</ele>
        <time>2015-01-19T19:59:04.007Z</time>
      </trkpt>
      <trkpt lat="48.86822" lon="2.2925">
        <ele>114.5</ele>
        <time>2015-01-19T19:59:05.071Z</time>
      </trkpt>
      <trkpt lat="48.86818" lon="2.29241">
        <ele>114.1</ele>
        <time>2015-01-19T19:59:06.926Z</time>
      </trkpt>
      <trkpt lat="48.86816" lon="2.29236">
        <ele>113.8</ele>
        <time>2015-01-19T19:59:07.987Z</time>
      </trkpt>
      <trkpt lat="48.86813" lon="2.29225">
        <ele>113.8</ele>
        <time>2015-01-19T19:59:09.924Z</time>
      </trkpt>
      <trkpt lat="48.86812" lon="2.29219">
        <ele>113.7</ele>
        <time>2015-01-19T19:59:10.947Z</time>
      </trkpt>
      <trkpt lat="48.86809" lon="2.29209">
        <ele>113</ele>
        <time>2015-01-19T19:59:12.918Z</time>
      </trkpt>
      <trkpt lat="48.86808" lon="2.29204">
        <ele>112.9</ele>
        <time>2015-01-19T19:59:14.019Z</time>
      </trkpt>
      <trkpt lat="48.86804" lon="2.29193">
        <ele>112.7</ele>
        <time>2015-01-19T19:59:16.948Z</time>
      </trkpt>
      <trkpt lat="48.86801" lon="2.2919">
        <ele>112.5</ele>
        <time>2015-01-19T19:59:17.913Z</time>
      </trkpt>
      <trkpt lat="48.86793" lon="2.29189">
        <ele>112.3</ele>
        <time>2015-01-19T19:59:19.954Z</time>
      </trkpt>
      <trkpt lat="48.86791" lon="2.29188">
        <ele>112.1</ele>
        <time>2015-01-19T19:59:20.964Z</time>
      </trkpt>
      <trkpt lat="48.86787" lon="2.29188">
        <ele>112</ele>
        <time>2015-01-19T19:59:22.625Z</time>
      </trkpt>
      <trkpt lat="48.86649" lon="2.29238">
        <ele>112</ele>
        <time>2015-01-19T19:59:54.931Z</time>
      </trkpt>
      <trkpt lat="48.86645" lon="2.29244">
        <ele>113.5</ele>
        <time>2015-01-19T19:59:55.940Z</time>
      </trkpt>
      <trkpt lat="48.8664" lon="2.29249">
        <ele>114.4</ele>
        <time>2015-01-19T19:59:56.950Z</time>
      </trkpt>
      <trkpt lat="48.86632" lon="2.29253">
        <ele>113.4</ele>
        <time>2015-01-19T19:59:58.891Z</time>
      </trkpt>
      <trkpt lat="48.86628" lon="2.29255">
        <ele>113.7</ele>
        <time>2015-01-19T19:59:59.906Z</time>
      </trkpt>
      <trkpt lat="48.86622" lon="2.29261">
        <ele>114.8</ele>
        <time>2015-01-19T20:00:01.931Z</time>
      </trkpt>
      <trkpt lat="48.86618" lon="2.29264">
        <ele>115.7</ele>
        <time>2015-01-19T20:00:02.947Z</time>
      </trkpt>
      <trkpt lat="48.86611" lon="2.29268">
        <ele>116.6</ele>
        <time>2015-01-19T20:00:04.874Z</time>
      </trkpt>
      <trkpt lat="48.86607" lon="2.29269">
        <ele>116.7</ele>
        <time>2015-01-19T20:00:06.015Z</time>
      </trkpt>
      <trkpt lat="48.86599" lon="2.29272">
        <ele>116.9</ele>
        <time>2015-01-19T20:00:07.908Z</time>
      </trkpt>
      <trkpt lat="48.86596" lon="2.29273">
        <ele>117</ele>
        <time>2015-01-19T20:00:08.921Z</time>
      </trkpt>
      <trkpt lat="48.86588" lon="2.29274">
        <ele>117.6</ele>
        <time>2015-01-19T20:00:10.953Z</time>
      </trkpt>
      <trkpt lat="48.86584" lon="2.29274">
        <ele>116.9</ele>
        <time>2015-01-19T20:00:11.961Z</time>
      </trkpt>
      <trkpt lat="48.86576" lon="2.29272">
        <ele>117</ele>
        <time>2015-01-19T20:00:14.956Z</time>
      </trkpt>
      <trkpt lat="48.86574" lon="2.29271">
        <ele>117.2</ele>
        <time>2015-01-19T20:00:15.974Z</time>
      </trkpt>
      <trkpt lat="48.86567" lon="2.29268">
        <ele>115.2</ele>
        <time>2015-01-19T20:00:20.095Z</time>
      </trkpt>
      <trkpt lat="48.86565" lon="2.29268">
        <ele>114.9</ele>
        <time>2015-01-19T20:00:20.913Z</time>
      </trkpt>
      <trkpt lat="48.86559" lon="2.29261">
        <ele>114.3</ele>
        <time>2015-01-19T20:00:24.973Z</time>
      </trkpt>
      <trkpt lat="48.86556" lon="2.29258">
        <ele>114.6</ele>
        <time>2015-01-19T20:00:25.980Z</time>
      </trkpt>
      <trkpt lat="48.86552" lon="2.2925">
        <ele>114.3</ele>
        <time>2015-01-19T20:00:27.996Z</time>
      </trkpt>
      <trkpt lat="48.86549" lon="2.29247">
        <ele>113.9</ele>
        <time>2015-01-19T20:00:29.001Z</time>
      </trkpt>
      <trkpt lat="48.86543" lon="2.29238">
        <ele>113.2</ele>
        <time>2015-01-19T20:00:30.933Z</time>
      </trkpt>
      <trkpt lat="48.8654" lon="2.29233">
        <ele>112.9</ele>
        <time>2015-01-19T20:00:31.956Z</time>
      </trkpt>
      <trkpt lat="48.86534" lon="2.29224">
        <ele>111.8</ele>
        <time>2015-01-19T20:00:33.993Z</time>
      </trkpt>
      <trkpt lat="48.86532" lon="2.29219">
        <ele>111.7</ele>
        <time>2015-01-19T20:00:34.912Z</time>
      </trkpt>
      <trkpt lat="48.86526" lon="2.29211">
        <ele>111.6</ele>
        <time>2015-01-19T20:00:36.908Z</time>
      </trkpt>
      <trkpt lat="48.86523" lon="2.29207">
        <ele>111.5</ele>
        <time>2015-01-19T20:00:37.972Z</time>
      </trkpt>
      <trkpt lat="48.86518" lon="2.29199">
        <ele>111.6</ele>
        <time>2015-01-19T20:00:39.912Z</time>
      </trkpt>
      <trkpt lat="48.86516" lon="2.29195">
        <ele>111.8</ele>
        <time>2015-01-19T20:00:40.905Z</time>
      </trkpt>
      <trkpt lat="48.8651" lon="2.29185">
        <ele>112.1</ele>
        <time>2015-01-19T20:00:43.940Z</time>
      </trkpt>
      <trkpt lat="48.86508" lon="2.29182">
        <ele>112.1</ele>
        <time>2015-01-19T20:00:44.955Z</time>
      </trkpt>
      <trkpt lat="48.865" lon="2.29177">
        <ele>113.2</ele>
        <time>2015-01-19T20:00:47.951Z</time>
      </trkpt>
      <trkpt lat="48.86499" lon="2.29176">
        <ele>113.5</ele>
        <time>2015-01-19T20:00:48.997Z</time>
      </trkpt>
      <trkpt lat="48.86493" lon="2.29169">
        <ele>113.3</ele>
        <time>2015-01-19T20:00:52.956Z</time>
      </trkpt>
      <trkpt lat="48.86491" lon="2.29167">
        <ele>113.5</ele>
        <time>2015-01-19T20:00:53.972Z</time>
      </trkpt>
      <trkpt lat="48.86485" lon="2.29158">
        <ele>113.9</ele>
        <time>2015-01-19T20:00:56.951Z</time>
      </trkpt>
      <trkpt lat="48.86483" lon="2.29154">
        <ele>114.1</ele>
        <time>2015-01-19T20:00:57.934Z</time>
      </trkpt>
      <trkpt lat="48.86477" lon="2.29146">
        <ele>114.1</ele>
        <time>2015-01-19T20:01:00.686Z</time>
      </trkpt>
      <trkpt lat="48.86474" lon="2.29141">
        <ele>114</ele>
        <time>2015-01-19T20:01:00.953Z</time>
      </trkpt>
      <trkpt lat="48.86467" lon="2.29133">
        <ele>113.8</ele>
        <time>2015-01-19T20:01:02.974Z</time>
      </trkpt>
      <trkpt lat="48.86464" lon="2.29129">
        <ele>113.8</ele>
        <time>2015-01-19T20:01:03.889Z</time>
      </trkpt>
      <trkpt lat="48.86461" lon="2.29124">
        <ele>113.8</ele>
        <time>2015-01-19T20:01:05.812Z</time>
      </trkpt>
      <trkpt lat="48.86451" lon="2.29111">
        <ele>113.3</ele>
        <time>2015-01-19T20:01:07.950Z</time>
      </trkpt>
      <trkpt lat="48.86445" lon="2.29102">
        <ele>113.1</ele>
        <time>2015-01-19T20:01:10.888Z</time>
      </trkpt>
      <trkpt lat="48.86441" lon="2.29098">
        <ele>113.2</ele>
        <time>2015-01-19T20:01:11.021Z</time>
      </trkpt>
      <trkpt lat="48.86435" lon="2.29088">
        <ele>113.6</ele>
        <time>2015-01-19T20:01:12.918Z</time>
      </trkpt>
      <trkpt lat="48.86432" lon="2.29084">
        <ele>113.8</ele>
        <time>2015-01-19T20:01:13.979Z</time>
      </trkpt>
      <trkpt lat="48.86426" lon="2.29077">
        <ele>113.9</ele>
        <time>2015-01-19T20:01:15.962Z</time>
      </trkpt>
      <trkpt lat="48.86423" lon="2.29073">
        <ele>113.7</ele>
        <time>2015-01-19T20:01:16.941Z</time>
      </trkpt>
      <trkpt lat="48.86417" lon="2.29063">
        <ele>113.6</ele>
        <time>2015-01-19T20:01:21.046Z</time>
      </trkpt>
      <trkpt lat="48.86415" lon="2.2906">
        <ele>113.5</ele>
        <time>2015-01-19T20:01:21.089Z</time>
      </trkpt>
      <trkpt lat="48.8641" lon="2.29051">
        <ele>113.2</ele>
        <time>2015-01-19T20:01:23.951Z</time>
      </trkpt>
      <trkpt lat="48.86408" lon="2.29048">
        <ele>113.2</ele>
        <time>2015-01-19T20:01:24.967Z</time>
      </trkpt>
      <trkpt lat="48.86408" lon="2.29042">
        <ele>113.3</ele>
        <time>2015-01-19T20:01:27.940Z</time>
      </trkpt>
      <trkpt lat="48.86412" lon="2.29035">
        <ele>113.4</ele>
        <time>2015-01-19T20:01:30.892Z</time>
      </trkpt>
      <trkpt lat="48.86418" lon="2.2902">
        <ele>113.5</ele>
        <time>2015-01-19T20:01:38.020Z</time>
      </trkpt>
      <trkpt lat="48.86421" lon="2.2901">
        <ele>113.1</ele>
        <time>2015-01-19T20:01:41.014Z</time>
      </trkpt>
      <trkpt lat="48.86422" lon="2.29007">
        <ele>113</ele>
        <time>2015-01-19T20:01:41.882Z</time>
      </trkpt>
      <trkpt lat="48.86424" lon="2.28995">
        <ele>112.4</ele>
        <time>2015-01-19T20:01:45.160Z</time>
      </trkpt>
      <trkpt lat="48.86427" lon="2.28988">
        <ele>111.8</ele>
        <time>2015-01-19T20:01:45.947Z</time>
      </trkpt>
      <trkpt lat="48.86432" lon="2.28975">
        <ele>109.6</ele>
        <time>2015-01-19T20:01:46.947Z</time>
      </trkpt>
      <trkpt lat="48.86435" lon="2.28964">
        <ele>107.9</ele>
        <time>2015-01-19T20:01:47.887Z</time>
      </trkpt>
      <trkpt lat="48.86436" lon="2.28957">
        <ele>107.3</ele>
        <time>2015-01-19T20:01:48.900Z</time>
      </trkpt>
      <trkpt lat="48.86439" lon="2.28946">
        <ele>106.8</ele>
        <time>2015-01-19T20:01:50.949Z</time>
      </trkpt>
      <trkpt lat="48.86441" lon="2.28941">
        <ele>106.5</ele>
        <time>2015-01-19T20:01:51.968Z</time>
      </trkpt>
      <trkpt lat="48.86445" lon="2.28933">
        <ele>106</ele>
        <time>2015-01-19T20:01:53.913Z</time>
      </trkpt>
      <trkpt lat="48.86448" lon="2.28924">
        <ele>105</ele>
        <time>2015-01-19T20:01:54.932Z</time>
      </trkpt>
      <trkpt lat="48.86449" lon="2.28916">
        <ele>103.9</ele>
        <time>2015-01-19T20:01:55.978Z</time>
      </trkpt>
      <trkpt lat="48.8645" lon="2.2891">
        <ele>103.5</ele>
        <time>2015-01-19T20:01:56.983Z</time>
      </trkpt>
      <trkpt lat="48.86454" lon="2.28901">
        <ele>103.5</ele>
        <time>2015-01-19T20:01:58.869Z</time>
      </trkpt>
      <trkpt lat="48.86459" lon="2.28899">
        <ele>103.3</ele>
        <time>2015-01-19T20:01:59.907Z</time>
      </trkpt>
      <trkpt lat="48.86466" lon="2.28894">
        <ele>104.4</ele>
        <time>2015-01-19T20:02:02.970Z</time>
      </trkpt>
      <trkpt lat="48.86468" lon="2.28894">
        <ele>104.8</ele>
        <time>2015-01-19T20:02:03.976Z</time>
      </trkpt>
      <trkpt lat="48.86476" lon="2.28895">
        <ele>107.3</ele>
        <time>2015-01-19T20:02:10.625Z</time>
      </trkpt>
      <trkpt lat="48.86477" lon="2.28896">
        <ele>107.6</ele>
        <time>2015-01-19T20:02:10.970Z</time>
      </trkpt>
      <trkpt lat="48.86482" lon="2.28889">
        <ele>112.5</ele>
        <time>2015-01-19T20:02:19.004Z</time>
      </trkpt>
      <trkpt lat="48.86487" lon="2.28885">
        <ele>115.3</ele>
        <time>2015-01-19T20:02:20.005Z</time>
      </trkpt>
      <trkpt lat="48.86486" lon="2.28885">
        <ele>115.7</ele>
        <time>2015-01-19T20:02:22.011Z</time>
      </trkpt>
      <trkpt lat="48.86487" lon="2.28885">
        <ele>115.8</ele>
        <time>2015-01-19T20:02:22.935Z</time>
      </trkpt>
      <trkpt lat="48.86487" lon="2.28885">
        <ele>115.9</ele>
        <time>2015-01-19T20:02:26.930Z</time>
      </trkpt>
      <trkpt lat="48.86488" lon="2.28879">
        <ele>117.6</ele>
        <time>2015-01-19T20:02:27.961Z</time>
      </trkpt>
      <trkpt lat="48.86491" lon="2.28869">
        <ele>120.3</ele>
        <time>2015-01-19T20:02:34.757Z</time>
      </trkpt>
      <trkpt lat="48.86492" lon="2.28866">
        <ele>120.8</ele>
        <time>2015-01-19T20:02:34.950Z</time>
      </trkpt>
      <trkpt lat="48.86494" lon="2.28855">
        <ele>121.5</ele>
        <time>2015-01-19T20:02:39.807Z</time>
      </trkpt>
      <trkpt lat="48.86495" lon="2.28852">
        <ele>121.8</ele>
        <time>2015-01-19T20:02:39.922Z</time>
      </trkpt>
      <trkpt lat="48.86497" lon="2.2884">
        <ele>122.1</ele>
        <time>2015-01-19T20:02:44.944Z</time>
      </trkpt>
      <trkpt lat="48.86498" lon="2.28838">
        <ele>122.2</ele>
        <time>2015-01-19T20:02:45.966Z</time>
      </trkpt>
      <trkpt lat="48.86501" lon="2.28828">
        <ele>122.3</ele>
        <time>2015-01-19T20:02:50.013Z</time>
      </trkpt>
      <trkpt lat="48.86503" lon="2.28824">
        <ele>122.2</ele>
        <time>2015-01-19T20:02:50.087Z</time>
      </trkpt>
      <trkpt lat="48.86504" lon="2.28814">
        <ele>122.2</ele>
        <time>2015-01-19T20:02:51.965Z</time>
      </trkpt>
      <trkpt lat="48.86504" lon="2.28809">
        <ele>122.3</ele>
        <time>2015-01-19T20:02:52.955Z</time>
      </trkpt>
      <trkpt lat="48.86502" lon="2.28799">
        <ele>122.2</ele>
        <time>2015-01-19T20:02:55.302Z</time>
      </trkpt>
      <trkpt lat="48.86503" lon="2.28793">
        <ele>122.1</ele>
        <time>2015-01-19T20:02:55.921Z</time>
      </trkpt>
      <trkpt lat="48.86507" lon="2.28765">
        <ele>121.1</ele>
        <time>2015-01-19T20:03:00.900Z</time>
      </trkpt>
      <trkpt lat="48.86507" lon="2.28752">
        <ele>120.8</ele>
        <time>2015-01-19T20:03:02.955Z</time>
      </trkpt>
      <trkpt lat="48.86508" lon="2.28746">
        <ele>120.7</ele>
        <time>2015-01-19T20:03:03.956Z</time>
      </trkpt>
      <trkpt lat="48.86508" lon="2.28739">
        <ele>120.8</ele>
        <time>2015-01-19T20:03:05.317Z</time>
      </trkpt>
      <trkpt lat="48.86508" lon="2.28732">
        <ele>120.9</ele>
        <time>2015-01-19T20:03:06.011Z</time>
      </trkpt>
      <trkpt lat="48.86506" lon="2.2872">
        <ele>121</ele>
        <time>2015-01-19T20:03:07.922Z</time>
      </trkpt>
      <trkpt lat="48.86505" lon="2.28714">
        <ele>121.1</ele>
        <time>2015-01-19T20:03:08.921Z</time>
      </trkpt>
      <trkpt lat="48.86507" lon="2.28703">
        <ele>121.9</ele>
        <time>2015-01-19T20:03:12.023Z</time>
      </trkpt>
      <trkpt lat="48.86507" lon="2.28699">
        <ele>122</ele>
        <time>2015-01-19T20:03:12.867Z</time>
      </trkpt>
      <trkpt lat="48.86505" lon="2.28694">
        <ele>122.2</ele>
        <time>2015-01-19T20:03:15.693Z</time>
      </trkpt>
      <trkpt lat="48.86505" lon="2.28691">
        <ele>122.5</ele>
        <time>2015-01-19T20:03:15.944Z</time>
      </trkpt>
      <trkpt lat="48.86505" lon="2.2869">
        <ele>122.8</ele>
        <time>2015-01-19T20:03:17.895Z</time>
      </trkpt>
      <trkpt lat="48.86505" lon="2.28685">
        <ele>123.3</ele>
        <time>2015-01-19T20:03:19.033Z</time>
      </trkpt>
      <trkpt lat="48.86504" lon="2.28681">
        <ele>123.8</ele>
        <time>2015-01-19T20:03:20.916Z</time>
      </trkpt>
      <trkpt lat="48.86504" lon="2.28679">
        <ele>123.8</ele>
        <time>2015-01-19T20:03:21.925Z</time>
      </trkpt>
      <trkpt lat="48.86504" lon="2.28679">
        <ele>123.9</ele>
        <time>2015-01-19T20:03:23.951Z</time>
      </trkpt>
      <trkpt lat="48.86504" lon="2.28679">
        <ele>124</ele>
        <time>2015-01-19T20:03:24.960Z</time>
      </trkpt>
      <trkpt lat="48.86509" lon="2.2867">
        <ele>123.6</ele>
        <time>2015-01-19T20:03:32.966Z</time>
      </trkpt>
      <trkpt lat="48.86511" lon="2.28668">
        <ele>123.2</ele>
        <time>2015-01-19T20:03:33.977Z</time>
      </trkpt>
      <trkpt lat="48.86516" lon="2.28661">
        <ele>121.4</ele>
        <time>2015-01-19T20:03:36.900Z</time>
      </trkpt>
      <trkpt lat="48.86518" lon="2.28655">
        <ele>119.2</ele>
        <time>2015-01-19T20:03:37.987Z</time>
      </trkpt>
      <trkpt lat="48.8652" lon="2.28648">
        <ele>117.5</ele>
        <time>2015-01-19T20:03:38.963Z</time>
      </trkpt>
      <trkpt lat="48.86522" lon="2.28642">
        <ele>116.5</ele>
        <time>2015-01-19T20:03:39.869Z</time>
      </trkpt>
      <trkpt lat="48.86525" lon="2.28633">
        <ele>115.4</ele>
        <time>2015-01-19T20:03:41.898Z</time>
      </trkpt>
      <trkpt lat="48.86527" lon="2.28629">
        <ele>115.2</ele>
        <time>2015-01-19T20:03:42.893Z</time>
      </trkpt>
      <trkpt lat="48.8653" lon="2.28621">
        <ele>114.9</ele>
        <time>2015-01-19T20:03:45.187Z</time>
      </trkpt>
      <trkpt lat="48.86532" lon="2.28616">
        <ele>114.5</ele>
        <time>2015-01-19T20:03:45.954Z</time>
      </trkpt>
      <trkpt lat="48.86536" lon="2.28609">
        <ele>114.2</ele>
        <time>2015-01-19T20:03:47.988Z</time>
      </trkpt>
      <trkpt lat="48.86538" lon="2.28604">
        <ele>114</ele>
        <time>2015-01-19T20:03:48.870Z</time>
      </trkpt>
      <trkpt lat="48.8654" lon="2.28595">
        <ele>114</ele>
        <time>2015-01-19T20:03:50.978Z</time>
      </trkpt>
      <trkpt lat="48.86539" lon="2.28588">
        <ele>114.9</ele>
        <time>2015-01-19T20:03:51.996Z</time>
      </trkpt>
      <trkpt lat="48.86536" lon="2.28578">
        <ele>115.9</ele>
        <time>2015-01-19T20:03:53.906Z</time>
      </trkpt>
      <trkpt lat="48.86535" lon="2.28573">
        <ele>116.6</ele>
        <time>2015-01-19T20:03:54.902Z</time>
      </trkpt>
      <trkpt lat="48.8653" lon="2.28563">
        <ele>118.4</ele>
        <time>2015-01-19T20:03:56.933Z</time>
      </trkpt>
      <trkpt lat="48.86523" lon="2.28548">
        <ele>120.3</ele>
        <time>2015-01-19T20:04:00.948Z</time>
      </trkpt>
      <trkpt lat="48.86523" lon="2.28536">
        <ele>121.1</ele>
        <time>2015-01-19T20:04:05.506Z</time>
      </trkpt>
      <trkpt lat="48.86525" lon="2.28534">
        <ele>121.2</ele>
        <time>2015-01-19T20:04:05.902Z</time>
      </trkpt>
      <trkpt lat="48.86526" lon="2.28522">
        <ele>121.2</ele>
        <time>2015-01-19T20:04:10.574Z</time>
      </trkpt>
      <trkpt lat="48.86525" lon="2.28517">
        <ele>121.2</ele>
        <time>2015-01-19T20:04:11.029Z</time>
      </trkpt>
      <trkpt lat="48.86524" lon="2.28507">
        <ele>121.2</ele>
        <time>2015-01-19T20:04:12.891Z</time>
      </trkpt>
      <trkpt lat="48.86523" lon="2.28501">
        <ele>121.3</ele>
        <time>2015-01-19T20:04:13.958Z</time>
      </trkpt>
      <trkpt lat="48.86522" lon="2.28491">
        <ele>121.2</ele>
        <time>2015-01-19T20:04:15.878Z</time>
      </trkpt>
      <trkpt lat="48.86521" lon="2.28487">
        <ele>121.2</ele>
        <time>2015-01-19T20:04:16.922Z</time>
      </trkpt>
      <trkpt lat="48.86519" lon="2.28473">
        <ele>120.9</ele>
        <time>2015-01-19T20:04:18.975Z</time>
      </trkpt>
      <trkpt lat="48.86519" lon="2.28468">
        <ele>120.9</ele>
        <time>2015-01-19T20:04:19.982Z</time>
      </trkpt>
      <trkpt lat="48.86519" lon="2.28456">
        <ele>120.9</ele>
        <time>2015-01-19T20:04:21.924Z</time>
      </trkpt>
      <trkpt lat="48.86521" lon="2.28441">
        <ele>119.7</ele>
        <time>2015-01-19T20:04:22.943Z</time>
      </trkpt>
      <trkpt lat="48.8652" lon="2.28431">
        <ele>119.2</ele>
        <time>2015-01-19T20:04:23.954Z</time>
      </trkpt>
      <trkpt lat="48.8652" lon="2.28422">
        <ele>118.9</ele>
        <time>2015-01-19T20:04:24.960Z</time>
      </trkpt>
      <trkpt lat="48.86521" lon="2.28414">
        <ele>118.8</ele>
        <time>2015-01-19T20:04:25.937Z</time>
      </trkpt>
      <trkpt lat="48.86523" lon="2.28408">
        <ele>118.6</ele>
        <time>2015-01-19T20:04:26.881Z</time>
      </trkpt>
      <trkpt lat="48.86525" lon="2.284">
        <ele>118.2</ele>
        <time>2015-01-19T20:04:27.904Z</time>
      </trkpt>
      <trkpt lat="48.86528" lon="2.28394">
        <ele>117.9</ele>
        <time>2015-01-19T20:04:28.907Z</time>
      </trkpt>
      <trkpt lat="48.86529" lon="2.28385">
        <ele>116.8</ele>
        <time>2015-01-19T20:04:30.018Z</time>
      </trkpt>
      <trkpt lat="48.86529" lon="2.28377">
        <ele>115.5</ele>
        <time>2015-01-19T20:04:30.891Z</time>
      </trkpt>
      <trkpt lat="48.86534" lon="2.28365">
        <ele>115.8</ele>
        <time>2015-01-19T20:04:33.044Z</time>
      </trkpt>
      <trkpt lat="48.86536" lon="2.28361">
        <ele>116.2</ele>
        <time>2015-01-19T20:04:33.877Z</time>
      </trkpt>
      <trkpt lat="48.86541" lon="2.28352">
        <ele>117.8</ele>
        <time>2015-01-19T20:04:35.930Z</time>
      </trkpt>
      <trkpt lat="48.86542" lon="2.28348">
        <ele>118.3</ele>
        <time>2015-01-19T20:04:36.947Z</time>
      </trkpt>
      <trkpt lat="48.86546" lon="2.28342">
        <ele>119.9</ele>
        <time>2015-01-19T20:04:39.795Z</time>
      </trkpt>
      <trkpt lat="48.86544" lon="2.28335">
        <ele>121.6</ele>
        <time>2015-01-19T20:04:39.968Z</time>
      </trkpt>
      <trkpt lat="48.86546" lon="2.28322">
        <ele>124.9</ele>
        <time>2015-01-19T20:04:42.896Z</time>
      </trkpt>
      <trkpt lat="48.86547" lon="2.28321">
        <ele>125.4</ele>
        <time>2015-01-19T20:04:43.953Z</time>
      </trkpt>
      <trkpt lat="48.86547" lon="2.28321">
        <ele>125.4</ele>
        <time>2015-01-19T20:04:44.826Z</time>
      </trkpt>
      <trkpt lat="48.86546" lon="2.2832">
        <ele>125.8</ele>
        <time>2015-01-19T20:04:44.958Z</time>
      </trkpt>
      <trkpt lat="48.86545" lon="2.28321">
        <ele>126.1</ele>
        <time>2015-01-19T20:04:45.975Z</time>
      </trkpt>
      <trkpt lat="48.86538" lon="2.28326">
        <ele>127.2</ele>
        <time>2015-01-19T20:04:49.895Z</time>
      </trkpt>
      <trkpt lat="48.86536" lon="2.28326">
        <ele>127.4</ele>
        <time>2015-01-19T20:04:49.935Z</time>
      </trkpt>
      <trkpt lat="48.86528" lon="2.28324">
        <ele>127.6</ele>
        <time>2015-01-19T20:04:53.016Z</time>
      </trkpt>
      <trkpt lat="48.86526" lon="2.28325">
        <ele>127.6</ele>
        <time>2015-01-19T20:04:54.002Z</time>
      </trkpt>
      <trkpt lat="48.86517" lon="2.28323">
        <ele>127.8</ele>
        <time>2015-01-19T20:04:58.013Z</time>
      </trkpt>
      <trkpt lat="48.86514" lon="2.2832">
        <ele>128.2</ele>
        <time>2015-01-19T20:04:58.921Z</time>
      </trkpt>
      <trkpt lat="48.86509" lon="2.28315">
        <ele>128.5</ele>
        <time>2015-01-19T20:05:00.948Z</time>
      </trkpt>
      <trkpt lat="48.86506" lon="2.28313">
        <ele>128.4</ele>
        <time>2015-01-19T20:05:01.943Z</time>
      </trkpt>
      <trkpt lat="48.86501" lon="2.28308">
        <ele>128.4</ele>
        <time>2015-01-19T20:05:03.970Z</time>
      </trkpt>
      <trkpt lat="48.86498" lon="2.28305">
        <ele>128.5</ele>
        <time>2015-01-19T20:05:05.030Z</time>
      </trkpt>
      <trkpt lat="48.86491" lon="2.28299">
        <ele>128.4</ele>
        <time>2015-01-19T20:05:06.917Z</time>
      </trkpt>
      <trkpt lat="48.86488" lon="2.28295">
        <ele>128.3</ele>
        <time>2015-01-19T20:05:07.965Z</time>
      </trkpt>
      <trkpt lat="48.86481" lon="2.28287">
        <ele>127.9</ele>
        <time>2015-01-19T20:05:10.188Z</time>
      </trkpt>
      <trkpt lat="48.86477" lon="2.28284">
        <ele>127.8</ele>
        <time>2015-01-19T20:05:11.017Z</time>
      </trkpt>
      <trkpt lat="48.86472" lon="2.28276">
        <ele>127.6</ele>
        <time>2015-01-19T20:05:12.912Z</time>
      </trkpt>
      <trkpt lat="48.86469" lon="2.28273">
        <ele>127.5</ele>
        <time>2015-01-19T20:05:13.973Z</time>
      </trkpt>
      <trkpt lat="48.86463" lon="2.28266">
        <ele>127.4</ele>
        <time>2015-01-19T20:05:15.917Z</time>
      </trkpt>
      <trkpt lat="48.86458" lon="2.28262">
        <ele>127.7</ele>
        <time>2015-01-19T20:05:16.916Z</time>
      </trkpt>
      <trkpt lat="48.86452" lon="2.28256">
        <ele>128.5</ele>
        <time>2015-01-19T20:05:17.927Z</time>
      </trkpt>
      <trkpt lat="48.86449" lon="2.28249">
        <ele>129.4</ele>
        <time>2015-01-19T20:05:18.935Z</time>
      </trkpt>
      <trkpt lat="48.86441" lon="2.28242">
        <ele>130</ele>
        <time>2015-01-19T20:05:25.478Z</time>
      </trkpt>
      <trkpt lat="48.86441" lon="2.28242">
        <ele>130.2</ele>
        <time>2015-01-19T20:05:25.937Z</time>
      </trkpt>
      <trkpt lat="48.86433" lon="2.28243">
        <ele>131</ele>
        <time>2015-01-19T20:05:31.923Z</time>
      </trkpt>
      <trkpt lat="48.86431" lon="2.28244">
        <ele>131.2</ele>
        <time>2015-01-19T20:05:32.936Z</time>
      </trkpt>
      <trkpt lat="48.86425" lon="2.28246">
        <ele>131.6</ele>
        <time>2015-01-19T20:05:37.943Z</time>
      </trkpt>
      <trkpt lat="48.86424" lon="2.28248">
        <ele>131.6</ele>
        <time>2015-01-19T20:05:39.002Z</time>
      </trkpt>
      <trkpt lat="48.86424" lon="2.28248">
        <ele>131.6</ele>
        <time>2015-01-19T20:05:39.898Z</time>
      </trkpt>
      <trkpt lat="48.86424" lon="2.2825">
        <ele>131.6</ele>
        <time>2015-01-19T20:05:39.921Z</time>
      </trkpt>
      <trkpt lat="48.86417" lon="2.28255">
        <ele>131.6</ele>
        <time>2015-01-19T20:05:45.933Z</time>
      </trkpt>
      <trkpt lat="48.86415" lon="2.28256">
        <ele>131.6</ele>
        <time>2015-01-19T20:05:46.964Z</time>
      </trkpt>
      <trkpt lat="48.8641" lon="2.28263">
        <ele>131.9</ele>
        <time>2015-01-19T20:05:50.970Z</time>
      </trkpt>
      <trkpt lat="48.86409" lon="2.28266">
        <ele>132</ele>
        <time>2015-01-19T20:05:52.006Z</time>
      </trkpt>
      <trkpt lat="48.86407" lon="2.2827">
        <ele>132</ele>
        <time>2015-01-19T20:05:52.895Z</time>
      </trkpt>
      <trkpt lat="48.86403" lon="2.2828">
        <ele>132.1</ele>
        <time>2015-01-19T20:05:55.913Z</time>
      </trkpt>
      <trkpt lat="48.86377" lon="2.2835">
        <ele>133.1</ele>
        <time>2015-01-19T20:06:16.887Z</time>
      </trkpt>
      <trkpt lat="48.86378" lon="2.28359">
        <ele>132.7</ele>
        <time>2015-01-19T20:06:17.902Z</time>
      </trkpt>
      <trkpt lat="48.86378" lon="2.28371">
        <ele>132.2</ele>
        <time>2015-01-19T20:06:18.915Z</time>
      </trkpt>
      <trkpt lat="48.86378" lon="2.28381">
        <ele>131.7</ele>
        <time>2015-01-19T20:06:20.033Z</time>
      </trkpt>
      <trkpt lat="48.86376" lon="2.2839">
        <ele>131.5</ele>
        <time>2015-01-19T20:06:20.908Z</time>
      </trkpt>
      <trkpt lat="48.86375" lon="2.28398">
        <ele>131.6</ele>
        <time>2015-01-19T20:06:21.940Z</time>
      </trkpt>
      <trkpt lat="48.86372" lon="2.28404">
        <ele>131.4</ele>
        <time>2015-01-19T20:06:22.947Z</time>
      </trkpt>
      <trkpt lat="48.8637" lon="2.28411">
        <ele>131.2</ele>
        <time>2015-01-19T20:06:23.950Z</time>
      </trkpt>
      <trkpt lat="48.86368" lon="2.28418">
        <ele>130.9</ele>
        <time>2015-01-19T20:06:24.966Z</time>
      </trkpt>
      <trkpt lat="48.86366" lon="2.28423">
        <ele>130.8</ele>
        <time>2015-01-19T20:06:25.918Z</time>
      </trkpt>
      <trkpt lat="48.86362" lon="2.28429">
        <ele>130.8</ele>
        <time>2015-01-19T20:06:26.900Z</time>
      </trkpt>
      <trkpt lat="48.86359" lon="2.28435">
        <ele>130.7</ele>
        <time>2015-01-19T20:06:27.908Z</time>
      </trkpt>
      <trkpt lat="48.86355" lon="2.28442">
        <ele>130.4</ele>
        <time>2015-01-19T20:06:28.908Z</time>
      </trkpt>
      <trkpt lat="48.86353" lon="2.28449">
        <ele>130.3</ele>
        <time>2015-01-19T20:06:29.926Z</time>
      </trkpt>
      <trkpt lat="48.86352" lon="2.28457">
        <ele>130.2</ele>
        <time>2015-01-19T20:06:30.945Z</time>
      </trkpt>
      <trkpt lat="48.86349" lon="2.28464">
        <ele>130</ele>
        <time>2015-01-19T20:06:32.012Z</time>
      </trkpt>
      <trkpt lat="48.86346" lon="2.28472">
        <ele>129.8</ele>
        <time>2015-01-19T20:06:33.051Z</time>
      </trkpt>
      <trkpt lat="48.86344" lon="2.28479">
        <ele>129.8</ele>
        <time>2015-01-19T20:06:33.899Z</time>
      </trkpt>
      <trkpt lat="48.86342" lon="2.28485">
        <ele>129.6</ele>
        <time>2015-01-19T20:06:34.909Z</time>
      </trkpt>
      <trkpt lat="48.86337" lon="2.28496">
        <ele>129.5</ele>
        <time>2015-01-19T20:06:36.953Z</time>
      </trkpt>
      <trkpt lat="48.86336" lon="2.28502">
        <ele>129.4</ele>
        <time>2015-01-19T20:06:37.970Z</time>
      </trkpt>
      <trkpt lat="48.86329" lon="2.28511">
        <ele>129.4</ele>
        <time>2015-01-19T20:06:41.059Z</time>
      </trkpt>
      <trkpt lat="48.86328" lon="2.28512">
        <ele>129.6</ele>
        <time>2015-01-19T20:06:41.887Z</time>
      </trkpt>
      <trkpt lat="48.86328" lon="2.28513">
        <ele>130.2</ele>
        <time>2015-01-19T20:06:43.962Z</time>
      </trkpt>
      <trkpt lat="48.86328" lon="2.28513">
        <ele>130.5</ele>
        <time>2015-01-19T20:06:44.981Z</time>
      </trkpt>
      <trkpt lat="48.86329" lon="2.28514">
        <ele>131</ele>
        <time>2015-01-19T20:06:49.963Z</time>
      </trkpt>
      <trkpt lat="48.86331" lon="2.28514">
        <ele>131.1</ele>
        <time>2015-01-19T20:06:50.984Z</time>
      </trkpt>
      <trkpt lat="48.86332" lon="2.28516">
        <ele>132.3</ele>
        <time>2015-01-19T20:06:52.921Z</time>
      </trkpt>
      <trkpt lat="48.86332" lon="2.28516">
        <ele>133.2</ele>
        <time>2015-01-19T20:06:53.902Z</time>
      </trkpt>
      <trkpt lat="48.86332" lon="2.28517">
        <ele>133.7</ele>
        <time>2015-01-19T20:07:04.002Z</time>
      </trkpt>
      <trkpt lat="48.86331" lon="2.28517">
        <ele>133.6</ele>
        <time>2015-01-19T20:07:04.939Z</time>
      </trkpt>
      <trkpt lat="48.8633" lon="2.28505">
        <ele>133</ele>
        <time>2015-01-19T20:07:10.892Z</time>
      </trkpt>
      <trkpt lat="48.8633" lon="2.28501">
        <ele>132.9</ele>
        <time>2015-01-19T20:07:12.054Z</time>
      </trkpt>
      <trkpt lat="48.8633" lon="2.28489">
        <ele>132.6</ele>
        <time>2015-01-19T20:07:14.923Z</time>
      </trkpt>
      <trkpt lat="48.86331" lon="2.28484">
        <ele>132.4</ele>
        <time>2015-01-19T20:07:15.927Z</time>
      </trkpt>
      <trkpt lat="48.86331" lon="2.28475">
        <ele>132</ele>
        <time>2015-01-19T20:07:17.957Z</time>
      </trkpt>
      <trkpt lat="48.86331" lon="2.2847">
        <ele>131.9</ele>
        <time>2015-01-19T20:07:18.966Z</time>
      </trkpt>
      <trkpt lat="48.86332" lon="2.28459">
        <ele>132.1</ele>
        <time>2015-01-19T20:07:21.008Z</time>
      </trkpt>
      <trkpt lat="48.86332" lon="2.28453">
        <ele>131.8</ele>
        <time>2015-01-19T20:07:21.897Z</time>
      </trkpt>
      <trkpt lat="48.86334" lon="2.28444">
        <ele>131.3</ele>
        <time>2015-01-19T20:07:23.935Z</time>
      </trkpt>
      <trkpt lat="48.86335" lon="2.2844">
        <ele>131.2</ele>
        <time>2015-01-19T20:07:24.941Z</time>
      </trkpt>
      <trkpt lat="48.86337" lon="2.2843">
        <ele>131</ele>
        <time>2015-01-19T20:07:26.978Z</time>
      </trkpt>
      <trkpt lat="48.86338" lon="2.28425">
        <ele>130.8</ele>
        <time>2015-01-19T20:07:27.985Z</time>
      </trkpt>
      <trkpt lat="48.86341" lon="2.28414">
        <ele>129.4</ele>
        <time>2015-01-19T20:07:29.911Z</time>
      </trkpt>
      <trkpt lat="48.86342" lon="2.28409">
        <ele>129</ele>
        <time>2015-01-19T20:07:30.938Z</time>
      </trkpt>
      <trkpt lat="48.86343" lon="2.28399">
        <ele>128.5</ele>
        <time>2015-01-19T20:07:32.961Z</time>
      </trkpt>
      <trkpt lat="48.86344" lon="2.28394">
        <ele>128.3</ele>
        <time>2015-01-19T20:07:33.983Z</time>
      </trkpt>
      <trkpt lat="48.86346" lon="2.28384">
        <ele>127.9</ele>
        <time>2015-01-19T20:07:36.000Z</time>
      </trkpt>
      <trkpt lat="48.86347" lon="2.28378">
        <ele>127.9</ele>
        <time>2015-01-19T20:07:36.976Z</time>
      </trkpt>
      <trkpt lat="48.86348" lon="2.28368">
        <ele>127.9</ele>
        <time>2015-01-19T20:07:38.938Z</time>
      </trkpt>
      <trkpt lat="48.86349" lon="2.28362">
        <ele>127.8</ele>
        <time>2015-01-19T20:07:40.020Z</time>
      </trkpt>
      <trkpt lat="48.86351" lon="2.2835">
        <ele>127.1</ele>
        <time>2015-01-19T20:07:41.911Z</time>
      </trkpt>
      <trkpt lat="48.86352" lon="2.28344">
        <ele>126.7</ele>
        <time>2015-01-19T20:07:42.923Z</time>
      </trkpt>
      <trkpt lat="48.86353" lon="2.28337">
        <ele>126.5</ele>
        <time>2015-01-19T20:07:43.959Z</time>
      </trkpt>
      <trkpt lat="48.86354" lon="2.28331">
        <ele>126.4</ele>
        <time>2015-01-19T20:07:44.970Z</time>
      </trkpt>
      <trkpt lat="48.86356" lon="2.28324">
        <ele>126.3</ele>
        <time>2015-01-19T20:07:45.912Z</time>
      </trkpt>
      <trkpt lat="48.86357" lon="2.28316">
        <ele>125.8</ele>
        <time>2015-01-19T20:07:46.912Z</time>
      </trkpt>
      <trkpt lat="48.86358" lon="2.28309">
        <ele>125.6</ele>
        <time>2015-01-19T20:07:48.087Z</time>
      </trkpt>
      <trkpt lat="48.86359" lon="2.28301">
        <ele>125.5</ele>
        <time>2015-01-19T20:07:48.972Z</time>
      </trkpt>
      <trkpt lat="48.8636" lon="2.28292">
        <ele>124.6</ele>
        <time>2015-01-19T20:07:49.975Z</time>
      </trkpt>
      <trkpt lat="48.86362" lon="2.28283">
        <ele>124.6</ele>
        <time>2015-01-19T20:07:50.988Z</time>
      </trkpt>
      <trkpt lat="48.86364" lon="2.28276">
        <ele>124.6</ele>
        <time>2015-01-19T20:07:52.007Z</time>
      </trkpt>
      <trkpt lat="48.86366" lon="2.28268">
        <ele>124.7</ele>
        <time>2015-01-19T20:07:53.022Z</time>
      </trkpt>
      <trkpt lat="48.86368" lon="2.2826">
        <ele>124.6</ele>
        <time>2015-01-19T20:07:53.911Z</time>
      </trkpt>
      <trkpt lat="48.8637" lon="2.28252">
        <ele>124.6</ele>
        <time>2015-01-19T20:07:54.904Z</time>
      </trkpt>
      <trkpt lat="48.86371" lon="2.28245">
        <ele>124.7</ele>
        <time>2015-01-19T20:07:55.933Z</time>
      </trkpt>
      <trkpt lat="48.86371" lon="2.28237">
        <ele>124.4</ele>
        <time>2015-01-19T20:07:56.942Z</time>
      </trkpt>
      <trkpt lat="48.86372" lon="2.28227">
        <ele>123.4</ele>
        <time>2015-01-19T20:07:57.950Z</time>
      </trkpt>
      <trkpt lat="48.86372" lon="2.28218">
        <ele>122.3</ele>
        <time>2015-01-19T20:07:58.994Z</time>
      </trkpt>
      <trkpt lat="48.86372" lon="2.2821">
        <ele>121.6</ele>
        <time>2015-01-19T20:07:59.979Z</time>
      </trkpt>
      <trkpt lat="48.86373" lon="2.28201">
        <ele>120.6</ele>
        <time>2015-01-19T20:08:00.990Z</time>
      </trkpt>
      <trkpt lat="48.86373" lon="2.28192">
        <ele>119.8</ele>
        <time>2015-01-19T20:08:01.995Z</time>
      </trkpt>
      <trkpt lat="48.86372" lon="2.28185">
        <ele>118.8</ele>
        <time>2015-01-19T20:08:03.002Z</time>
      </trkpt>
      <trkpt lat="48.86369" lon="2.28175">
        <ele>118.7</ele>
        <time>2015-01-19T20:08:05.021Z</time>
      </trkpt>
      <trkpt lat="48.86368" lon="2.28171">
        <ele>118.8</ele>
        <time>2015-01-19T20:08:05.990Z</time>
      </trkpt>
      <trkpt lat="48.86362" lon="2.28166">
        <ele>119.4</ele>
        <time>2015-01-19T20:08:08.032Z</time>
      </trkpt>
      <trkpt lat="48.86359" lon="2.28161">
        <ele>119.9</ele>
        <time>2015-01-19T20:08:08.909Z</time>
      </trkpt>
      <trkpt lat="48.86353" lon="2.28156">
        <ele>119.9</ele>
        <time>2015-01-19T20:08:10.911Z</time>
      </trkpt>
      <trkpt lat="48.8635" lon="2.28155">
        <ele>119.6</ele>
        <time>2015-01-19T20:08:11.938Z</time>
      </trkpt>
      <trkpt lat="48.86342" lon="2.28151">
        <ele>119.6</ele>
        <time>2015-01-19T20:08:15.947Z</time>
      </trkpt>
      <trkpt lat="48.8634" lon="2.2815">
        <ele>119.7</ele>
        <time>2015-01-19T20:08:16.955Z</time>
      </trkpt>
      <trkpt lat="48.86333" lon="2.28147">
        <ele>119.6</ele>
        <time>2015-01-19T20:08:18.968Z</time>
      </trkpt>
      <trkpt lat="48.86329" lon="2.28146">
        <ele>119.6</ele>
        <time>2015-01-19T20:08:19.921Z</time>
      </trkpt>
      <trkpt lat="48.86322" lon="2.28145">
        <ele>119.6</ele>
        <time>2015-01-19T20:08:21.905Z</time>
      </trkpt>
      <trkpt lat="48.86319" lon="2.28143">
        <ele>119.7</ele>
        <time>2015-01-19T20:08:22.917Z</time>
      </trkpt>
      <trkpt lat="48.86313" lon="2.28135">
        <ele>119.7</ele>
        <time>2015-01-19T20:08:24.944Z</time>
      </trkpt>
      <trkpt lat="48.86309" lon="2.28131">
        <ele>119.7</ele>
        <time>2015-01-19T20:08:25.960Z</time>
      </trkpt>
      <trkpt lat="48.86303" lon="2.28126">
        <ele>119.9</ele>
        <time>2015-01-19T20:08:27.985Z</time>
      </trkpt>
      <trkpt lat="48.863" lon="2.28121">
        <ele>120.8</ele>
        <time>2015-01-19T20:08:28.993Z</time>
      </trkpt>
      <trkpt lat="48.86295" lon="2.28114">
        <ele>121.8</ele>
        <time>2015-01-19T20:08:30.902Z</time>
      </trkpt>
      <trkpt lat="48.86292" lon="2.28112">
        <ele>122.1</ele>
        <time>2015-01-19T20:08:31.922Z</time>
      </trkpt>
      <trkpt lat="48.86286" lon="2.28108">
        <ele>122.5</ele>
        <time>2015-01-19T20:08:34.970Z</time>
      </trkpt>
      <trkpt lat="48.86284" lon="2.28107">
        <ele>122.6</ele>
        <time>2015-01-19T20:08:35.981Z</time>
      </trkpt>
      <trkpt lat="48.86278" lon="2.28098">
        <ele>123</ele>
        <time>2015-01-19T20:08:39.157Z</time>
      </trkpt>
      <trkpt lat="48.86276" lon="2.28096">
        <ele>123</ele>
        <time>2015-01-19T20:08:39.897Z</time>
      </trkpt>
      <trkpt lat="48.86271" lon="2.28089">
        <ele>123</ele>
        <time>2015-01-19T20:08:41.921Z</time>
      </trkpt>
      <trkpt lat="48.86268" lon="2.28086">
        <ele>122.9</ele>
        <time>2015-01-19T20:08:42.965Z</time>
      </trkpt>
      <trkpt lat="48.86262" lon="2.28082">
        <ele>122.6</ele>
        <time>2015-01-19T20:08:44.987Z</time>
      </trkpt>
      <trkpt lat="48.8626" lon="2.28079">
        <ele>122.5</ele>
        <time>2015-01-19T20:08:45.896Z</time>
      </trkpt>
      <trkpt lat="48.86254" lon="2.28075">
        <ele>122.1</ele>
        <time>2015-01-19T20:08:48.356Z</time>
      </trkpt>
      <trkpt lat="48.86251" lon="2.28073">
        <ele>122</ele>
        <time>2015-01-19T20:08:48.933Z</time>
      </trkpt>
      <trkpt lat="48.86243" lon="2.28069">
        <ele>121.6</ele>
        <time>2015-01-19T20:08:50.986Z</time>
      </trkpt>
      <trkpt lat="48.86239" lon="2.28067">
        <ele>121.3</ele>
        <time>2015-01-19T20:08:51.940Z</time>
      </trkpt>
      <trkpt lat="48.86232" lon="2.28061">
        <ele>121.3</ele>
        <time>2015-01-19T20:08:53.974Z</time>
      </trkpt>
      <trkpt lat="48.86228" lon="2.2806">
        <ele>121.3</ele>
        <time>2015-01-19T20:08:54.881Z</time>
      </trkpt>
      <trkpt lat="48.86221" lon="2.28052">
        <ele>121.4</ele>
        <time>2015-01-19T20:08:56.893Z</time>
      </trkpt>
      <trkpt lat="48.86217" lon="2.28046">
        <ele>121.8</ele>
        <time>2015-01-19T20:08:57.904Z</time>
      </trkpt>
      <trkpt lat="48.86213" lon="2.2804">
        <ele>122</ele>
        <time>2015-01-19T20:08:58.949Z</time>
      </trkpt>
      <trkpt lat="48.86209" lon="2.28033">
        <ele>122.3</ele>
        <time>2015-01-19T20:08:59.970Z</time>
      </trkpt>
      <trkpt lat="48.86202" lon="2.28026">
        <ele>122.6</ele>
        <time>2015-01-19T20:09:01.980Z</time>
      </trkpt>
      <trkpt lat="48.86198" lon="2.28025">
        <ele>122.4</ele>
        <time>2015-01-19T20:09:03.005Z</time>
      </trkpt>
      <trkpt lat="48.86192" lon="2.28021">
        <ele>122.4</ele>
        <time>2015-01-19T20:09:04.883Z</time>
      </trkpt>
      <trkpt lat="48.8619" lon="2.28018">
        <ele>122.3</ele>
        <time>2015-01-19T20:09:05.883Z</time>
      </trkpt>
      <trkpt lat="48.86184" lon="2.28009">
        <ele>122</ele>
        <time>2015-01-19T20:09:08.865Z</time>
      </trkpt>
      <trkpt lat="48.86183" lon="2.28005">
        <ele>121.8</ele>
        <time>2015-01-19T20:09:09.892Z</time>
      </trkpt>
      <trkpt lat="48.8618" lon="2.27995">
        <ele>121.7</ele>
        <time>2015-01-19T20:09:11.891Z</time>
      </trkpt>
      <trkpt lat="48.86177" lon="2.27991">
        <ele>121.6</ele>
        <time>2015-01-19T20:09:12.898Z</time>
      </trkpt>
      <trkpt lat="48.86172" lon="2.27984">
        <ele>121.6</ele>
        <time>2015-01-19T20:09:14.926Z</time>
      </trkpt>
      <trkpt lat="48.8617" lon="2.2798">
        <ele>121.8</ele>
        <time>2015-01-19T20:09:15.925Z</time>
      </trkpt>
      <trkpt lat="48.86164" lon="2.27969">
        <ele>122.6</ele>
        <time>2015-01-19T20:09:17.977Z</time>
      </trkpt>
      <trkpt lat="48.86161" lon="2.27966">
        <ele>122.5</ele>
        <time>2015-01-19T20:09:18.888Z</time>
      </trkpt>
      <trkpt lat="48.86155" lon="2.27961">
        <ele>122.3</ele>
        <time>2015-01-19T20:09:20.925Z</time>
      </trkpt>
      <trkpt lat="48.86152" lon="2.27957">
        <ele>122.2</ele>
        <time>2015-01-19T20:09:21.932Z</time>
      </trkpt>
      <trkpt lat="48.86146" lon="2.2795">
        <ele>121.9</ele>
        <time>2015-01-19T20:09:23.982Z</time>
      </trkpt>
      <trkpt lat="48.86143" lon="2.27947">
        <ele>121.8</ele>
        <time>2015-01-19T20:09:24.957Z</time>
      </trkpt>
      <trkpt lat="48.86136" lon="2.2794">
        <ele>121.7</ele>
        <time>2015-01-19T20:09:27.902Z</time>
      </trkpt>
      <trkpt lat="48.86134" lon="2.27939">
        <ele>121.7</ele>
        <time>2015-01-19T20:09:28.923Z</time>
      </trkpt>
      <trkpt lat="48.86127" lon="2.27939">
        <ele>121.5</ele>
        <time>2015-01-19T20:09:30.947Z</time>
      </trkpt>
      <trkpt lat="48.86124" lon="2.27939">
        <ele>121.1</ele>
        <time>2015-01-19T20:09:31.962Z</time>
      </trkpt>
      <trkpt lat="48.86116" lon="2.27934">
        <ele>120</ele>
        <time>2015-01-19T20:09:35.891Z</time>
      </trkpt>
      <trkpt lat="48.86114" lon="2.27931">
        <ele>119.6</ele>
        <time>2015-01-19T20:09:36.924Z</time>
      </trkpt>
      <trkpt lat="48.86107" lon="2.27928">
        <ele>119.2</ele>
        <time>2015-01-19T20:09:39.921Z</time>
      </trkpt>
      <trkpt lat="48.86104" lon="2.27926">
        <ele>119.1</ele>
        <time>2015-01-19T20:09:39.967Z</time>
      </trkpt>
      <trkpt lat="48.86097" lon="2.2792">
        <ele>119.1</ele>
        <time>2015-01-19T20:09:41.906Z</time>
      </trkpt>
      <trkpt lat="48.86093" lon="2.27916">
        <ele>119.1</ele>
        <time>2015-01-19T20:09:42.930Z</time>
      </trkpt>
      <trkpt lat="48.86089" lon="2.27911">
        <ele>119.1</ele>
        <time>2015-01-19T20:09:44.941Z</time>
      </trkpt>
      <trkpt lat="48.86085" lon="2.27908">
        <ele>119.1</ele>
        <time>2015-01-19T20:09:44.962Z</time>
      </trkpt>
      <trkpt lat="48.8608" lon="2.27905">
        <ele>119.1</ele>
        <time>2015-01-19T20:09:45.971Z</time>
      </trkpt>
      <trkpt lat="48.86076" lon="2.279">
        <ele>119.2</ele>
        <time>2015-01-19T20:09:47.010Z</time>
      </trkpt>
      <trkpt lat="48.8607" lon="2.27895">
        <ele>120</ele>
        <time>2015-01-19T20:09:47.900Z</time>
      </trkpt>
      <trkpt lat="48.86064" lon="2.27887">
        <ele>121.1</ele>
        <time>2015-01-19T20:09:48.904Z</time>
      </trkpt>
      <trkpt lat="48.86057" lon="2.27878">
        <ele>121.4</ele>
        <time>2015-01-19T20:09:50.925Z</time>
      </trkpt>
      <trkpt lat="48.86054" lon="2.27873">
        <ele>121.5</ele>
        <time>2015-01-19T20:09:51.930Z</time>
      </trkpt>
      <trkpt lat="48.8605" lon="2.27868">
        <ele>121.6</ele>
        <time>2015-01-19T20:09:52.954Z</time>
      </trkpt>
      <trkpt lat="48.86046" lon="2.27865">
        <ele>121.7</ele>
        <time>2015-01-19T20:09:53.963Z</time>
      </trkpt>
      <trkpt lat="48.86043" lon="2.2786">
        <ele>121.8</ele>
        <time>2015-01-19T20:09:54.978Z</time>
      </trkpt>
      <trkpt lat="48.8604" lon="2.27854">
        <ele>121.9</ele>
        <time>2015-01-19T20:09:55.995Z</time>
      </trkpt>
      <trkpt lat="48.86033" lon="2.27845">
        <ele>122</ele>
        <time>2015-01-19T20:09:57.900Z</time>
      </trkpt>
      <trkpt lat="48.8603" lon="2.27842">
        <ele>121.8</ele>
        <time>2015-01-19T20:09:58.911Z</time>
      </trkpt>
      <trkpt lat="48.86024" lon="2.27834">
        <ele>121.4</ele>
        <time>2015-01-19T20:10:00.916Z</time>
      </trkpt>
      <trkpt lat="48.86021" lon="2.27831">
        <ele>121.2</ele>
        <time>2015-01-19T20:10:01.938Z</time>
      </trkpt>
      <trkpt lat="48.86017" lon="2.27824">
        <ele>121.2</ele>
        <time>2015-01-19T20:10:03.908Z</time>
      </trkpt>
      <trkpt lat="48.86016" lon="2.27819">
        <ele>121.2</ele>
        <time>2015-01-19T20:10:05.009Z</time>
      </trkpt>
      <trkpt lat="48.86011" lon="2.27812">
        <ele>121.1</ele>
        <time>2015-01-19T20:10:06.904Z</time>
      </trkpt>
      <trkpt lat="48.86009" lon="2.2781">
        <ele>121.2</ele>
        <time>2015-01-19T20:10:07.971Z</time>
      </trkpt>
      <trkpt lat="48.86005" lon="2.27807">
        <ele>121.3</ele>
        <time>2015-01-19T20:10:08.946Z</time>
      </trkpt>
      <trkpt lat="48.86" lon="2.27802">
        <ele>121.3</ele>
        <time>2015-01-19T20:10:09.972Z</time>
      </trkpt>
      <trkpt lat="48.85997" lon="2.27799">
        <ele>121.3</ele>
        <time>2015-01-19T20:10:10.964Z</time>
      </trkpt>
      <trkpt lat="48.85992" lon="2.27795">
        <ele>121.3</ele>
        <time>2015-01-19T20:10:11.970Z</time>
      </trkpt>
      <trkpt lat="48.85988" lon="2.27792">
        <ele>121.3</ele>
        <time>2015-01-19T20:10:12.974Z</time>
      </trkpt>
      <trkpt lat="48.85984" lon="2.27787">
        <ele>121.2</ele>
        <time>2015-01-19T20:10:13.989Z</time>
      </trkpt>
      <trkpt lat="48.85981" lon="2.27782">
        <ele>121</ele>
        <time>2015-01-19T20:10:15.002Z</time>
      </trkpt>
      <trkpt lat="48.85978" lon="2.27776">
        <ele>120.7</ele>
        <time>2015-01-19T20:10:15.897Z</time>
      </trkpt>
      <trkpt lat="48.85972" lon="2.27767">
        <ele>120.4</ele>
        <time>2015-01-19T20:10:17.899Z</time>
      </trkpt>
      <trkpt lat="48.85969" lon="2.27763">
        <ele>120.3</ele>
        <time>2015-01-19T20:10:18.919Z</time>
      </trkpt>
      <trkpt lat="48.85962" lon="2.27756">
        <ele>120.1</ele>
        <time>2015-01-19T20:10:20.963Z</time>
      </trkpt>
      <trkpt lat="48.85958" lon="2.27754">
        <ele>120</ele>
        <time>2015-01-19T20:10:21.880Z</time>
      </trkpt>
      <trkpt lat="48.8595" lon="2.27751">
        <ele>119.8</ele>
        <time>2015-01-19T20:10:23.904Z</time>
      </trkpt>
      <trkpt lat="48.85948" lon="2.27747">
        <ele>119.7</ele>
        <time>2015-01-19T20:10:24.910Z</time>
      </trkpt>
      <trkpt lat="48.85943" lon="2.27741">
        <ele>119.6</ele>
        <time>2015-01-19T20:10:26.951Z</time>
      </trkpt>
      <trkpt lat="48.8594" lon="2.27735">
        <ele>120.2</ele>
        <time>2015-01-19T20:10:27.965Z</time>
      </trkpt>
      <trkpt lat="48.85937" lon="2.27724">
        <ele>120.4</ele>
        <time>2015-01-19T20:10:29.914Z</time>
      </trkpt>
      <trkpt lat="48.85935" lon="2.2772">
        <ele>120.1</ele>
        <time>2015-01-19T20:10:30.922Z</time>
      </trkpt>
      <trkpt lat="48.85936" lon="2.2771">
        <ele>119.5</ele>
        <time>2015-01-19T20:10:33.027Z</time>
      </trkpt>
      <trkpt lat="48.85937" lon="2.27705">
        <ele>119.1</ele>
        <time>2015-01-19T20:10:33.995Z</time>
      </trkpt>
      <trkpt lat="48.85938" lon="2.27695">
        <ele>118.4</ele>
        <time>2015-01-19T20:10:35.877Z</time>
      </trkpt>
      <trkpt lat="48.85939" lon="2.2769">
        <ele>118.1</ele>
        <time>2015-01-19T20:10:36.891Z</time>
      </trkpt>
      <trkpt lat="48.8594" lon="2.2768">
        <ele>117.4</ele>
        <time>2015-01-19T20:10:38.961Z</time>
      </trkpt>
      <trkpt lat="48.85942" lon="2.27675">
        <ele>117</ele>
        <time>2015-01-19T20:10:40.051Z</time>
      </trkpt>
      <trkpt lat="48.85946" lon="2.27665">
        <ele>116.7</ele>
        <time>2015-01-19T20:10:41.965Z</time>
      </trkpt>
      <trkpt lat="48.85948" lon="2.27662">
        <ele>116.7</ele>
        <time>2015-01-19T20:10:42.977Z</time>
      </trkpt>
      <trkpt lat="48.8595" lon="2.27651">
        <ele>116.6</ele>
        <time>2015-01-19T20:10:45.212Z</time>
      </trkpt>
      <trkpt lat="48.85951" lon="2.27646">
        <ele>116.6</ele>
        <time>2015-01-19T20:10:45.858Z</time>
      </trkpt>
      <trkpt lat="48.85952" lon="2.27634">
        <ele>116.5</ele>
        <time>2015-01-19T20:10:48.856Z</time>
      </trkpt>
      <trkpt lat="48.85951" lon="2.27628">
        <ele>116.5</ele>
        <time>2015-01-19T20:10:49.905Z</time>
      </trkpt>
      <trkpt lat="48.85951" lon="2.27616">
        <ele>116.4</ele>
        <time>2015-01-19T20:10:52.064Z</time>
      </trkpt>
      <trkpt lat="48.85952" lon="2.27611">
        <ele>116.3</ele>
        <time>2015-01-19T20:10:52.883Z</time>
      </trkpt>
      <trkpt lat="48.85953" lon="2.27607">
        <ele>116.3</ele>
        <time>2015-01-19T20:10:53.883Z</time>
      </trkpt>
      <trkpt lat="48.85948" lon="2.27575">
        <ele>117.8</ele>
        <time>2015-01-19T20:11:03.928Z</time>
      </trkpt>
      <trkpt lat="48.85951" lon="2.27569">
        <ele>119.1</ele>
        <time>2015-01-19T20:11:04.969Z</time>
      </trkpt>
      <trkpt lat="48.85954" lon="2.27564">
        <ele>119.8</ele>
        <time>2015-01-19T20:11:05.979Z</time>
      </trkpt>
      <trkpt lat="48.85952" lon="2.27554">
        <ele>119.7</ele>
        <time>2015-01-19T20:11:08.928Z</time>
      </trkpt>
      <trkpt lat="48.85952" lon="2.2755">
        <ele>119.7</ele>
        <time>2015-01-19T20:11:09.945Z</time>
      </trkpt>
      <trkpt lat="48.8596" lon="2.27554">
        <ele>120.2</ele>
        <time>2015-01-19T20:11:29.012Z</time>
      </trkpt>
      <trkpt lat="48.85961" lon="2.27556">
        <ele>120.2</ele>
        <time>2015-01-19T20:11:30.040Z</time>
      </trkpt>
      <trkpt lat="48.85964" lon="2.27568">
        <ele>121.7</ele>
        <time>2015-01-19T20:11:41.887Z</time>
      </trkpt>
      <trkpt lat="48.85964" lon="2.2757">
        <ele>121.7</ele>
        <time>2015-01-19T20:11:42.908Z</time>
      </trkpt>
      <trkpt lat="48.85967" lon="2.27582">
        <ele>121.9</ele>
        <time>2015-01-19T20:11:50.941Z</time>
      </trkpt>
      <trkpt lat="48.85969" lon="2.27584">
        <ele>122.3</ele>
        <time>2015-01-19T20:11:52.884Z</time>
      </trkpt>
      <trkpt lat="48.8597" lon="2.27586">
        <ele>122.5</ele>
        <time>2015-01-19T20:11:53.878Z</time>
      </trkpt>
      <trkpt lat="48.85976" lon="2.27595">
        <ele>122.8</ele>
        <time>2015-01-19T20:11:58.972Z</time>
      </trkpt>
      <trkpt lat="48.85981" lon="2.27603">
        <ele>122.9</ele>
        <time>2015-01-19T20:12:02.935Z</time>
      </trkpt>
      <trkpt lat="48.85982" lon="2.27606">
        <ele>122.6</ele>
        <time>2015-01-19T20:12:03.947Z</time>
      </trkpt>
      <trkpt lat="48.8599" lon="2.27613">
        <ele>122.5</ele>
        <time>2015-01-19T20:12:07.898Z</time>
      </trkpt>
      <trkpt lat="48.85992" lon="2.27615">
        <ele>122.7</ele>
        <time>2015-01-19T20:12:08.907Z</time>
      </trkpt>
      <trkpt lat="48.85996" lon="2.27618">
        <ele>123</ele>
        <time>2015-01-19T20:12:10.909Z</time>
      </trkpt>
      <trkpt lat="48.86011" lon="2.27622">
        <ele>124.2</ele>
        <time>2015-01-19T20:12:17.891Z</time>
      </trkpt>
      <trkpt lat="48.86015" lon="2.27617">
        <ele>123.5</ele>
        <time>2015-01-19T20:12:18.991Z</time>
      </trkpt>
      <trkpt lat="48.86019" lon="2.27613">
        <ele>122.6</ele>
        <time>2015-01-19T20:12:19.978Z</time>
      </trkpt>
      <trkpt lat="48.86023" lon="2.27609">
        <ele>121.8</ele>
        <time>2015-01-19T20:12:20.891Z</time>
      </trkpt>
      <trkpt lat="48.8603" lon="2.27601">
        <ele>121.5</ele>
        <time>2015-01-19T20:12:21.962Z</time>
      </trkpt>
      <trkpt lat="48.86036" lon="2.27593">
        <ele>120.3</ele>
        <time>2015-01-19T20:12:23.893Z</time>
      </trkpt>
      <trkpt lat="48.86039" lon="2.27588">
        <ele>119.8</ele>
        <time>2015-01-19T20:12:24.948Z</time>
      </trkpt>
      <trkpt lat="48.86041" lon="2.27585">
        <ele>119.5</ele>
        <time>2015-01-19T20:12:25.961Z</time>
      </trkpt>
      <trkpt lat="48.86057" lon="2.27548">
        <ele>116</ele>
        <time>2015-01-19T20:12:33.981Z</time>
      </trkpt>
      <trkpt lat="48.86061" lon="2.27546">
        <ele>116.1</ele>
        <time>2015-01-19T20:12:37.933Z</time>
      </trkpt>
      <trkpt lat="48.86061" lon="2.27546">
        <ele>116.2</ele>
        <time>2015-01-19T20:12:38.961Z</time>
      </trkpt>
      <trkpt lat="48.86062" lon="2.27546">
        <ele>116.2</ele>
        <time>2015-01-19T20:12:39.897Z</time>
      </trkpt>
      <trkpt lat="48.8607" lon="2.27543">
        <ele>116.5</ele>
        <time>2015-01-19T20:12:46.968Z</time>
      </trkpt>
      <trkpt lat="48.86073" lon="2.27544">
        <ele>116.6</ele>
        <time>2015-01-19T20:12:48.898Z</time>
      </trkpt>
      <trkpt lat="48.86065" lon="2.2755">
        <ele>119.4</ele>
        <time>2015-01-19T20:13:04.937Z</time>
      </trkpt>
      <trkpt lat="48.86065" lon="2.27551">
        <ele>119.5</ele>
        <time>2015-01-19T20:13:05.949Z</time>
      </trkpt>
      <trkpt lat="48.86056" lon="2.27554">
        <ele>119.8</ele>
        <time>2015-01-19T20:13:10.895Z</time>
      </trkpt>
      <trkpt lat="48.86044" lon="2.27553">
        <ele>118.4</ele>
        <time>2015-01-19T20:13:17.974Z</time>
      </trkpt>
      <trkpt lat="48.86036" lon="2.27555">
        <ele>118.2</ele>
        <time>2015-01-19T20:13:21.942Z</time>
      </trkpt>
      <trkpt lat="48.86034" lon="2.27556">
        <ele>118.1</ele>
        <time>2015-01-19T20:13:22.990Z</time>
      </trkpt>
      <trkpt lat="48.86026" lon="2.27556">
        <ele>118</ele>
        <time>2015-01-19T20:13:26.955Z</time>
      </trkpt>
      <trkpt lat="48.86024" lon="2.27555">
        <ele>117.8</ele>
        <time>2015-01-19T20:13:27.898Z</time>
      </trkpt>
      <trkpt lat="48.86016" lon="2.27551">
        <ele>117.3</ele>
        <time>2015-01-19T20:13:30.954Z</time>
      </trkpt>
      <trkpt lat="48.86013" lon="2.2755">
        <ele>117</ele>
        <time>2015-01-19T20:13:31.965Z</time>
      </trkpt>
      <trkpt lat="48.86007" lon="2.27545">
        <ele>116.6</ele>
        <time>2015-01-19T20:13:34.926Z</time>
      </trkpt>
      <trkpt lat="48.86005" lon="2.27541">
        <ele>116.7</ele>
        <time>2015-01-19T20:13:35.942Z</time>
      </trkpt>
      <trkpt lat="48.86002" lon="2.2753">
        <ele>116.8</ele>
        <time>2015-01-19T20:13:38.980Z</time>
      </trkpt>
      <trkpt lat="48.86005" lon="2.27523">
        <ele>116.8</ele>
        <time>2015-01-19T20:13:39.898Z</time>
      </trkpt>
      <trkpt lat="48.86002" lon="2.27511">
        <ele>117.7</ele>
        <time>2015-01-19T20:13:44.912Z</time>
      </trkpt>
      <trkpt lat="48.86001" lon="2.27509">
        <ele>118.3</ele>
        <time>2015-01-19T20:13:45.920Z</time>
      </trkpt>
      <trkpt lat="48.85996" lon="2.27506">
        <ele>121.6</ele>
        <time>2015-01-19T20:13:49.917Z</time>
      </trkpt>
      <trkpt lat="48.85992" lon="2.27511">
        <ele>121.6</ele>
        <time>2015-01-19T20:13:50.928Z</time>
      </trkpt>
      <trkpt lat="48.85986" lon="2.2752">
        <ele>121.1</ele>
        <time>2015-01-19T20:13:52.969Z</time>
      </trkpt>
      <trkpt lat="48.85975" lon="2.27534">
        <ele>123.2</ele>
        <time>2015-01-19T20:14:03.890Z</time>
      </trkpt>
      <trkpt lat="48.85966" lon="2.27529">
        <ele>122.5</ele>
        <time>2015-01-19T20:14:19.960Z</time>
      </trkpt>
      <trkpt lat="48.85963" lon="2.2753">
        <ele>122.5</ele>
        <time>2015-01-19T20:14:20.963Z</time>
      </trkpt>
      <trkpt lat="48.85956" lon="2.27526">
        <ele>122.1</ele>
        <time>2015-01-19T20:14:23.882Z</time>
      </trkpt>
      <trkpt lat="48.85955" lon="2.27522">
        <ele>121.9</ele>
        <time>2015-01-19T20:14:24.896Z</time>
      </trkpt>
      <trkpt lat="48.85956" lon="2.27512">
        <ele>121.2</ele>
        <time>2015-01-19T20:14:26.910Z</time>
      </trkpt>
      <trkpt lat="48.85956" lon="2.27508">
        <ele>121</ele>
        <time>2015-01-19T20:14:27.927Z</time>
      </trkpt>
      <trkpt lat="48.85957" lon="2.27496">
        <ele>120.5</ele>
        <time>2015-01-19T20:14:30.977Z</time>
      </trkpt>
      <trkpt lat="48.85957" lon="2.27492">
        <ele>120.4</ele>
        <time>2015-01-19T20:14:32.013Z</time>
      </trkpt>
      <trkpt lat="48.85959" lon="2.2748">
        <ele>120.2</ele>
        <time>2015-01-19T20:14:33.918Z</time>
      </trkpt>
      <trkpt lat="48.85959" lon="2.27471">
        <ele>120.4</ele>
        <time>2015-01-19T20:14:34.913Z</time>
      </trkpt>
      <trkpt lat="48.85962" lon="2.27459">
        <ele>119.4</ele>
        <time>2015-01-19T20:14:40.137Z</time>
      </trkpt>
      <trkpt lat="48.85963" lon="2.27454">
        <ele>118.7</ele>
        <time>2015-01-19T20:14:41.000Z</time>
      </trkpt>
      <trkpt lat="48.85963" lon="2.27449">
        <ele>118.2</ele>
        <time>2015-01-19T20:14:41.965Z</time>
      </trkpt>
      <trkpt lat="48.85963" lon="2.2744">
        <ele>115.6</ele>
        <time>2015-01-19T20:14:42.968Z</time>
      </trkpt>
      <trkpt lat="48.85962" lon="2.27427">
        <ele>113.6</ele>
        <time>2015-01-19T20:14:44.959Z</time>
      </trkpt>
      <trkpt lat="48.8596" lon="2.27423">
        <ele>113.7</ele>
        <time>2015-01-19T20:14:45.964Z</time>
      </trkpt>
      <trkpt lat="48.85956" lon="2.27411">
        <ele>113.8</ele>
        <time>2015-01-19T20:14:50.140Z</time>
      </trkpt>
      <trkpt lat="48.85953" lon="2.27412">
        <ele>113.9</ele>
        <time>2015-01-19T20:14:51.031Z</time>
      </trkpt>
      <trkpt lat="48.85948" lon="2.27403">
        <ele>114.3</ele>
        <time>2015-01-19T20:14:53.963Z</time>
      </trkpt>
      <trkpt lat="48.85947" lon="2.274">
        <ele>114.5</ele>
        <time>2015-01-19T20:14:54.882Z</time>
      </trkpt>
      <trkpt lat="48.85941" lon="2.27395">
        <ele>114.6</ele>
        <time>2015-01-19T20:14:56.925Z</time>
      </trkpt>
      <trkpt lat="48.85937" lon="2.27394">
        <ele>114.7</ele>
        <time>2015-01-19T20:14:57.939Z</time>
      </trkpt>
      <trkpt lat="48.8593" lon="2.2739">
        <ele>114.7</ele>
        <time>2015-01-19T20:14:59.972Z</time>
      </trkpt>
      <trkpt lat="48.85926" lon="2.27386">
        <ele>115.1</ele>
        <time>2015-01-19T20:15:00.994Z</time>
      </trkpt>
      <trkpt lat="48.85919" lon="2.27381">
        <ele>115.6</ele>
        <time>2015-01-19T20:15:02.938Z</time>
      </trkpt>
      <trkpt lat="48.85915" lon="2.27379">
        <ele>115.9</ele>
        <time>2015-01-19T20:15:03.947Z</time>
      </trkpt>
      <trkpt lat="48.8591" lon="2.27374">
        <ele>116</ele>
        <time>2015-01-19T20:15:05.975Z</time>
      </trkpt>
      <trkpt lat="48.85907" lon="2.27373">
        <ele>116.1</ele>
        <time>2015-01-19T20:15:06.897Z</time>
      </trkpt>
      <trkpt lat="48.85899" lon="2.27367">
        <ele>116</ele>
        <time>2015-01-19T20:15:09.938Z</time>
      </trkpt>
      <trkpt lat="48.85897" lon="2.27365">
        <ele>116</ele>
        <time>2015-01-19T20:15:10.960Z</time>
      </trkpt>
      <trkpt lat="48.85889" lon="2.27357">
        <ele>115.9</ele>
        <time>2015-01-19T20:15:13.933Z</time>
      </trkpt>
      <trkpt lat="48.85888" lon="2.27352">
        <ele>115.7</ele>
        <time>2015-01-19T20:15:14.951Z</time>
      </trkpt>
      <trkpt lat="48.85881" lon="2.27345">
        <ele>115.8</ele>
        <time>2015-01-19T20:15:16.983Z</time>
      </trkpt>
      <trkpt lat="48.85878" lon="2.27339">
        <ele>116.4</ele>
        <time>2015-01-19T20:15:17.904Z</time>
      </trkpt>
      <trkpt lat="48.85874" lon="2.27328">
        <ele>116</ele>
        <time>2015-01-19T20:15:19.940Z</time>
      </trkpt>
      <trkpt lat="48.85871" lon="2.27323">
        <ele>115.9</ele>
        <time>2015-01-19T20:15:20.940Z</time>
      </trkpt>
      <trkpt lat="48.85865" lon="2.27313">
        <ele>115.7</ele>
        <time>2015-01-19T20:15:22.973Z</time>
      </trkpt>
      <trkpt lat="48.8586" lon="2.2731">
        <ele>115.5</ele>
        <time>2015-01-19T20:15:23.987Z</time>
      </trkpt>
      <trkpt lat="48.85856" lon="2.27303">
        <ele>113.9</ele>
        <time>2015-01-19T20:15:24.946Z</time>
      </trkpt>
      <trkpt lat="48.85852" lon="2.27296">
        <ele>113.5</ele>
        <time>2015-01-19T20:15:25.956Z</time>
      </trkpt>
      <trkpt lat="48.85847" lon="2.27286">
        <ele>112</ele>
        <time>2015-01-19T20:15:27.892Z</time>
      </trkpt>
      <trkpt lat="48.85845" lon="2.27281">
        <ele>110.9</ele>
        <time>2015-01-19T20:15:28.900Z</time>
      </trkpt>
      <trkpt lat="48.85842" lon="2.2727">
        <ele>108.3</ele>
        <time>2015-01-19T20:15:31.981Z</time>
      </trkpt>
      <trkpt lat="48.8584" lon="2.27268">
        <ele>107.6</ele>
        <time>2015-01-19T20:15:32.987Z</time>
      </trkpt>
      <trkpt lat="48.85832" lon="2.27263">
        <ele>106</ele>
        <time>2015-01-19T20:15:36.977Z</time>
      </trkpt>
      <trkpt lat="48.8583" lon="2.27263">
        <ele>105.6</ele>
        <time>2015-01-19T20:15:37.991Z</time>
      </trkpt>
      <trkpt lat="48.85825" lon="2.2726">
        <ele>105.6</ele>
        <time>2015-01-19T20:15:41.917Z</time>
      </trkpt>
      <trkpt lat="48.85824" lon="2.27259">
        <ele>105.6</ele>
        <time>2015-01-19T20:15:42.926Z</time>
      </trkpt>
      <trkpt lat="48.85824" lon="2.27259">
        <ele>105.6</ele>
        <time>2015-01-19T20:15:44.955Z</time>
      </trkpt>
      <trkpt lat="48.85823" lon="2.27259">
        <ele>105.7</ele>
        <time>2015-01-19T20:15:46.000Z</time>
      </trkpt>
      <trkpt lat="48.85816" lon="2.27259">
        <ele>105.9</ele>
        <time>2015-01-19T20:15:49.950Z</time>
      </trkpt>
      <trkpt lat="48.85814" lon="2.2726">
        <ele>105.8</ele>
        <time>2015-01-19T20:15:50.970Z</time>
      </trkpt>
      <trkpt lat="48.85805" lon="2.27258">
        <ele>105.9</ele>
        <time>2015-01-19T20:15:54.923Z</time>
      </trkpt>
      <trkpt lat="48.85803" lon="2.27255">
        <ele>105.9</ele>
        <time>2015-01-19T20:15:55.942Z</time>
      </trkpt>
      <trkpt lat="48.85799" lon="2.27246">
        <ele>105.9</ele>
        <time>2015-01-19T20:15:57.966Z</time>
      </trkpt>
      <trkpt lat="48.85797" lon="2.27241">
        <ele>105.8</ele>
        <time>2015-01-19T20:15:58.922Z</time>
      </trkpt>
      <trkpt lat="48.85793" lon="2.2723">
        <ele>105.5</ele>
        <time>2015-01-19T20:16:00.909Z</time>
      </trkpt>
      <trkpt lat="48.85794" lon="2.2722">
        <ele>105.3</ele>
        <time>2015-01-19T20:16:01.922Z</time>
      </trkpt>
      <trkpt lat="48.85793" lon="2.27213">
        <ele>105.2</ele>
        <time>2015-01-19T20:16:02.951Z</time>
      </trkpt>
      <trkpt lat="48.85791" lon="2.27206">
        <ele>104.7</ele>
        <time>2015-01-19T20:16:03.958Z</time>
      </trkpt>
      <trkpt lat="48.85789" lon="2.27199">
        <ele>104.5</ele>
        <time>2015-01-19T20:16:04.992Z</time>
      </trkpt>
      <trkpt lat="48.85788" lon="2.27192">
        <ele>104.3</ele>
        <time>2015-01-19T20:16:05.907Z</time>
      </trkpt>
      <trkpt lat="48.85786" lon="2.27184">
        <ele>104</ele>
        <time>2015-01-19T20:16:07.025Z</time>
      </trkpt>
      <trkpt lat="48.85784" lon="2.27176">
        <ele>103.7</ele>
        <time>2015-01-19T20:16:07.928Z</time>
      </trkpt>
      <trkpt lat="48.85781" lon="2.27169">
        <ele>103.4</ele>
        <time>2015-01-19T20:16:08.944Z</time>
      </trkpt>
      <trkpt lat="48.85779" lon="2.27161">
        <ele>103.1</ele>
        <time>2015-01-19T20:16:09.959Z</time>
      </trkpt>
      <trkpt lat="48.85776" lon="2.27154">
        <ele>102.9</ele>
        <time>2015-01-19T20:16:10.961Z</time>
      </trkpt>
      <trkpt lat="48.85773" lon="2.27147">
        <ele>102.7</ele>
        <time>2015-01-19T20:16:11.989Z</time>
      </trkpt>
      <trkpt lat="48.85771" lon="2.27139">
        <ele>102.5</ele>
        <time>2015-01-19T20:16:12.878Z</time>
      </trkpt>
      <trkpt lat="48.85769" lon="2.27131">
        <ele>102.1</ele>
        <time>2015-01-19T20:16:13.902Z</time>
      </trkpt>
      <trkpt lat="48.85768" lon="2.27122">
        <ele>102</ele>
        <time>2015-01-19T20:16:14.908Z</time>
      </trkpt>
      <trkpt lat="48.85766" lon="2.27113">
        <ele>101.7</ele>
        <time>2015-01-19T20:16:16.013Z</time>
      </trkpt>
      <trkpt lat="48.85764" lon="2.27104">
        <ele>101.4</ele>
        <time>2015-01-19T20:16:16.888Z</time>
      </trkpt>
      <trkpt lat="48.85763" lon="2.27095">
        <ele>101.3</ele>
        <time>2015-01-19T20:16:17.897Z</time>
      </trkpt>
      <trkpt lat="48.85761" lon="2.27087">
        <ele>101.2</ele>
        <time>2015-01-19T20:16:18.940Z</time>
      </trkpt>
      <trkpt lat="48.85759" lon="2.27078">
        <ele>101</ele>
        <time>2015-01-19T20:16:19.900Z</time>
      </trkpt>
      <trkpt lat="48.85758" lon="2.2707">
        <ele>100.8</ele>
        <time>2015-01-19T20:16:20.954Z</time>
      </trkpt>
      <trkpt lat="48.85756" lon="2.27061">
        <ele>100.7</ele>
        <time>2015-01-19T20:16:21.966Z</time>
      </trkpt>
      <trkpt lat="48.85754" lon="2.27053">
        <ele>100.4</ele>
        <time>2015-01-19T20:16:23.040Z</time>
      </trkpt>
      <trkpt lat="48.85753" lon="2.27045">
        <ele>100.1</ele>
        <time>2015-01-19T20:16:23.893Z</time>
      </trkpt>
      <trkpt lat="48.85752" lon="2.27037">
        <ele>100</ele>
        <time>2015-01-19T20:16:24.904Z</time>
      </trkpt>
      <trkpt lat="48.85751" lon="2.27028">
        <ele>99.9</ele>
        <time>2015-01-19T20:16:25.932Z</time>
      </trkpt>
      <trkpt lat="48.8575" lon="2.2702">
        <ele>99.8</ele>
        <time>2015-01-19T20:16:26.949Z</time>
      </trkpt>
      <trkpt lat="48.85748" lon="2.27012">
        <ele>99.8</ele>
        <time>2015-01-19T20:16:27.957Z</time>
      </trkpt>
      <trkpt lat="48.85746" lon="2.27005">
        <ele>99.8</ele>
        <time>2015-01-19T20:16:28.969Z</time>
      </trkpt>
      <trkpt lat="48.85743" lon="2.26998">
        <ele>99.7</ele>
        <time>2015-01-19T20:16:29.977Z</time>
      </trkpt>
      <trkpt lat="48.8574" lon="2.26992">
        <ele>99.7</ele>
        <time>2015-01-19T20:16:30.980Z</time>
      </trkpt>
      <trkpt lat="48.85738" lon="2.26985">
        <ele>99.7</ele>
        <time>2015-01-19T20:16:31.987Z</time>
      </trkpt>
      <trkpt lat="48.85736" lon="2.26978">
        <ele>99.6</ele>
        <time>2015-01-19T20:16:33.000Z</time>
      </trkpt>
      <trkpt lat="48.85734" lon="2.26971">
        <ele>99.6</ele>
        <time>2015-01-19T20:16:33.895Z</time>
      </trkpt>
      <trkpt lat="48.85733" lon="2.26963">
        <ele>99.5</ele>
        <time>2015-01-19T20:16:34.892Z</time>
      </trkpt>
      <trkpt lat="48.85731" lon="2.26957">
        <ele>99.3</ele>
        <time>2015-01-19T20:16:35.905Z</time>
      </trkpt>
      <trkpt lat="48.85729" lon="2.26944">
        <ele>99.2</ele>
        <time>2015-01-19T20:16:37.930Z</time>
      </trkpt>
      <trkpt lat="48.85728" lon="2.2694">
        <ele>99.1</ele>
        <time>2015-01-19T20:16:39.021Z</time>
      </trkpt>
      <trkpt lat="48.85721" lon="2.26933">
        <ele>99</ele>
        <time>2015-01-19T20:16:44.989Z</time>
      </trkpt>
      <trkpt lat="48.8572" lon="2.26933">
        <ele>99</ele>
        <time>2015-01-19T20:16:45.903Z</time>
      </trkpt>
      <trkpt lat="48.85719" lon="2.26932">
        <ele>99</ele>
        <time>2015-01-19T20:16:46.912Z</time>
      </trkpt>
      <trkpt lat="48.85719" lon="2.26932">
        <ele>99.2</ele>
        <time>2015-01-19T20:16:47.938Z</time>
      </trkpt>
      <trkpt lat="48.85719" lon="2.26931">
        <ele>99.3</ele>
        <time>2015-01-19T20:16:48.993Z</time>
      </trkpt>
      <trkpt lat="48.85721" lon="2.26921">
        <ele>99.4</ele>
        <time>2015-01-19T20:16:51.996Z</time>
      </trkpt>
      <trkpt lat="48.85721" lon="2.26917">
        <ele>99.3</ele>
        <time>2015-01-19T20:16:52.954Z</time>
      </trkpt>
      <trkpt lat="48.8572" lon="2.26909">
        <ele>99.1</ele>
        <time>2015-01-19T20:16:54.932Z</time>
      </trkpt>
      <trkpt lat="48.85719" lon="2.26904">
        <ele>98.8</ele>
        <time>2015-01-19T20:16:55.940Z</time>
      </trkpt>
      <trkpt lat="48.85717" lon="2.26891">
        <ele>98.3</ele>
        <time>2015-01-19T20:16:57.972Z</time>
      </trkpt>
      <trkpt lat="48.85716" lon="2.26885">
        <ele>98.1</ele>
        <time>2015-01-19T20:16:59.001Z</time>
      </trkpt>
      <trkpt lat="48.85713" lon="2.26874">
        <ele>97.6</ele>
        <time>2015-01-19T20:17:00.912Z</time>
      </trkpt>
      <trkpt lat="48.85712" lon="2.26867">
        <ele>97.6</ele>
        <time>2015-01-19T20:17:01.918Z</time>
      </trkpt>
      <trkpt lat="48.8571" lon="2.26855">
        <ele>97.4</ele>
        <time>2015-01-19T20:17:03.960Z</time>
      </trkpt>
      <trkpt lat="48.85709" lon="2.26849">
        <ele>97.4</ele>
        <time>2015-01-19T20:17:04.970Z</time>
      </trkpt>
      <trkpt lat="48.85708" lon="2.26842">
        <ele>97.2</ele>
        <time>2015-01-19T20:17:05.901Z</time>
      </trkpt>
      <trkpt lat="48.85707" lon="2.26835">
        <ele>97</ele>
        <time>2015-01-19T20:17:06.888Z</time>
      </trkpt>
      <trkpt lat="48.85706" lon="2.26827">
        <ele>96.9</ele>
        <time>2015-01-19T20:17:07.916Z</time>
      </trkpt>
      <trkpt lat="48.85705" lon="2.2682">
        <ele>96.6</ele>
        <time>2015-01-19T20:17:08.923Z</time>
      </trkpt>
      <trkpt lat="48.85703" lon="2.26814">
        <ele>96.5</ele>
        <time>2015-01-19T20:17:09.932Z</time>
      </trkpt>
      <trkpt lat="48.85702" lon="2.26806">
        <ele>96.4</ele>
        <time>2015-01-19T20:17:10.944Z</time>
      </trkpt>
      <trkpt lat="48.85701" lon="2.26798">
        <ele>96.3</ele>
        <time>2015-01-19T20:17:11.942Z</time>
      </trkpt>
      <trkpt lat="48.857" lon="2.26791">
        <ele>96.2</ele>
        <time>2015-01-19T20:17:12.956Z</time>
      </trkpt>
      <trkpt lat="48.85699" lon="2.26784">
        <ele>96</ele>
        <time>2015-01-19T20:17:13.963Z</time>
      </trkpt>
      <trkpt lat="48.85697" lon="2.26777">
        <ele>95.7</ele>
        <time>2015-01-19T20:17:14.969Z</time>
      </trkpt>
      <trkpt lat="48.85695" lon="2.2677">
        <ele>95.5</ele>
        <time>2015-01-19T20:17:15.980Z</time>
      </trkpt>
      <trkpt lat="48.85693" lon="2.26763">
        <ele>95.5</ele>
        <time>2015-01-19T20:17:16.987Z</time>
      </trkpt>
      <trkpt lat="48.85692" lon="2.2675">
        <ele>95.6</ele>
        <time>2015-01-19T20:17:18.912Z</time>
      </trkpt>
      <trkpt lat="48.85693" lon="2.26743">
        <ele>95.8</ele>
        <time>2015-01-19T20:17:19.928Z</time>
      </trkpt>
      <trkpt lat="48.8569" lon="2.26732">
        <ele>95.9</ele>
        <time>2015-01-19T20:17:21.967Z</time>
      </trkpt>
      <trkpt lat="48.85689" lon="2.26726">
        <ele>96</ele>
        <time>2015-01-19T20:17:22.882Z</time>
      </trkpt>
      <trkpt lat="48.85685" lon="2.26722">
        <ele>95.9</ele>
        <time>2015-01-19T20:17:23.905Z</time>
      </trkpt>
      <trkpt lat="48.85682" lon="2.26717">
        <ele>95.8</ele>
        <time>2015-01-19T20:17:24.905Z</time>
      </trkpt>
      <trkpt lat="48.85677" lon="2.26706">
        <ele>95.8</ele>
        <time>2015-01-19T20:17:26.939Z</time>
      </trkpt>
      <trkpt lat="48.85675" lon="2.26701">
        <ele>95.7</ele>
        <time>2015-01-19T20:17:27.938Z</time>
      </trkpt>
      <trkpt lat="48.85671" lon="2.26692">
        <ele>95.7</ele>
        <time>2015-01-19T20:17:29.957Z</time>
      </trkpt>
      <trkpt lat="48.85669" lon="2.26688">
        <ele>95.7</ele>
        <time>2015-01-19T20:17:30.977Z</time>
      </trkpt>
      <trkpt lat="48.85664" lon="2.26681">
        <ele>95.4</ele>
        <time>2015-01-19T20:17:33.000Z</time>
      </trkpt>
      <trkpt lat="48.85662" lon="2.26677">
        <ele>95.4</ele>
        <time>2015-01-19T20:17:33.912Z</time>
      </trkpt>
      <trkpt lat="48.85657" lon="2.26671">
        <ele>95.7</ele>
        <time>2015-01-19T20:17:35.937Z</time>
      </trkpt>
      <trkpt lat="48.85654" lon="2.26669">
        <ele>95.7</ele>
        <time>2015-01-19T20:17:36.946Z</time>
      </trkpt>
      <trkpt lat="48.85647" lon="2.26661">
        <ele>96.4</ele>
        <time>2015-01-19T20:17:39.987Z</time>
      </trkpt>
      <trkpt lat="48.85644" lon="2.26655">
        <ele>98</ele>
        <time>2015-01-19T20:17:41.003Z</time>
      </trkpt>
      <trkpt lat="48.85645" lon="2.26643">
        <ele>98.2</ele>
        <time>2015-01-19T20:17:47.938Z</time>
      </trkpt>
      <trkpt lat="48.85647" lon="2.26642">
        <ele>98.1</ele>
        <time>2015-01-19T20:17:49.027Z</time>
      </trkpt>
      <trkpt lat="48.85655" lon="2.26639">
        <ele>98.3</ele>
        <time>2015-01-19T20:17:53.912Z</time>
      </trkpt>
      <trkpt lat="48.85656" lon="2.26637">
        <ele>98.4</ele>
        <time>2015-01-19T20:17:54.928Z</time>
      </trkpt>
      <trkpt lat="48.85659" lon="2.26634">
        <ele>98.4</ele>
        <time>2015-01-19T20:17:57.924Z</time>
      </trkpt>
      <trkpt lat="48.85659" lon="2.26634">
        <ele>98.5</ele>
        <time>2015-01-19T20:17:58.960Z</time>
      </trkpt>
      <trkpt lat="48.85659" lon="2.26635">
        <ele>98.4</ele>
        <time>2015-01-19T20:18:03.989Z</time>
      </trkpt>
      <trkpt lat="48.85656" lon="2.26637">
        <ele>98.4</ele>
        <time>2015-01-19T20:18:05.030Z</time>
      </trkpt>
      <trkpt lat="48.85651" lon="2.26643">
        <ele>98.5</ele>
        <time>2015-01-19T20:18:08.963Z</time>
      </trkpt>
      <trkpt lat="48.8565" lon="2.26647">
        <ele>98.5</ele>
        <time>2015-01-19T20:18:09.888Z</time>
      </trkpt>
      <trkpt lat="48.85647" lon="2.2666">
        <ele>98.7</ele>
        <time>2015-01-19T20:18:13.995Z</time>
      </trkpt>
      <trkpt lat="48.85647" lon="2.26665">
        <ele>98.8</ele>
        <time>2015-01-19T20:18:14.905Z</time>
      </trkpt>
      <trkpt lat="48.85647" lon="2.26672">
        <ele>98.4</ele>
        <time>2015-01-19T20:18:15.940Z</time>
      </trkpt>
      <trkpt lat="48.85647" lon="2.26682">
        <ele>97.6</ele>
        <time>2015-01-19T20:18:16.951Z</time>
      </trkpt>
      <trkpt lat="48.85648" lon="2.26692">
        <ele>96.6</ele>
        <time>2015-01-19T20:18:17.967Z</time>
      </trkpt>
      <trkpt lat="48.85647" lon="2.26699">
        <ele>96.6</ele>
        <time>2015-01-19T20:18:18.869Z</time>
      </trkpt>
      <trkpt lat="48.85643" lon="2.26711">
        <ele>96.5</ele>
        <time>2015-01-19T20:18:20.888Z</time>
      </trkpt>
      <trkpt lat="48.85641" lon="2.26717">
        <ele>96.4</ele>
        <time>2015-01-19T20:18:21.899Z</time>
      </trkpt>
      <trkpt lat="48.85639" lon="2.26723">
        <ele>96.3</ele>
        <time>2015-01-19T20:18:22.909Z</time>
      </trkpt>
      <trkpt lat="48.85633" lon="2.26731">
        <ele>95.5</ele>
        <time>2015-01-19T20:18:23.926Z</time>
      </trkpt>
      <trkpt lat="48.8563" lon="2.26738">
        <ele>95.2</ele>
        <time>2015-01-19T20:18:24.963Z</time>
      </trkpt>
      <trkpt lat="48.85627" lon="2.26744">
        <ele>95</ele>
        <time>2015-01-19T20:18:25.981Z</time>
      </trkpt>
      <trkpt lat="48.85624" lon="2.26749">
        <ele>94.9</ele>
        <time>2015-01-19T20:18:26.885Z</time>
      </trkpt>
      <trkpt lat="48.85623" lon="2.2676">
        <ele>94.9</ele>
        <time>2015-01-19T20:18:28.922Z</time>
      </trkpt>
      <trkpt lat="48.85622" lon="2.26766">
        <ele>95.1</ele>
        <time>2015-01-19T20:18:29.936Z</time>
      </trkpt>
      <trkpt lat="48.85619" lon="2.26774">
        <ele>94.9</ele>
        <time>2015-01-19T20:18:30.952Z</time>
      </trkpt>
      <trkpt lat="48.85616" lon="2.26781">
        <ele>94.9</ele>
        <time>2015-01-19T20:18:31.980Z</time>
      </trkpt>
      <trkpt lat="48.85613" lon="2.26788">
        <ele>95</ele>
        <time>2015-01-19T20:18:32.988Z</time>
      </trkpt>
      <trkpt lat="48.85609" lon="2.26795">
        <ele>95.5</ele>
        <time>2015-01-19T20:18:34.877Z</time>
      </trkpt>
      <trkpt lat="48.85607" lon="2.26799">
        <ele>96</ele>
        <time>2015-01-19T20:18:35.880Z</time>
      </trkpt>
      <trkpt lat="48.85604" lon="2.2681">
        <ele>97.6</ele>
        <time>2015-01-19T20:18:38.894Z</time>
      </trkpt>
      <trkpt lat="48.85603" lon="2.26814">
        <ele>98.4</ele>
        <time>2015-01-19T20:18:39.876Z</time>
      </trkpt>
      <trkpt lat="48.85603" lon="2.26827">
        <ele>99.3</ele>
        <time>2015-01-19T20:18:41.889Z</time>
      </trkpt>
      <trkpt lat="48.85601" lon="2.26831">
        <ele>99.4</ele>
        <time>2015-01-19T20:18:42.914Z</time>
      </trkpt>
      <trkpt lat="48.85597" lon="2.2684">
        <ele>99.8</ele>
        <time>2015-01-19T20:18:44.974Z</time>
      </trkpt>
      <trkpt lat="48.85596" lon="2.26847">
        <ele>100.2</ele>
        <time>2015-01-19T20:18:45.885Z</time>
      </trkpt>
      <trkpt lat="48.85592" lon="2.26859">
        <ele>100.9</ele>
        <time>2015-01-19T20:18:47.914Z</time>
      </trkpt>
      <trkpt lat="48.85591" lon="2.26865">
        <ele>101.2</ele>
        <time>2015-01-19T20:18:48.934Z</time>
      </trkpt>
      <trkpt lat="48.8559" lon="2.26877">
        <ele>101.6</ele>
        <time>2015-01-19T20:18:50.910Z</time>
      </trkpt>
      <trkpt lat="48.85588" lon="2.26882">
        <ele>101.9</ele>
        <time>2015-01-19T20:18:51.910Z</time>
      </trkpt>
      <trkpt lat="48.85586" lon="2.26893">
        <ele>102.3</ele>
        <time>2015-01-19T20:18:54.097Z</time>
      </trkpt>
      <trkpt lat="48.85586" lon="2.26897">
        <ele>102.2</ele>
        <time>2015-01-19T20:18:54.926Z</time>
      </trkpt>
      <trkpt lat="48.85583" lon="2.26908">
        <ele>102.6</ele>
        <time>2015-01-19T20:18:57.916Z</time>
      </trkpt>
      <trkpt lat="48.85581" lon="2.26912">
        <ele>102.9</ele>
        <time>2015-01-19T20:18:58.931Z</time>
      </trkpt>
      <trkpt lat="48.85573" lon="2.26918">
        <ele>103.1</ele>
        <time>2015-01-19T20:19:00.888Z</time>
      </trkpt>
      <trkpt lat="48.8557" lon="2.2692">
        <ele>103.2</ele>
        <time>2015-01-19T20:19:01.926Z</time>
      </trkpt>
      <trkpt lat="48.85565" lon="2.26928">
        <ele>103.6</ele>
        <time>2015-01-19T20:19:03.890Z</time>
      </trkpt>
      <trkpt lat="48.85563" lon="2.26932">
        <ele>103.8</ele>
        <time>2015-01-19T20:19:04.952Z</time>
      </trkpt>
      <trkpt lat="48.8556" lon="2.2694">
        <ele>104</ele>
        <time>2015-01-19T20:19:06.902Z</time>
      </trkpt>
      <trkpt lat="48.85558" lon="2.26943">
        <ele>104.2</ele>
        <time>2015-01-19T20:19:07.921Z</time>
      </trkpt>
      <trkpt lat="48.85553" lon="2.26952">
        <ele>104.8</ele>
        <time>2015-01-19T20:19:11.893Z</time>
      </trkpt>
      <trkpt lat="48.85558" lon="2.26957">
        <ele>103.1</ele>
        <time>2015-01-19T20:19:12.910Z</time>
      </trkpt>
      <trkpt lat="48.8556" lon="2.26969">
        <ele>99.8</ele>
        <time>2015-01-19T20:19:16.904Z</time>
      </trkpt>
      <trkpt lat="48.85561" lon="2.26971">
        <ele>99.2</ele>
        <time>2015-01-19T20:19:17.901Z</time>
      </trkpt>
      <trkpt lat="48.85554" lon="2.26973">
        <ele>98.5</ele>
        <time>2015-01-19T20:19:23.984Z</time>
      </trkpt>
      <trkpt lat="48.85551" lon="2.26974">
        <ele>98.5</ele>
        <time>2015-01-19T20:19:24.896Z</time>
      </trkpt>
      <trkpt lat="48.85545" lon="2.26972">
        <ele>98.6</ele>
        <time>2015-01-19T20:19:26.926Z</time>
      </trkpt>
      <trkpt lat="48.85541" lon="2.26971">
        <ele>98.6</ele>
        <time>2015-01-19T20:19:27.938Z</time>
      </trkpt>
      <trkpt lat="48.85534" lon="2.26968">
        <ele>98.6</ele>
        <time>2015-01-19T20:19:30.921Z</time>
      </trkpt>
      <trkpt lat="48.85532" lon="2.26966">
        <ele>98.6</ele>
        <time>2015-01-19T20:19:31.940Z</time>
      </trkpt>
      <trkpt lat="48.85524" lon="2.26959">
        <ele>98.8</ele>
        <time>2015-01-19T20:19:34.909Z</time>
      </trkpt>
      <trkpt lat="48.85521" lon="2.26958">
        <ele>98.8</ele>
        <time>2015-01-19T20:19:35.904Z</time>
      </trkpt>
      <trkpt lat="48.85515" lon="2.26955">
        <ele>98.8</ele>
        <time>2015-01-19T20:19:37.917Z</time>
      </trkpt>
      <trkpt lat="48.85512" lon="2.26954">
        <ele>98.9</ele>
        <time>2015-01-19T20:19:38.987Z</time>
      </trkpt>
      <trkpt lat="48.85505" lon="2.2695">
        <ele>99.3</ele>
        <time>2015-01-19T20:19:40.856Z</time>
      </trkpt>
      <trkpt lat="48.85501" lon="2.26947">
        <ele>99.6</ele>
        <time>2015-01-19T20:19:41.884Z</time>
      </trkpt>
      <trkpt lat="48.85494" lon="2.26943">
        <ele>100.2</ele>
        <time>2015-01-19T20:19:43.914Z</time>
      </trkpt>
      <trkpt lat="48.85489" lon="2.26939">
        <ele>98.9</ele>
        <time>2015-01-19T20:19:44.924Z</time>
      </trkpt>
      <trkpt lat="48.85491" lon="2.26929">
        <ele>98</ele>
        <time>2015-01-19T20:19:46.872Z</time>
      </trkpt>
      <trkpt lat="48.85524" lon="2.26826">
        <ele>97.2</ele>
        <time>2015-01-19T20:20:03.908Z</time>
      </trkpt>
      <trkpt lat="48.85526" lon="2.26813">
        <ele>97.4</ele>
        <time>2015-01-19T20:20:05.936Z</time>
      </trkpt>
      <trkpt lat="48.85528" lon="2.26807">
        <ele>97.4</ele>
        <time>2015-01-19T20:20:06.947Z</time>
      </trkpt>
      <trkpt lat="48.85529" lon="2.26801">
        <ele>97.5</ele>
        <time>2015-01-19T20:20:07.879Z</time>
      </trkpt>
      <trkpt lat="48.85531" lon="2.26794">
        <ele>97.5</ele>
        <time>2015-01-19T20:20:08.882Z</time>
      </trkpt>
      <trkpt lat="48.85532" lon="2.26787">
        <ele>97.6</ele>
        <time>2015-01-19T20:20:09.898Z</time>
      </trkpt>
      <trkpt lat="48.85533" lon="2.26781">
        <ele>97.5</ele>
        <time>2015-01-19T20:20:10.914Z</time>
      </trkpt>
      <trkpt lat="48.85537" lon="2.26769">
        <ele>97.4</ele>
        <time>2015-01-19T20:20:12.927Z</time>
      </trkpt>
      <trkpt lat="48.8554" lon="2.26764">
        <ele>97.3</ele>
        <time>2015-01-19T20:20:13.935Z</time>
      </trkpt>
      <trkpt lat="48.85544" lon="2.26752">
        <ele>97.3</ele>
        <time>2015-01-19T20:20:15.954Z</time>
      </trkpt>
      <trkpt lat="48.85545" lon="2.26747">
        <ele>97.3</ele>
        <time>2015-01-19T20:20:17.149Z</time>
      </trkpt>
      <trkpt lat="48.85548" lon="2.26734">
        <ele>97.3</ele>
        <time>2015-01-19T20:20:18.977Z</time>
      </trkpt>
      <trkpt lat="48.8555" lon="2.26728">
        <ele>97.3</ele>
        <time>2015-01-19T20:20:19.905Z</time>
      </trkpt>
      <trkpt lat="48.85553" lon="2.26715">
        <ele>97.1</ele>
        <time>2015-01-19T20:20:21.973Z</time>
      </trkpt>
      <trkpt lat="48.85555" lon="2.2671">
        <ele>97.1</ele>
        <time>2015-01-19T20:20:22.999Z</time>
      </trkpt>
      <trkpt lat="48.85556" lon="2.26703">
        <ele>96.9</ele>
        <time>2015-01-19T20:20:23.877Z</time>
      </trkpt>
      <trkpt lat="48.85559" lon="2.26618">
        <ele>97.6</ele>
        <time>2015-01-19T20:20:36.917Z</time>
      </trkpt>
      <trkpt lat="48.85555" lon="2.26614">
        <ele>96.4</ele>
        <time>2015-01-19T20:20:37.944Z</time>
      </trkpt>
      <trkpt lat="48.85551" lon="2.26609">
        <ele>95.7</ele>
        <time>2015-01-19T20:20:38.955Z</time>
      </trkpt>
      <trkpt lat="48.85545" lon="2.26604">
        <ele>95.6</ele>
        <time>2015-01-19T20:20:41.900Z</time>
      </trkpt>
      <trkpt lat="48.85542" lon="2.26602">
        <ele>95.5</ele>
        <time>2015-01-19T20:20:42.916Z</time>
      </trkpt>
      <trkpt lat="48.85534" lon="2.26596">
        <ele>96.1</ele>
        <time>2015-01-19T20:20:45.887Z</time>
      </trkpt>
      <trkpt lat="48.85532" lon="2.26594">
        <ele>96.4</ele>
        <time>2015-01-19T20:20:46.896Z</time>
      </trkpt>
      <trkpt lat="48.85525" lon="2.2659">
        <ele>96.4</ele>
        <time>2015-01-19T20:20:48.917Z</time>
      </trkpt>
      <trkpt lat="48.85521" lon="2.26588">
        <ele>96.4</ele>
        <time>2015-01-19T20:20:49.939Z</time>
      </trkpt>
      <trkpt lat="48.85512" lon="2.26585">
        <ele>95.8</ele>
        <time>2015-01-19T20:20:51.876Z</time>
      </trkpt>
      <trkpt lat="48.8551" lon="2.26583">
        <ele>96.3</ele>
        <time>2015-01-19T20:20:52.912Z</time>
      </trkpt>
      <trkpt lat="48.85501" lon="2.26581">
        <ele>96</ele>
        <time>2015-01-19T20:20:55.051Z</time>
      </trkpt>
      <trkpt lat="48.85498" lon="2.26581">
        <ele>96</ele>
        <time>2015-01-19T20:20:55.915Z</time>
      </trkpt>
      <trkpt lat="48.85495" lon="2.26593">
        <ele>97.4</ele>
        <time>2015-01-19T20:21:03.890Z</time>
      </trkpt>
      <trkpt lat="48.85495" lon="2.26595">
        <ele>97.6</ele>
        <time>2015-01-19T20:21:04.904Z</time>
      </trkpt>
      <trkpt lat="48.85495" lon="2.26595">
        <ele>97.7</ele>
        <time>2015-01-19T20:21:05.945Z</time>
      </trkpt>
      <trkpt lat="48.85496" lon="2.26595">
        <ele>97.7</ele>
        <time>2015-01-19T20:21:06.872Z</time>
      </trkpt>
      <trkpt lat="48.85494" lon="2.26587">
        <ele>100.8</ele>
        <time>2015-01-19T20:21:21.996Z</time>
      </trkpt>
      <trkpt lat="48.85494" lon="2.26587">
        <ele>101.1</ele>
        <time>2015-01-19T20:21:22.910Z</time>
      </trkpt>
      <trkpt lat="48.85495" lon="2.26587">
        <ele>101.4</ele>
        <time>2015-01-19T20:21:24.938Z</time>
      </trkpt>
      <trkpt lat="48.85494" lon="2.26586">
        <ele>102</ele>
        <time>2015-01-19T20:21:25.982Z</time>
      </trkpt>
      <trkpt lat="48.85499" lon="2.26577">
        <ele>103.1</ele>
        <time>2015-01-19T20:21:33.978Z</time>
      </trkpt>
      <trkpt lat="48.85504" lon="2.26571">
        <ele>103.4</ele>
        <time>2015-01-19T20:21:36.978Z</time>
      </trkpt>
      <trkpt lat="48.85504" lon="2.26572">
        <ele>104.1</ele>
        <time>2015-01-19T20:21:47.914Z</time>
      </trkpt>
      <trkpt lat="48.85503" lon="2.26573">
        <ele>104.1</ele>
        <time>2015-01-19T20:21:48.989Z</time>
      </trkpt>
      <trkpt lat="48.85502" lon="2.26574">
        <ele>104.1</ele>
        <time>2015-01-19T20:21:49.910Z</time>
      </trkpt>
      <trkpt lat="48.85497" lon="2.26583">
        <ele>104.2</ele>
        <time>2015-01-19T20:21:52.902Z</time>
      </trkpt>
      <trkpt lat="48.85496" lon="2.26585">
        <ele>104.4</ele>
        <time>2015-01-19T20:21:53.901Z</time>
      </trkpt>
      <trkpt lat="48.85491" lon="2.26592">
        <ele>104.5</ele>
        <time>2015-01-19T20:21:55.907Z</time>
      </trkpt>
      <trkpt lat="48.85487" lon="2.26598">
        <ele>104.1</ele>
        <time>2015-01-19T20:21:56.921Z</time>
      </trkpt>
      <trkpt lat="48.85483" lon="2.26604">
        <ele>103.7</ele>
        <time>2015-01-19T20:21:57.940Z</time>
      </trkpt>
      <trkpt lat="48.8548" lon="2.26609">
        <ele>103.5</ele>
        <time>2015-01-19T20:21:58.945Z</time>
      </trkpt>
      <trkpt lat="48.85475" lon="2.26619">
        <ele>102.7</ele>
        <time>2015-01-19T20:22:00.873Z</time>
      </trkpt>
      <trkpt lat="48.85473" lon="2.26624">
        <ele>102.3</ele>
        <time>2015-01-19T20:22:01.887Z</time>
      </trkpt>
      <trkpt lat="48.85473" lon="2.26629">
        <ele>101.7</ele>
        <time>2015-01-19T20:22:02.912Z</time>
      </trkpt>
      <trkpt lat="48.85472" lon="2.26645">
        <ele>100.9</ele>
        <time>2015-01-19T20:22:07.903Z</time>
      </trkpt>
      <trkpt lat="48.85475" lon="2.26657">
        <ele>99.2</ele>
        <time>2015-01-19T20:22:10.876Z</time>
      </trkpt>
      <trkpt lat="48.85474" lon="2.2666">
        <ele>99</ele>
        <time>2015-01-19T20:22:11.906Z</time>
      </trkpt>
      <trkpt lat="48.85471" lon="2.26672">
        <ele>98.3</ele>
        <time>2015-01-19T20:22:16.913Z</time>
      </trkpt>
      <trkpt lat="48.8547" lon="2.26673">
        <ele>98.3</ele>
        <time>2015-01-19T20:22:17.884Z</time>
      </trkpt>
      <trkpt lat="48.85467" lon="2.26676">
        <ele>98.1</ele>
        <time>2015-01-19T20:22:19.929Z</time>
      </trkpt>
      <trkpt lat="48.85463" lon="2.2668">
        <ele>97.8</ele>
        <time>2015-01-19T20:22:20.945Z</time>
      </trkpt>
      <trkpt lat="48.85457" lon="2.26687">
        <ele>97.4</ele>
        <time>2015-01-19T20:22:22.878Z</time>
      </trkpt>
      <trkpt lat="48.85456" lon="2.26689">
        <ele>97.5</ele>
        <time>2015-01-19T20:22:23.891Z</time>
      </trkpt>
      <trkpt lat="48.8545" lon="2.26698">
        <ele>97.9</ele>
        <time>2015-01-19T20:22:28.905Z</time>
      </trkpt>
      <trkpt lat="48.85448" lon="2.26699">
        <ele>98</ele>
        <time>2015-01-19T20:22:29.969Z</time>
      </trkpt>
      <trkpt lat="48.8544" lon="2.26704">
        <ele>97.9</ele>
        <time>2015-01-19T20:22:33.896Z</time>
      </trkpt>
      <trkpt lat="48.85439" lon="2.26704">
        <ele>97.8</ele>
        <time>2015-01-19T20:22:34.903Z</time>
      </trkpt>
      <trkpt lat="48.85434" lon="2.26714">
        <ele>100</ele>
        <time>2015-01-19T20:22:44.923Z</time>
      </trkpt>
      <trkpt lat="48.85433" lon="2.26715">
        <ele>100.2</ele>
        <time>2015-01-19T20:22:45.975Z</time>
      </trkpt>
      <trkpt lat="48.8543" lon="2.26716">
        <ele>101</ele>
        <time>2015-01-19T20:22:49.905Z</time>
      </trkpt>
      <trkpt lat="48.8543" lon="2.26715">
        <ele>101.3</ele>
        <time>2015-01-19T20:22:50.926Z</time>
      </trkpt>
      <trkpt lat="48.85429" lon="2.26713">
        <ele>102.2</ele>
        <time>2015-01-19T20:22:53.901Z</time>
      </trkpt>
      <trkpt lat="48.85427" lon="2.2671">
        <ele>102.8</ele>
        <time>2015-01-19T20:22:54.915Z</time>
      </trkpt>
      <trkpt lat="48.85423" lon="2.26699">
        <ele>106.3</ele>
        <time>2015-01-19T20:23:03.959Z</time>
      </trkpt>
      <trkpt lat="48.85425" lon="2.26697">
        <ele>106.7</ele>
        <time>2015-01-19T20:23:04.896Z</time>
      </trkpt>
      <trkpt lat="48.85432" lon="2.26694">
        <ele>108.3</ele>
        <time>2015-01-19T20:23:19.921Z</time>
      </trkpt>
      <trkpt lat="48.85433" lon="2.26694">
        <ele>108.5</ele>
        <time>2015-01-19T20:23:20.941Z</time>
      </trkpt>
      <trkpt lat="48.85442" lon="2.26692">
        <ele>108.5</ele>
        <time>2015-01-19T20:23:28.112Z</time>
      </trkpt>
      <trkpt lat="48.85443" lon="2.26693">
        <ele>107.8</ele>
        <time>2015-01-19T20:23:28.959Z</time>
      </trkpt>
      <trkpt lat="48.8545" lon="2.26685">
        <ele>105.7</ele>
        <time>2015-01-19T20:23:47.923Z</time>
      </trkpt>
      <trkpt lat="48.8545" lon="2.26683">
        <ele>105.5</ele>
        <time>2015-01-19T20:23:48.984Z</time>
      </trkpt>
      <trkpt lat="48.85453" lon="2.26671">
        <ele>105.5</ele>
        <time>2015-01-19T20:23:55.894Z</time>
      </trkpt>
      <trkpt lat="48.85454" lon="2.2667">
        <ele>105.3</ele>
        <time>2015-01-19T20:23:56.906Z</time>
      </trkpt>
      <trkpt lat="48.85456" lon="2.26657">
        <ele>104.9</ele>
        <time>2015-01-19T20:24:02.926Z</time>
      </trkpt>
      <trkpt lat="48.85457" lon="2.26655">
        <ele>104.8</ele>
        <time>2015-01-19T20:24:03.924Z</time>
      </trkpt>
      <trkpt lat="48.85461" lon="2.26649">
        <ele>104.7</ele>
        <time>2015-01-19T20:24:07.908Z</time>
      </trkpt>
      <trkpt lat="48.85463" lon="2.26644">
        <ele>105</ele>
        <time>2015-01-19T20:24:09.934Z</time>
      </trkpt>
      <trkpt lat="48.85468" lon="2.26633">
        <ele>105.2</ele>
        <time>2015-01-19T20:24:13.907Z</time>
      </trkpt>
      <trkpt lat="48.85469" lon="2.26632">
        <ele>105.3</ele>
        <time>2015-01-19T20:24:14.919Z</time>
      </trkpt>
      <trkpt lat="48.85475" lon="2.26622">
        <ele>105.5</ele>
        <time>2015-01-19T20:24:18.893Z</time>
      </trkpt>
      <trkpt lat="48.85476" lon="2.2662">
        <ele>105.8</ele>
        <time>2015-01-19T20:24:19.924Z</time>
      </trkpt>
      <trkpt lat="48.85482" lon="2.26611">
        <ele>107.1</ele>
        <time>2015-01-19T20:24:23.884Z</time>
      </trkpt>
      <trkpt lat="48.85483" lon="2.2661">
        <ele>107.6</ele>
        <time>2015-01-19T20:24:24.898Z</time>
      </trkpt>
      <trkpt lat="48.85485" lon="2.26609">
        <ele>108.6</ele>
        <time>2015-01-19T20:24:26.927Z</time>
      </trkpt>
      <trkpt lat="48.85485" lon="2.26611">
        <ele>110.2</ele>
        <time>2015-01-19T20:24:27.947Z</time>
      </trkpt>
      <trkpt lat="48.85486" lon="2.26614">
        <ele>111.6</ele>
        <time>2015-01-19T20:24:28.959Z</time>
      </trkpt>
      <trkpt lat="48.85487" lon="2.26615">
        <ele>112.6</ele>
        <time>2015-01-19T20:24:29.971Z</time>
      </trkpt>
      <trkpt lat="48.85488" lon="2.26616">
        <ele>114.4</ele>
        <time>2015-01-19T20:24:31.891Z</time>
      </trkpt>
      <trkpt lat="48.85488" lon="2.26616">
        <ele>114.9</ele>
        <time>2015-01-19T20:24:32.943Z</time>
      </trkpt>
      <trkpt lat="48.85489" lon="2.26616">
        <ele>115.4</ele>
        <time>2015-01-19T20:24:33.975Z</time>
      </trkpt>
      <trkpt lat="48.8549" lon="2.26616">
        <ele>116.1</ele>
        <time>2015-01-19T20:24:34.857Z</time>
      </trkpt>
      <trkpt lat="48.8549" lon="2.26615">
        <ele>116.5</ele>
        <time>2015-01-19T20:24:35.887Z</time>
      </trkpt>
      <trkpt lat="48.85489" lon="2.26615">
        <ele>116.8</ele>
        <time>2015-01-19T20:24:36.911Z</time>
      </trkpt>
      <trkpt lat="48.85487" lon="2.26613">
        <ele>120.3</ele>
        <time>2015-01-19T20:24:44.989Z</time>
      </trkpt>
      <trkpt lat="48.85487" lon="2.26612">
        <ele>120.7</ele>
        <time>2015-01-19T20:24:45.902Z</time>
      </trkpt>
      <trkpt lat="48.85488" lon="2.26612">
        <ele>120.8</ele>
        <time>2015-01-19T20:24:49.904Z</time>
      </trkpt>
      <trkpt lat="48.85487" lon="2.26613">
        <ele>122.4</ele>
        <time>2015-01-19T20:24:50.883Z</time>
      </trkpt>
      <trkpt lat="48.85487" lon="2.26613">
        <ele>123.3</ele>
        <time>2015-01-19T20:24:51.889Z</time>
      </trkpt>
      <trkpt lat="48.85487" lon="2.26613">
        <ele>124.2</ele>
        <time>2015-01-19T20:24:52.901Z</time>
      </trkpt>
      <trkpt lat="48.85486" lon="2.26615">
        <ele>124.9</ele>
        <time>2015-01-19T20:24:53.974Z</time>
      </trkpt>
      <trkpt lat="48.85483" lon="2.26627">
        <ele>124.6</ele>
        <time>2015-01-19T20:25:02.942Z</time>
      </trkpt>
      <trkpt lat="48.85483" lon="2.26628">
        <ele>124.7</ele>
        <time>2015-01-19T20:25:03.972Z</time>
      </trkpt>
      <trkpt lat="48.85477" lon="2.2662">
        <ele>128.3</ele>
        <time>2015-01-19T20:25:40.982Z</time>
      </trkpt>
      <trkpt lat="48.85474" lon="2.2662">
        <ele>128.7</ele>
        <time>2015-01-19T20:25:41.892Z</time>
      </trkpt>
      <trkpt lat="48.85466" lon="2.26619">
        <ele>129.3</ele>
        <time>2015-01-19T20:25:43.914Z</time>
      </trkpt>
      <trkpt lat="48.85462" lon="2.26619">
        <ele>129.6</ele>
        <time>2015-01-19T20:25:44.916Z</time>
      </trkpt>
      <trkpt lat="48.85455" lon="2.26616">
        <ele>129.9</ele>
        <time>2015-01-19T20:25:46.969Z</time>
      </trkpt>
      <trkpt lat="48.85451" lon="2.26612">
        <ele>129.9</ele>
        <time>2015-01-19T20:25:47.901Z</time>
      </trkpt>
      <trkpt lat="48.85444" lon="2.26606">
        <ele>129.8</ele>
        <time>2015-01-19T20:25:49.948Z</time>
      </trkpt>
      <trkpt lat="48.85441" lon="2.26604">
        <ele>129.6</ele>
        <time>2015-01-19T20:25:50.956Z</time>
      </trkpt>
      <trkpt lat="48.85434" lon="2.26598">
        <ele>129.8</ele>
        <time>2015-01-19T20:25:52.893Z</time>
      </trkpt>
      <trkpt lat="48.8543" lon="2.26595">
        <ele>129.9</ele>
        <time>2015-01-19T20:25:53.892Z</time>
      </trkpt>
      <trkpt lat="48.85423" lon="2.26592">
        <ele>130.5</ele>
        <time>2015-01-19T20:25:55.959Z</time>
      </trkpt>
      <trkpt lat="48.85419" lon="2.26591">
        <ele>130.8</ele>
        <time>2015-01-19T20:25:56.988Z</time>
      </trkpt>
      <trkpt lat="48.85414" lon="2.2659">
        <ele>130.9</ele>
        <time>2015-01-19T20:25:57.880Z</time>
      </trkpt>
      <trkpt lat="48.85394" lon="2.26584">
        <ele>130.4</ele>
        <time>2015-01-19T20:26:03.944Z</time>
      </trkpt>
      <trkpt lat="48.85388" lon="2.26577">
        <ele>130.2</ele>
        <time>2015-01-19T20:26:06.912Z</time>
      </trkpt>
      <trkpt lat="48.85386" lon="2.26573">
        <ele>130.2</ele>
        <time>2015-01-19T20:26:07.934Z</time>
      </trkpt>
      <trkpt lat="48.85381" lon="2.26567">
        <ele>130.1</ele>
        <time>2015-01-19T20:26:09.921Z</time>
      </trkpt>
      <trkpt lat="48.85377" lon="2.26564">
        <ele>129.9</ele>
        <time>2015-01-19T20:26:10.884Z</time>
      </trkpt>
      <trkpt lat="48.85374" lon="2.26558">
        <ele>129.3</ele>
        <time>2015-01-19T20:26:11.927Z</time>
      </trkpt>
      <trkpt lat="48.8537" lon="2.26555">
        <ele>129.2</ele>
        <time>2015-01-19T20:26:12.933Z</time>
      </trkpt>
      <trkpt lat="48.85363" lon="2.26553">
        <ele>129</ele>
        <time>2015-01-19T20:26:14.982Z</time>
      </trkpt>
      <trkpt lat="48.85359" lon="2.26551">
        <ele>129</ele>
        <time>2015-01-19T20:26:15.881Z</time>
      </trkpt>
      <trkpt lat="48.85351" lon="2.26547">
        <ele>128.7</ele>
        <time>2015-01-19T20:26:17.904Z</time>
      </trkpt>
      <trkpt lat="48.85347" lon="2.26543">
        <ele>128.5</ele>
        <time>2015-01-19T20:26:18.924Z</time>
      </trkpt>
      <trkpt lat="48.85343" lon="2.26537">
        <ele>128.3</ele>
        <time>2015-01-19T20:26:19.886Z</time>
      </trkpt>
      <trkpt lat="48.85339" lon="2.26534">
        <ele>128.1</ele>
        <time>2015-01-19T20:26:20.919Z</time>
      </trkpt>
      <trkpt lat="48.85333" lon="2.26526">
        <ele>128</ele>
        <time>2015-01-19T20:26:22.975Z</time>
      </trkpt>
      <trkpt lat="48.8533" lon="2.26522">
        <ele>127.9</ele>
        <time>2015-01-19T20:26:23.975Z</time>
      </trkpt>
      <trkpt lat="48.85322" lon="2.26516">
        <ele>127.5</ele>
        <time>2015-01-19T20:26:25.889Z</time>
      </trkpt>
      <trkpt lat="48.85317" lon="2.26513">
        <ele>127.2</ele>
        <time>2015-01-19T20:26:26.945Z</time>
      </trkpt>
      <trkpt lat="48.85312" lon="2.26512">
        <ele>126.9</ele>
        <time>2015-01-19T20:26:27.870Z</time>
      </trkpt>
      <trkpt lat="48.85308" lon="2.26511">
        <ele>126.7</ele>
        <time>2015-01-19T20:26:28.868Z</time>
      </trkpt>
      <trkpt lat="48.85301" lon="2.26508">
        <ele>126.5</ele>
        <time>2015-01-19T20:26:30.882Z</time>
      </trkpt>
      <trkpt lat="48.85298" lon="2.26507">
        <ele>126.5</ele>
        <time>2015-01-19T20:26:31.898Z</time>
      </trkpt>
      <trkpt lat="48.8529" lon="2.26507">
        <ele>126.8</ele>
        <time>2015-01-19T20:26:37.872Z</time>
      </trkpt>
      <trkpt lat="48.85288" lon="2.26508">
        <ele>126.7</ele>
        <time>2015-01-19T20:26:38.914Z</time>
      </trkpt>
      <trkpt lat="48.8528" lon="2.26513">
        <ele>126.5</ele>
        <time>2015-01-19T20:26:43.933Z</time>
      </trkpt>
      <trkpt lat="48.85279" lon="2.26513">
        <ele>126.5</ele>
        <time>2015-01-19T20:26:44.969Z</time>
      </trkpt>
      <trkpt lat="48.85272" lon="2.2652">
        <ele>126</ele>
        <time>2015-01-19T20:26:52.957Z</time>
      </trkpt>
      <trkpt lat="48.8527" lon="2.26522">
        <ele>125.8</ele>
        <time>2015-01-19T20:26:53.958Z</time>
      </trkpt>
      <trkpt lat="48.85263" lon="2.26525">
        <ele>125.6</ele>
        <time>2015-01-19T20:26:56.001Z</time>
      </trkpt>
      <trkpt lat="48.85261" lon="2.26528">
        <ele>125.4</ele>
        <time>2015-01-19T20:26:56.914Z</time>
      </trkpt>
      <trkpt lat="48.85255" lon="2.2653">
        <ele>125</ele>
        <time>2015-01-19T20:26:58.953Z</time>
      </trkpt>
      <trkpt lat="48.85251" lon="2.26533">
        <ele>124.7</ele>
        <time>2015-01-19T20:26:59.887Z</time>
      </trkpt>
      <trkpt lat="48.85247" lon="2.26537">
        <ele>124.5</ele>
        <time>2015-01-19T20:27:00.924Z</time>
      </trkpt>
      <trkpt lat="48.85242" lon="2.2654">
        <ele>124.4</ele>
        <time>2015-01-19T20:27:01.926Z</time>
      </trkpt>
      <trkpt lat="48.85238" lon="2.26545">
        <ele>124.5</ele>
        <time>2015-01-19T20:27:02.955Z</time>
      </trkpt>
      <trkpt lat="48.85234" lon="2.2655">
        <ele>124.6</ele>
        <time>2015-01-19T20:27:03.976Z</time>
      </trkpt>
      <trkpt lat="48.85229" lon="2.26554">
        <ele>124.6</ele>
        <time>2015-01-19T20:27:04.864Z</time>
      </trkpt>
      <trkpt lat="48.85225" lon="2.26558">
        <ele>124.7</ele>
        <time>2015-01-19T20:27:05.871Z</time>
      </trkpt>
      <trkpt lat="48.85218" lon="2.26565">
        <ele>124.6</ele>
        <time>2015-01-19T20:27:07.902Z</time>
      </trkpt>
      <trkpt lat="48.85216" lon="2.26568">
        <ele>124.7</ele>
        <time>2015-01-19T20:27:08.908Z</time>
      </trkpt>
      <trkpt lat="48.8521" lon="2.26574">
        <ele>124.9</ele>
        <time>2015-01-19T20:27:10.966Z</time>
      </trkpt>
      <trkpt lat="48.85206" lon="2.26579">
        <ele>124.8</ele>
        <time>2015-01-19T20:27:11.884Z</time>
      </trkpt>
      <trkpt lat="48.85202" lon="2.26583">
        <ele>124.8</ele>
        <time>2015-01-19T20:27:12.896Z</time>
      </trkpt>
      <trkpt lat="48.85197" lon="2.26588">
        <ele>124.7</ele>
        <time>2015-01-19T20:27:13.906Z</time>
      </trkpt>
      <trkpt lat="48.85193" lon="2.26593">
        <ele>124.7</ele>
        <time>2015-01-19T20:27:14.920Z</time>
      </trkpt>
      <trkpt lat="48.85189" lon="2.26596">
        <ele>124.6</ele>
        <time>2015-01-19T20:27:15.927Z</time>
      </trkpt>
      <trkpt lat="48.85181" lon="2.266">
        <ele>124.5</ele>
        <time>2015-01-19T20:27:17.937Z</time>
      </trkpt>
      <trkpt lat="48.85177" lon="2.26602">
        <ele>124.6</ele>
        <time>2015-01-19T20:27:18.941Z</time>
      </trkpt>
      <trkpt lat="48.85171" lon="2.26609">
        <ele>123.3</ele>
        <time>2015-01-19T20:27:20.965Z</time>
      </trkpt>
      <trkpt lat="48.85167" lon="2.26612">
        <ele>123.2</ele>
        <time>2015-01-19T20:27:21.892Z</time>
      </trkpt>
      <trkpt lat="48.85163" lon="2.26616">
        <ele>123.1</ele>
        <time>2015-01-19T20:27:22.881Z</time>
      </trkpt>
      <trkpt lat="48.85158" lon="2.26619">
        <ele>122.9</ele>
        <time>2015-01-19T20:27:23.879Z</time>
      </trkpt>
      <trkpt lat="48.8515" lon="2.26622">
        <ele>122.6</ele>
        <time>2015-01-19T20:27:25.924Z</time>
      </trkpt>
      <trkpt lat="48.85147" lon="2.26624">
        <ele>122.3</ele>
        <time>2015-01-19T20:27:26.956Z</time>
      </trkpt>
      <trkpt lat="48.85141" lon="2.2663">
        <ele>121.7</ele>
        <time>2015-01-19T20:27:28.883Z</time>
      </trkpt>
      <trkpt lat="48.85138" lon="2.26634">
        <ele>121.4</ele>
        <time>2015-01-19T20:27:29.906Z</time>
      </trkpt>
      <trkpt lat="48.85131" lon="2.26637">
        <ele>121.3</ele>
        <time>2015-01-19T20:27:31.957Z</time>
      </trkpt>
      <trkpt lat="48.85127" lon="2.2664">
        <ele>121.3</ele>
        <time>2015-01-19T20:27:32.990Z</time>
      </trkpt>
      <trkpt lat="48.85074" lon="2.2668">
        <ele>120.1</ele>
        <time>2015-01-19T20:27:50.945Z</time>
      </trkpt>
      <trkpt lat="48.85073" lon="2.26685">
        <ele>118.6</ele>
        <time>2015-01-19T20:27:54.948Z</time>
      </trkpt>
      <trkpt lat="48.85073" lon="2.26687">
        <ele>118.2</ele>
        <time>2015-01-19T20:27:55.972Z</time>
      </trkpt>
      <trkpt lat="48.85073" lon="2.26689">
        <ele>117.8</ele>
        <time>2015-01-19T20:27:56.912Z</time>
      </trkpt>
      <trkpt lat="48.8507" lon="2.267">
        <ele>117.1</ele>
        <time>2015-01-19T20:27:59.883Z</time>
      </trkpt>
      <trkpt lat="48.85069" lon="2.26704">
        <ele>117</ele>
        <time>2015-01-19T20:28:00.896Z</time>
      </trkpt>
      <trkpt lat="48.85066" lon="2.26709">
        <ele>116.7</ele>
        <time>2015-01-19T20:28:02.994Z</time>
      </trkpt>
      <trkpt lat="48.84992" lon="2.26781">
        <ele>120.5</ele>
        <time>2015-01-19T20:28:28.942Z</time>
      </trkpt>
      <trkpt lat="48.84988" lon="2.26789">
        <ele>120.6</ele>
        <time>2015-01-19T20:28:30.872Z</time>
      </trkpt>
      <trkpt lat="48.84986" lon="2.26793">
        <ele>120.5</ele>
        <time>2015-01-19T20:28:31.896Z</time>
      </trkpt>
      <trkpt lat="48.84982" lon="2.26804">
        <ele>120.1</ele>
        <time>2015-01-19T20:28:34.958Z</time>
      </trkpt>
      <trkpt lat="48.84982" lon="2.26808">
        <ele>119.9</ele>
        <time>2015-01-19T20:28:35.930Z</time>
      </trkpt>
      <trkpt lat="48.84983" lon="2.26821">
        <ele>119</ele>
        <time>2015-01-19T20:28:37.909Z</time>
      </trkpt>
      <trkpt lat="48.84982" lon="2.26826">
        <ele>118.8</ele>
        <time>2015-01-19T20:28:38.917Z</time>
      </trkpt>
      <trkpt lat="48.84979" lon="2.26837">
        <ele>118.8</ele>
        <time>2015-01-19T20:28:40.867Z</time>
      </trkpt>
      <trkpt lat="48.84975" lon="2.26842">
        <ele>118.9</ele>
        <time>2015-01-19T20:28:41.881Z</time>
      </trkpt>
      <trkpt lat="48.84969" lon="2.26849">
        <ele>119</ele>
        <time>2015-01-19T20:28:43.906Z</time>
      </trkpt>
      <trkpt lat="48.84966" lon="2.2685">
        <ele>119</ele>
        <time>2015-01-19T20:28:44.922Z</time>
      </trkpt>
      <trkpt lat="48.84959" lon="2.26853">
        <ele>119.1</ele>
        <time>2015-01-19T20:28:46.974Z</time>
      </trkpt>
      <trkpt lat="48.84925" lon="2.26882">
        <ele>117.8</ele>
        <time>2015-01-19T20:28:53.971Z</time>
      </trkpt>
      <trkpt lat="48.8492" lon="2.26889">
        <ele>117.9</ele>
        <time>2015-01-19T20:28:54.923Z</time>
      </trkpt>
      <trkpt lat="48.84915" lon="2.26897">
        <ele>117.9</ele>
        <time>2015-01-19T20:28:55.927Z</time>
      </trkpt>
      <trkpt lat="48.84903" lon="2.2691">
        <ele>117.6</ele>
        <time>2015-01-19T20:28:59.912Z</time>
      </trkpt>
      <trkpt lat="48.849" lon="2.26919">
        <ele>117.9</ele>
        <time>2015-01-19T20:29:02.979Z</time>
      </trkpt>
      <trkpt lat="48.84899" lon="2.26923">
        <ele>118</ele>
        <time>2015-01-19T20:29:03.966Z</time>
      </trkpt>
      <trkpt lat="48.84896" lon="2.26935">
        <ele>118.6</ele>
        <time>2015-01-19T20:29:05.880Z</time>
      </trkpt>
      <trkpt lat="48.84893" lon="2.2694">
        <ele>118.8</ele>
        <time>2015-01-19T20:29:06.898Z</time>
      </trkpt>
      <trkpt lat="48.84888" lon="2.2695">
        <ele>119.5</ele>
        <time>2015-01-19T20:29:09.949Z</time>
      </trkpt>
      <trkpt lat="48.84884" lon="2.26953">
        <ele>119.5</ele>
        <time>2015-01-19T20:29:10.871Z</time>
      </trkpt>
      <trkpt lat="48.84876" lon="2.26961">
        <ele>119.2</ele>
        <time>2015-01-19T20:29:11.873Z</time>
      </trkpt>
      <trkpt lat="48.84869" lon="2.26969">
        <ele>118.9</ele>
        <time>2015-01-19T20:29:12.876Z</time>
      </trkpt>
      <trkpt lat="48.84864" lon="2.26975">
        <ele>118.8</ele>
        <time>2015-01-19T20:29:13.926Z</time>
      </trkpt>
      <trkpt lat="48.8486" lon="2.26977">
        <ele>119</ele>
        <time>2015-01-19T20:29:14.954Z</time>
      </trkpt>
      <trkpt lat="48.84856" lon="2.26981">
        <ele>119.3</ele>
        <time>2015-01-19T20:29:15.978Z</time>
      </trkpt>
      <trkpt lat="48.84852" lon="2.26989">
        <ele>119.6</ele>
        <time>2015-01-19T20:29:17.906Z</time>
      </trkpt>
      <trkpt lat="48.84852" lon="2.26995">
        <ele>119</ele>
        <time>2015-01-19T20:29:18.930Z</time>
      </trkpt>
      <trkpt lat="48.84853" lon="2.26984">
        <ele>116.8</ele>
        <time>2015-01-19T20:29:29.874Z</time>
      </trkpt>
      <trkpt lat="48.84853" lon="2.26982">
        <ele>116.6</ele>
        <time>2015-01-19T20:29:30.886Z</time>
      </trkpt>
      <trkpt lat="48.84854" lon="2.26971">
        <ele>115.4</ele>
        <time>2015-01-19T20:29:34.775Z</time>
      </trkpt>
      <trkpt lat="48.84853" lon="2.26967">
        <ele>115.3</ele>
        <time>2015-01-19T20:29:34.871Z</time>
      </trkpt>
      <trkpt lat="48.84852" lon="2.26958">
        <ele>115.1</ele>
        <time>2015-01-19T20:29:36.943Z</time>
      </trkpt>
      <trkpt lat="48.84851" lon="2.26953">
        <ele>114.9</ele>
        <time>2015-01-19T20:29:37.954Z</time>
      </trkpt>
      <trkpt lat="48.84847" lon="2.26946">
        <ele>115.1</ele>
        <time>2015-01-19T20:29:39.896Z</time>
      </trkpt>
      <trkpt lat="48.84844" lon="2.26943">
        <ele>115.2</ele>
        <time>2015-01-19T20:29:40.924Z</time>
      </trkpt>
      <trkpt lat="48.84838" lon="2.26937">
        <ele>115.2</ele>
        <time>2015-01-19T20:29:42.932Z</time>
      </trkpt>
      <trkpt lat="48.84835" lon="2.26935">
        <ele>115.2</ele>
        <time>2015-01-19T20:29:43.961Z</time>
      </trkpt>
      <trkpt lat="48.84828" lon="2.26932">
        <ele>114.7</ele>
        <time>2015-01-19T20:29:45.897Z</time>
      </trkpt>
      <trkpt lat="48.84826" lon="2.2693">
        <ele>114.5</ele>
        <time>2015-01-19T20:29:46.926Z</time>
      </trkpt>
      <trkpt lat="48.84819" lon="2.26926">
        <ele>114.5</ele>
        <time>2015-01-19T20:29:49.990Z</time>
      </trkpt>
      <trkpt lat="48.84813" lon="2.26926">
        <ele>113.6</ele>
        <time>2015-01-19T20:29:50.028Z</time>
      </trkpt>
      <trkpt lat="48.84805" lon="2.26929">
        <ele>112</ele>
        <time>2015-01-19T20:29:50.963Z</time>
      </trkpt>
      <trkpt lat="48.84798" lon="2.2693">
        <ele>110.7</ele>
        <time>2015-01-19T20:29:51.850Z</time>
      </trkpt>
      <trkpt lat="48.84792" lon="2.26931">
        <ele>109.6</ele>
        <time>2015-01-19T20:29:52.889Z</time>
      </trkpt>
      <trkpt lat="48.84787" lon="2.26928">
        <ele>108.4</ele>
        <time>2015-01-19T20:29:53.922Z</time>
      </trkpt>
      <trkpt lat="48.84782" lon="2.26921">
        <ele>107.9</ele>
        <time>2015-01-19T20:29:55.930Z</time>
      </trkpt>
      <trkpt lat="48.8478" lon="2.26916">
        <ele>107.5</ele>
        <time>2015-01-19T20:29:56.940Z</time>
      </trkpt>
      <trkpt lat="48.84774" lon="2.26911">
        <ele>107.3</ele>
        <time>2015-01-19T20:29:58.882Z</time>
      </trkpt>
      <trkpt lat="48.84768" lon="2.26913">
        <ele>106.7</ele>
        <time>2015-01-19T20:29:59.916Z</time>
      </trkpt>
      <trkpt lat="48.84761" lon="2.26911">
        <ele>105.8</ele>
        <time>2015-01-19T20:30:01.955Z</time>
      </trkpt>
      <trkpt lat="48.84757" lon="2.26909">
        <ele>105.7</ele>
        <time>2015-01-19T20:30:02.976Z</time>
      </trkpt>
      <trkpt lat="48.84749" lon="2.26906">
        <ele>104.1</ele>
        <time>2015-01-19T20:30:06.947Z</time>
      </trkpt>
      <trkpt lat="48.84748" lon="2.26905">
        <ele>104</ele>
        <time>2015-01-19T20:30:07.961Z</time>
      </trkpt>
      <trkpt lat="48.8474" lon="2.26901">
        <ele>103.1</ele>
        <time>2015-01-19T20:30:13.948Z</time>
      </trkpt>
      <trkpt lat="48.84737" lon="2.269">
        <ele>102.8</ele>
        <time>2015-01-19T20:30:14.939Z</time>
      </trkpt>
      <trkpt lat="48.8473" lon="2.26897">
        <ele>102.5</ele>
        <time>2015-01-19T20:30:17.994Z</time>
      </trkpt>
      <trkpt lat="48.84728" lon="2.26895">
        <ele>102.3</ele>
        <time>2015-01-19T20:30:18.887Z</time>
      </trkpt>
      <trkpt lat="48.84721" lon="2.26888">
        <ele>101.5</ele>
        <time>2015-01-19T20:30:21.916Z</time>
      </trkpt>
      <trkpt lat="48.84718" lon="2.26885">
        <ele>100.9</ele>
        <time>2015-01-19T20:30:22.932Z</time>
      </trkpt>
      <trkpt lat="48.84713" lon="2.26881">
        <ele>100.6</ele>
        <time>2015-01-19T20:30:25.745Z</time>
      </trkpt>
      <trkpt lat="48.8471" lon="2.26878">
        <ele>100.4</ele>
        <time>2015-01-19T20:30:25.968Z</time>
      </trkpt>
      <trkpt lat="48.84703" lon="2.26871">
        <ele>100</ele>
        <time>2015-01-19T20:30:27.997Z</time>
      </trkpt>
      <trkpt lat="48.84699" lon="2.26867">
        <ele>99.9</ele>
        <time>2015-01-19T20:30:28.921Z</time>
      </trkpt>
      <trkpt lat="48.84692" lon="2.2686">
        <ele>99.3</ele>
        <time>2015-01-19T20:30:30.976Z</time>
      </trkpt>
      <trkpt lat="48.84688" lon="2.26854">
        <ele>98.6</ele>
        <time>2015-01-19T20:30:31.980Z</time>
      </trkpt>
      <trkpt lat="48.84685" lon="2.26849">
        <ele>98.2</ele>
        <time>2015-01-19T20:30:32.993Z</time>
      </trkpt>
      <trkpt lat="48.84681" lon="2.26845">
        <ele>97.8</ele>
        <time>2015-01-19T20:30:33.848Z</time>
      </trkpt>
      <trkpt lat="48.84674" lon="2.26837">
        <ele>97.2</ele>
        <time>2015-01-19T20:30:35.874Z</time>
      </trkpt>
      <trkpt lat="48.8467" lon="2.26835">
        <ele>97</ele>
        <time>2015-01-19T20:30:36.921Z</time>
      </trkpt>
      <trkpt lat="48.84663" lon="2.2683">
        <ele>96.9</ele>
        <time>2015-01-19T20:30:39.920Z</time>
      </trkpt>
      <trkpt lat="48.84659" lon="2.26829">
        <ele>96.6</ele>
        <time>2015-01-19T20:30:39.965Z</time>
      </trkpt>
      <trkpt lat="48.84651" lon="2.26826">
        <ele>96.5</ele>
        <time>2015-01-19T20:30:41.901Z</time>
      </trkpt>
      <trkpt lat="48.84648" lon="2.26824">
        <ele>96.5</ele>
        <time>2015-01-19T20:30:42.931Z</time>
      </trkpt>
      <trkpt lat="48.84644" lon="2.26822">
        <ele>96.5</ele>
        <time>2015-01-19T20:30:43.993Z</time>
      </trkpt>
      <trkpt lat="48.84639" lon="2.26819">
        <ele>96.3</ele>
        <time>2015-01-19T20:30:44.918Z</time>
      </trkpt>
      <trkpt lat="48.84634" lon="2.26817">
        <ele>96.2</ele>
        <time>2015-01-19T20:30:45.908Z</time>
      </trkpt>
      <trkpt lat="48.8463" lon="2.26814">
        <ele>96.2</ele>
        <time>2015-01-19T20:30:46.901Z</time>
      </trkpt>
      <trkpt lat="48.84623" lon="2.26808">
        <ele>96.5</ele>
        <time>2015-01-19T20:30:48.934Z</time>
      </trkpt>
      <trkpt lat="48.84618" lon="2.26804">
        <ele>96.6</ele>
        <time>2015-01-19T20:30:49.967Z</time>
      </trkpt>
      <trkpt lat="48.84614" lon="2.268">
        <ele>96.6</ele>
        <time>2015-01-19T20:30:50.977Z</time>
      </trkpt>
      <trkpt lat="48.84609" lon="2.26797">
        <ele>96.5</ele>
        <time>2015-01-19T20:30:51.934Z</time>
      </trkpt>
      <trkpt lat="48.846" lon="2.2679">
        <ele>97.1</ele>
        <time>2015-01-19T20:30:52.947Z</time>
      </trkpt>
      <trkpt lat="48.84595" lon="2.26784">
        <ele>97.3</ele>
        <time>2015-01-19T20:30:54.972Z</time>
      </trkpt>
      <trkpt lat="48.84591" lon="2.26776">
        <ele>96.7</ele>
        <time>2015-01-19T20:30:55.009Z</time>
      </trkpt>
      <trkpt lat="48.84587" lon="2.26771">
        <ele>96.3</ele>
        <time>2015-01-19T20:30:55.888Z</time>
      </trkpt>
      <trkpt lat="48.84583" lon="2.26765">
        <ele>95.9</ele>
        <time>2015-01-19T20:30:56.896Z</time>
      </trkpt>
      <trkpt lat="48.84579" lon="2.26761">
        <ele>95.8</ele>
        <time>2015-01-19T20:30:57.910Z</time>
      </trkpt>
      <trkpt lat="48.84575" lon="2.26756">
        <ele>95.4</ele>
        <time>2015-01-19T20:30:58.919Z</time>
      </trkpt>
      <trkpt lat="48.84568" lon="2.26749">
        <ele>94.9</ele>
        <time>2015-01-19T20:31:00.883Z</time>
      </trkpt>
      <trkpt lat="48.84565" lon="2.26746">
        <ele>94.7</ele>
        <time>2015-01-19T20:31:02.030Z</time>
      </trkpt>
      <trkpt lat="48.84558" lon="2.26738">
        <ele>95</ele>
        <time>2015-01-19T20:31:03.974Z</time>
      </trkpt>
      <trkpt lat="48.84554" lon="2.26732">
        <ele>95.3</ele>
        <time>2015-01-19T20:31:04.886Z</time>
      </trkpt>
      <trkpt lat="48.8455" lon="2.26727">
        <ele>95.3</ele>
        <time>2015-01-19T20:31:05.875Z</time>
      </trkpt>
      <trkpt lat="48.84546" lon="2.26723">
        <ele>95.4</ele>
        <time>2015-01-19T20:31:06.877Z</time>
      </trkpt>
      <trkpt lat="48.84542" lon="2.26719">
        <ele>95.2</ele>
        <time>2015-01-19T20:31:07.888Z</time>
      </trkpt>
      <trkpt lat="48.84538" lon="2.26711">
        <ele>95</ele>
        <time>2015-01-19T20:31:08.895Z</time>
      </trkpt>
      <trkpt lat="48.84534" lon="2.26705">
        <ele>95.1</ele>
        <time>2015-01-19T20:31:09.897Z</time>
      </trkpt>
      <trkpt lat="48.84529" lon="2.267">
        <ele>95.2</ele>
        <time>2015-01-19T20:31:10.937Z</time>
      </trkpt>
      <trkpt lat="48.84525" lon="2.26696">
        <ele>95.3</ele>
        <time>2015-01-19T20:31:11.945Z</time>
      </trkpt>
      <trkpt lat="48.8452" lon="2.26692">
        <ele>95.4</ele>
        <time>2015-01-19T20:31:12.945Z</time>
      </trkpt>
      <trkpt lat="48.84516" lon="2.2669">
        <ele>95.6</ele>
        <time>2015-01-19T20:31:13.972Z</time>
      </trkpt>
      <trkpt lat="48.8451" lon="2.26688">
        <ele>95.5</ele>
        <time>2015-01-19T20:31:14.983Z</time>
      </trkpt>
      <trkpt lat="48.84506" lon="2.26686">
        <ele>95.4</ele>
        <time>2015-01-19T20:31:15.985Z</time>
      </trkpt>
      <trkpt lat="48.84502" lon="2.26683">
        <ele>95.4</ele>
        <time>2015-01-19T20:31:16.889Z</time>
      </trkpt>
      <trkpt lat="48.84495" lon="2.2668">
        <ele>95</ele>
        <time>2015-01-19T20:31:17.893Z</time>
      </trkpt>
      <trkpt lat="48.84491" lon="2.26679">
        <ele>94.9</ele>
        <time>2015-01-19T20:31:18.905Z</time>
      </trkpt>
      <trkpt lat="48.84484" lon="2.26677">
        <ele>94.8</ele>
        <time>2015-01-19T20:31:21.015Z</time>
      </trkpt>
      <trkpt lat="48.84481" lon="2.26674">
        <ele>94.7</ele>
        <time>2015-01-19T20:31:21.943Z</time>
      </trkpt>
      <trkpt lat="48.84473" lon="2.2667">
        <ele>94.5</ele>
        <time>2015-01-19T20:31:23.961Z</time>
      </trkpt>
      <trkpt lat="48.84469" lon="2.26667">
        <ele>94.5</ele>
        <time>2015-01-19T20:31:24.965Z</time>
      </trkpt>
      <trkpt lat="48.84465" lon="2.26664">
        <ele>94.5</ele>
        <time>2015-01-19T20:31:26.151Z</time>
      </trkpt>
      <trkpt lat="48.84461" lon="2.2666">
        <ele>94.6</ele>
        <time>2015-01-19T20:31:26.897Z</time>
      </trkpt>
      <trkpt lat="48.84454" lon="2.26653">
        <ele>94.8</ele>
        <time>2015-01-19T20:31:28.913Z</time>
      </trkpt>
      <trkpt lat="48.8445" lon="2.26646">
        <ele>95.6</ele>
        <time>2015-01-19T20:31:29.918Z</time>
      </trkpt>
      <trkpt lat="48.84446" lon="2.26641">
        <ele>95.8</ele>
        <time>2015-01-19T20:31:30.933Z</time>
      </trkpt>
      <trkpt lat="48.84443" lon="2.26635">
        <ele>95.9</ele>
        <time>2015-01-19T20:31:31.950Z</time>
      </trkpt>
      <trkpt lat="48.84438" lon="2.26626">
        <ele>96</ele>
        <time>2015-01-19T20:31:33.852Z</time>
      </trkpt>
      <trkpt lat="48.84436" lon="2.26621">
        <ele>96</ele>
        <time>2015-01-19T20:31:34.865Z</time>
      </trkpt>
      <trkpt lat="48.84431" lon="2.26612">
        <ele>96</ele>
        <time>2015-01-19T20:31:36.830Z</time>
      </trkpt>
      <trkpt lat="48.84428" lon="2.26607">
        <ele>96.1</ele>
        <time>2015-01-19T20:31:37.867Z</time>
      </trkpt>
      <trkpt lat="48.84425" lon="2.26601">
        <ele>96.2</ele>
        <time>2015-01-19T20:31:39.910Z</time>
      </trkpt>
      <trkpt lat="48.84421" lon="2.26596">
        <ele>96.5</ele>
        <time>2015-01-19T20:31:39.928Z</time>
      </trkpt>
      <trkpt lat="48.84414" lon="2.26588">
        <ele>96.7</ele>
        <time>2015-01-19T20:31:41.855Z</time>
      </trkpt>
      <trkpt lat="48.8441" lon="2.26583">
        <ele>96.7</ele>
        <time>2015-01-19T20:31:42.889Z</time>
      </trkpt>
      <trkpt lat="48.84406" lon="2.26577">
        <ele>96.6</ele>
        <time>2015-01-19T20:31:43.888Z</time>
      </trkpt>
      <trkpt lat="48.84402" lon="2.26572">
        <ele>96.5</ele>
        <time>2015-01-19T20:31:44.970Z</time>
      </trkpt>
      <trkpt lat="48.84399" lon="2.26568">
        <ele>96.6</ele>
        <time>2015-01-19T20:31:45.946Z</time>
      </trkpt>
      <trkpt lat="48.84395" lon="2.26563">
        <ele>96.4</ele>
        <time>2015-01-19T20:31:46.950Z</time>
      </trkpt>
      <trkpt lat="48.84391" lon="2.26559">
        <ele>96.1</ele>
        <time>2015-01-19T20:31:47.862Z</time>
      </trkpt>
      <trkpt lat="48.84388" lon="2.26555">
        <ele>95.9</ele>
        <time>2015-01-19T20:31:48.861Z</time>
      </trkpt>
      <trkpt lat="48.84382" lon="2.26554">
        <ele>95.8</ele>
        <time>2015-01-19T20:31:50.098Z</time>
      </trkpt>
      <trkpt lat="48.84377" lon="2.26553">
        <ele>95.6</ele>
        <time>2015-01-19T20:31:50.877Z</time>
      </trkpt>
      <trkpt lat="48.84371" lon="2.26552">
        <ele>95.7</ele>
        <time>2015-01-19T20:31:51.893Z</time>
      </trkpt>
      <trkpt lat="48.84366" lon="2.26549">
        <ele>95.8</ele>
        <time>2015-01-19T20:31:52.896Z</time>
      </trkpt>
      <trkpt lat="48.84361" lon="2.26538">
        <ele>95.1</ele>
        <time>2015-01-19T20:31:53.911Z</time>
      </trkpt>
      <trkpt lat="48.84357" lon="2.2653">
        <ele>94.9</ele>
        <time>2015-01-19T20:31:54.917Z</time>
      </trkpt>
      <trkpt lat="48.84353" lon="2.26525">
        <ele>95.1</ele>
        <time>2015-01-19T20:31:55.928Z</time>
      </trkpt>
      <trkpt lat="48.8435" lon="2.2652">
        <ele>95.3</ele>
        <time>2015-01-19T20:31:56.945Z</time>
      </trkpt>
      <trkpt lat="48.84346" lon="2.26516">
        <ele>95.5</ele>
        <time>2015-01-19T20:31:57.847Z</time>
      </trkpt>
      <trkpt lat="48.84343" lon="2.26512">
        <ele>95.8</ele>
        <time>2015-01-19T20:31:58.857Z</time>
      </trkpt>
      <trkpt lat="48.84335" lon="2.26505">
        <ele>96.3</ele>
        <time>2015-01-19T20:32:00.928Z</time>
      </trkpt>
      <trkpt lat="48.84331" lon="2.26502">
        <ele>96.5</ele>
        <time>2015-01-19T20:32:01.939Z</time>
      </trkpt>
      <trkpt lat="48.84325" lon="2.26497">
        <ele>97</ele>
        <time>2015-01-19T20:32:03.864Z</time>
      </trkpt>
      <trkpt lat="48.84319" lon="2.26492">
        <ele>97.8</ele>
        <time>2015-01-19T20:32:04.940Z</time>
      </trkpt>
      <trkpt lat="48.84314" lon="2.26489">
        <ele>98</ele>
        <time>2015-01-19T20:32:05.865Z</time>
      </trkpt>
      <trkpt lat="48.8431" lon="2.26486">
        <ele>98.2</ele>
        <time>2015-01-19T20:32:06.881Z</time>
      </trkpt>
      <trkpt lat="48.84302" lon="2.26481">
        <ele>98.6</ele>
        <time>2015-01-19T20:32:08.967Z</time>
      </trkpt>
      <trkpt lat="48.84298" lon="2.26478">
        <ele>98.8</ele>
        <time>2015-01-19T20:32:09.860Z</time>
      </trkpt>
      <trkpt lat="48.84294" lon="2.26475">
        <ele>98.9</ele>
        <time>2015-01-19T20:32:10.882Z</time>
      </trkpt>
      <trkpt lat="48.8429" lon="2.26471">
        <ele>98.8</ele>
        <time>2015-01-19T20:32:11.926Z</time>
      </trkpt>
      <trkpt lat="48.84283" lon="2.26463">
        <ele>98.7</ele>
        <time>2015-01-19T20:32:13.952Z</time>
      </trkpt>
      <trkpt lat="48.8428" lon="2.2646">
        <ele>98.6</ele>
        <time>2015-01-19T20:32:14.960Z</time>
      </trkpt>
      <trkpt lat="48.84273" lon="2.26454">
        <ele>98.4</ele>
        <time>2015-01-19T20:32:16.877Z</time>
      </trkpt>
      <trkpt lat="48.84269" lon="2.26452">
        <ele>98.4</ele>
        <time>2015-01-19T20:32:17.895Z</time>
      </trkpt>
      <trkpt lat="48.84262" lon="2.26447">
        <ele>98.6</ele>
        <time>2015-01-19T20:32:19.960Z</time>
      </trkpt>
      <trkpt lat="48.8426" lon="2.26445">
        <ele>98.7</ele>
        <time>2015-01-19T20:32:20.870Z</time>
      </trkpt>
      <trkpt lat="48.84255" lon="2.26439">
        <ele>98.8</ele>
        <time>2015-01-19T20:32:22.895Z</time>
      </trkpt>
      <trkpt lat="48.84252" lon="2.26437">
        <ele>98.8</ele>
        <time>2015-01-19T20:32:23.930Z</time>
      </trkpt>
      <trkpt lat="48.84248" lon="2.26435">
        <ele>98.8</ele>
        <time>2015-01-19T20:32:24.946Z</time>
      </trkpt>
      <trkpt lat="48.8424" lon="2.26435">
        <ele>99.6</ele>
        <time>2015-01-19T20:32:25.955Z</time>
      </trkpt>
      <trkpt lat="48.84231" lon="2.26432">
        <ele>101.5</ele>
        <time>2015-01-19T20:32:27.005Z</time>
      </trkpt>
      <trkpt lat="48.84225" lon="2.26429">
        <ele>102.6</ele>
        <time>2015-01-19T20:32:27.880Z</time>
      </trkpt>
      <trkpt lat="48.84221" lon="2.26425">
        <ele>102.9</ele>
        <time>2015-01-19T20:32:28.894Z</time>
      </trkpt>
      <trkpt lat="48.84211" lon="2.26419">
        <ele>102.3</ele>
        <time>2015-01-19T20:32:31.920Z</time>
      </trkpt>
      <trkpt lat="48.84205" lon="2.26416">
        <ele>102.5</ele>
        <time>2015-01-19T20:32:33.951Z</time>
      </trkpt>
      <trkpt lat="48.84202" lon="2.26414">
        <ele>102.6</ele>
        <time>2015-01-19T20:32:34.972Z</time>
      </trkpt>
      <trkpt lat="48.84196" lon="2.2641">
        <ele>102.5</ele>
        <time>2015-01-19T20:32:36.879Z</time>
      </trkpt>
      <trkpt lat="48.84193" lon="2.26408">
        <ele>102.4</ele>
        <time>2015-01-19T20:32:37.906Z</time>
      </trkpt>
      <trkpt lat="48.84188" lon="2.26408">
        <ele>102</ele>
        <time>2015-01-19T20:32:38.925Z</time>
      </trkpt>
      <trkpt lat="48.8418" lon="2.26409">
        <ele>101.5</ele>
        <time>2015-01-19T20:32:39.940Z</time>
      </trkpt>
      <trkpt lat="48.84175" lon="2.26407">
        <ele>101.2</ele>
        <time>2015-01-19T20:32:40.950Z</time>
      </trkpt>
      <trkpt lat="48.8417" lon="2.26406">
        <ele>100.9</ele>
        <time>2015-01-19T20:32:41.887Z</time>
      </trkpt>
      <trkpt lat="48.84162" lon="2.26402">
        <ele>100.3</ele>
        <time>2015-01-19T20:32:43.908Z</time>
      </trkpt>
      <trkpt lat="48.84158" lon="2.26399">
        <ele>100</ele>
        <time>2015-01-19T20:32:44.913Z</time>
      </trkpt>
      <trkpt lat="48.84151" lon="2.26397">
        <ele>100</ele>
        <time>2015-01-19T20:32:46.951Z</time>
      </trkpt>
      <trkpt lat="48.84149" lon="2.26397">
        <ele>100.1</ele>
        <time>2015-01-19T20:32:47.980Z</time>
      </trkpt>
      <trkpt lat="48.84141" lon="2.26392">
        <ele>101.6</ele>
        <time>2015-01-19T20:32:53.909Z</time>
      </trkpt>
      <trkpt lat="48.8414" lon="2.2639">
        <ele>101.9</ele>
        <time>2015-01-19T20:32:54.939Z</time>
      </trkpt>
      <trkpt lat="48.84134" lon="2.26385">
        <ele>103.4</ele>
        <time>2015-01-19T20:32:58.928Z</time>
      </trkpt>
      <trkpt lat="48.84131" lon="2.26385">
        <ele>103.9</ele>
        <time>2015-01-19T20:32:59.937Z</time>
      </trkpt>
      <trkpt lat="48.84123" lon="2.26381">
        <ele>104.4</ele>
        <time>2015-01-19T20:33:02.919Z</time>
      </trkpt>
      <trkpt lat="48.84119" lon="2.26379">
        <ele>104.5</ele>
        <time>2015-01-19T20:33:03.930Z</time>
      </trkpt>
      <trkpt lat="48.84113" lon="2.26378">
        <ele>104.9</ele>
        <time>2015-01-19T20:33:05.871Z</time>
      </trkpt>
      <trkpt lat="48.8411" lon="2.26375">
        <ele>104.9</ele>
        <time>2015-01-19T20:33:06.876Z</time>
      </trkpt>
      <trkpt lat="48.84104" lon="2.2637">
        <ele>105.2</ele>
        <time>2015-01-19T20:33:08.920Z</time>
      </trkpt>
      <trkpt lat="48.841" lon="2.26367">
        <ele>105.3</ele>
        <time>2015-01-19T20:33:09.937Z</time>
      </trkpt>
      <trkpt lat="48.84094" lon="2.2636">
        <ele>105.3</ele>
        <time>2015-01-19T20:33:11.865Z</time>
      </trkpt>
      <trkpt lat="48.84092" lon="2.26358">
        <ele>105.2</ele>
        <time>2015-01-19T20:33:12.885Z</time>
      </trkpt>
      <trkpt lat="48.84086" lon="2.26352">
        <ele>104.9</ele>
        <time>2015-01-19T20:33:14.947Z</time>
      </trkpt>
      <trkpt lat="48.84083" lon="2.2635">
        <ele>104.8</ele>
        <time>2015-01-19T20:33:15.938Z</time>
      </trkpt>
      <trkpt lat="48.84076" lon="2.26341">
        <ele>104.6</ele>
        <time>2015-01-19T20:33:17.870Z</time>
      </trkpt>
      <trkpt lat="48.84073" lon="2.26337">
        <ele>104.5</ele>
        <time>2015-01-19T20:33:18.873Z</time>
      </trkpt>
      <trkpt lat="48.84066" lon="2.26332">
        <ele>104.6</ele>
        <time>2015-01-19T20:33:20.925Z</time>
      </trkpt>
      <trkpt lat="48.84062" lon="2.26329">
        <ele>104.6</ele>
        <time>2015-01-19T20:33:21.951Z</time>
      </trkpt>
      <trkpt lat="48.84057" lon="2.26326">
        <ele>104.7</ele>
        <time>2015-01-19T20:33:22.874Z</time>
      </trkpt>
      <trkpt lat="48.84053" lon="2.26323">
        <ele>104.8</ele>
        <time>2015-01-19T20:33:23.897Z</time>
      </trkpt>
      <trkpt lat="48.84048" lon="2.26322">
        <ele>104.7</ele>
        <time>2015-01-19T20:33:24.960Z</time>
      </trkpt>
      <trkpt lat="48.84043" lon="2.26319">
        <ele>104.7</ele>
        <time>2015-01-19T20:33:25.875Z</time>
      </trkpt>
      <trkpt lat="48.84038" lon="2.26316">
        <ele>104.3</ele>
        <time>2015-01-19T20:33:26.878Z</time>
      </trkpt>
      <trkpt lat="48.84032" lon="2.26314">
        <ele>104.1</ele>
        <time>2015-01-19T20:33:27.880Z</time>
      </trkpt>
      <trkpt lat="48.8402" lon="2.26318">
        <ele>103</ele>
        <time>2015-01-19T20:33:28.924Z</time>
      </trkpt>
      <trkpt lat="48.84013" lon="2.26318">
        <ele>102.7</ele>
        <time>2015-01-19T20:33:29.877Z</time>
      </trkpt>
      <trkpt lat="48.84007" lon="2.26318">
        <ele>102.8</ele>
        <time>2015-01-19T20:33:30.867Z</time>
      </trkpt>
      <trkpt lat="48.84001" lon="2.26316">
        <ele>103.1</ele>
        <time>2015-01-19T20:33:31.875Z</time>
      </trkpt>
      <trkpt lat="48.83996" lon="2.26315">
        <ele>103.4</ele>
        <time>2015-01-19T20:33:32.897Z</time>
      </trkpt>
      <trkpt lat="48.83992" lon="2.26312">
        <ele>103.7</ele>
        <time>2015-01-19T20:33:33.867Z</time>
      </trkpt>
      <trkpt lat="48.83986" lon="2.2631">
        <ele>104</ele>
        <time>2015-01-19T20:33:34.892Z</time>
      </trkpt>
      <trkpt lat="48.83981" lon="2.26308">
        <ele>104.7</ele>
        <time>2015-01-19T20:33:35.898Z</time>
      </trkpt>
      <trkpt lat="48.83976" lon="2.26305">
        <ele>105</ele>
        <time>2015-01-19T20:33:36.909Z</time>
      </trkpt>
      <trkpt lat="48.83972" lon="2.26301">
        <ele>105.5</ele>
        <time>2015-01-19T20:33:37.922Z</time>
      </trkpt>
      <trkpt lat="48.83968" lon="2.26296">
        <ele>105.6</ele>
        <time>2015-01-19T20:33:38.932Z</time>
      </trkpt>
      <trkpt lat="48.83965" lon="2.2629">
        <ele>105.6</ele>
        <time>2015-01-19T20:33:39.958Z</time>
      </trkpt>
      <trkpt lat="48.83961" lon="2.26282">
        <ele>104</ele>
        <time>2015-01-19T20:33:40.907Z</time>
      </trkpt>
      <trkpt lat="48.83954" lon="2.26273">
        <ele>104</ele>
        <time>2015-01-19T20:33:42.883Z</time>
      </trkpt>
      <trkpt lat="48.83951" lon="2.26267">
        <ele>103.8</ele>
        <time>2015-01-19T20:33:43.921Z</time>
      </trkpt>
      <trkpt lat="48.83949" lon="2.2626">
        <ele>103.5</ele>
        <time>2015-01-19T20:33:44.942Z</time>
      </trkpt>
      <trkpt lat="48.83945" lon="2.26251">
        <ele>104.5</ele>
        <time>2015-01-19T20:33:45.956Z</time>
      </trkpt>
      <trkpt lat="48.83942" lon="2.26245">
        <ele>104.9</ele>
        <time>2015-01-19T20:33:46.894Z</time>
      </trkpt>
      <trkpt lat="48.8394" lon="2.26239">
        <ele>104.6</ele>
        <time>2015-01-19T20:33:48.071Z</time>
      </trkpt>
      <trkpt lat="48.83937" lon="2.26234">
        <ele>104.3</ele>
        <time>2015-01-19T20:33:48.917Z</time>
      </trkpt>
      <trkpt lat="48.83934" lon="2.26228">
        <ele>103.8</ele>
        <time>2015-01-19T20:33:49.925Z</time>
      </trkpt>
      <trkpt lat="48.83931" lon="2.26223">
        <ele>103.4</ele>
        <time>2015-01-19T20:33:50.962Z</time>
      </trkpt>
      <trkpt lat="48.83928" lon="2.26217">
        <ele>103</ele>
        <time>2015-01-19T20:33:51.874Z</time>
      </trkpt>
      <trkpt lat="48.83924" lon="2.26212">
        <ele>102.9</ele>
        <time>2015-01-19T20:33:52.982Z</time>
      </trkpt>
      <trkpt lat="48.8392" lon="2.26208">
        <ele>102.6</ele>
        <time>2015-01-19T20:33:53.894Z</time>
      </trkpt>
      <trkpt lat="48.83919" lon="2.26201">
        <ele>102.6</ele>
        <time>2015-01-19T20:33:54.896Z</time>
      </trkpt>
      <trkpt lat="48.83917" lon="2.26194">
        <ele>102.5</ele>
        <time>2015-01-19T20:33:55.898Z</time>
      </trkpt>
      <trkpt lat="48.83915" lon="2.26186">
        <ele>102.2</ele>
        <time>2015-01-19T20:33:56.934Z</time>
      </trkpt>
      <trkpt lat="48.83913" lon="2.2618">
        <ele>102.3</ele>
        <time>2015-01-19T20:33:57.977Z</time>
      </trkpt>
      <trkpt lat="48.83912" lon="2.26173">
        <ele>101.9</ele>
        <time>2015-01-19T20:33:58.882Z</time>
      </trkpt>
      <trkpt lat="48.8391" lon="2.26167">
        <ele>101.6</ele>
        <time>2015-01-19T20:33:59.879Z</time>
      </trkpt>
      <trkpt lat="48.83908" lon="2.2616">
        <ele>101.6</ele>
        <time>2015-01-19T20:34:00.901Z</time>
      </trkpt>
      <trkpt lat="48.83906" lon="2.26154">
        <ele>101.9</ele>
        <time>2015-01-19T20:34:01.902Z</time>
      </trkpt>
      <trkpt lat="48.83904" lon="2.26148">
        <ele>101.8</ele>
        <time>2015-01-19T20:34:02.912Z</time>
      </trkpt>
      <trkpt lat="48.839" lon="2.26142">
        <ele>101.8</ele>
        <time>2015-01-19T20:34:03.917Z</time>
      </trkpt>
      <trkpt lat="48.83898" lon="2.26135">
        <ele>101.8</ele>
        <time>2015-01-19T20:34:04.929Z</time>
      </trkpt>
      <trkpt lat="48.83898" lon="2.26126">
        <ele>102</ele>
        <time>2015-01-19T20:34:05.948Z</time>
      </trkpt>
      <trkpt lat="48.83896" lon="2.26118">
        <ele>102</ele>
        <time>2015-01-19T20:34:06.875Z</time>
      </trkpt>
      <trkpt lat="48.83894" lon="2.2611">
        <ele>101.9</ele>
        <time>2015-01-19T20:34:07.992Z</time>
      </trkpt>
      <trkpt lat="48.83893" lon="2.26101">
        <ele>101.8</ele>
        <time>2015-01-19T20:34:08.899Z</time>
      </trkpt>
      <trkpt lat="48.83892" lon="2.26093">
        <ele>101.8</ele>
        <time>2015-01-19T20:34:09.900Z</time>
      </trkpt>
      <trkpt lat="48.8389" lon="2.26086">
        <ele>101.5</ele>
        <time>2015-01-19T20:34:10.931Z</time>
      </trkpt>
      <trkpt lat="48.83887" lon="2.26079">
        <ele>101.4</ele>
        <time>2015-01-19T20:34:12.001Z</time>
      </trkpt>
      <trkpt lat="48.83884" lon="2.26073">
        <ele>101.2</ele>
        <time>2015-01-19T20:34:12.881Z</time>
      </trkpt>
      <trkpt lat="48.83881" lon="2.26066">
        <ele>101</ele>
        <time>2015-01-19T20:34:13.935Z</time>
      </trkpt>
      <trkpt lat="48.83878" lon="2.2606">
        <ele>100.9</ele>
        <time>2015-01-19T20:34:14.989Z</time>
      </trkpt>
      <trkpt lat="48.83875" lon="2.26054">
        <ele>100.9</ele>
        <time>2015-01-19T20:34:15.971Z</time>
      </trkpt>
      <trkpt lat="48.83872" lon="2.26047">
        <ele>100.8</ele>
        <time>2015-01-19T20:34:16.925Z</time>
      </trkpt>
      <trkpt lat="48.83869" lon="2.2604">
        <ele>100.5</ele>
        <time>2015-01-19T20:34:18.017Z</time>
      </trkpt>
      <trkpt lat="48.83866" lon="2.26033">
        <ele>100.5</ele>
        <time>2015-01-19T20:34:18.885Z</time>
      </trkpt>
      <trkpt lat="48.83865" lon="2.26025">
        <ele>100.3</ele>
        <time>2015-01-19T20:34:19.894Z</time>
      </trkpt>
      <trkpt lat="48.83863" lon="2.26018">
        <ele>100.2</ele>
        <time>2015-01-19T20:34:20.901Z</time>
      </trkpt>
      <trkpt lat="48.83861" lon="2.26011">
        <ele>100</ele>
        <time>2015-01-19T20:34:21.902Z</time>
      </trkpt>
      <trkpt lat="48.83862" lon="2.26001">
        <ele>100.1</ele>
        <time>2015-01-19T20:34:22.902Z</time>
      </trkpt>
      <trkpt lat="48.83861" lon="2.25993">
        <ele>100.1</ele>
        <time>2015-01-19T20:34:23.913Z</time>
      </trkpt>
      <trkpt lat="48.83859" lon="2.25985">
        <ele>100.1</ele>
        <time>2015-01-19T20:34:24.926Z</time>
      </trkpt>
      <trkpt lat="48.83857" lon="2.25977">
        <ele>99.9</ele>
        <time>2015-01-19T20:34:25.962Z</time>
      </trkpt>
      <trkpt lat="48.83855" lon="2.25969">
        <ele>99.6</ele>
        <time>2015-01-19T20:34:26.881Z</time>
      </trkpt>
      <trkpt lat="48.83853" lon="2.25961">
        <ele>99.4</ele>
        <time>2015-01-19T20:34:27.892Z</time>
      </trkpt>
      <trkpt lat="48.83851" lon="2.25954">
        <ele>99.1</ele>
        <time>2015-01-19T20:34:28.904Z</time>
      </trkpt>
      <trkpt lat="48.83849" lon="2.25946">
        <ele>98.8</ele>
        <time>2015-01-19T20:34:29.918Z</time>
      </trkpt>
      <trkpt lat="48.83847" lon="2.25938">
        <ele>98.7</ele>
        <time>2015-01-19T20:34:30.946Z</time>
      </trkpt>
      <trkpt lat="48.83845" lon="2.25929">
        <ele>98.6</ele>
        <time>2015-01-19T20:34:31.957Z</time>
      </trkpt>
      <trkpt lat="48.83843" lon="2.25922">
        <ele>98.5</ele>
        <time>2015-01-19T20:34:32.969Z</time>
      </trkpt>
      <trkpt lat="48.8384" lon="2.25914">
        <ele>98.3</ele>
        <time>2015-01-19T20:34:33.875Z</time>
      </trkpt>
      <trkpt lat="48.83838" lon="2.25907">
        <ele>98.2</ele>
        <time>2015-01-19T20:34:34.888Z</time>
      </trkpt>
      <trkpt lat="48.83836" lon="2.259">
        <ele>98.1</ele>
        <time>2015-01-19T20:34:35.900Z</time>
      </trkpt>
      <trkpt lat="48.83834" lon="2.25892">
        <ele>97.9</ele>
        <time>2015-01-19T20:34:36.927Z</time>
      </trkpt>
      <trkpt lat="48.8383" lon="2.25884">
        <ele>97.9</ele>
        <time>2015-01-19T20:34:37.939Z</time>
      </trkpt>
      <trkpt lat="48.83827" lon="2.25877">
        <ele>97.8</ele>
        <time>2015-01-19T20:34:38.945Z</time>
      </trkpt>
      <trkpt lat="48.83826" lon="2.25868">
        <ele>97.8</ele>
        <time>2015-01-19T20:34:39.886Z</time>
      </trkpt>
      <trkpt lat="48.83826" lon="2.25859">
        <ele>98</ele>
        <time>2015-01-19T20:34:40.885Z</time>
      </trkpt>
      <trkpt lat="48.83826" lon="2.25849">
        <ele>98.3</ele>
        <time>2015-01-19T20:34:41.889Z</time>
      </trkpt>
      <trkpt lat="48.83824" lon="2.25843">
        <ele>98.1</ele>
        <time>2015-01-19T20:34:42.896Z</time>
      </trkpt>
      <trkpt lat="48.83821" lon="2.25836">
        <ele>98.2</ele>
        <time>2015-01-19T20:34:43.917Z</time>
      </trkpt>
      <trkpt lat="48.83818" lon="2.2583">
        <ele>98.4</ele>
        <time>2015-01-19T20:34:44.922Z</time>
      </trkpt>
      <trkpt lat="48.83814" lon="2.25824">
        <ele>99.4</ele>
        <time>2015-01-19T20:34:45.878Z</time>
      </trkpt>
      <trkpt lat="48.83811" lon="2.25817">
        <ele>100</ele>
        <time>2015-01-19T20:34:46.879Z</time>
      </trkpt>
      <trkpt lat="48.83809" lon="2.25811">
        <ele>100.3</ele>
        <time>2015-01-19T20:34:47.886Z</time>
      </trkpt>
      <trkpt lat="48.83806" lon="2.25801">
        <ele>100.4</ele>
        <time>2015-01-19T20:34:49.900Z</time>
      </trkpt>
      <trkpt lat="48.83804" lon="2.25796">
        <ele>100.1</ele>
        <time>2015-01-19T20:34:50.992Z</time>
      </trkpt>
      <trkpt lat="48.83801" lon="2.25787">
        <ele>99.7</ele>
        <time>2015-01-19T20:34:52.904Z</time>
      </trkpt>
      <trkpt lat="48.83799" lon="2.25783">
        <ele>99.7</ele>
        <time>2015-01-19T20:34:53.944Z</time>
      </trkpt>
      <trkpt lat="48.83799" lon="2.25771">
        <ele>99.4</ele>
        <time>2015-01-19T20:34:56.994Z</time>
      </trkpt>
      <trkpt lat="48.838" lon="2.25768">
        <ele>99.4</ele>
        <time>2015-01-19T20:34:57.889Z</time>
      </trkpt>
      <trkpt lat="48.83805" lon="2.25759">
        <ele>98.1</ele>
        <time>2015-01-19T20:35:00.946Z</time>
      </trkpt>
      <trkpt lat="48.83807" lon="2.25757">
        <ele>97.5</ele>
        <time>2015-01-19T20:35:01.902Z</time>
      </trkpt>
      <trkpt lat="48.83813" lon="2.2575">
        <ele>95.3</ele>
        <time>2015-01-19T20:35:09.885Z</time>
      </trkpt>
      <trkpt lat="48.83814" lon="2.25749">
        <ele>95.2</ele>
        <time>2015-01-19T20:35:11.013Z</time>
      </trkpt>
      <trkpt lat="48.83821" lon="2.25743">
        <ele>93.9</ele>
        <time>2015-01-19T20:35:13.938Z</time>
      </trkpt>
      <trkpt lat="48.83824" lon="2.2574">
        <ele>93.7</ele>
        <time>2015-01-19T20:35:14.947Z</time>
      </trkpt>
      <trkpt lat="48.8383" lon="2.25732">
        <ele>92.9</ele>
        <time>2015-01-19T20:35:17.894Z</time>
      </trkpt>
      <trkpt lat="48.83832" lon="2.25728">
        <ele>92.8</ele>
        <time>2015-01-19T20:35:18.909Z</time>
      </trkpt>
      <trkpt lat="48.83836" lon="2.25718">
        <ele>92.5</ele>
        <time>2015-01-19T20:35:21.890Z</time>
      </trkpt>
      <trkpt lat="48.83838" lon="2.25714">
        <ele>92.7</ele>
        <time>2015-01-19T20:35:22.924Z</time>
      </trkpt>
      <trkpt lat="48.83839" lon="2.257">
        <ele>92.1</ele>
        <time>2015-01-19T20:35:25.916Z</time>
      </trkpt>
      <trkpt lat="48.83839" lon="2.25697">
        <ele>92</ele>
        <time>2015-01-19T20:35:26.929Z</time>
      </trkpt>
      <trkpt lat="48.83839" lon="2.25685">
        <ele>91.8</ele>
        <time>2015-01-19T20:35:29.908Z</time>
      </trkpt>
      <trkpt lat="48.83839" lon="2.25681">
        <ele>91.7</ele>
        <time>2015-01-19T20:35:30.949Z</time>
      </trkpt>
      <trkpt lat="48.83838" lon="2.25671">
        <ele>91.9</ele>
        <time>2015-01-19T20:35:33.007Z</time>
      </trkpt>
      <trkpt lat="48.83838" lon="2.25667">
        <ele>91.7</ele>
        <time>2015-01-19T20:35:33.889Z</time>
      </trkpt>
      <trkpt lat="48.83835" lon="2.25657">
        <ele>91.4</ele>
        <time>2015-01-19T20:35:35.946Z</time>
      </trkpt>
      <trkpt lat="48.83833" lon="2.25653">
        <ele>91.3</ele>
        <time>2015-01-19T20:35:36.964Z</time>
      </trkpt>
      <trkpt lat="48.83828" lon="2.25646">
        <ele>91.1</ele>
        <time>2015-01-19T20:35:38.903Z</time>
      </trkpt>
      <trkpt lat="48.83825" lon="2.25643">
        <ele>91</ele>
        <time>2015-01-19T20:35:39.918Z</time>
      </trkpt>
      <trkpt lat="48.83819" lon="2.2564">
        <ele>91.1</ele>
        <time>2015-01-19T20:35:41.965Z</time>
      </trkpt>
      <trkpt lat="48.83815" lon="2.25638">
        <ele>90.9</ele>
        <time>2015-01-19T20:35:43.028Z</time>
      </trkpt>
      <trkpt lat="48.83807" lon="2.25637">
        <ele>90.8</ele>
        <time>2015-01-19T20:35:44.926Z</time>
      </trkpt>
      <trkpt lat="48.83803" lon="2.25637">
        <ele>90.6</ele>
        <time>2015-01-19T20:35:45.932Z</time>
      </trkpt>
      <trkpt lat="48.83794" lon="2.2564">
        <ele>90.2</ele>
        <time>2015-01-19T20:35:47.962Z</time>
      </trkpt>
      <trkpt lat="48.8379" lon="2.25642">
        <ele>90.1</ele>
        <time>2015-01-19T20:35:48.979Z</time>
      </trkpt>
      <trkpt lat="48.83785" lon="2.25646">
        <ele>90</ele>
        <time>2015-01-19T20:35:49.990Z</time>
      </trkpt>
      <trkpt lat="48.83781" lon="2.25649">
        <ele>90.1</ele>
        <time>2015-01-19T20:35:50.942Z</time>
      </trkpt>
      <trkpt lat="48.83776" lon="2.25652">
        <ele>90.1</ele>
        <time>2015-01-19T20:35:51.880Z</time>
      </trkpt>
      <trkpt lat="48.83772" lon="2.25655">
        <ele>90</ele>
        <time>2015-01-19T20:35:52.881Z</time>
      </trkpt>
      <trkpt lat="48.83765" lon="2.25663">
        <ele>89.6</ele>
        <time>2015-01-19T20:35:54.897Z</time>
      </trkpt>
      <trkpt lat="48.83762" lon="2.25668">
        <ele>89.6</ele>
        <time>2015-01-19T20:35:55.913Z</time>
      </trkpt>
      <trkpt lat="48.83761" lon="2.25674">
        <ele>89.2</ele>
        <time>2015-01-19T20:35:56.946Z</time>
      </trkpt>
      <trkpt lat="48.83759" lon="2.25682">
        <ele>89.1</ele>
        <time>2015-01-19T20:35:57.953Z</time>
      </trkpt>
      <trkpt lat="48.83758" lon="2.25691">
        <ele>88.7</ele>
        <time>2015-01-19T20:35:58.897Z</time>
      </trkpt>
      <trkpt lat="48.83757" lon="2.257">
        <ele>88.3</ele>
        <time>2015-01-19T20:35:59.909Z</time>
      </trkpt>
      <trkpt lat="48.83757" lon="2.25708">
        <ele>88.2</ele>
        <time>2015-01-19T20:36:00.862Z</time>
      </trkpt>
      <trkpt lat="48.83758" lon="2.25717">
        <ele>88</ele>
        <time>2015-01-19T20:36:01.900Z</time>
      </trkpt>
      <trkpt lat="48.83759" lon="2.25727">
        <ele>87.9</ele>
        <time>2015-01-19T20:36:02.922Z</time>
      </trkpt>
      <trkpt lat="48.8376" lon="2.25735">
        <ele>88.1</ele>
        <time>2015-01-19T20:36:03.941Z</time>
      </trkpt>
      <trkpt lat="48.83761" lon="2.25743">
        <ele>88.3</ele>
        <time>2015-01-19T20:36:04.992Z</time>
      </trkpt>
      <trkpt lat="48.83764" lon="2.2575">
        <ele>89.5</ele>
        <time>2015-01-19T20:36:05.868Z</time>
      </trkpt>
      <trkpt lat="48.83762" lon="2.2576">
        <ele>90.8</ele>
        <time>2015-01-19T20:36:07.915Z</time>
      </trkpt>
      <trkpt lat="48.83759" lon="2.25763">
        <ele>91.1</ele>
        <time>2015-01-19T20:36:08.949Z</time>
      </trkpt>
      <trkpt lat="48.83754" lon="2.2577">
        <ele>91.6</ele>
        <time>2015-01-19T20:36:10.899Z</time>
      </trkpt>
      <trkpt lat="48.83752" lon="2.25775">
        <ele>91.9</ele>
        <time>2015-01-19T20:36:11.903Z</time>
      </trkpt>
      <trkpt lat="48.83747" lon="2.25783">
        <ele>92.4</ele>
        <time>2015-01-19T20:36:13.935Z</time>
      </trkpt>
      <trkpt lat="48.83745" lon="2.25788">
        <ele>92.5</ele>
        <time>2015-01-19T20:36:14.950Z</time>
      </trkpt>
      <trkpt lat="48.83742" lon="2.25798">
        <ele>92.8</ele>
        <time>2015-01-19T20:36:18.950Z</time>
      </trkpt>
      <trkpt lat="48.8374" lon="2.25801">
        <ele>93</ele>
        <time>2015-01-19T20:36:19.966Z</time>
      </trkpt>
      <trkpt lat="48.83747" lon="2.25792">
        <ele>93.4</ele>
        <time>2015-01-19T20:36:27.941Z</time>
      </trkpt>
      <trkpt lat="48.83751" lon="2.2579">
        <ele>93.4</ele>
        <time>2015-01-19T20:36:28.956Z</time>
      </trkpt>
      <trkpt lat="48.83751" lon="2.25789">
        <ele>93.3</ele>
        <time>2015-01-19T20:36:30.885Z</time>
      </trkpt>
      <trkpt lat="48.83742" lon="2.25788">
        <ele>92</ele>
        <time>2015-01-19T20:36:31.926Z</time>
      </trkpt>
      <trkpt lat="48.83744" lon="2.25786">
        <ele>90.4</ele>
        <time>2015-01-19T20:36:36.875Z</time>
      </trkpt>
      <trkpt lat="48.8375" lon="2.25794">
        <ele>88.3</ele>
        <time>2015-01-19T20:36:37.891Z</time>
      </trkpt>
      <trkpt lat="48.83749" lon="2.25805">
        <ele>87.7</ele>
        <time>2015-01-19T20:36:40.016Z</time>
      </trkpt>
      <trkpt lat="48.83747" lon="2.25811">
        <ele>87.1</ele>
        <time>2015-01-19T20:36:40.946Z</time>
      </trkpt>
      <trkpt lat="48.83747" lon="2.25823">
        <ele>86.7</ele>
        <time>2015-01-19T20:36:42.957Z</time>
      </trkpt>
      <trkpt lat="48.83746" lon="2.2583">
        <ele>86.7</ele>
        <time>2015-01-19T20:36:43.974Z</time>
      </trkpt>
      <trkpt lat="48.83746" lon="2.25838">
        <ele>86.7</ele>
        <time>2015-01-19T20:36:45.059Z</time>
      </trkpt>
      <trkpt lat="48.83747" lon="2.25847">
        <ele>86.6</ele>
        <time>2015-01-19T20:36:45.928Z</time>
      </trkpt>
      <trkpt lat="48.83746" lon="2.25856">
        <ele>86.5</ele>
        <time>2015-01-19T20:36:46.957Z</time>
      </trkpt>
      <trkpt lat="48.83744" lon="2.25865">
        <ele>86.7</ele>
        <time>2015-01-19T20:36:47.967Z</time>
      </trkpt>
      <trkpt lat="48.83742" lon="2.25875">
        <ele>86.8</ele>
        <time>2015-01-19T20:36:48.996Z</time>
      </trkpt>
      <trkpt lat="48.83741" lon="2.25883">
        <ele>86.6</ele>
        <time>2015-01-19T20:36:49.913Z</time>
      </trkpt>
      <trkpt lat="48.83741" lon="2.25892">
        <ele>86.3</ele>
        <time>2015-01-19T20:36:50.931Z</time>
      </trkpt>
      <trkpt lat="48.8374" lon="2.25902">
        <ele>86.2</ele>
        <time>2015-01-19T20:36:51.947Z</time>
      </trkpt>
      <trkpt lat="48.83739" lon="2.25911">
        <ele>86.2</ele>
        <time>2015-01-19T20:36:52.976Z</time>
      </trkpt>
      <trkpt lat="48.83738" lon="2.2592">
        <ele>86.2</ele>
        <time>2015-01-19T20:36:53.903Z</time>
      </trkpt>
      <trkpt lat="48.83736" lon="2.25929">
        <ele>86.2</ele>
        <time>2015-01-19T20:36:55.235Z</time>
      </trkpt>
      <trkpt lat="48.83735" lon="2.25939">
        <ele>86.3</ele>
        <time>2015-01-19T20:36:55.912Z</time>
      </trkpt>
      <trkpt lat="48.83734" lon="2.25949">
        <ele>85.9</ele>
        <time>2015-01-19T20:36:56.933Z</time>
      </trkpt>
      <trkpt lat="48.83734" lon="2.25962">
        <ele>85.5</ele>
        <time>2015-01-19T20:36:57.932Z</time>
      </trkpt>
      <trkpt lat="48.83735" lon="2.25971">
        <ele>85</ele>
        <time>2015-01-19T20:36:58.870Z</time>
      </trkpt>
      <trkpt lat="48.83738" lon="2.25982">
        <ele>83.5</ele>
        <time>2015-01-19T20:36:59.892Z</time>
      </trkpt>
      <trkpt lat="48.83738" lon="2.25982">
        <ele>83.5</ele>
        <time>2015-01-19T20:37:00.563Z</time>
      </trkpt>
      <trkpt lat="48.83744" lon="2.25992">
        <ele>81.7</ele>
        <time>2015-01-19T20:37:00.913Z</time>
      </trkpt>
      <trkpt lat="48.83746" lon="2.26001">
        <ele>80.4</ele>
        <time>2015-01-19T20:37:01.924Z</time>
      </trkpt>
      <trkpt lat="48.83747" lon="2.2601">
        <ele>79.7</ele>
        <time>2015-01-19T20:37:02.999Z</time>
      </trkpt>
      <trkpt lat="48.83748" lon="2.26021">
        <ele>78.9</ele>
        <time>2015-01-19T20:37:03.853Z</time>
      </trkpt>
      <trkpt lat="48.83748" lon="2.26033">
        <ele>78.2</ele>
        <time>2015-01-19T20:37:04.880Z</time>
      </trkpt>
      <trkpt lat="48.83749" lon="2.26045">
        <ele>77.4</ele>
        <time>2015-01-19T20:37:05.873Z</time>
      </trkpt>
      <trkpt lat="48.83749" lon="2.26056">
        <ele>76.8</ele>
        <time>2015-01-19T20:37:06.887Z</time>
      </trkpt>
      <trkpt lat="48.8375" lon="2.26068">
        <ele>76.5</ele>
        <time>2015-01-19T20:37:07.906Z</time>
      </trkpt>
      <trkpt lat="48.8375" lon="2.2608">
        <ele>76.1</ele>
        <time>2015-01-19T20:37:08.919Z</time>
      </trkpt>
      <trkpt lat="48.83751" lon="2.26092">
        <ele>75.6</ele>
        <time>2015-01-19T20:37:10.733Z</time>
      </trkpt>
      <trkpt lat="48.83751" lon="2.26103">
        <ele>75.5</ele>
        <time>2015-01-19T20:37:10.946Z</time>
      </trkpt>
      <trkpt lat="48.83752" lon="2.26111">
        <ele>75</ele>
        <time>2015-01-19T20:37:11.941Z</time>
      </trkpt>
      <trkpt lat="48.83753" lon="2.26118">
        <ele>74.7</ele>
        <time>2015-01-19T20:37:12.954Z</time>
      </trkpt>
      <trkpt lat="48.83754" lon="2.26126">
        <ele>74.6</ele>
        <time>2015-01-19T20:37:13.972Z</time>
      </trkpt>
      <trkpt lat="48.83756" lon="2.26134">
        <ele>74.5</ele>
        <time>2015-01-19T20:37:14.986Z</time>
      </trkpt>
      <trkpt lat="48.83757" lon="2.26142">
        <ele>74.4</ele>
        <time>2015-01-19T20:37:15.862Z</time>
      </trkpt>
      <trkpt lat="48.83759" lon="2.26152">
        <ele>74.9</ele>
        <time>2015-01-19T20:37:16.870Z</time>
      </trkpt>
      <trkpt lat="48.83761" lon="2.26161">
        <ele>75.2</ele>
        <time>2015-01-19T20:37:17.926Z</time>
      </trkpt>
      <trkpt lat="48.83762" lon="2.2617">
        <ele>75.2</ele>
        <time>2015-01-19T20:37:18.932Z</time>
      </trkpt>
      <trkpt lat="48.83763" lon="2.2618">
        <ele>74.9</ele>
        <time>2015-01-19T20:37:20.915Z</time>
      </trkpt>
      <trkpt lat="48.83765" lon="2.26187">
        <ele>75</ele>
        <time>2015-01-19T20:37:20.947Z</time>
      </trkpt>
      <trkpt lat="48.83766" lon="2.26195">
        <ele>74.8</ele>
        <time>2015-01-19T20:37:21.960Z</time>
      </trkpt>
      <trkpt lat="48.83767" lon="2.26204">
        <ele>74.8</ele>
        <time>2015-01-19T20:37:22.976Z</time>
      </trkpt>
      <trkpt lat="48.83768" lon="2.26212">
        <ele>74.7</ele>
        <time>2015-01-19T20:37:23.877Z</time>
      </trkpt>
      <trkpt lat="48.83771" lon="2.26219">
        <ele>74.6</ele>
        <time>2015-01-19T20:37:24.882Z</time>
      </trkpt>
      <trkpt lat="48.83771" lon="2.26232">
        <ele>74.9</ele>
        <time>2015-01-19T20:37:25.887Z</time>
      </trkpt>
      <trkpt lat="48.83775" lon="2.26237">
        <ele>74.7</ele>
        <time>2015-01-19T20:37:26.910Z</time>
      </trkpt>
      <trkpt lat="48.83779" lon="2.26243">
        <ele>74.7</ele>
        <time>2015-01-19T20:37:28.001Z</time>
      </trkpt>
      <trkpt lat="48.83782" lon="2.2625">
        <ele>75.4</ele>
        <time>2015-01-19T20:37:28.934Z</time>
      </trkpt>
      <trkpt lat="48.83786" lon="2.26258">
        <ele>75.9</ele>
        <time>2015-01-19T20:37:29.942Z</time>
      </trkpt>
      <trkpt lat="48.83789" lon="2.26265">
        <ele>76.4</ele>
        <time>2015-01-19T20:37:30.956Z</time>
      </trkpt>
      <trkpt lat="48.83792" lon="2.2627">
        <ele>76.4</ele>
        <time>2015-01-19T20:37:31.968Z</time>
      </trkpt>
      <trkpt lat="48.83795" lon="2.26276">
        <ele>76.6</ele>
        <time>2015-01-19T20:37:32.994Z</time>
      </trkpt>
      <trkpt lat="48.83798" lon="2.26287">
        <ele>77.6</ele>
        <time>2015-01-19T20:37:34.742Z</time>
      </trkpt>
      <trkpt lat="48.83801" lon="2.26295">
        <ele>78.4</ele>
        <time>2015-01-19T20:37:34.855Z</time>
      </trkpt>
      <trkpt lat="48.83804" lon="2.26302">
        <ele>78.6</ele>
        <time>2015-01-19T20:37:35.915Z</time>
      </trkpt>
      <trkpt lat="48.83806" lon="2.26308">
        <ele>79</ele>
        <time>2015-01-19T20:37:36.917Z</time>
      </trkpt>
      <trkpt lat="48.8381" lon="2.26314">
        <ele>79.6</ele>
        <time>2015-01-19T20:37:37.926Z</time>
      </trkpt>
      <trkpt lat="48.83812" lon="2.26321">
        <ele>80.2</ele>
        <time>2015-01-19T20:37:38.942Z</time>
      </trkpt>
      <trkpt lat="48.83815" lon="2.26327">
        <ele>80.3</ele>
        <time>2015-01-19T20:37:39.957Z</time>
      </trkpt>
      <trkpt lat="48.83817" lon="2.26333">
        <ele>80.5</ele>
        <time>2015-01-19T20:37:40.864Z</time>
      </trkpt>
      <trkpt lat="48.83822" lon="2.26343">
        <ele>80.4</ele>
        <time>2015-01-19T20:37:42.876Z</time>
      </trkpt>
      <trkpt lat="48.83825" lon="2.26351">
        <ele>81.3</ele>
        <time>2015-01-19T20:37:43.932Z</time>
      </trkpt>
      <trkpt lat="48.83829" lon="2.26362">
        <ele>81.3</ele>
        <time>2015-01-19T20:37:45.941Z</time>
      </trkpt>
      <trkpt lat="48.83832" lon="2.26367">
        <ele>81.2</ele>
        <time>2015-01-19T20:37:46.952Z</time>
      </trkpt>
      <trkpt lat="48.83838" lon="2.26376">
        <ele>81.3</ele>
        <time>2015-01-19T20:37:48.898Z</time>
      </trkpt>
      <trkpt lat="48.83841" lon="2.2638">
        <ele>81.3</ele>
        <time>2015-01-19T20:37:49.929Z</time>
      </trkpt>
      <trkpt lat="48.83849" lon="2.26388">
        <ele>81.2</ele>
        <time>2015-01-19T20:37:51.921Z</time>
      </trkpt>
      <trkpt lat="48.83852" lon="2.26392">
        <ele>81.1</ele>
        <time>2015-01-19T20:37:52.940Z</time>
      </trkpt>
      <trkpt lat="48.83856" lon="2.26396">
        <ele>80.9</ele>
        <time>2015-01-19T20:37:53.960Z</time>
      </trkpt>
      <trkpt lat="48.8386" lon="2.26401">
        <ele>80.7</ele>
        <time>2015-01-19T20:37:54.886Z</time>
      </trkpt>
      <trkpt lat="48.83864" lon="2.26404">
        <ele>80.5</ele>
        <time>2015-01-19T20:37:55.985Z</time>
      </trkpt>
      <trkpt lat="48.83868" lon="2.26408">
        <ele>80.4</ele>
        <time>2015-01-19T20:37:56.989Z</time>
      </trkpt>
      <trkpt lat="48.83872" lon="2.26412">
        <ele>80.3</ele>
        <time>2015-01-19T20:37:57.875Z</time>
      </trkpt>
      <trkpt lat="48.83876" lon="2.26417">
        <ele>80.3</ele>
        <time>2015-01-19T20:37:58.883Z</time>
      </trkpt>
      <trkpt lat="48.8388" lon="2.26421">
        <ele>80.3</ele>
        <time>2015-01-19T20:38:00.438Z</time>
      </trkpt>
      <trkpt lat="48.83883" lon="2.26426">
        <ele>80.3</ele>
        <time>2015-01-19T20:38:00.946Z</time>
      </trkpt>
      <trkpt lat="48.83889" lon="2.26435">
        <ele>80</ele>
        <time>2015-01-19T20:38:03.045Z</time>
      </trkpt>
      <trkpt lat="48.83892" lon="2.2644">
        <ele>80</ele>
        <time>2015-01-19T20:38:03.994Z</time>
      </trkpt>
      <trkpt lat="48.83896" lon="2.26449">
        <ele>79.9</ele>
        <time>2015-01-19T20:38:05.897Z</time>
      </trkpt>
      <trkpt lat="48.83898" lon="2.26453">
        <ele>80</ele>
        <time>2015-01-19T20:38:06.994Z</time>
      </trkpt>
      <trkpt lat="48.83899" lon="2.26467">
        <ele>81</ele>
        <time>2015-01-19T20:38:10.897Z</time>
      </trkpt>
      <trkpt lat="48.83901" lon="2.2647">
        <ele>82.5</ele>
        <time>2015-01-19T20:38:11.925Z</time>
      </trkpt>
      <trkpt lat="48.83901" lon="2.26483">
        <ele>85.7</ele>
        <time>2015-01-19T20:38:15.629Z</time>
      </trkpt>
      <trkpt lat="48.83901" lon="2.26486">
        <ele>86.5</ele>
        <time>2015-01-19T20:38:15.907Z</time>
      </trkpt>
      <trkpt lat="48.83898" lon="2.26496">
        <ele>87.8</ele>
        <time>2015-01-19T20:38:18.978Z</time>
      </trkpt>
      <trkpt lat="48.83897" lon="2.26501">
        <ele>88.1</ele>
        <time>2015-01-19T20:38:19.874Z</time>
      </trkpt>
      <trkpt lat="48.83901" lon="2.26513">
        <ele>88.1</ele>
        <time>2015-01-19T20:38:21.895Z</time>
      </trkpt>
      <trkpt lat="48.83902" lon="2.26515">
        <ele>88.4</ele>
        <time>2015-01-19T20:38:22.905Z</time>
      </trkpt>
      <trkpt lat="48.83906" lon="2.26527">
        <ele>88.8</ele>
        <time>2015-01-19T20:38:25.895Z</time>
      </trkpt>
      <trkpt lat="48.83908" lon="2.26532">
        <ele>88.8</ele>
        <time>2015-01-19T20:38:26.908Z</time>
      </trkpt>
      <trkpt lat="48.83911" lon="2.26538">
        <ele>89.1</ele>
        <time>2015-01-19T20:38:27.928Z</time>
      </trkpt>
      <trkpt lat="48.83918" lon="2.26542">
        <ele>89.9</ele>
        <time>2015-01-19T20:38:28.942Z</time>
      </trkpt>
      <trkpt lat="48.83922" lon="2.26547">
        <ele>89.9</ele>
        <time>2015-01-19T20:38:30.232Z</time>
      </trkpt>
      <trkpt lat="48.8393" lon="2.26567">
        <ele>89.6</ele>
        <time>2015-01-19T20:38:32.997Z</time>
      </trkpt>
      <trkpt lat="48.83933" lon="2.26574">
        <ele>89.4</ele>
        <time>2015-01-19T20:38:33.878Z</time>
      </trkpt>
      <trkpt lat="48.83935" lon="2.26579">
        <ele>89.3</ele>
        <time>2015-01-19T20:38:34.872Z</time>
      </trkpt>
      <trkpt lat="48.83938" lon="2.26584">
        <ele>89.4</ele>
        <time>2015-01-19T20:38:35.929Z</time>
      </trkpt>
      <trkpt lat="48.8394" lon="2.26593">
        <ele>90.3</ele>
        <time>2015-01-19T20:38:36.955Z</time>
      </trkpt>
      <trkpt lat="48.83944" lon="2.26604">
        <ele>91.1</ele>
        <time>2015-01-19T20:38:38.856Z</time>
      </trkpt>
      <trkpt lat="48.83947" lon="2.2662">
        <ele>91.3</ele>
        <time>2015-01-19T20:38:41.848Z</time>
      </trkpt>
      <trkpt lat="48.83952" lon="2.26626">
        <ele>90</ele>
        <time>2015-01-19T20:38:42.959Z</time>
      </trkpt>
      <trkpt lat="48.83957" lon="2.2663">
        <ele>89.2</ele>
        <time>2015-01-19T20:38:43.876Z</time>
      </trkpt>
      <trkpt lat="48.83962" lon="2.26637">
        <ele>88.8</ele>
        <time>2015-01-19T20:38:46.838Z</time>
      </trkpt>
      <trkpt lat="48.83964" lon="2.26639">
        <ele>88.6</ele>
        <time>2015-01-19T20:38:46.893Z</time>
      </trkpt>
      <trkpt lat="48.83968" lon="2.2665">
        <ele>88.4</ele>
        <time>2015-01-19T20:38:49.947Z</time>
      </trkpt>
      <trkpt lat="48.83969" lon="2.26651">
        <ele>88.4</ele>
        <time>2015-01-19T20:38:50.976Z</time>
      </trkpt>
      <trkpt lat="48.83976" lon="2.26657">
        <ele>87.9</ele>
        <time>2015-01-19T20:38:54.909Z</time>
      </trkpt>
      <trkpt lat="48.8398" lon="2.26657">
        <ele>87</ele>
        <time>2015-01-19T20:38:55.939Z</time>
      </trkpt>
      <trkpt lat="48.83986" lon="2.26653">
        <ele>86.6</ele>
        <time>2015-01-19T20:39:05.849Z</time>
      </trkpt>
      <trkpt lat="48.83991" lon="2.26653">
        <ele>87.8</ele>
        <time>2015-01-19T20:39:06.919Z</time>
      </trkpt>
      <trkpt lat="48.83991" lon="2.26665">
        <ele>89.4</ele>
        <time>2015-01-19T20:39:17.521Z</time>
      </trkpt>
      <trkpt lat="48.83991" lon="2.26668">
        <ele>89.5</ele>
        <time>2015-01-19T20:39:17.977Z</time>
      </trkpt>
      <trkpt lat="48.83988" lon="2.26675">
        <ele>88.6</ele>
        <time>2015-01-19T20:39:20.946Z</time>
      </trkpt>
      <trkpt lat="48.83984" lon="2.26677">
        <ele>87.5</ele>
        <time>2015-01-19T20:39:21.868Z</time>
      </trkpt>
      <trkpt lat="48.83981" lon="2.26687">
        <ele>87.1</ele>
        <time>2015-01-19T20:39:24.919Z</time>
      </trkpt>
      <trkpt lat="48.83981" lon="2.26691">
        <ele>86.7</ele>
        <time>2015-01-19T20:39:25.873Z</time>
      </trkpt>
      <trkpt lat="48.83981" lon="2.26694">
        <ele>86.6</ele>
        <time>2015-01-19T20:39:26.901Z</time>
      </trkpt>
      <trkpt lat="48.83992" lon="2.26709">
        <ele>86.6</ele>
        <time>2015-01-19T20:39:33.960Z</time>
      </trkpt>
      <trkpt lat="48.83997" lon="2.26719">
        <ele>86.1</ele>
        <time>2015-01-19T20:39:35.872Z</time>
      </trkpt>
      <trkpt lat="48.84" lon="2.26725">
        <ele>86.4</ele>
        <time>2015-01-19T20:39:36.921Z</time>
      </trkpt>
      <trkpt lat="48.84006" lon="2.26733">
        <ele>86.4</ele>
        <time>2015-01-19T20:39:39.915Z</time>
      </trkpt>
      <trkpt lat="48.84009" lon="2.26736">
        <ele>86.5</ele>
        <time>2015-01-19T20:39:39.998Z</time>
      </trkpt>
      <trkpt lat="48.84015" lon="2.26743">
        <ele>86.5</ele>
        <time>2015-01-19T20:39:41.887Z</time>
      </trkpt>
      <trkpt lat="48.84018" lon="2.26746">
        <ele>86.6</ele>
        <time>2015-01-19T20:39:42.918Z</time>
      </trkpt>
      <trkpt lat="48.84024" lon="2.26752">
        <ele>86.2</ele>
        <time>2015-01-19T20:39:45.136Z</time>
      </trkpt>
      <trkpt lat="48.84027" lon="2.26755">
        <ele>86</ele>
        <time>2015-01-19T20:39:45.873Z</time>
      </trkpt>
      <trkpt lat="48.84032" lon="2.26761">
        <ele>85.8</ele>
        <time>2015-01-19T20:39:47.908Z</time>
      </trkpt>
      <trkpt lat="48.84035" lon="2.26766">
        <ele>85.5</ele>
        <time>2015-01-19T20:39:48.922Z</time>
      </trkpt>
      <trkpt lat="48.84041" lon="2.26773">
        <ele>85</ele>
        <time>2015-01-19T20:39:50.948Z</time>
      </trkpt>
      <trkpt lat="48.84044" lon="2.26777">
        <ele>84.9</ele>
        <time>2015-01-19T20:39:51.960Z</time>
      </trkpt>
      <trkpt lat="48.84048" lon="2.26781">
        <ele>84.8</ele>
        <time>2015-01-19T20:39:52.884Z</time>
      </trkpt>
      <trkpt lat="48.84052" lon="2.26784">
        <ele>84.7</ele>
        <time>2015-01-19T20:39:53.888Z</time>
      </trkpt>
      <trkpt lat="48.84059" lon="2.2679">
        <ele>84.7</ele>
        <time>2015-01-19T20:39:55.942Z</time>
      </trkpt>
      <trkpt lat="48.84061" lon="2.26795">
        <ele>84.6</ele>
        <time>2015-01-19T20:39:56.960Z</time>
      </trkpt>
      <trkpt lat="48.84067" lon="2.26804">
        <ele>84.4</ele>
        <time>2015-01-19T20:39:58.922Z</time>
      </trkpt>
      <trkpt lat="48.8407" lon="2.26808">
        <ele>84.5</ele>
        <time>2015-01-19T20:39:59.880Z</time>
      </trkpt>
      <trkpt lat="48.84078" lon="2.26814">
        <ele>84.9</ele>
        <time>2015-01-19T20:40:03.871Z</time>
      </trkpt>
      <trkpt lat="48.84079" lon="2.26814">
        <ele>85.1</ele>
        <time>2015-01-19T20:40:04.967Z</time>
      </trkpt>
      <trkpt lat="48.84079" lon="2.26814">
        <ele>85.1</ele>
        <time>2015-01-19T20:40:05.848Z</time>
      </trkpt>
      <trkpt lat="48.84078" lon="2.26814">
        <ele>85</ele>
        <time>2015-01-19T20:40:07.636Z</time>
      </trkpt>
      <trkpt lat="48.84079" lon="2.26815">
        <ele>85.4</ele>
        <time>2015-01-19T20:40:07.915Z</time>
      </trkpt>
      <trkpt lat="48.84079" lon="2.26816">
        <ele>85.5</ele>
        <time>2015-01-19T20:40:08.950Z</time>
      </trkpt>
      <trkpt lat="48.8408" lon="2.26817">
        <ele>85.5</ele>
        <time>2015-01-19T20:40:09.959Z</time>
      </trkpt>
      <trkpt lat="48.84086" lon="2.26825">
        <ele>85.3</ele>
        <time>2015-01-19T20:40:14.005Z</time>
      </trkpt>
      <trkpt lat="48.84088" lon="2.26827">
        <ele>85.5</ele>
        <time>2015-01-19T20:40:14.901Z</time>
      </trkpt>
      <trkpt lat="48.84096" lon="2.26832">
        <ele>85.3</ele>
        <time>2015-01-19T20:40:17.915Z</time>
      </trkpt>
      <trkpt lat="48.84099" lon="2.26834">
        <ele>85.1</ele>
        <time>2015-01-19T20:40:18.921Z</time>
      </trkpt>
      <trkpt lat="48.84106" lon="2.26839">
        <ele>85.1</ele>
        <time>2015-01-19T20:40:21.000Z</time>
      </trkpt>
      <trkpt lat="48.8411" lon="2.26842">
        <ele>85.2</ele>
        <time>2015-01-19T20:40:21.949Z</time>
      </trkpt>
      <trkpt lat="48.84117" lon="2.26847">
        <ele>85.2</ele>
        <time>2015-01-19T20:40:24.005Z</time>
      </trkpt>
      <trkpt lat="48.84121" lon="2.26848">
        <ele>85</ele>
        <time>2015-01-19T20:40:24.928Z</time>
      </trkpt>
      <trkpt lat="48.84127" lon="2.26854">
        <ele>84.9</ele>
        <time>2015-01-19T20:40:26.893Z</time>
      </trkpt>
      <trkpt lat="48.84131" lon="2.26857">
        <ele>84.9</ele>
        <time>2015-01-19T20:40:27.897Z</time>
      </trkpt>
      <trkpt lat="48.84138" lon="2.26864">
        <ele>84.9</ele>
        <time>2015-01-19T20:40:29.936Z</time>
      </trkpt>
      <trkpt lat="48.84141" lon="2.26868">
        <ele>84.8</ele>
        <time>2015-01-19T20:40:30.949Z</time>
      </trkpt>
      <trkpt lat="48.84148" lon="2.26875">
        <ele>84.7</ele>
        <time>2015-01-19T20:40:32.927Z</time>
      </trkpt>
      <trkpt lat="48.84151" lon="2.26878">
        <ele>84.7</ele>
        <time>2015-01-19T20:40:33.935Z</time>
      </trkpt>
      <trkpt lat="48.84155" lon="2.26881">
        <ele>84.7</ele>
        <time>2015-01-19T20:40:34.819Z</time>
      </trkpt>
      <trkpt lat="48.84159" lon="2.26884">
        <ele>84.8</ele>
        <time>2015-01-19T20:40:35.848Z</time>
      </trkpt>
      <trkpt lat="48.84163" lon="2.26888">
        <ele>84.9</ele>
        <time>2015-01-19T20:40:36.849Z</time>
      </trkpt>
      <trkpt lat="48.84168" lon="2.2689">
        <ele>84.7</ele>
        <time>2015-01-19T20:40:37.910Z</time>
      </trkpt>
      <trkpt lat="48.84173" lon="2.26894">
        <ele>84.7</ele>
        <time>2015-01-19T20:40:39.792Z</time>
      </trkpt>
      <trkpt lat="48.84177" lon="2.26897">
        <ele>84.6</ele>
        <time>2015-01-19T20:40:39.823Z</time>
      </trkpt>
      <trkpt lat="48.84184" lon="2.26905">
        <ele>84.8</ele>
        <time>2015-01-19T20:40:41.860Z</time>
      </trkpt>
      <trkpt lat="48.84187" lon="2.26912">
        <ele>85.5</ele>
        <time>2015-01-19T20:40:42.862Z</time>
      </trkpt>
      <trkpt lat="48.84192" lon="2.26922">
        <ele>86.2</ele>
        <time>2015-01-19T20:40:44.902Z</time>
      </trkpt>
      <trkpt lat="48.84196" lon="2.26926">
        <ele>86</ele>
        <time>2015-01-19T20:40:45.972Z</time>
      </trkpt>
      <trkpt lat="48.84201" lon="2.26931">
        <ele>85.6</ele>
        <time>2015-01-19T20:40:46.864Z</time>
      </trkpt>
      <trkpt lat="48.84206" lon="2.26936">
        <ele>85.3</ele>
        <time>2015-01-19T20:40:47.872Z</time>
      </trkpt>
      <trkpt lat="48.8421" lon="2.26941">
        <ele>85.1</ele>
        <time>2015-01-19T20:40:48.911Z</time>
      </trkpt>
      <trkpt lat="48.84214" lon="2.26948">
        <ele>84.7</ele>
        <time>2015-01-19T20:40:49.853Z</time>
      </trkpt>
      <trkpt lat="48.84217" lon="2.26952">
        <ele>84.4</ele>
        <time>2015-01-19T20:40:50.907Z</time>
      </trkpt>
      <trkpt lat="48.84221" lon="2.26956">
        <ele>84.2</ele>
        <time>2015-01-19T20:40:51.921Z</time>
      </trkpt>
      <trkpt lat="48.84226" lon="2.2696">
        <ele>84.1</ele>
        <time>2015-01-19T20:40:52.900Z</time>
      </trkpt>
      <trkpt lat="48.8423" lon="2.26963">
        <ele>84.1</ele>
        <time>2015-01-19T20:40:53.906Z</time>
      </trkpt>
      <trkpt lat="48.84236" lon="2.26967">
        <ele>83.9</ele>
        <time>2015-01-19T20:40:55.062Z</time>
      </trkpt>
      <trkpt lat="48.8424" lon="2.26971">
        <ele>84.1</ele>
        <time>2015-01-19T20:40:55.907Z</time>
      </trkpt>
      <trkpt lat="48.84245" lon="2.26975">
        <ele>84</ele>
        <time>2015-01-19T20:40:56.929Z</time>
      </trkpt>
      <trkpt lat="48.8425" lon="2.2698">
        <ele>83.9</ele>
        <time>2015-01-19T20:40:57.936Z</time>
      </trkpt>
      <trkpt lat="48.84255" lon="2.26984">
        <ele>83.8</ele>
        <time>2015-01-19T20:40:58.951Z</time>
      </trkpt>
      <trkpt lat="48.8426" lon="2.26989">
        <ele>83.7</ele>
        <time>2015-01-19T20:40:59.866Z</time>
      </trkpt>
      <trkpt lat="48.84265" lon="2.26994">
        <ele>83.7</ele>
        <time>2015-01-19T20:41:00.881Z</time>
      </trkpt>
      <trkpt lat="48.8427" lon="2.26999">
        <ele>83.6</ele>
        <time>2015-01-19T20:41:01.895Z</time>
      </trkpt>
      <trkpt lat="48.84276" lon="2.27003">
        <ele>83.8</ele>
        <time>2015-01-19T20:41:02.929Z</time>
      </trkpt>
      <trkpt lat="48.84282" lon="2.27007">
        <ele>84</ele>
        <time>2015-01-19T20:41:03.927Z</time>
      </trkpt>
      <trkpt lat="48.84288" lon="2.27011">
        <ele>83.9</ele>
        <time>2015-01-19T20:41:04.971Z</time>
      </trkpt>
      <trkpt lat="48.84295" lon="2.27017">
        <ele>83.6</ele>
        <time>2015-01-19T20:41:05.871Z</time>
      </trkpt>
      <trkpt lat="48.84302" lon="2.27023">
        <ele>83.6</ele>
        <time>2015-01-19T20:41:06.883Z</time>
      </trkpt>
      <trkpt lat="48.84311" lon="2.27032">
        <ele>84.7</ele>
        <time>2015-01-19T20:41:07.888Z</time>
      </trkpt>
      <trkpt lat="48.84317" lon="2.27039">
        <ele>84.7</ele>
        <time>2015-01-19T20:41:08.900Z</time>
      </trkpt>
      <trkpt lat="48.84322" lon="2.27045">
        <ele>84.8</ele>
        <time>2015-01-19T20:41:09.940Z</time>
      </trkpt>
      <trkpt lat="48.84328" lon="2.27052">
        <ele>85.1</ele>
        <time>2015-01-19T20:41:10.851Z</time>
      </trkpt>
      <trkpt lat="48.84335" lon="2.27058">
        <ele>85.1</ele>
        <time>2015-01-19T20:41:11.851Z</time>
      </trkpt>
      <trkpt lat="48.84341" lon="2.27065">
        <ele>85.2</ele>
        <time>2015-01-19T20:41:12.866Z</time>
      </trkpt>
      <trkpt lat="48.84347" lon="2.27071">
        <ele>85.3</ele>
        <time>2015-01-19T20:41:13.880Z</time>
      </trkpt>
      <trkpt lat="48.84353" lon="2.27077">
        <ele>85.2</ele>
        <time>2015-01-19T20:41:14.939Z</time>
      </trkpt>
      <trkpt lat="48.84358" lon="2.27084">
        <ele>85.3</ele>
        <time>2015-01-19T20:41:15.866Z</time>
      </trkpt>
      <trkpt lat="48.84364" lon="2.2709">
        <ele>85.3</ele>
        <time>2015-01-19T20:41:16.931Z</time>
      </trkpt>
      <trkpt lat="48.8437" lon="2.27097">
        <ele>85.3</ele>
        <time>2015-01-19T20:41:17.859Z</time>
      </trkpt>
      <trkpt lat="48.84376" lon="2.27103">
        <ele>85.3</ele>
        <time>2015-01-19T20:41:18.878Z</time>
      </trkpt>
      <trkpt lat="48.84382" lon="2.27113">
        <ele>86.1</ele>
        <time>2015-01-19T20:41:19.907Z</time>
      </trkpt>
      <trkpt lat="48.84389" lon="2.27121">
        <ele>86.3</ele>
        <time>2015-01-19T20:41:20.911Z</time>
      </trkpt>
      <trkpt lat="48.84395" lon="2.27126">
        <ele>86.3</ele>
        <time>2015-01-19T20:41:21.920Z</time>
      </trkpt>
      <trkpt lat="48.84401" lon="2.27131">
        <ele>86.3</ele>
        <time>2015-01-19T20:41:22.923Z</time>
      </trkpt>
      <trkpt lat="48.84408" lon="2.27137">
        <ele>86.4</ele>
        <time>2015-01-19T20:41:23.861Z</time>
      </trkpt>
      <trkpt lat="48.84414" lon="2.27145">
        <ele>86.6</ele>
        <time>2015-01-19T20:41:24.875Z</time>
      </trkpt>
      <trkpt lat="48.84445" lon="2.27212">
        <ele>87.4</ele>
        <time>2015-01-19T20:41:33.850Z</time>
      </trkpt>
      <trkpt lat="48.84448" lon="2.27219">
        <ele>87.6</ele>
        <time>2015-01-19T20:41:34.844Z</time>
      </trkpt>
      <trkpt lat="48.84451" lon="2.27225">
        <ele>87.8</ele>
        <time>2015-01-19T20:41:35.839Z</time>
      </trkpt>
      <trkpt lat="48.84453" lon="2.2723">
        <ele>87.8</ele>
        <time>2015-01-19T20:41:36.849Z</time>
      </trkpt>
      <trkpt lat="48.84457" lon="2.27235">
        <ele>87.9</ele>
        <time>2015-01-19T20:41:37.864Z</time>
      </trkpt>
      <trkpt lat="48.8446" lon="2.27241">
        <ele>88</ele>
        <time>2015-01-19T20:41:38.890Z</time>
      </trkpt>
      <trkpt lat="48.84464" lon="2.27244">
        <ele>88.1</ele>
        <time>2015-01-19T20:41:39.900Z</time>
      </trkpt>
      <trkpt lat="48.84468" lon="2.27246">
        <ele>88.3</ele>
        <time>2015-01-19T20:41:40.922Z</time>
      </trkpt>
      <trkpt lat="48.84472" lon="2.2725">
        <ele>88.5</ele>
        <time>2015-01-19T20:41:41.938Z</time>
      </trkpt>
      <trkpt lat="48.8448" lon="2.27257">
        <ele>89.1</ele>
        <time>2015-01-19T20:41:43.849Z</time>
      </trkpt>
      <trkpt lat="48.84484" lon="2.27259">
        <ele>89.3</ele>
        <time>2015-01-19T20:41:44.919Z</time>
      </trkpt>
      <trkpt lat="48.84488" lon="2.27261">
        <ele>89.6</ele>
        <time>2015-01-19T20:41:45.937Z</time>
      </trkpt>
      <trkpt lat="48.84492" lon="2.27263">
        <ele>89.7</ele>
        <time>2015-01-19T20:41:46.834Z</time>
      </trkpt>
      <trkpt lat="48.84497" lon="2.27267">
        <ele>89.7</ele>
        <time>2015-01-19T20:41:47.842Z</time>
      </trkpt>
      <trkpt lat="48.84502" lon="2.27269">
        <ele>89.6</ele>
        <time>2015-01-19T20:41:48.887Z</time>
      </trkpt>
      <trkpt lat="48.84509" lon="2.27268">
        <ele>88.4</ele>
        <time>2015-01-19T20:41:50.696Z</time>
      </trkpt>
      <trkpt lat="48.84514" lon="2.27267">
        <ele>87.4</ele>
        <time>2015-01-19T20:41:50.898Z</time>
      </trkpt>
      <trkpt lat="48.8452" lon="2.27267">
        <ele>87.1</ele>
        <time>2015-01-19T20:41:51.935Z</time>
      </trkpt>
      <trkpt lat="48.84524" lon="2.2727">
        <ele>87.1</ele>
        <time>2015-01-19T20:41:52.949Z</time>
      </trkpt>
      <trkpt lat="48.84531" lon="2.27276">
        <ele>87.2</ele>
        <time>2015-01-19T20:41:54.898Z</time>
      </trkpt>
      <trkpt lat="48.84536" lon="2.27282">
        <ele>88.3</ele>
        <time>2015-01-19T20:41:55.897Z</time>
      </trkpt>
      <trkpt lat="48.8454" lon="2.27287">
        <ele>88.5</ele>
        <time>2015-01-19T20:41:56.925Z</time>
      </trkpt>
      <trkpt lat="48.84543" lon="2.2729">
        <ele>88.7</ele>
        <time>2015-01-19T20:41:57.939Z</time>
      </trkpt>
      <trkpt lat="48.84548" lon="2.27294">
        <ele>89.2</ele>
        <time>2015-01-19T20:41:58.997Z</time>
      </trkpt>
      <trkpt lat="48.84552" lon="2.27298">
        <ele>89.4</ele>
        <time>2015-01-19T20:41:59.893Z</time>
      </trkpt>
      <trkpt lat="48.84557" lon="2.27302">
        <ele>89.4</ele>
        <time>2015-01-19T20:42:00.914Z</time>
      </trkpt>
      <trkpt lat="48.84563" lon="2.27306">
        <ele>89.5</ele>
        <time>2015-01-19T20:42:01.924Z</time>
      </trkpt>
      <trkpt lat="48.84571" lon="2.27309">
        <ele>89</ele>
        <time>2015-01-19T20:42:02.932Z</time>
      </trkpt>
      <trkpt lat="48.84577" lon="2.27313">
        <ele>89.2</ele>
        <time>2015-01-19T20:42:03.837Z</time>
      </trkpt>
      <trkpt lat="48.84581" lon="2.27317">
        <ele>89.4</ele>
        <time>2015-01-19T20:42:04.847Z</time>
      </trkpt>
      <trkpt lat="48.84586" lon="2.27321">
        <ele>89.4</ele>
        <time>2015-01-19T20:42:05.867Z</time>
      </trkpt>
      <trkpt lat="48.84591" lon="2.27325">
        <ele>89.7</ele>
        <time>2015-01-19T20:42:06.870Z</time>
      </trkpt>
      <trkpt lat="48.84596" lon="2.2733">
        <ele>89.7</ele>
        <time>2015-01-19T20:42:07.877Z</time>
      </trkpt>
      <trkpt lat="48.84602" lon="2.27336">
        <ele>89.7</ele>
        <time>2015-01-19T20:42:09.197Z</time>
      </trkpt>
      <trkpt lat="48.84607" lon="2.27339">
        <ele>89.6</ele>
        <time>2015-01-19T20:42:09.920Z</time>
      </trkpt>
      <trkpt lat="48.84613" lon="2.27343">
        <ele>89.9</ele>
        <time>2015-01-19T20:42:10.938Z</time>
      </trkpt>
      <trkpt lat="48.8462" lon="2.27347">
        <ele>90.7</ele>
        <time>2015-01-19T20:42:12.061Z</time>
      </trkpt>
      <trkpt lat="48.84631" lon="2.27352">
        <ele>90.1</ele>
        <time>2015-01-19T20:42:12.868Z</time>
      </trkpt>
      <trkpt lat="48.8464" lon="2.27358">
        <ele>90.3</ele>
        <time>2015-01-19T20:42:13.888Z</time>
      </trkpt>
      <trkpt lat="48.84646" lon="2.27365">
        <ele>90.1</ele>
        <time>2015-01-19T20:42:14.913Z</time>
      </trkpt>
      <trkpt lat="48.8465" lon="2.27372">
        <ele>89.6</ele>
        <time>2015-01-19T20:42:15.976Z</time>
      </trkpt>
      <trkpt lat="48.84656" lon="2.2738">
        <ele>89</ele>
        <time>2015-01-19T20:42:16.861Z</time>
      </trkpt>
      <trkpt lat="48.84661" lon="2.27386">
        <ele>88.7</ele>
        <time>2015-01-19T20:42:17.862Z</time>
      </trkpt>
      <trkpt lat="48.84668" lon="2.27392">
        <ele>88.6</ele>
        <time>2015-01-19T20:42:18.865Z</time>
      </trkpt>
      <trkpt lat="48.84675" lon="2.27398">
        <ele>87.4</ele>
        <time>2015-01-19T20:42:19.869Z</time>
      </trkpt>
      <trkpt lat="48.8468" lon="2.27405">
        <ele>87.2</ele>
        <time>2015-01-19T20:42:20.893Z</time>
      </trkpt>
      <trkpt lat="48.84685" lon="2.27412">
        <ele>87</ele>
        <time>2015-01-19T20:42:21.890Z</time>
      </trkpt>
      <trkpt lat="48.84694" lon="2.27423">
        <ele>86.4</ele>
        <time>2015-01-19T20:42:23.914Z</time>
      </trkpt>
      <trkpt lat="48.84698" lon="2.27428">
        <ele>86.3</ele>
        <time>2015-01-19T20:42:24.956Z</time>
      </trkpt>
      <trkpt lat="48.84702" lon="2.27432">
        <ele>86.3</ele>
        <time>2015-01-19T20:42:25.878Z</time>
      </trkpt>
      <trkpt lat="48.84709" lon="2.27429">
        <ele>85.8</ele>
        <time>2015-01-19T20:42:27.898Z</time>
      </trkpt>
      <trkpt lat="48.8471" lon="2.2743">
        <ele>86.2</ele>
        <time>2015-01-19T20:42:28.961Z</time>
      </trkpt>
      <trkpt lat="48.84709" lon="2.27433">
        <ele>86.1</ele>
        <time>2015-01-19T20:42:32.954Z</time>
      </trkpt>
      <trkpt lat="48.84709" lon="2.27433">
        <ele>86.1</ele>
        <time>2015-01-19T20:42:33.967Z</time>
      </trkpt>
      <trkpt lat="48.84709" lon="2.27434">
        <ele>85.9</ele>
        <time>2015-01-19T20:42:35.867Z</time>
      </trkpt>
      <trkpt lat="48.84709" lon="2.27435">
        <ele>85.9</ele>
        <time>2015-01-19T20:42:36.883Z</time>
      </trkpt>
      <trkpt lat="48.8471" lon="2.27436">
        <ele>85.8</ele>
        <time>2015-01-19T20:42:37.909Z</time>
      </trkpt>
      <trkpt lat="48.8471" lon="2.27436">
        <ele>85.7</ele>
        <time>2015-01-19T20:42:38.918Z</time>
      </trkpt>
      <trkpt lat="48.84709" lon="2.27437">
        <ele>85.6</ele>
        <time>2015-01-19T20:42:39.928Z</time>
      </trkpt>
      <trkpt lat="48.84709" lon="2.27437">
        <ele>85.5</ele>
        <time>2015-01-19T20:42:40.930Z</time>
      </trkpt>
      <trkpt lat="48.8471" lon="2.27438">
        <ele>85.7</ele>
        <time>2015-01-19T20:42:41.950Z</time>
      </trkpt>
      <trkpt lat="48.8471" lon="2.27439">
        <ele>85.9</ele>
        <time>2015-01-19T20:42:42.920Z</time>
      </trkpt>
      <trkpt lat="48.84709" lon="2.27439">
        <ele>85.9</ele>
        <time>2015-01-19T20:42:43.903Z</time>
      </trkpt>
      <trkpt lat="48.8471" lon="2.27439">
        <ele>86.2</ele>
        <time>2015-01-19T20:42:44.906Z</time>
      </trkpt>
      <trkpt lat="48.8471" lon="2.2744">
        <ele>86.4</ele>
        <time>2015-01-19T20:42:45.959Z</time>
      </trkpt>
      <trkpt lat="48.84712" lon="2.27444">
        <ele>87.8</ele>
        <time>2015-01-19T20:42:47.952Z</time>
      </trkpt>
      <trkpt lat="48.84712" lon="2.27444">
        <ele>87.9</ele>
        <time>2015-01-19T20:42:48.979Z</time>
      </trkpt>
      <trkpt lat="48.84712" lon="2.27445">
        <ele>87.9</ele>
        <time>2015-01-19T20:42:49.912Z</time>
      </trkpt>
      <trkpt lat="48.84711" lon="2.27446">
        <ele>87.8</ele>
        <time>2015-01-19T20:42:51.970Z</time>
      </trkpt>
      <trkpt lat="48.84711" lon="2.27447">
        <ele>87.6</ele>
        <time>2015-01-19T20:42:52.929Z</time>
      </trkpt>
      <trkpt lat="48.84711" lon="2.27446">
        <ele>87.4</ele>
        <time>2015-01-19T20:42:56.934Z</time>
      </trkpt>
      <trkpt lat="48.8471" lon="2.27446">
        <ele>87.8</ele>
        <time>2015-01-19T20:42:57.957Z</time>
      </trkpt>
      <trkpt lat="48.84709" lon="2.27457">
        <ele>88.2</ele>
        <time>2015-01-19T20:43:04.892Z</time>
      </trkpt>
      <trkpt lat="48.84709" lon="2.2746">
        <ele>88.1</ele>
        <time>2015-01-19T20:43:05.896Z</time>
      </trkpt>
      <trkpt lat="48.84703" lon="2.27467">
        <ele>88.2</ele>
        <time>2015-01-19T20:43:09.970Z</time>
      </trkpt>
      <trkpt lat="48.84701" lon="2.27471">
        <ele>88.3</ele>
        <time>2015-01-19T20:43:10.878Z</time>
      </trkpt>
      <trkpt lat="48.84696" lon="2.27479">
        <ele>88.1</ele>
        <time>2015-01-19T20:43:12.933Z</time>
      </trkpt>
      <trkpt lat="48.84695" lon="2.27483">
        <ele>88</ele>
        <time>2015-01-19T20:43:13.947Z</time>
      </trkpt>
      <trkpt lat="48.84691" lon="2.27493">
        <ele>87.6</ele>
        <time>2015-01-19T20:43:15.893Z</time>
      </trkpt>
      <trkpt lat="48.84689" lon="2.27498">
        <ele>87.2</ele>
        <time>2015-01-19T20:43:16.895Z</time>
      </trkpt>
      <trkpt lat="48.84684" lon="2.27507">
        <ele>86.8</ele>
        <time>2015-01-19T20:43:18.932Z</time>
      </trkpt>
      <trkpt lat="48.84682" lon="2.27511">
        <ele>86.6</ele>
        <time>2015-01-19T20:43:19.897Z</time>
      </trkpt>
      <trkpt lat="48.84677" lon="2.2752">
        <ele>86.6</ele>
        <time>2015-01-19T20:43:21.944Z</time>
      </trkpt>
      <trkpt lat="48.84675" lon="2.27525">
        <ele>86.6</ele>
        <time>2015-01-19T20:43:22.961Z</time>
      </trkpt>
      <trkpt lat="48.84671" lon="2.27535">
        <ele>86.8</ele>
        <time>2015-01-19T20:43:24.888Z</time>
      </trkpt>
      <trkpt lat="48.84669" lon="2.27539">
        <ele>86.8</ele>
        <time>2015-01-19T20:43:25.894Z</time>
      </trkpt>
      <trkpt lat="48.84666" lon="2.27547">
        <ele>86.8</ele>
        <time>2015-01-19T20:43:27.925Z</time>
      </trkpt>
      <trkpt lat="48.84664" lon="2.27551">
        <ele>86.8</ele>
        <time>2015-01-19T20:43:28.969Z</time>
      </trkpt>
      <trkpt lat="48.8466" lon="2.27559">
        <ele>86.8</ele>
        <time>2015-01-19T20:43:30.884Z</time>
      </trkpt>
      <trkpt lat="48.84658" lon="2.27563">
        <ele>86.9</ele>
        <time>2015-01-19T20:43:31.918Z</time>
      </trkpt>
      <trkpt lat="48.84654" lon="2.27573">
        <ele>86.9</ele>
        <time>2015-01-19T20:43:33.974Z</time>
      </trkpt>
      <trkpt lat="48.84653" lon="2.27579">
        <ele>86.6</ele>
        <time>2015-01-19T20:43:34.892Z</time>
      </trkpt>
      <trkpt lat="48.8465" lon="2.27591">
        <ele>86.1</ele>
        <time>2015-01-19T20:43:36.908Z</time>
      </trkpt>
      <trkpt lat="48.84648" lon="2.27596">
        <ele>86.2</ele>
        <time>2015-01-19T20:43:37.917Z</time>
      </trkpt>
      <trkpt lat="48.84644" lon="2.27607">
        <ele>86</ele>
        <time>2015-01-19T20:43:39.960Z</time>
      </trkpt>
      <trkpt lat="48.84642" lon="2.27612">
        <ele>85.9</ele>
        <time>2015-01-19T20:43:40.971Z</time>
      </trkpt>
      <trkpt lat="48.84638" lon="2.27621">
        <ele>85.7</ele>
        <time>2015-01-19T20:43:42.891Z</time>
      </trkpt>
      <trkpt lat="48.84636" lon="2.27625">
        <ele>85.6</ele>
        <time>2015-01-19T20:43:43.950Z</time>
      </trkpt>
      <trkpt lat="48.84633" lon="2.27634">
        <ele>85.8</ele>
        <time>2015-01-19T20:43:45.878Z</time>
      </trkpt>
      <trkpt lat="48.84631" lon="2.27639">
        <ele>85.7</ele>
        <time>2015-01-19T20:43:46.897Z</time>
      </trkpt>
      <trkpt lat="48.84628" lon="2.27649">
        <ele>85.6</ele>
        <time>2015-01-19T20:43:48.904Z</time>
      </trkpt>
      <trkpt lat="48.84627" lon="2.27654">
        <ele>85.6</ele>
        <time>2015-01-19T20:43:49.942Z</time>
      </trkpt>
      <trkpt lat="48.84623" lon="2.27662">
        <ele>85.6</ele>
        <time>2015-01-19T20:43:51.965Z</time>
      </trkpt>
      <trkpt lat="48.84622" lon="2.27666">
        <ele>85.7</ele>
        <time>2015-01-19T20:43:52.879Z</time>
      </trkpt>
      <trkpt lat="48.84616" lon="2.27676">
        <ele>86.3</ele>
        <time>2015-01-19T20:43:56.942Z</time>
      </trkpt>
      <trkpt lat="48.84615" lon="2.27677">
        <ele>86.4</ele>
        <time>2015-01-19T20:43:57.979Z</time>
      </trkpt>
      <trkpt lat="48.84614" lon="2.27678">
        <ele>86.5</ele>
        <time>2015-01-19T20:43:59.877Z</time>
      </trkpt>
      <trkpt lat="48.84614" lon="2.27678">
        <ele>86.6</ele>
        <time>2015-01-19T20:44:00.891Z</time>
      </trkpt>
      <trkpt lat="48.84614" lon="2.27678">
        <ele>86.5</ele>
        <time>2015-01-19T20:44:01.905Z</time>
      </trkpt>
      <trkpt lat="48.84612" lon="2.27687">
        <ele>85.9</ele>
        <time>2015-01-19T20:44:08.933Z</time>
      </trkpt>
      <trkpt lat="48.8461" lon="2.27691">
        <ele>85.8</ele>
        <time>2015-01-19T20:44:09.950Z</time>
      </trkpt>
      <trkpt lat="48.84605" lon="2.27701">
        <ele>85.7</ele>
        <time>2015-01-19T20:44:12.929Z</time>
      </trkpt>
      <trkpt lat="48.84604" lon="2.27704">
        <ele>85.7</ele>
        <time>2015-01-19T20:44:13.902Z</time>
      </trkpt>
      <trkpt lat="48.84603" lon="2.27715">
        <ele>85.8</ele>
        <time>2015-01-19T20:44:16.934Z</time>
      </trkpt>
      <trkpt lat="48.84603" lon="2.27719">
        <ele>86</ele>
        <time>2015-01-19T20:44:18.038Z</time>
      </trkpt>
      <trkpt lat="48.84604" lon="2.2773">
        <ele>86.6</ele>
        <time>2015-01-19T20:44:20.924Z</time>
      </trkpt>
      <trkpt lat="48.84606" lon="2.27733">
        <ele>86.7</ele>
        <time>2015-01-19T20:44:21.927Z</time>
      </trkpt>
      <trkpt lat="48.84611" lon="2.27741">
        <ele>86.7</ele>
        <time>2015-01-19T20:44:23.939Z</time>
      </trkpt>
      <trkpt lat="48.84613" lon="2.27745">
        <ele>86.6</ele>
        <time>2015-01-19T20:44:24.945Z</time>
      </trkpt>
      <trkpt lat="48.84616" lon="2.27753">
        <ele>86.6</ele>
        <time>2015-01-19T20:44:25.968Z</time>
      </trkpt>
      <trkpt lat="48.84617" lon="2.27759">
        <ele>86.8</ele>
        <time>2015-01-19T20:44:26.970Z</time>
      </trkpt>
      <trkpt lat="48.84618" lon="2.2777">
        <ele>86.5</ele>
        <time>2015-01-19T20:44:28.925Z</time>
      </trkpt>
      <trkpt lat="48.84618" lon="2.27777">
        <ele>86</ele>
        <time>2015-01-19T20:44:29.987Z</time>
      </trkpt>
      <trkpt lat="48.84618" lon="2.2779">
        <ele>85.7</ele>
        <time>2015-01-19T20:44:31.878Z</time>
      </trkpt>
      <trkpt lat="48.84618" lon="2.27797">
        <ele>85.4</ele>
        <time>2015-01-19T20:44:32.960Z</time>
      </trkpt>
      <trkpt lat="48.84618" lon="2.27804">
        <ele>85.1</ele>
        <time>2015-01-19T20:44:33.967Z</time>
      </trkpt>
      <trkpt lat="48.84619" lon="2.27811">
        <ele>84.8</ele>
        <time>2015-01-19T20:44:34.883Z</time>
      </trkpt>
      <trkpt lat="48.8462" lon="2.27818">
        <ele>84.6</ele>
        <time>2015-01-19T20:44:35.910Z</time>
      </trkpt>
      <trkpt lat="48.84621" lon="2.27824">
        <ele>84.4</ele>
        <time>2015-01-19T20:44:36.911Z</time>
      </trkpt>
      <trkpt lat="48.84622" lon="2.27831">
        <ele>84.7</ele>
        <time>2015-01-19T20:44:37.912Z</time>
      </trkpt>
      <trkpt lat="48.84622" lon="2.27838">
        <ele>84.6</ele>
        <time>2015-01-19T20:44:38.925Z</time>
      </trkpt>
      <trkpt lat="48.84624" lon="2.27851">
        <ele>85</ele>
        <time>2015-01-19T20:44:40.947Z</time>
      </trkpt>
      <trkpt lat="48.84626" lon="2.27859">
        <ele>85.4</ele>
        <time>2015-01-19T20:44:41.957Z</time>
      </trkpt>
      <trkpt lat="48.84629" lon="2.27867">
        <ele>85.9</ele>
        <time>2015-01-19T20:44:42.966Z</time>
      </trkpt>
      <trkpt lat="48.84632" lon="2.27875">
        <ele>86.2</ele>
        <time>2015-01-19T20:44:44.060Z</time>
      </trkpt>
      <trkpt lat="48.84635" lon="2.27882">
        <ele>86.9</ele>
        <time>2015-01-19T20:44:44.928Z</time>
      </trkpt>
      <trkpt lat="48.84637" lon="2.27889">
        <ele>87.3</ele>
        <time>2015-01-19T20:44:45.930Z</time>
      </trkpt>
      <trkpt lat="48.84638" lon="2.27896">
        <ele>87.6</ele>
        <time>2015-01-19T20:44:46.939Z</time>
      </trkpt>
      <trkpt lat="48.84639" lon="2.27903">
        <ele>87.7</ele>
        <time>2015-01-19T20:44:47.972Z</time>
      </trkpt>
      <trkpt lat="48.84641" lon="2.27916">
        <ele>87.6</ele>
        <time>2015-01-19T20:44:49.887Z</time>
      </trkpt>
      <trkpt lat="48.84642" lon="2.27923">
        <ele>87.8</ele>
        <time>2015-01-19T20:44:50.936Z</time>
      </trkpt>
      <trkpt lat="48.84644" lon="2.2793">
        <ele>88</ele>
        <time>2015-01-19T20:44:51.891Z</time>
      </trkpt>
      <trkpt lat="48.84646" lon="2.27938">
        <ele>88.2</ele>
        <time>2015-01-19T20:44:52.896Z</time>
      </trkpt>
      <trkpt lat="48.8465" lon="2.27945">
        <ele>89</ele>
        <time>2015-01-19T20:44:53.929Z</time>
      </trkpt>
      <trkpt lat="48.84654" lon="2.27952">
        <ele>89.9</ele>
        <time>2015-01-19T20:44:54.941Z</time>
      </trkpt>
      <trkpt lat="48.84658" lon="2.2796">
        <ele>90.7</ele>
        <time>2015-01-19T20:44:55.959Z</time>
      </trkpt>
      <trkpt lat="48.8466" lon="2.27967">
        <ele>91.1</ele>
        <time>2015-01-19T20:44:56.999Z</time>
      </trkpt>
      <trkpt lat="48.84662" lon="2.27979">
        <ele>89.6</ele>
        <time>2015-01-19T20:44:58.878Z</time>
      </trkpt>
      <trkpt lat="48.84664" lon="2.27985">
        <ele>89.6</ele>
        <time>2015-01-19T20:44:59.893Z</time>
      </trkpt>
      <trkpt lat="48.84667" lon="2.27991">
        <ele>89.7</ele>
        <time>2015-01-19T20:45:00.930Z</time>
      </trkpt>
      <trkpt lat="48.8467" lon="2.27997">
        <ele>89.6</ele>
        <time>2015-01-19T20:45:01.940Z</time>
      </trkpt>
      <trkpt lat="48.84673" lon="2.28003">
        <ele>89.6</ele>
        <time>2015-01-19T20:45:02.963Z</time>
      </trkpt>
      <trkpt lat="48.84675" lon="2.2801">
        <ele>89.6</ele>
        <time>2015-01-19T20:45:03.867Z</time>
      </trkpt>
      <trkpt lat="48.84677" lon="2.28016">
        <ele>89.5</ele>
        <time>2015-01-19T20:45:04.886Z</time>
      </trkpt>
      <trkpt lat="48.84681" lon="2.28021">
        <ele>89.5</ele>
        <time>2015-01-19T20:45:05.947Z</time>
      </trkpt>
      <trkpt lat="48.84684" lon="2.28026">
        <ele>89.4</ele>
        <time>2015-01-19T20:45:06.870Z</time>
      </trkpt>
      <trkpt lat="48.84688" lon="2.28032">
        <ele>89.4</ele>
        <time>2015-01-19T20:45:07.918Z</time>
      </trkpt>
      <trkpt lat="48.84692" lon="2.28037">
        <ele>89.4</ele>
        <time>2015-01-19T20:45:08.941Z</time>
      </trkpt>
      <trkpt lat="48.84697" lon="2.28042">
        <ele>89.7</ele>
        <time>2015-01-19T20:45:09.945Z</time>
      </trkpt>
      <trkpt lat="48.847" lon="2.28049">
        <ele>90.2</ele>
        <time>2015-01-19T20:45:10.962Z</time>
      </trkpt>
      <trkpt lat="48.84701" lon="2.28056">
        <ele>90.8</ele>
        <time>2015-01-19T20:45:11.876Z</time>
      </trkpt>
      <trkpt lat="48.847" lon="2.28064">
        <ele>91.5</ele>
        <time>2015-01-19T20:45:12.902Z</time>
      </trkpt>
      <trkpt lat="48.84697" lon="2.28073">
        <ele>91.9</ele>
        <time>2015-01-19T20:45:14.005Z</time>
      </trkpt>
      <trkpt lat="48.84692" lon="2.28081">
        <ele>92.7</ele>
        <time>2015-01-19T20:45:14.906Z</time>
      </trkpt>
      <trkpt lat="48.84692" lon="2.28088">
        <ele>93.1</ele>
        <time>2015-01-19T20:45:15.903Z</time>
      </trkpt>
      <trkpt lat="48.84692" lon="2.281">
        <ele>93.7</ele>
        <time>2015-01-19T20:45:17.930Z</time>
      </trkpt>
      <trkpt lat="48.84692" lon="2.28107">
        <ele>94.1</ele>
        <time>2015-01-19T20:45:18.881Z</time>
      </trkpt>
      <trkpt lat="48.84691" lon="2.28113">
        <ele>94.5</ele>
        <time>2015-01-19T20:45:19.903Z</time>
      </trkpt>
      <trkpt lat="48.84691" lon="2.2812">
        <ele>94.9</ele>
        <time>2015-01-19T20:45:20.902Z</time>
      </trkpt>
      <trkpt lat="48.84688" lon="2.28132">
        <ele>95.2</ele>
        <time>2015-01-19T20:45:23.023Z</time>
      </trkpt>
      <trkpt lat="48.84687" lon="2.28138">
        <ele>95.2</ele>
        <time>2015-01-19T20:45:23.883Z</time>
      </trkpt>
      <trkpt lat="48.84686" lon="2.28149">
        <ele>95.3</ele>
        <time>2015-01-19T20:45:25.932Z</time>
      </trkpt>
      <trkpt lat="48.84686" lon="2.28155">
        <ele>95.5</ele>
        <time>2015-01-19T20:45:26.944Z</time>
      </trkpt>
      <trkpt lat="48.84685" lon="2.28166">
        <ele>95.9</ele>
        <time>2015-01-19T20:45:28.880Z</time>
      </trkpt>
      <trkpt lat="48.84683" lon="2.28172">
        <ele>96.2</ele>
        <time>2015-01-19T20:45:29.890Z</time>
      </trkpt>
      <trkpt lat="48.84682" lon="2.28178">
        <ele>96.5</ele>
        <time>2015-01-19T20:45:30.917Z</time>
      </trkpt>
      <trkpt lat="48.84679" lon="2.28187">
        <ele>96.2</ele>
        <time>2015-01-19T20:45:31.922Z</time>
      </trkpt>
      <trkpt lat="48.84673" lon="2.28198">
        <ele>95.2</ele>
        <time>2015-01-19T20:45:32.938Z</time>
      </trkpt>
      <trkpt lat="48.84668" lon="2.28209">
        <ele>94.2</ele>
        <time>2015-01-19T20:45:33.861Z</time>
      </trkpt>
      <trkpt lat="48.84665" lon="2.2822">
        <ele>93.8</ele>
        <time>2015-01-19T20:45:34.854Z</time>
      </trkpt>
      <trkpt lat="48.84662" lon="2.28232">
        <ele>93.4</ele>
        <time>2015-01-19T20:45:35.869Z</time>
      </trkpt>
      <trkpt lat="48.84659" lon="2.28241">
        <ele>93</ele>
        <time>2015-01-19T20:45:36.882Z</time>
      </trkpt>
      <trkpt lat="48.84657" lon="2.2825">
        <ele>92.6</ele>
        <time>2015-01-19T20:45:37.895Z</time>
      </trkpt>
      <trkpt lat="48.84656" lon="2.28257">
        <ele>92.2</ele>
        <time>2015-01-19T20:45:38.938Z</time>
      </trkpt>
      <trkpt lat="48.84655" lon="2.28264">
        <ele>91.7</ele>
        <time>2015-01-19T20:45:39.859Z</time>
      </trkpt>
      <trkpt lat="48.84655" lon="2.28271">
        <ele>91.4</ele>
        <time>2015-01-19T20:45:40.872Z</time>
      </trkpt>
      <trkpt lat="48.84653" lon="2.28283">
        <ele>91.8</ele>
        <time>2015-01-19T20:45:42.892Z</time>
      </trkpt>
      <trkpt lat="48.84654" lon="2.28289">
        <ele>91.9</ele>
        <time>2015-01-19T20:45:43.913Z</time>
      </trkpt>
      <trkpt lat="48.84654" lon="2.28299">
        <ele>92.3</ele>
        <time>2015-01-19T20:45:45.942Z</time>
      </trkpt>
      <trkpt lat="48.84653" lon="2.28305">
        <ele>92.6</ele>
        <time>2015-01-19T20:45:46.955Z</time>
      </trkpt>
      <trkpt lat="48.84651" lon="2.28317">
        <ele>93.1</ele>
        <time>2015-01-19T20:45:48.866Z</time>
      </trkpt>
      <trkpt lat="48.8465" lon="2.28324">
        <ele>93.2</ele>
        <time>2015-01-19T20:45:49.881Z</time>
      </trkpt>
      <trkpt lat="48.84648" lon="2.28331">
        <ele>93.4</ele>
        <time>2015-01-19T20:45:50.918Z</time>
      </trkpt>
      <trkpt lat="48.84646" lon="2.28337">
        <ele>93.4</ele>
        <time>2015-01-19T20:45:51.923Z</time>
      </trkpt>
      <trkpt lat="48.84645" lon="2.28344">
        <ele>93.2</ele>
        <time>2015-01-19T20:45:52.944Z</time>
      </trkpt>
      <trkpt lat="48.84643" lon="2.28353">
        <ele>92.6</ele>
        <time>2015-01-19T20:45:53.859Z</time>
      </trkpt>
      <trkpt lat="48.84641" lon="2.2836">
        <ele>92.5</ele>
        <time>2015-01-19T20:45:54.870Z</time>
      </trkpt>
      <trkpt lat="48.84639" lon="2.28368">
        <ele>92.4</ele>
        <time>2015-01-19T20:45:55.902Z</time>
      </trkpt>
      <trkpt lat="48.84637" lon="2.28375">
        <ele>92.4</ele>
        <time>2015-01-19T20:45:56.922Z</time>
      </trkpt>
      <trkpt lat="48.84636" lon="2.28382">
        <ele>92.4</ele>
        <time>2015-01-19T20:45:57.934Z</time>
      </trkpt>
      <trkpt lat="48.84634" lon="2.28389">
        <ele>92.5</ele>
        <time>2015-01-19T20:45:58.947Z</time>
      </trkpt>
      <trkpt lat="48.84633" lon="2.28397">
        <ele>92.6</ele>
        <time>2015-01-19T20:45:59.976Z</time>
      </trkpt>
      <trkpt lat="48.84633" lon="2.28405">
        <ele>92.8</ele>
        <time>2015-01-19T20:46:00.866Z</time>
      </trkpt>
      <trkpt lat="48.84635" lon="2.28416">
        <ele>93.9</ele>
        <time>2015-01-19T20:46:01.864Z</time>
      </trkpt>
      <trkpt lat="48.84635" lon="2.28424">
        <ele>94.2</ele>
        <time>2015-01-19T20:46:02.942Z</time>
      </trkpt>
      <trkpt lat="48.84637" lon="2.28435">
        <ele>94</ele>
        <time>2015-01-19T20:46:03.954Z</time>
      </trkpt>
      <trkpt lat="48.84641" lon="2.28446">
        <ele>93.5</ele>
        <time>2015-01-19T20:46:04.875Z</time>
      </trkpt>
      <trkpt lat="48.84642" lon="2.28457">
        <ele>93.1</ele>
        <time>2015-01-19T20:46:05.886Z</time>
      </trkpt>
      <trkpt lat="48.84644" lon="2.28466">
        <ele>92.6</ele>
        <time>2015-01-19T20:46:06.935Z</time>
      </trkpt>
      <trkpt lat="48.84645" lon="2.28475">
        <ele>92.3</ele>
        <time>2015-01-19T20:46:07.885Z</time>
      </trkpt>
      <trkpt lat="48.84646" lon="2.28482">
        <ele>91.9</ele>
        <time>2015-01-19T20:46:08.937Z</time>
      </trkpt>
      <trkpt lat="48.84649" lon="2.28489">
        <ele>91.7</ele>
        <time>2015-01-19T20:46:09.947Z</time>
      </trkpt>
      <trkpt lat="48.8465" lon="2.28495">
        <ele>91.3</ele>
        <time>2015-01-19T20:46:10.867Z</time>
      </trkpt>
      <trkpt lat="48.84651" lon="2.28502">
        <ele>91.1</ele>
        <time>2015-01-19T20:46:11.862Z</time>
      </trkpt>
      <trkpt lat="48.84652" lon="2.28515">
        <ele>90.8</ele>
        <time>2015-01-19T20:46:13.886Z</time>
      </trkpt>
      <trkpt lat="48.84653" lon="2.28522">
        <ele>90.7</ele>
        <time>2015-01-19T20:46:14.903Z</time>
      </trkpt>
      <trkpt lat="48.84655" lon="2.28535">
        <ele>90.7</ele>
        <time>2015-01-19T20:46:16.929Z</time>
      </trkpt>
      <trkpt lat="48.84656" lon="2.28542">
        <ele>90.8</ele>
        <time>2015-01-19T20:46:17.938Z</time>
      </trkpt>
      <trkpt lat="48.84659" lon="2.28551">
        <ele>90.6</ele>
        <time>2015-01-19T20:46:19.875Z</time>
      </trkpt>
      <trkpt lat="48.84661" lon="2.28554">
        <ele>90.4</ele>
        <time>2015-01-19T20:46:20.916Z</time>
      </trkpt>
      <trkpt lat="48.84667" lon="2.2856">
        <ele>90.4</ele>
        <time>2015-01-19T20:46:22.955Z</time>
      </trkpt>
      <trkpt lat="48.84672" lon="2.28562">
        <ele>90.1</ele>
        <time>2015-01-19T20:46:23.892Z</time>
      </trkpt>
      <trkpt lat="48.84678" lon="2.28568">
        <ele>90.3</ele>
        <time>2015-01-19T20:46:25.929Z</time>
      </trkpt>
      <trkpt lat="48.84682" lon="2.28571">
        <ele>90.4</ele>
        <time>2015-01-19T20:46:26.946Z</time>
      </trkpt>
      <trkpt lat="48.84688" lon="2.28575">
        <ele>90.2</ele>
        <time>2015-01-19T20:46:28.882Z</time>
      </trkpt>
      <trkpt lat="48.84692" lon="2.28577">
        <ele>90.6</ele>
        <time>2015-01-19T20:46:29.942Z</time>
      </trkpt>
      <trkpt lat="48.847" lon="2.28582">
        <ele>91.5</ele>
        <time>2015-01-19T20:46:31.875Z</time>
      </trkpt>
      <trkpt lat="48.84702" lon="2.28585">
        <ele>91.5</ele>
        <time>2015-01-19T20:46:32.950Z</time>
      </trkpt>
      <trkpt lat="48.84708" lon="2.2859">
        <ele>91.8</ele>
        <time>2015-01-19T20:46:34.880Z</time>
      </trkpt>
      <trkpt lat="48.8471" lon="2.28594">
        <ele>91.7</ele>
        <time>2015-01-19T20:46:35.883Z</time>
      </trkpt>
      <trkpt lat="48.84714" lon="2.28603">
        <ele>91.7</ele>
        <time>2015-01-19T20:46:37.846Z</time>
      </trkpt>
      <trkpt lat="48.84716" lon="2.28606">
        <ele>91.8</ele>
        <time>2015-01-19T20:46:38.861Z</time>
      </trkpt>
      <trkpt lat="48.84719" lon="2.28615">
        <ele>92</ele>
        <time>2015-01-19T20:46:40.847Z</time>
      </trkpt>
      <trkpt lat="48.84722" lon="2.28619">
        <ele>92.4</ele>
        <time>2015-01-19T20:46:41.861Z</time>
      </trkpt>
      <trkpt lat="48.8473" lon="2.28624">
        <ele>92.3</ele>
        <time>2015-01-19T20:46:43.908Z</time>
      </trkpt>
      <trkpt lat="48.84733" lon="2.28627">
        <ele>92.2</ele>
        <time>2015-01-19T20:46:44.916Z</time>
      </trkpt>
      <trkpt lat="48.84735" lon="2.28629">
        <ele>92.1</ele>
        <time>2015-01-19T20:46:45.943Z</time>
      </trkpt>
      <trkpt lat="48.84794" lon="2.28674">
        <ele>89.5</ele>
        <time>2015-01-19T20:46:58.867Z</time>
      </trkpt>
      <trkpt lat="48.84798" lon="2.28677">
        <ele>89.5</ele>
        <time>2015-01-19T20:46:59.893Z</time>
      </trkpt>
      <trkpt lat="48.84804" lon="2.28678">
        <ele>89.4</ele>
        <time>2015-01-19T20:47:00.908Z</time>
      </trkpt>
      <trkpt lat="48.8481" lon="2.28679">
        <ele>89.3</ele>
        <time>2015-01-19T20:47:01.913Z</time>
      </trkpt>
      <trkpt lat="48.84814" lon="2.28684">
        <ele>89.3</ele>
        <time>2015-01-19T20:47:02.922Z</time>
      </trkpt>
      <trkpt lat="48.84834" lon="2.28709">
        <ele>88.8</ele>
        <time>2015-01-19T20:47:06.884Z</time>
      </trkpt>
      <trkpt lat="48.84839" lon="2.28714">
        <ele>88.8</ele>
        <time>2015-01-19T20:47:07.986Z</time>
      </trkpt>
      <trkpt lat="48.84844" lon="2.28719">
        <ele>88.8</ele>
        <time>2015-01-19T20:47:08.875Z</time>
      </trkpt>
      <trkpt lat="48.84848" lon="2.28724">
        <ele>88.7</ele>
        <time>2015-01-19T20:47:09.874Z</time>
      </trkpt>
      <trkpt lat="48.84853" lon="2.28729">
        <ele>88.9</ele>
        <time>2015-01-19T20:47:10.881Z</time>
      </trkpt>
      <trkpt lat="48.84857" lon="2.28733">
        <ele>88.8</ele>
        <time>2015-01-19T20:47:11.942Z</time>
      </trkpt>
      <trkpt lat="48.84861" lon="2.28738">
        <ele>88.7</ele>
        <time>2015-01-19T20:47:12.850Z</time>
      </trkpt>
      <trkpt lat="48.84866" lon="2.28742">
        <ele>88.8</ele>
        <time>2015-01-19T20:47:13.911Z</time>
      </trkpt>
      <trkpt lat="48.8487" lon="2.28747">
        <ele>88.8</ele>
        <time>2015-01-19T20:47:14.940Z</time>
      </trkpt>
      <trkpt lat="48.84875" lon="2.28752">
        <ele>88.6</ele>
        <time>2015-01-19T20:47:15.855Z</time>
      </trkpt>
      <trkpt lat="48.8488" lon="2.28756">
        <ele>88.5</ele>
        <time>2015-01-19T20:47:16.860Z</time>
      </trkpt>
      <trkpt lat="48.84888" lon="2.28762">
        <ele>88.5</ele>
        <time>2015-01-19T20:47:18.953Z</time>
      </trkpt>
      <trkpt lat="48.84891" lon="2.28764">
        <ele>88.7</ele>
        <time>2015-01-19T20:47:19.863Z</time>
      </trkpt>
      <trkpt lat="48.849" lon="2.28768">
        <ele>89</ele>
        <time>2015-01-19T20:47:22.038Z</time>
      </trkpt>
      <trkpt lat="48.84905" lon="2.28768">
        <ele>89.1</ele>
        <time>2015-01-19T20:47:22.904Z</time>
      </trkpt>
      <trkpt lat="48.84908" lon="2.28771">
        <ele>89.3</ele>
        <time>2015-01-19T20:47:23.856Z</time>
      </trkpt>
      <trkpt lat="48.84912" lon="2.28776">
        <ele>89.3</ele>
        <time>2015-01-19T20:47:24.859Z</time>
      </trkpt>
      <trkpt lat="48.84916" lon="2.2878">
        <ele>89.5</ele>
        <time>2015-01-19T20:47:25.868Z</time>
      </trkpt>
      <trkpt lat="48.84921" lon="2.28783">
        <ele>89.7</ele>
        <time>2015-01-19T20:47:26.879Z</time>
      </trkpt>
      <trkpt lat="48.84926" lon="2.28787">
        <ele>89.9</ele>
        <time>2015-01-19T20:47:27.886Z</time>
      </trkpt>
      <trkpt lat="48.8493" lon="2.28791">
        <ele>90</ele>
        <time>2015-01-19T20:47:28.890Z</time>
      </trkpt>
      <trkpt lat="48.84935" lon="2.28795">
        <ele>90.1</ele>
        <time>2015-01-19T20:47:29.920Z</time>
      </trkpt>
      <trkpt lat="48.84939" lon="2.288">
        <ele>90.3</ele>
        <time>2015-01-19T20:47:30.924Z</time>
      </trkpt>
      <trkpt lat="48.84944" lon="2.28805">
        <ele>90.4</ele>
        <time>2015-01-19T20:47:32.438Z</time>
      </trkpt>
      <trkpt lat="48.84948" lon="2.2881">
        <ele>90.5</ele>
        <time>2015-01-19T20:47:32.964Z</time>
      </trkpt>
      <trkpt lat="48.84952" lon="2.28814">
        <ele>90.5</ele>
        <time>2015-01-19T20:47:34.794Z</time>
      </trkpt>
      <trkpt lat="48.84955" lon="2.28818">
        <ele>90.5</ele>
        <time>2015-01-19T20:47:34.838Z</time>
      </trkpt>
      <trkpt lat="48.84959" lon="2.28823">
        <ele>90.4</ele>
        <time>2015-01-19T20:47:35.861Z</time>
      </trkpt>
      <trkpt lat="48.84962" lon="2.28828">
        <ele>90.3</ele>
        <time>2015-01-19T20:47:36.853Z</time>
      </trkpt>
      <trkpt lat="48.84966" lon="2.28833">
        <ele>90.2</ele>
        <time>2015-01-19T20:47:37.924Z</time>
      </trkpt>
      <trkpt lat="48.8497" lon="2.28838">
        <ele>90.2</ele>
        <time>2015-01-19T20:47:38.946Z</time>
      </trkpt>
      <trkpt lat="48.84975" lon="2.28842">
        <ele>90.1</ele>
        <time>2015-01-19T20:47:39.850Z</time>
      </trkpt>
      <trkpt lat="48.84979" lon="2.28846">
        <ele>90</ele>
        <time>2015-01-19T20:47:40.858Z</time>
      </trkpt>
      <trkpt lat="48.84984" lon="2.28846">
        <ele>89.8</ele>
        <time>2015-01-19T20:47:41.872Z</time>
      </trkpt>
      <trkpt lat="48.84989" lon="2.28849">
        <ele>89.8</ele>
        <time>2015-01-19T20:47:42.881Z</time>
      </trkpt>
      <trkpt lat="48.84994" lon="2.28854">
        <ele>89.9</ele>
        <time>2015-01-19T20:47:43.888Z</time>
      </trkpt>
      <trkpt lat="48.85" lon="2.28859">
        <ele>90.1</ele>
        <time>2015-01-19T20:47:44.914Z</time>
      </trkpt>
      <trkpt lat="48.85006" lon="2.28861">
        <ele>91.2</ele>
        <time>2015-01-19T20:47:45.927Z</time>
      </trkpt>
      <trkpt lat="48.85011" lon="2.28867">
        <ele>91.2</ele>
        <time>2015-01-19T20:47:46.933Z</time>
      </trkpt>
      <trkpt lat="48.85017" lon="2.28871">
        <ele>91</ele>
        <time>2015-01-19T20:47:47.945Z</time>
      </trkpt>
      <trkpt lat="48.85024" lon="2.28874">
        <ele>90.8</ele>
        <time>2015-01-19T20:47:48.948Z</time>
      </trkpt>
      <trkpt lat="48.8503" lon="2.28878">
        <ele>91.1</ele>
        <time>2015-01-19T20:47:49.866Z</time>
      </trkpt>
      <trkpt lat="48.85036" lon="2.28882">
        <ele>91.2</ele>
        <time>2015-01-19T20:47:50.899Z</time>
      </trkpt>
      <trkpt lat="48.85042" lon="2.28887">
        <ele>91.2</ele>
        <time>2015-01-19T20:47:51.911Z</time>
      </trkpt>
      <trkpt lat="48.85048" lon="2.28891">
        <ele>91</ele>
        <time>2015-01-19T20:47:52.915Z</time>
      </trkpt>
      <trkpt lat="48.85088" lon="2.28926">
        <ele>89.9</ele>
        <time>2015-01-19T20:47:59.878Z</time>
      </trkpt>
      <trkpt lat="48.85096" lon="2.28931">
        <ele>89.5</ele>
        <time>2015-01-19T20:48:00.922Z</time>
      </trkpt>
      <trkpt lat="48.85114" lon="2.28949">
        <ele>89.1</ele>
        <time>2015-01-19T20:48:03.870Z</time>
      </trkpt>
      <trkpt lat="48.85121" lon="2.28953">
        <ele>88.8</ele>
        <time>2015-01-19T20:48:04.968Z</time>
      </trkpt>
      <trkpt lat="48.85126" lon="2.28959">
        <ele>88.5</ele>
        <time>2015-01-19T20:48:05.862Z</time>
      </trkpt>
      <trkpt lat="48.85131" lon="2.28966">
        <ele>88.3</ele>
        <time>2015-01-19T20:48:06.868Z</time>
      </trkpt>
      <trkpt lat="48.85138" lon="2.28969">
        <ele>88.1</ele>
        <time>2015-01-19T20:48:07.877Z</time>
      </trkpt>
      <trkpt lat="48.85142" lon="2.28975">
        <ele>88.2</ele>
        <time>2015-01-19T20:48:08.898Z</time>
      </trkpt>
      <trkpt lat="48.85147" lon="2.28983">
        <ele>88.3</ele>
        <time>2015-01-19T20:48:09.902Z</time>
      </trkpt>
      <trkpt lat="48.8515" lon="2.2899">
        <ele>88.5</ele>
        <time>2015-01-19T20:48:10.931Z</time>
      </trkpt>
      <trkpt lat="48.85155" lon="2.28994">
        <ele>88.8</ele>
        <time>2015-01-19T20:48:11.898Z</time>
      </trkpt>
      <trkpt lat="48.85163" lon="2.28993">
        <ele>88.9</ele>
        <time>2015-01-19T20:48:12.850Z</time>
      </trkpt>
      <trkpt lat="48.85169" lon="2.28995">
        <ele>89.1</ele>
        <time>2015-01-19T20:48:13.876Z</time>
      </trkpt>
      <trkpt lat="48.85174" lon="2.28999">
        <ele>89.3</ele>
        <time>2015-01-19T20:48:14.900Z</time>
      </trkpt>
      <trkpt lat="48.85181" lon="2.29006">
        <ele>90.4</ele>
        <time>2015-01-19T20:48:15.945Z</time>
      </trkpt>
      <trkpt lat="48.85188" lon="2.29011">
        <ele>91.1</ele>
        <time>2015-01-19T20:48:16.865Z</time>
      </trkpt>
      <trkpt lat="48.85195" lon="2.29016">
        <ele>91.7</ele>
        <time>2015-01-19T20:48:17.921Z</time>
      </trkpt>
      <trkpt lat="48.852" lon="2.29022">
        <ele>91.8</ele>
        <time>2015-01-19T20:48:18.891Z</time>
      </trkpt>
      <trkpt lat="48.85205" lon="2.29026">
        <ele>92.1</ele>
        <time>2015-01-19T20:48:19.904Z</time>
      </trkpt>
      <trkpt lat="48.8521" lon="2.2903">
        <ele>91.9</ele>
        <time>2015-01-19T20:48:20.973Z</time>
      </trkpt>
      <trkpt lat="48.85214" lon="2.29034">
        <ele>91.8</ele>
        <time>2015-01-19T20:48:21.850Z</time>
      </trkpt>
      <trkpt lat="48.85221" lon="2.29041">
        <ele>91.9</ele>
        <time>2015-01-19T20:48:23.907Z</time>
      </trkpt>
      <trkpt lat="48.85224" lon="2.29044">
        <ele>92</ele>
        <time>2015-01-19T20:48:24.924Z</time>
      </trkpt>
      <trkpt lat="48.85231" lon="2.2905">
        <ele>92.6</ele>
        <time>2015-01-19T20:48:26.974Z</time>
      </trkpt>
      <trkpt lat="48.85234" lon="2.29053">
        <ele>92.7</ele>
        <time>2015-01-19T20:48:27.871Z</time>
      </trkpt>
      <trkpt lat="48.85241" lon="2.2906">
        <ele>94.4</ele>
        <time>2015-01-19T20:48:34.867Z</time>
      </trkpt>
      <trkpt lat="48.85242" lon="2.29059">
        <ele>94.6</ele>
        <time>2015-01-19T20:48:35.870Z</time>
      </trkpt>
      <trkpt lat="48.85243" lon="2.29058">
        <ele>95.1</ele>
        <time>2015-01-19T20:48:37.923Z</time>
      </trkpt>
      <trkpt lat="48.85243" lon="2.29058">
        <ele>95.3</ele>
        <time>2015-01-19T20:48:38.930Z</time>
      </trkpt>
      <trkpt lat="48.85243" lon="2.29058">
        <ele>95.8</ele>
        <time>2015-01-19T20:48:49.908Z</time>
      </trkpt>
      <trkpt lat="48.85245" lon="2.29059">
        <ele>97.9</ele>
        <time>2015-01-19T20:48:50.939Z</time>
      </trkpt>
      <trkpt lat="48.85252" lon="2.29055">
        <ele>99.7</ele>
        <time>2015-01-19T20:48:55.864Z</time>
      </trkpt>
      <trkpt lat="48.85255" lon="2.29051">
        <ele>100.4</ele>
        <time>2015-01-19T20:48:56.879Z</time>
      </trkpt>
      <trkpt lat="48.8525" lon="2.29055">
        <ele>102.4</ele>
        <time>2015-01-19T20:49:04.832Z</time>
      </trkpt>
      <trkpt lat="48.85247" lon="2.29058">
        <ele>101.2</ele>
        <time>2015-01-19T20:49:05.867Z</time>
      </trkpt>
      <trkpt lat="48.8524" lon="2.29065">
        <ele>99</ele>
        <time>2015-01-19T20:49:08.925Z</time>
      </trkpt>
      <trkpt lat="48.85239" lon="2.29066">
        <ele>98.6</ele>
        <time>2015-01-19T20:49:09.855Z</time>
      </trkpt>
      <trkpt lat="48.85234" lon="2.29071">
        <ele>98.4</ele>
        <time>2015-01-19T20:49:12.932Z</time>
      </trkpt>
      <trkpt lat="48.8523" lon="2.29073">
        <ele>98.2</ele>
        <time>2015-01-19T20:49:13.956Z</time>
      </trkpt>
      <trkpt lat="48.85225" lon="2.2908">
        <ele>98.9</ele>
        <time>2015-01-19T20:49:15.891Z</time>
      </trkpt>
      <trkpt lat="48.85224" lon="2.29083">
        <ele>99.3</ele>
        <time>2015-01-19T20:49:16.895Z</time>
      </trkpt>
      <trkpt lat="48.85221" lon="2.2909">
        <ele>99.9</ele>
        <time>2015-01-19T20:49:18.909Z</time>
      </trkpt>
      <trkpt lat="48.85223" lon="2.29099">
        <ele>98.3</ele>
        <time>2015-01-19T20:49:19.914Z</time>
      </trkpt>
      <trkpt lat="48.85218" lon="2.29108">
        <ele>96.2</ele>
        <time>2015-01-19T20:49:24.872Z</time>
      </trkpt>
      <trkpt lat="48.85215" lon="2.29108">
        <ele>95.9</ele>
        <time>2015-01-19T20:49:25.884Z</time>
      </trkpt>
      <trkpt lat="48.85207" lon="2.29111">
        <ele>95</ele>
        <time>2015-01-19T20:49:28.849Z</time>
      </trkpt>
      <trkpt lat="48.85204" lon="2.29112">
        <ele>94.8</ele>
        <time>2015-01-19T20:49:29.897Z</time>
      </trkpt>
      <trkpt lat="48.85198" lon="2.29115">
        <ele>94.6</ele>
        <time>2015-01-19T20:49:31.923Z</time>
      </trkpt>
      <trkpt lat="48.85195" lon="2.29116">
        <ele>94.2</ele>
        <time>2015-01-19T20:49:32.950Z</time>
      </trkpt>
      <trkpt lat="48.85189" lon="2.29117">
        <ele>93.9</ele>
        <time>2015-01-19T20:49:34.859Z</time>
      </trkpt>
      <trkpt lat="48.85186" lon="2.29116">
        <ele>93.7</ele>
        <time>2015-01-19T20:49:35.906Z</time>
      </trkpt>
      <trkpt lat="48.85177" lon="2.29112">
        <ele>93.8</ele>
        <time>2015-01-19T20:49:38.889Z</time>
      </trkpt>
      <trkpt lat="48.85177" lon="2.29117">
        <ele>94.5</ele>
        <time>2015-01-19T20:49:39.861Z</time>
      </trkpt>
      <trkpt lat="48.85176" lon="2.29125">
        <ele>95.8</ele>
        <time>2015-01-19T20:49:41.898Z</time>
      </trkpt>
      <trkpt lat="48.85178" lon="2.29133">
        <ele>95.6</ele>
        <time>2015-01-19T20:49:42.905Z</time>
      </trkpt>
      <trkpt lat="48.8518" lon="2.29142">
        <ele>94.3</ele>
        <time>2015-01-19T20:49:43.922Z</time>
      </trkpt>
      <trkpt lat="48.85183" lon="2.29152">
        <ele>93</ele>
        <time>2015-01-19T20:49:44.928Z</time>
      </trkpt>
      <trkpt lat="48.85187" lon="2.29161">
        <ele>91.6</ele>
        <time>2015-01-19T20:49:45.936Z</time>
      </trkpt>
      <trkpt lat="48.85191" lon="2.29167">
        <ele>91</ele>
        <time>2015-01-19T20:49:46.855Z</time>
      </trkpt>
      <trkpt lat="48.85195" lon="2.29171">
        <ele>90.2</ele>
        <time>2015-01-19T20:49:47.871Z</time>
      </trkpt>
      <trkpt lat="48.85199" lon="2.29176">
        <ele>89.8</ele>
        <time>2015-01-19T20:49:48.883Z</time>
      </trkpt>
      <trkpt lat="48.85202" lon="2.29181">
        <ele>89.2</ele>
        <time>2015-01-19T20:49:49.927Z</time>
      </trkpt>
      <trkpt lat="48.85206" lon="2.29186">
        <ele>88.7</ele>
        <time>2015-01-19T20:49:50.935Z</time>
      </trkpt>
      <trkpt lat="48.8521" lon="2.29189">
        <ele>88.4</ele>
        <time>2015-01-19T20:49:51.966Z</time>
      </trkpt>
      <trkpt lat="48.85213" lon="2.29195">
        <ele>88</ele>
        <time>2015-01-19T20:49:52.876Z</time>
      </trkpt>
      <trkpt lat="48.85217" lon="2.292">
        <ele>87.5</ele>
        <time>2015-01-19T20:49:53.903Z</time>
      </trkpt>
      <trkpt lat="48.85221" lon="2.29205">
        <ele>87.1</ele>
        <time>2015-01-19T20:49:54.863Z</time>
      </trkpt>
      <trkpt lat="48.85228" lon="2.29216">
        <ele>86.2</ele>
        <time>2015-01-19T20:49:56.897Z</time>
      </trkpt>
      <trkpt lat="48.85231" lon="2.29222">
        <ele>85.9</ele>
        <time>2015-01-19T20:49:57.916Z</time>
      </trkpt>
      <trkpt lat="48.85233" lon="2.29228">
        <ele>85.6</ele>
        <time>2015-01-19T20:49:58.938Z</time>
      </trkpt>
      <trkpt lat="48.85235" lon="2.29234">
        <ele>85.3</ele>
        <time>2015-01-19T20:49:59.828Z</time>
      </trkpt>
      <trkpt lat="48.85238" lon="2.2924">
        <ele>85.1</ele>
        <time>2015-01-19T20:50:00.872Z</time>
      </trkpt>
      <trkpt lat="48.85244" lon="2.29249">
        <ele>84.5</ele>
        <time>2015-01-19T20:50:02.902Z</time>
      </trkpt>
      <trkpt lat="48.85248" lon="2.29254">
        <ele>84.3</ele>
        <time>2015-01-19T20:50:03.929Z</time>
      </trkpt>
      <trkpt lat="48.85252" lon="2.29258">
        <ele>84.2</ele>
        <time>2015-01-19T20:50:04.831Z</time>
      </trkpt>
      <trkpt lat="48.85256" lon="2.29261">
        <ele>84</ele>
        <time>2015-01-19T20:50:05.849Z</time>
      </trkpt>
      <trkpt lat="48.8526" lon="2.29265">
        <ele>84</ele>
        <time>2015-01-19T20:50:06.860Z</time>
      </trkpt>
      <trkpt lat="48.85264" lon="2.29268">
        <ele>84</ele>
        <time>2015-01-19T20:50:07.864Z</time>
      </trkpt>
      <trkpt lat="48.85269" lon="2.2927">
        <ele>84</ele>
        <time>2015-01-19T20:50:08.912Z</time>
      </trkpt>
      <trkpt lat="48.85274" lon="2.29272">
        <ele>83.9</ele>
        <time>2015-01-19T20:50:09.918Z</time>
      </trkpt>
      <trkpt lat="48.85278" lon="2.29276">
        <ele>83.9</ele>
        <time>2015-01-19T20:50:11.332Z</time>
      </trkpt>
      <trkpt lat="48.85283" lon="2.2928">
        <ele>83.8</ele>
        <time>2015-01-19T20:50:11.866Z</time>
      </trkpt>
      <trkpt lat="48.85287" lon="2.29285">
        <ele>83.8</ele>
        <time>2015-01-19T20:50:12.848Z</time>
      </trkpt>
      <trkpt lat="48.85291" lon="2.2929">
        <ele>84.1</ele>
        <time>2015-01-19T20:50:13.863Z</time>
      </trkpt>
      <trkpt lat="48.85295" lon="2.29294">
        <ele>84.3</ele>
        <time>2015-01-19T20:50:14.912Z</time>
      </trkpt>
      <trkpt lat="48.85299" lon="2.29299">
        <ele>84.3</ele>
        <time>2015-01-19T20:50:15.933Z</time>
      </trkpt>
      <trkpt lat="48.85305" lon="2.29309">
        <ele>84.5</ele>
        <time>2015-01-19T20:50:17.855Z</time>
      </trkpt>
      <trkpt lat="48.85307" lon="2.29313">
        <ele>84.6</ele>
        <time>2015-01-19T20:50:18.862Z</time>
      </trkpt>
      <trkpt lat="48.85299" lon="2.29314">
        <ele>87.2</ele>
        <time>2015-01-19T20:50:30.861Z</time>
      </trkpt>
      <trkpt lat="48.85297" lon="2.29312">
        <ele>87.3</ele>
        <time>2015-01-19T20:50:31.867Z</time>
      </trkpt>
      <trkpt lat="48.85295" lon="2.29307">
        <ele>87.5</ele>
        <time>2015-01-19T20:50:34.767Z</time>
      </trkpt>
      <trkpt lat="48.85264" lon="2.29333">
        <ele>89.7</ele>
        <time>2015-01-19T20:50:47.934Z</time>
      </trkpt>
      <trkpt lat="48.85255" lon="2.29333">
        <ele>90.1</ele>
        <time>2015-01-19T20:50:58.820Z</time>
      </trkpt>
      <trkpt lat="48.85254" lon="2.29336">
        <ele>90.2</ele>
        <time>2015-01-19T20:50:59.852Z</time>
      </trkpt>
      <trkpt lat="48.85251" lon="2.29346">
        <ele>90.3</ele>
        <time>2015-01-19T20:51:03.900Z</time>
      </trkpt>
      <trkpt lat="48.85249" lon="2.29348">
        <ele>90.3</ele>
        <time>2015-01-19T20:51:04.920Z</time>
      </trkpt>
      <trkpt lat="48.85243" lon="2.29354">
        <ele>90.7</ele>
        <time>2015-01-19T20:51:08.922Z</time>
      </trkpt>
      <trkpt lat="48.85241" lon="2.29356">
        <ele>90.7</ele>
        <time>2015-01-19T20:51:09.924Z</time>
      </trkpt>
      <trkpt lat="48.85238" lon="2.29364">
        <ele>90.9</ele>
        <time>2015-01-19T20:51:11.933Z</time>
      </trkpt>
      <trkpt lat="48.85237" lon="2.29368">
        <ele>91</ele>
        <time>2015-01-19T20:51:12.951Z</time>
      </trkpt>
      <trkpt lat="48.85231" lon="2.29375">
        <ele>91.1</ele>
        <time>2015-01-19T20:51:16.918Z</time>
      </trkpt>
      <trkpt lat="48.8523" lon="2.29378">
        <ele>91</ele>
        <time>2015-01-19T20:51:17.993Z</time>
      </trkpt>
      <trkpt lat="48.85225" lon="2.29387">
        <ele>90.9</ele>
        <time>2015-01-19T20:51:20.919Z</time>
      </trkpt>
      <trkpt lat="48.85222" lon="2.2939">
        <ele>91</ele>
        <time>2015-01-19T20:51:21.968Z</time>
      </trkpt>
      <trkpt lat="48.85218" lon="2.29399">
        <ele>91.1</ele>
        <time>2015-01-19T20:51:23.918Z</time>
      </trkpt>
      <trkpt lat="48.85216" lon="2.29405">
        <ele>91.7</ele>
        <time>2015-01-19T20:51:24.954Z</time>
      </trkpt>
      <trkpt lat="48.85211" lon="2.29414">
        <ele>90.7</ele>
        <time>2015-01-19T20:51:26.905Z</time>
      </trkpt>
      <trkpt lat="48.85208" lon="2.29418">
        <ele>90.5</ele>
        <time>2015-01-19T20:51:27.912Z</time>
      </trkpt>
      <trkpt lat="48.85201" lon="2.29424">
        <ele>90.3</ele>
        <time>2015-01-19T20:51:29.954Z</time>
      </trkpt>
      <trkpt lat="48.85198" lon="2.29427">
        <ele>90.6</ele>
        <time>2015-01-19T20:51:30.953Z</time>
      </trkpt>
      <trkpt lat="48.85194" lon="2.29433">
        <ele>90.5</ele>
        <time>2015-01-19T20:51:31.866Z</time>
      </trkpt>
      <trkpt lat="48.8519" lon="2.2944">
        <ele>90.3</ele>
        <time>2015-01-19T20:51:32.920Z</time>
      </trkpt>
      <trkpt lat="48.85183" lon="2.29449">
        <ele>89.2</ele>
        <time>2015-01-19T20:51:34.922Z</time>
      </trkpt>
      <trkpt lat="48.85181" lon="2.29453">
        <ele>88.6</ele>
        <time>2015-01-19T20:51:35.935Z</time>
      </trkpt>
      <trkpt lat="48.85179" lon="2.29463">
        <ele>87.6</ele>
        <time>2015-01-19T20:51:37.963Z</time>
      </trkpt>
      <trkpt lat="48.85179" lon="2.29468">
        <ele>87.3</ele>
        <time>2015-01-19T20:51:38.982Z</time>
      </trkpt>
      <trkpt lat="48.8518" lon="2.29481">
        <ele>85</ele>
        <time>2015-01-19T20:51:40.902Z</time>
      </trkpt>
      <trkpt lat="48.85181" lon="2.29488">
        <ele>85.4</ele>
        <time>2015-01-19T20:51:41.921Z</time>
      </trkpt>
      <trkpt lat="48.85182" lon="2.29495">
        <ele>86.2</ele>
        <time>2015-01-19T20:51:42.854Z</time>
      </trkpt>
      <trkpt lat="48.85182" lon="2.29504">
        <ele>87</ele>
        <time>2015-01-19T20:51:43.869Z</time>
      </trkpt>
      <trkpt lat="48.8518" lon="2.29517">
        <ele>87.6</ele>
        <time>2015-01-19T20:51:45.860Z</time>
      </trkpt>
      <trkpt lat="48.85179" lon="2.29524">
        <ele>87.4</ele>
        <time>2015-01-19T20:51:46.880Z</time>
      </trkpt>
      <trkpt lat="48.85177" lon="2.29535">
        <ele>87.1</ele>
        <time>2015-01-19T20:51:48.904Z</time>
      </trkpt>
      <trkpt lat="48.85177" lon="2.2954">
        <ele>86.9</ele>
        <time>2015-01-19T20:51:49.918Z</time>
      </trkpt>
      <trkpt lat="48.85178" lon="2.29549">
        <ele>86.8</ele>
        <time>2015-01-19T20:51:51.868Z</time>
      </trkpt>
      <trkpt lat="48.85179" lon="2.29554">
        <ele>86.8</ele>
        <time>2015-01-19T20:51:52.887Z</time>
      </trkpt>
      <trkpt lat="48.85179" lon="2.29565">
        <ele>86.6</ele>
        <time>2015-01-19T20:51:55.204Z</time>
      </trkpt>
      <trkpt lat="48.85179" lon="2.29571">
        <ele>86.6</ele>
        <time>2015-01-19T20:51:55.899Z</time>
      </trkpt>
      <trkpt lat="48.85177" lon="2.29583">
        <ele>86.1</ele>
        <time>2015-01-19T20:51:57.910Z</time>
      </trkpt>
      <trkpt lat="48.85176" lon="2.29588">
        <ele>86.1</ele>
        <time>2015-01-19T20:51:58.916Z</time>
      </trkpt>
      <trkpt lat="48.85173" lon="2.29597">
        <ele>85.8</ele>
        <time>2015-01-19T20:52:00.931Z</time>
      </trkpt>
      <trkpt lat="48.85169" lon="2.29602">
        <ele>84.6</ele>
        <time>2015-01-19T20:52:01.947Z</time>
      </trkpt>
      <trkpt lat="48.85163" lon="2.29611">
        <ele>85.3</ele>
        <time>2015-01-19T20:52:05.488Z</time>
      </trkpt>
      <trkpt lat="48.85161" lon="2.29613">
        <ele>85.7</ele>
        <time>2015-01-19T20:52:05.940Z</time>
      </trkpt>
      <trkpt lat="48.85157" lon="2.29623">
        <ele>86.8</ele>
        <time>2015-01-19T20:52:09.943Z</time>
      </trkpt>
      <trkpt lat="48.85157" lon="2.29626">
        <ele>87</ele>
        <time>2015-01-19T20:52:11.012Z</time>
      </trkpt>
      <trkpt lat="48.85153" lon="2.29637">
        <ele>88.9</ele>
        <time>2015-01-19T20:52:17.948Z</time>
      </trkpt>
      <trkpt lat="48.8515" lon="2.29639">
        <ele>89.4</ele>
        <time>2015-01-19T20:52:18.961Z</time>
      </trkpt>
      <trkpt lat="48.85141" lon="2.2964">
        <ele>90</ele>
        <time>2015-01-19T20:52:21.896Z</time>
      </trkpt>
      <trkpt lat="48.85139" lon="2.29642">
        <ele>90.2</ele>
        <time>2015-01-19T20:52:22.929Z</time>
      </trkpt>
      <trkpt lat="48.85133" lon="2.29647">
        <ele>90.6</ele>
        <time>2015-01-19T20:52:24.951Z</time>
      </trkpt>
      <trkpt lat="48.8513" lon="2.29649">
        <ele>90.7</ele>
        <time>2015-01-19T20:52:25.876Z</time>
      </trkpt>
      <trkpt lat="48.85123" lon="2.29658">
        <ele>90.9</ele>
        <time>2015-01-19T20:52:27.895Z</time>
      </trkpt>
      <trkpt lat="48.85119" lon="2.29662">
        <ele>91</ele>
        <time>2015-01-19T20:52:28.899Z</time>
      </trkpt>
      <trkpt lat="48.85113" lon="2.29666">
        <ele>90.8</ele>
        <time>2015-01-19T20:52:29.960Z</time>
      </trkpt>
      <trkpt lat="48.8511" lon="2.2967">
        <ele>90.9</ele>
        <time>2015-01-19T20:52:30.861Z</time>
      </trkpt>
      <trkpt lat="48.85102" lon="2.29676">
        <ele>91.2</ele>
        <time>2015-01-19T20:52:33.934Z</time>
      </trkpt>
      <trkpt lat="48.85101" lon="2.29678">
        <ele>91.3</ele>
        <time>2015-01-19T20:52:34.849Z</time>
      </trkpt>
      <trkpt lat="48.85098" lon="2.29685">
        <ele>92.6</ele>
        <time>2015-01-19T20:52:41.835Z</time>
      </trkpt>
      <trkpt lat="48.85095" lon="2.297">
        <ele>92.8</ele>
        <time>2015-01-19T20:52:45.872Z</time>
      </trkpt>
      <trkpt lat="48.85093" lon="2.29712">
        <ele>93.3</ele>
        <time>2015-01-19T20:52:49.938Z</time>
      </trkpt>
      <trkpt lat="48.85093" lon="2.29718">
        <ele>93.3</ele>
        <time>2015-01-19T20:52:50.891Z</time>
      </trkpt>
      <trkpt lat="48.85091" lon="2.29729">
        <ele>93.6</ele>
        <time>2015-01-19T20:52:53.648Z</time>
      </trkpt>
      <trkpt lat="48.85088" lon="2.29736">
        <ele>93.9</ele>
        <time>2015-01-19T20:52:53.932Z</time>
      </trkpt>
      <trkpt lat="48.85083" lon="2.29743">
        <ele>94.1</ele>
        <time>2015-01-19T20:52:54.838Z</time>
      </trkpt>
      <trkpt lat="48.85078" lon="2.29749">
        <ele>94.4</ele>
        <time>2015-01-19T20:52:55.845Z</time>
      </trkpt>
      <trkpt lat="48.85073" lon="2.29751">
        <ele>94.6</ele>
        <time>2015-01-19T20:52:56.864Z</time>
      </trkpt>
      <trkpt lat="48.85069" lon="2.29753">
        <ele>95</ele>
        <time>2015-01-19T20:52:57.868Z</time>
      </trkpt>
      <trkpt lat="48.85061" lon="2.29757">
        <ele>95.4</ele>
        <time>2015-01-19T20:53:00.888Z</time>
      </trkpt>
      <trkpt lat="48.85058" lon="2.29762">
        <ele>95.6</ele>
        <time>2015-01-19T20:53:01.896Z</time>
      </trkpt>
      <trkpt lat="48.85051" lon="2.29769">
        <ele>95.7</ele>
        <time>2015-01-19T20:53:03.920Z</time>
      </trkpt>
      <trkpt lat="48.85049" lon="2.29772">
        <ele>95.7</ele>
        <time>2015-01-19T20:53:04.930Z</time>
      </trkpt>
      <trkpt lat="48.85048" lon="2.29781">
        <ele>95.8</ele>
        <time>2015-01-19T20:53:06.962Z</time>
      </trkpt>
      <trkpt lat="48.85047" lon="2.29787">
        <ele>95.9</ele>
        <time>2015-01-19T20:53:07.976Z</time>
      </trkpt>
      <trkpt lat="48.85047" lon="2.29794">
        <ele>96</ele>
        <time>2015-01-19T20:53:08.851Z</time>
      </trkpt>
      <trkpt lat="48.85047" lon="2.29801">
        <ele>96.1</ele>
        <time>2015-01-19T20:53:09.859Z</time>
      </trkpt>
      <trkpt lat="48.85048" lon="2.29809">
        <ele>96.1</ele>
        <time>2015-01-19T20:53:10.929Z</time>
      </trkpt>
      <trkpt lat="48.8505" lon="2.29816">
        <ele>95.8</ele>
        <time>2015-01-19T20:53:11.937Z</time>
      </trkpt>
      <trkpt lat="48.85056" lon="2.29825">
        <ele>94.8</ele>
        <time>2015-01-19T20:53:12.844Z</time>
      </trkpt>
      <trkpt lat="48.8506" lon="2.29831">
        <ele>94.2</ele>
        <time>2015-01-19T20:53:13.863Z</time>
      </trkpt>
      <trkpt lat="48.85062" lon="2.29838">
        <ele>93.8</ele>
        <time>2015-01-19T20:53:14.886Z</time>
      </trkpt>
      <trkpt lat="48.85063" lon="2.29844">
        <ele>93.6</ele>
        <time>2015-01-19T20:53:15.883Z</time>
      </trkpt>
      <trkpt lat="48.85066" lon="2.29855">
        <ele>93.6</ele>
        <time>2015-01-19T20:53:17.906Z</time>
      </trkpt>
      <trkpt lat="48.85071" lon="2.29863">
        <ele>93.4</ele>
        <time>2015-01-19T20:53:19.948Z</time>
      </trkpt>
      <trkpt lat="48.85074" lon="2.29876">
        <ele>92.8</ele>
        <time>2015-01-19T20:53:22.875Z</time>
      </trkpt>
      <trkpt lat="48.85075" lon="2.29879">
        <ele>92.9</ele>
        <time>2015-01-19T20:53:23.897Z</time>
      </trkpt>
      <trkpt lat="48.85078" lon="2.29889">
        <ele>92.9</ele>
        <time>2015-01-19T20:53:26.919Z</time>
      </trkpt>
      <trkpt lat="48.85079" lon="2.29892">
        <ele>92.8</ele>
        <time>2015-01-19T20:53:27.929Z</time>
      </trkpt>
      <trkpt lat="48.85085" lon="2.29899">
        <ele>92.8</ele>
        <time>2015-01-19T20:53:30.902Z</time>
      </trkpt>
      <trkpt lat="48.85087" lon="2.29901">
        <ele>92.9</ele>
        <time>2015-01-19T20:53:31.932Z</time>
      </trkpt>
      <trkpt lat="48.85093" lon="2.29905">
        <ele>93</ele>
        <time>2015-01-19T20:53:33.943Z</time>
      </trkpt>
      <trkpt lat="48.85096" lon="2.29908">
        <ele>93</ele>
        <time>2015-01-19T20:53:34.877Z</time>
      </trkpt>
      <trkpt lat="48.85101" lon="2.29914">
        <ele>93.6</ele>
        <time>2015-01-19T20:53:36.871Z</time>
      </trkpt>
      <trkpt lat="48.85104" lon="2.29918">
        <ele>93.9</ele>
        <time>2015-01-19T20:53:37.994Z</time>
      </trkpt>
      <trkpt lat="48.85109" lon="2.29924">
        <ele>94.4</ele>
        <time>2015-01-19T20:53:40.022Z</time>
      </trkpt>
      <trkpt lat="48.85112" lon="2.29927">
        <ele>94.8</ele>
        <time>2015-01-19T20:53:40.928Z</time>
      </trkpt>
      <trkpt lat="48.85116" lon="2.29935">
        <ele>95.5</ele>
        <time>2015-01-19T20:53:42.960Z</time>
      </trkpt>
      <trkpt lat="48.85119" lon="2.29938">
        <ele>95.9</ele>
        <time>2015-01-19T20:53:43.869Z</time>
      </trkpt>
      <trkpt lat="48.85124" lon="2.29945">
        <ele>96.4</ele>
        <time>2015-01-19T20:53:45.898Z</time>
      </trkpt>
      <trkpt lat="48.85127" lon="2.29948">
        <ele>96.5</ele>
        <time>2015-01-19T20:53:46.905Z</time>
      </trkpt>
      <trkpt lat="48.85131" lon="2.29956">
        <ele>96.2</ele>
        <time>2015-01-19T20:53:48.917Z</time>
      </trkpt>
      <trkpt lat="48.85132" lon="2.29961">
        <ele>96.4</ele>
        <time>2015-01-19T20:53:49.929Z</time>
      </trkpt>
      <trkpt lat="48.85135" lon="2.2997">
        <ele>96.8</ele>
        <time>2015-01-19T20:53:51.856Z</time>
      </trkpt>
      <trkpt lat="48.85136" lon="2.29973">
        <ele>97</ele>
        <time>2015-01-19T20:53:52.892Z</time>
      </trkpt>
      <trkpt lat="48.85142" lon="2.29984">
        <ele>97.4</ele>
        <time>2015-01-19T20:53:55.829Z</time>
      </trkpt>
      <trkpt lat="48.85145" lon="2.29986">
        <ele>97.4</ele>
        <time>2015-01-19T20:53:56.891Z</time>
      </trkpt>
      <trkpt lat="48.85152" lon="2.29993">
        <ele>97.7</ele>
        <time>2015-01-19T20:54:00.602Z</time>
      </trkpt>
      <trkpt lat="48.85153" lon="2.29995">
        <ele>97.8</ele>
        <time>2015-01-19T20:54:00.872Z</time>
      </trkpt>
      <trkpt lat="48.85157" lon="2.30001">
        <ele>97.9</ele>
        <time>2015-01-19T20:54:03.002Z</time>
      </trkpt>
      <trkpt lat="48.85157" lon="2.30008">
        <ele>96.6</ele>
        <time>2015-01-19T20:54:03.850Z</time>
      </trkpt>
      <trkpt lat="48.8516" lon="2.3002">
        <ele>97.8</ele>
        <time>2015-01-19T20:54:07.925Z</time>
      </trkpt>
      <trkpt lat="48.8516" lon="2.30021">
        <ele>98</ele>
        <time>2015-01-19T20:54:08.946Z</time>
      </trkpt>
      <trkpt lat="48.85163" lon="2.30021">
        <ele>98.7</ele>
        <time>2015-01-19T20:54:14.938Z</time>
      </trkpt>
      <trkpt lat="48.85164" lon="2.30021">
        <ele>99</ele>
        <time>2015-01-19T20:54:15.856Z</time>
      </trkpt>
      <trkpt lat="48.85164" lon="2.30021">
        <ele>99</ele>
        <time>2015-01-19T20:54:21.095Z</time>
      </trkpt>
      <trkpt lat="48.85169" lon="2.30019">
        <ele>99.5</ele>
        <time>2015-01-19T20:54:21.918Z</time>
      </trkpt>
      <trkpt lat="48.85175" lon="2.30012">
        <ele>99.9</ele>
        <time>2015-01-19T20:54:26.136Z</time>
      </trkpt>
      <trkpt lat="48.85178" lon="2.30009">
        <ele>99.9</ele>
        <time>2015-01-19T20:54:26.886Z</time>
      </trkpt>
      <trkpt lat="48.85183" lon="2.30001">
        <ele>100</ele>
        <time>2015-01-19T20:54:29.684Z</time>
      </trkpt>
      <trkpt lat="48.85187" lon="2.29997">
        <ele>100.1</ele>
        <time>2015-01-19T20:54:29.850Z</time>
      </trkpt>
      <trkpt lat="48.85192" lon="2.29989">
        <ele>100.1</ele>
        <time>2015-01-19T20:54:31.919Z</time>
      </trkpt>
      <trkpt lat="48.85195" lon="2.29985">
        <ele>100.1</ele>
        <time>2015-01-19T20:54:32.971Z</time>
      </trkpt>
      <trkpt lat="48.852" lon="2.29976">
        <ele>100.2</ele>
        <time>2015-01-19T20:54:34.834Z</time>
      </trkpt>
      <trkpt lat="48.85204" lon="2.29972">
        <ele>100.2</ele>
        <time>2015-01-19T20:54:35.871Z</time>
      </trkpt>
      <trkpt lat="48.8521" lon="2.29965">
        <ele>100.5</ele>
        <time>2015-01-19T20:54:37.905Z</time>
      </trkpt>
      <trkpt lat="48.85213" lon="2.29961">
        <ele>100.6</ele>
        <time>2015-01-19T20:54:38.923Z</time>
      </trkpt>
      <trkpt lat="48.85219" lon="2.29952">
        <ele>100.7</ele>
        <time>2015-01-19T20:54:40.877Z</time>
      </trkpt>
      <trkpt lat="48.85223" lon="2.29949">
        <ele>100.9</ele>
        <time>2015-01-19T20:54:41.881Z</time>
      </trkpt>
      <trkpt lat="48.85226" lon="2.29939">
        <ele>100.6</ele>
        <time>2015-01-19T20:54:43.911Z</time>
      </trkpt>
      <trkpt lat="48.85229" lon="2.29935">
        <ele>100.5</ele>
        <time>2015-01-19T20:54:44.910Z</time>
      </trkpt>
      <trkpt lat="48.85235" lon="2.29929">
        <ele>100.7</ele>
        <time>2015-01-19T20:54:46.820Z</time>
      </trkpt>
      <trkpt lat="48.85238" lon="2.29925">
        <ele>100.6</ele>
        <time>2015-01-19T20:54:47.845Z</time>
      </trkpt>
      <trkpt lat="48.85244" lon="2.29918">
        <ele>100.6</ele>
        <time>2015-01-19T20:54:49.918Z</time>
      </trkpt>
      <trkpt lat="48.8525" lon="2.2991">
        <ele>100.2</ele>
        <time>2015-01-19T20:54:51.889Z</time>
      </trkpt>
      <trkpt lat="48.85282" lon="2.2987">
        <ele>99.6</ele>
        <time>2015-01-19T20:55:01.947Z</time>
      </trkpt>
      <trkpt lat="48.85286" lon="2.29859">
        <ele>99.7</ele>
        <time>2015-01-19T20:55:03.818Z</time>
      </trkpt>
      <trkpt lat="48.85288" lon="2.29853">
        <ele>99.7</ele>
        <time>2015-01-19T20:55:04.875Z</time>
      </trkpt>
      <trkpt lat="48.85291" lon="2.29846">
        <ele>99.9</ele>
        <time>2015-01-19T20:55:05.844Z</time>
      </trkpt>
      <trkpt lat="48.85294" lon="2.29841">
        <ele>100</ele>
        <time>2015-01-19T20:55:06.818Z</time>
      </trkpt>
      <trkpt lat="48.85296" lon="2.29835">
        <ele>99.9</ele>
        <time>2015-01-19T20:55:07.834Z</time>
      </trkpt>
      <trkpt lat="48.85298" lon="2.29828">
        <ele>100.2</ele>
        <time>2015-01-19T20:55:08.872Z</time>
      </trkpt>
      <trkpt lat="48.85302" lon="2.29819">
        <ele>100.6</ele>
        <time>2015-01-19T20:55:10.825Z</time>
      </trkpt>
      <trkpt lat="48.85305" lon="2.29815">
        <ele>100.8</ele>
        <time>2015-01-19T20:55:11.821Z</time>
      </trkpt>
      <trkpt lat="48.85311" lon="2.29813">
        <ele>100.9</ele>
        <time>2015-01-19T20:55:13.856Z</time>
      </trkpt>
      <trkpt lat="48.85314" lon="2.29812">
        <ele>100.8</ele>
        <time>2015-01-19T20:55:14.889Z</time>
      </trkpt>
      <trkpt lat="48.85321" lon="2.29816">
        <ele>99.3</ele>
        <time>2015-01-19T20:55:16.894Z</time>
      </trkpt>
      <trkpt lat="48.85324" lon="2.2982">
        <ele>98.7</ele>
        <time>2015-01-19T20:55:17.932Z</time>
      </trkpt>
      <trkpt lat="48.85331" lon="2.29828">
        <ele>97.9</ele>
        <time>2015-01-19T20:55:20.535Z</time>
      </trkpt>
      <trkpt lat="48.85334" lon="2.29833">
        <ele>97.7</ele>
        <time>2015-01-19T20:55:20.958Z</time>
      </trkpt>
      <trkpt lat="48.85339" lon="2.29841">
        <ele>97.3</ele>
        <time>2015-01-19T20:55:22.825Z</time>
      </trkpt>
      <trkpt lat="48.85342" lon="2.29845">
        <ele>97</ele>
        <time>2015-01-19T20:55:23.898Z</time>
      </trkpt>
      <trkpt lat="48.85348" lon="2.29851">
        <ele>96.4</ele>
        <time>2015-01-19T20:55:25.904Z</time>
      </trkpt>
      <trkpt lat="48.85352" lon="2.29852">
        <ele>96.7</ele>
        <time>2015-01-19T20:55:26.889Z</time>
      </trkpt>
      <trkpt lat="48.85358" lon="2.29852">
        <ele>96.7</ele>
        <time>2015-01-19T20:55:28.890Z</time>
      </trkpt>
      <trkpt lat="48.85362" lon="2.29851">
        <ele>96.7</ele>
        <time>2015-01-19T20:55:29.849Z</time>
      </trkpt>
      <trkpt lat="48.85371" lon="2.29846">
        <ele>96.7</ele>
        <time>2015-01-19T20:55:31.997Z</time>
      </trkpt>
      <trkpt lat="48.85375" lon="2.29843">
        <ele>96.8</ele>
        <time>2015-01-19T20:55:33.063Z</time>
      </trkpt>
      <trkpt lat="48.85378" lon="2.29839">
        <ele>96.9</ele>
        <time>2015-01-19T20:55:33.905Z</time>
      </trkpt>
      <trkpt lat="48.85382" lon="2.29835">
        <ele>96.7</ele>
        <time>2015-01-19T20:55:34.890Z</time>
      </trkpt>
      <trkpt lat="48.85389" lon="2.29827">
        <ele>96.7</ele>
        <time>2015-01-19T20:55:36.864Z</time>
      </trkpt>
      <trkpt lat="48.85393" lon="2.29823">
        <ele>96.7</ele>
        <time>2015-01-19T20:55:37.912Z</time>
      </trkpt>
      <trkpt lat="48.85396" lon="2.29818">
        <ele>96.6</ele>
        <time>2015-01-19T20:55:38.884Z</time>
      </trkpt>
      <trkpt lat="48.854" lon="2.29814">
        <ele>96.7</ele>
        <time>2015-01-19T20:55:39.924Z</time>
      </trkpt>
      <trkpt lat="48.85403" lon="2.29809">
        <ele>96.6</ele>
        <time>2015-01-19T20:55:40.918Z</time>
      </trkpt>
      <trkpt lat="48.85407" lon="2.29805">
        <ele>96.6</ele>
        <time>2015-01-19T20:55:41.938Z</time>
      </trkpt>
      <trkpt lat="48.85411" lon="2.29801">
        <ele>96.6</ele>
        <time>2015-01-19T20:55:42.840Z</time>
      </trkpt>
      <trkpt lat="48.85416" lon="2.29798">
        <ele>96.7</ele>
        <time>2015-01-19T20:55:43.844Z</time>
      </trkpt>
      <trkpt lat="48.85421" lon="2.29795">
        <ele>97</ele>
        <time>2015-01-19T20:55:44.990Z</time>
      </trkpt>
      <trkpt lat="48.85424" lon="2.2979">
        <ele>97.3</ele>
        <time>2015-01-19T20:55:45.904Z</time>
      </trkpt>
      <trkpt lat="48.85427" lon="2.29779">
        <ele>96</ele>
        <time>2015-01-19T20:55:47.937Z</time>
      </trkpt>
      <trkpt lat="48.8543" lon="2.29773">
        <ele>95.9</ele>
        <time>2015-01-19T20:55:48.850Z</time>
      </trkpt>
      <trkpt lat="48.85433" lon="2.29768">
        <ele>96.1</ele>
        <time>2015-01-19T20:55:49.857Z</time>
      </trkpt>
      <trkpt lat="48.85436" lon="2.29763">
        <ele>96.2</ele>
        <time>2015-01-19T20:55:50.882Z</time>
      </trkpt>
      <trkpt lat="48.85442" lon="2.29753">
        <ele>96.3</ele>
        <time>2015-01-19T20:55:52.918Z</time>
      </trkpt>
      <trkpt lat="48.85445" lon="2.29748">
        <ele>96.4</ele>
        <time>2015-01-19T20:55:53.847Z</time>
      </trkpt>
      <trkpt lat="48.85452" lon="2.29739">
        <ele>96.2</ele>
        <time>2015-01-19T20:55:55.861Z</time>
      </trkpt>
      <trkpt lat="48.85456" lon="2.29736">
        <ele>96.2</ele>
        <time>2015-01-19T20:55:56.946Z</time>
      </trkpt>
      <trkpt lat="48.8546" lon="2.29731">
        <ele>96.3</ele>
        <time>2015-01-19T20:55:57.844Z</time>
      </trkpt>
      <trkpt lat="48.85464" lon="2.29727">
        <ele>96.4</ele>
        <time>2015-01-19T20:55:58.872Z</time>
      </trkpt>
      <trkpt lat="48.85471" lon="2.29719">
        <ele>96.4</ele>
        <time>2015-01-19T20:56:00.893Z</time>
      </trkpt>
      <trkpt lat="48.85473" lon="2.29715">
        <ele>96.4</ele>
        <time>2015-01-19T20:56:01.928Z</time>
      </trkpt>
      <trkpt lat="48.85476" lon="2.29703">
        <ele>95.9</ele>
        <time>2015-01-19T20:56:04.932Z</time>
      </trkpt>
      <trkpt lat="48.85476" lon="2.29702">
        <ele>95.5</ele>
        <time>2015-01-19T20:56:05.856Z</time>
      </trkpt>
      <trkpt lat="48.85476" lon="2.29701">
        <ele>94.9</ele>
        <time>2015-01-19T20:56:07.826Z</time>
      </trkpt>
      <trkpt lat="48.85476" lon="2.29701">
        <ele>94.2</ele>
        <time>2015-01-19T20:56:08.906Z</time>
      </trkpt>
      <trkpt lat="48.85476" lon="2.297">
        <ele>93.7</ele>
        <time>2015-01-19T20:56:09.858Z</time>
      </trkpt>
      <trkpt lat="48.85477" lon="2.29687">
        <ele>90.2</ele>
        <time>2015-01-19T20:56:16.859Z</time>
      </trkpt>
      <trkpt lat="48.85479" lon="2.29684">
        <ele>89.3</ele>
        <time>2015-01-19T20:56:17.938Z</time>
      </trkpt>
      <trkpt lat="48.85485" lon="2.29674">
        <ele>88.1</ele>
        <time>2015-01-19T20:56:21.857Z</time>
      </trkpt>
      <trkpt lat="48.85488" lon="2.29672">
        <ele>88.1</ele>
        <time>2015-01-19T20:56:22.892Z</time>
      </trkpt>
      <trkpt lat="48.85495" lon="2.29671">
        <ele>88.2</ele>
        <time>2015-01-19T20:56:25.852Z</time>
      </trkpt>
      <trkpt lat="48.85498" lon="2.29673">
        <ele>88</ele>
        <time>2015-01-19T20:56:26.875Z</time>
      </trkpt>
      <trkpt lat="48.85504" lon="2.29681">
        <ele>86.7</ele>
        <time>2015-01-19T20:56:29.899Z</time>
      </trkpt>
      <trkpt lat="48.85506" lon="2.29684">
        <ele>86.6</ele>
        <time>2015-01-19T20:56:30.939Z</time>
      </trkpt>
      <trkpt lat="48.85511" lon="2.29691">
        <ele>86.3</ele>
        <time>2015-01-19T20:56:32.972Z</time>
      </trkpt>
      <trkpt lat="48.85513" lon="2.29694">
        <ele>86</ele>
        <time>2015-01-19T20:56:33.882Z</time>
      </trkpt>
      <trkpt lat="48.85519" lon="2.29701">
        <ele>85.8</ele>
        <time>2015-01-19T20:56:35.884Z</time>
      </trkpt>
      <trkpt lat="48.85522" lon="2.29704">
        <ele>85.7</ele>
        <time>2015-01-19T20:56:36.900Z</time>
      </trkpt>
      <trkpt lat="48.85527" lon="2.2971">
        <ele>85.6</ele>
        <time>2015-01-19T20:56:38.933Z</time>
      </trkpt>
      <trkpt lat="48.8553" lon="2.29713">
        <ele>85.7</ele>
        <time>2015-01-19T20:56:39.862Z</time>
      </trkpt>
      <trkpt lat="48.85536" lon="2.29721">
        <ele>85.8</ele>
        <time>2015-01-19T20:56:41.878Z</time>
      </trkpt>
      <trkpt lat="48.85539" lon="2.29725">
        <ele>85.8</ele>
        <time>2015-01-19T20:56:42.887Z</time>
      </trkpt>
      <trkpt lat="48.85544" lon="2.29732">
        <ele>85.6</ele>
        <time>2015-01-19T20:56:44.948Z</time>
      </trkpt>
      <trkpt lat="48.85547" lon="2.29735">
        <ele>85.6</ele>
        <time>2015-01-19T20:56:45.866Z</time>
      </trkpt>
      <trkpt lat="48.85552" lon="2.29744">
        <ele>85.6</ele>
        <time>2015-01-19T20:56:47.888Z</time>
      </trkpt>
      <trkpt lat="48.85554" lon="2.29748">
        <ele>85.7</ele>
        <time>2015-01-19T20:56:48.882Z</time>
      </trkpt>
      <trkpt lat="48.85559" lon="2.29755">
        <ele>85.5</ele>
        <time>2015-01-19T20:56:50.974Z</time>
      </trkpt>
      <trkpt lat="48.85562" lon="2.29759">
        <ele>85.5</ele>
        <time>2015-01-19T20:56:51.880Z</time>
      </trkpt>
      <trkpt lat="48.85567" lon="2.29769">
        <ele>85.3</ele>
        <time>2015-01-19T20:56:53.874Z</time>
      </trkpt>
      <trkpt lat="48.85569" lon="2.29774">
        <ele>84.9</ele>
        <time>2015-01-19T20:56:54.882Z</time>
      </trkpt>
      <trkpt lat="48.85573" lon="2.29785">
        <ele>84.8</ele>
        <time>2015-01-19T20:56:56.956Z</time>
      </trkpt>
      <trkpt lat="48.85575" lon="2.29791">
        <ele>84.6</ele>
        <time>2015-01-19T20:56:57.882Z</time>
      </trkpt>
      <trkpt lat="48.8558" lon="2.29802">
        <ele>84.1</ele>
        <time>2015-01-19T20:56:59.917Z</time>
      </trkpt>
      <trkpt lat="48.85583" lon="2.29807">
        <ele>84</ele>
        <time>2015-01-19T20:57:00.949Z</time>
      </trkpt>
      <trkpt lat="48.85589" lon="2.29816">
        <ele>83.6</ele>
        <time>2015-01-19T20:57:02.995Z</time>
      </trkpt>
      <trkpt lat="48.85592" lon="2.29821">
        <ele>83.6</ele>
        <time>2015-01-19T20:57:03.918Z</time>
      </trkpt>
      <trkpt lat="48.85598" lon="2.29829">
        <ele>83.4</ele>
        <time>2015-01-19T20:57:05.920Z</time>
      </trkpt>
      <trkpt lat="48.85601" lon="2.29833">
        <ele>83.2</ele>
        <time>2015-01-19T20:57:06.877Z</time>
      </trkpt>
      <trkpt lat="48.85609" lon="2.2984">
        <ele>83.3</ele>
        <time>2015-01-19T20:57:08.903Z</time>
      </trkpt>
      <trkpt lat="48.85613" lon="2.29843">
        <ele>83.2</ele>
        <time>2015-01-19T20:57:09.905Z</time>
      </trkpt>
      <trkpt lat="48.8562" lon="2.29848">
        <ele>83.1</ele>
        <time>2015-01-19T20:57:11.895Z</time>
      </trkpt>
      <trkpt lat="48.85624" lon="2.29851">
        <ele>83.2</ele>
        <time>2015-01-19T20:57:12.962Z</time>
      </trkpt>
      <trkpt lat="48.85631" lon="2.29858">
        <ele>83.4</ele>
        <time>2015-01-19T20:57:14.956Z</time>
      </trkpt>
      <trkpt lat="48.85635" lon="2.29861">
        <ele>83.3</ele>
        <time>2015-01-19T20:57:15.885Z</time>
      </trkpt>
      <trkpt lat="48.85641" lon="2.2987">
        <ele>83.5</ele>
        <time>2015-01-19T20:57:17.935Z</time>
      </trkpt>
      <trkpt lat="48.85644" lon="2.29874">
        <ele>83.5</ele>
        <time>2015-01-19T20:57:18.899Z</time>
      </trkpt>
      <trkpt lat="48.85647" lon="2.29879">
        <ele>83.8</ele>
        <time>2015-01-19T20:57:19.913Z</time>
      </trkpt>
      <trkpt lat="48.85651" lon="2.29884">
        <ele>83.8</ele>
        <time>2015-01-19T20:57:20.913Z</time>
      </trkpt>
      <trkpt lat="48.85654" lon="2.29888">
        <ele>83.9</ele>
        <time>2015-01-19T20:57:21.937Z</time>
      </trkpt>
      <trkpt lat="48.85657" lon="2.29893">
        <ele>83.8</ele>
        <time>2015-01-19T20:57:22.944Z</time>
      </trkpt>
      <trkpt lat="48.85664" lon="2.29902">
        <ele>83.9</ele>
        <time>2015-01-19T20:57:24.881Z</time>
      </trkpt>
      <trkpt lat="48.85666" lon="2.29906">
        <ele>84</ele>
        <time>2015-01-19T20:57:25.880Z</time>
      </trkpt>
      <trkpt lat="48.85672" lon="2.29915">
        <ele>84.3</ele>
        <time>2015-01-19T20:57:27.895Z</time>
      </trkpt>
      <trkpt lat="48.85675" lon="2.29919">
        <ele>84.4</ele>
        <time>2015-01-19T20:57:28.878Z</time>
      </trkpt>
      <trkpt lat="48.85681" lon="2.29928">
        <ele>84.7</ele>
        <time>2015-01-19T20:57:30.918Z</time>
      </trkpt>
      <trkpt lat="48.85684" lon="2.29931">
        <ele>84.8</ele>
        <time>2015-01-19T20:57:31.840Z</time>
      </trkpt>
      <trkpt lat="48.85691" lon="2.29938">
        <ele>85</ele>
        <time>2015-01-19T20:57:33.831Z</time>
      </trkpt>
      <trkpt lat="48.85695" lon="2.29943">
        <ele>84.5</ele>
        <time>2015-01-19T20:57:34.844Z</time>
      </trkpt>
      <trkpt lat="48.85699" lon="2.29948">
        <ele>84</ele>
        <time>2015-01-19T20:57:35.861Z</time>
      </trkpt>
      <trkpt lat="48.85702" lon="2.29953">
        <ele>83.9</ele>
        <time>2015-01-19T20:57:36.871Z</time>
      </trkpt>
      <trkpt lat="48.85705" lon="2.29958">
        <ele>83.8</ele>
        <time>2015-01-19T20:57:37.889Z</time>
      </trkpt>
      <trkpt lat="48.85708" lon="2.29964">
        <ele>83.5</ele>
        <time>2015-01-19T20:57:38.895Z</time>
      </trkpt>
      <trkpt lat="48.85711" lon="2.29968">
        <ele>83.7</ele>
        <time>2015-01-19T20:57:39.908Z</time>
      </trkpt>
      <trkpt lat="48.85715" lon="2.29972">
        <ele>84</ele>
        <time>2015-01-19T20:57:40.920Z</time>
      </trkpt>
      <trkpt lat="48.85719" lon="2.29977">
        <ele>84.4</ele>
        <time>2015-01-19T20:57:41.828Z</time>
      </trkpt>
      <trkpt lat="48.85723" lon="2.29981">
        <ele>84.7</ele>
        <time>2015-01-19T20:57:42.833Z</time>
      </trkpt>
      <trkpt lat="48.85727" lon="2.29985">
        <ele>85</ele>
        <time>2015-01-19T20:57:43.862Z</time>
      </trkpt>
      <trkpt lat="48.8573" lon="2.29988">
        <ele>85.7</ele>
        <time>2015-01-19T20:57:44.956Z</time>
      </trkpt>
      <trkpt lat="48.85736" lon="2.29995">
        <ele>86.3</ele>
        <time>2015-01-19T20:57:46.902Z</time>
      </trkpt>
      <trkpt lat="48.85738" lon="2.29998">
        <ele>86.1</ele>
        <time>2015-01-19T20:57:47.870Z</time>
      </trkpt>
      <trkpt lat="48.85742" lon="2.30008">
        <ele>86.3</ele>
        <time>2015-01-19T20:57:50.963Z</time>
      </trkpt>
      <trkpt lat="48.85743" lon="2.3001">
        <ele>86.4</ele>
        <time>2015-01-19T20:57:51.851Z</time>
      </trkpt>
      <trkpt lat="48.8575" lon="2.30019">
        <ele>86.8</ele>
        <time>2015-01-19T20:57:57.954Z</time>
      </trkpt>
      <trkpt lat="48.85752" lon="2.3002">
        <ele>86.9</ele>
        <time>2015-01-19T20:57:58.863Z</time>
      </trkpt>
      <trkpt lat="48.85759" lon="2.30023">
        <ele>87.4</ele>
        <time>2015-01-19T20:58:01.864Z</time>
      </trkpt>
      <trkpt lat="48.85762" lon="2.30023">
        <ele>87.4</ele>
        <time>2015-01-19T20:58:02.918Z</time>
      </trkpt>
      <trkpt lat="48.85768" lon="2.30024">
        <ele>87.9</ele>
        <time>2015-01-19T20:58:04.854Z</time>
      </trkpt>
      <trkpt lat="48.85771" lon="2.30025">
        <ele>88.1</ele>
        <time>2015-01-19T20:58:05.873Z</time>
      </trkpt>
      <trkpt lat="48.85777" lon="2.3003">
        <ele>88.8</ele>
        <time>2015-01-19T20:58:08.916Z</time>
      </trkpt>
      <trkpt lat="48.85779" lon="2.30033">
        <ele>89.1</ele>
        <time>2015-01-19T20:58:09.865Z</time>
      </trkpt>
      <trkpt lat="48.85781" lon="2.30042">
        <ele>89.8</ele>
        <time>2015-01-19T20:58:12.866Z</time>
      </trkpt>
      <trkpt lat="48.85782" lon="2.30047">
        <ele>90</ele>
        <time>2015-01-19T20:58:13.917Z</time>
      </trkpt>
      <trkpt lat="48.85784" lon="2.30057">
        <ele>90.4</ele>
        <time>2015-01-19T20:58:15.848Z</time>
      </trkpt>
      <trkpt lat="48.85785" lon="2.30063">
        <ele>90.4</ele>
        <time>2015-01-19T20:58:16.866Z</time>
      </trkpt>
      <trkpt lat="48.85787" lon="2.30075">
        <ele>90.6</ele>
        <time>2015-01-19T20:58:18.923Z</time>
      </trkpt>
      <trkpt lat="48.85788" lon="2.30081">
        <ele>90.8</ele>
        <time>2015-01-19T20:58:19.872Z</time>
      </trkpt>
      <trkpt lat="48.85791" lon="2.30093">
        <ele>91.1</ele>
        <time>2015-01-19T20:58:21.897Z</time>
      </trkpt>
      <trkpt lat="48.85792" lon="2.30099">
        <ele>91.1</ele>
        <time>2015-01-19T20:58:22.907Z</time>
      </trkpt>
      <trkpt lat="48.85795" lon="2.3011">
        <ele>91.1</ele>
        <time>2015-01-19T20:58:24.854Z</time>
      </trkpt>
      <trkpt lat="48.85795" lon="2.30115">
        <ele>91.1</ele>
        <time>2015-01-19T20:58:25.876Z</time>
      </trkpt>
      <trkpt lat="48.85796" lon="2.30128">
        <ele>91</ele>
        <time>2015-01-19T20:58:27.856Z</time>
      </trkpt>
      <trkpt lat="48.85796" lon="2.30134">
        <ele>90.8</ele>
        <time>2015-01-19T20:58:28.893Z</time>
      </trkpt>
      <trkpt lat="48.85796" lon="2.30146">
        <ele>90.7</ele>
        <time>2015-01-19T20:58:30.913Z</time>
      </trkpt>
      <trkpt lat="48.85797" lon="2.30152">
        <ele>90.7</ele>
        <time>2015-01-19T20:58:31.932Z</time>
      </trkpt>
      <trkpt lat="48.85797" lon="2.30163">
        <ele>90.6</ele>
        <time>2015-01-19T20:58:33.921Z</time>
      </trkpt>
      <trkpt lat="48.85797" lon="2.30169">
        <ele>90.5</ele>
        <time>2015-01-19T20:58:34.845Z</time>
      </trkpt>
      <trkpt lat="48.85798" lon="2.3018">
        <ele>90.7</ele>
        <time>2015-01-19T20:58:36.833Z</time>
      </trkpt>
      <trkpt lat="48.85799" lon="2.30185">
        <ele>90.8</ele>
        <time>2015-01-19T20:58:37.885Z</time>
      </trkpt>
      <trkpt lat="48.85802" lon="2.30195">
        <ele>90.8</ele>
        <time>2015-01-19T20:58:39.810Z</time>
      </trkpt>
      <trkpt lat="48.85803" lon="2.302">
        <ele>90.8</ele>
        <time>2015-01-19T20:58:40.832Z</time>
      </trkpt>
      <trkpt lat="48.85808" lon="2.30208">
        <ele>90.7</ele>
        <time>2015-01-19T20:58:42.813Z</time>
      </trkpt>
      <trkpt lat="48.8581" lon="2.30213">
        <ele>90.7</ele>
        <time>2015-01-19T20:58:43.845Z</time>
      </trkpt>
      <trkpt lat="48.85832" lon="2.30272">
        <ele>88.7</ele>
        <time>2015-01-19T20:59:03.837Z</time>
      </trkpt>
      <trkpt lat="48.85828" lon="2.30275">
        <ele>88.3</ele>
        <time>2015-01-19T20:59:04.860Z</time>
      </trkpt>
      <trkpt lat="48.85823" lon="2.30277">
        <ele>87.8</ele>
        <time>2015-01-19T20:59:05.875Z</time>
      </trkpt>
      <trkpt lat="48.85818" lon="2.3028">
        <ele>87.2</ele>
        <time>2015-01-19T20:59:06.899Z</time>
      </trkpt>
      <trkpt lat="48.85814" lon="2.30281">
        <ele>86.5</ele>
        <time>2015-01-19T20:59:07.818Z</time>
      </trkpt>
      <trkpt lat="48.85808" lon="2.30289">
        <ele>84.7</ele>
        <time>2015-01-19T20:59:11.050Z</time>
      </trkpt>
      <trkpt lat="48.85806" lon="2.30292">
        <ele>83.6</ele>
        <time>2015-01-19T20:59:11.829Z</time>
      </trkpt>
      <trkpt lat="48.858" lon="2.303">
        <ele>80.3</ele>
        <time>2015-01-19T20:59:14.861Z</time>
      </trkpt>
      <trkpt lat="48.85798" lon="2.30303">
        <ele>79.5</ele>
        <time>2015-01-19T20:59:15.912Z</time>
      </trkpt>
      <trkpt lat="48.85792" lon="2.30311">
        <ele>78.1</ele>
        <time>2015-01-19T20:59:17.832Z</time>
      </trkpt>
      <trkpt lat="48.85788" lon="2.30316">
        <ele>77.3</ele>
        <time>2015-01-19T20:59:18.843Z</time>
      </trkpt>
      <trkpt lat="48.85785" lon="2.3032">
        <ele>76.5</ele>
        <time>2015-01-19T20:59:19.867Z</time>
      </trkpt>
      <trkpt lat="48.85781" lon="2.30324">
        <ele>75.8</ele>
        <time>2015-01-19T20:59:20.875Z</time>
      </trkpt>
      <trkpt lat="48.85776" lon="2.30328">
        <ele>74.7</ele>
        <time>2015-01-19T20:59:21.895Z</time>
      </trkpt>
      <trkpt lat="48.85772" lon="2.30332">
        <ele>74.1</ele>
        <time>2015-01-19T20:59:22.835Z</time>
      </trkpt>
      <trkpt lat="48.85768" lon="2.30336">
        <ele>73.2</ele>
        <time>2015-01-19T20:59:23.841Z</time>
      </trkpt>
      <trkpt lat="48.85764" lon="2.3034">
        <ele>72.5</ele>
        <time>2015-01-19T20:59:24.847Z</time>
      </trkpt>
      <trkpt lat="48.85757" lon="2.30343">
        <ele>78</ele>
        <time>2015-01-19T20:59:25.856Z</time>
      </trkpt>
      <trkpt lat="48.85751" lon="2.30346">
        <ele>78.9</ele>
        <time>2015-01-19T20:59:26.863Z</time>
      </trkpt>
      <trkpt lat="48.85747" lon="2.3035">
        <ele>78.9</ele>
        <time>2015-01-19T20:59:27.896Z</time>
      </trkpt>
      <trkpt lat="48.85743" lon="2.30353">
        <ele>79</ele>
        <time>2015-01-19T20:59:28.902Z</time>
      </trkpt>
      <trkpt lat="48.85739" lon="2.30355">
        <ele>79</ele>
        <time>2015-01-19T20:59:29.932Z</time>
      </trkpt>
      <trkpt lat="48.85734" lon="2.3036">
        <ele>78.8</ele>
        <time>2015-01-19T20:59:30.824Z</time>
      </trkpt>
      <trkpt lat="48.85729" lon="2.30362">
        <ele>78.9</ele>
        <time>2015-01-19T20:59:31.825Z</time>
      </trkpt>
      <trkpt lat="48.85724" lon="2.30365">
        <ele>79.8</ele>
        <time>2015-01-19T20:59:32.867Z</time>
      </trkpt>
      <trkpt lat="48.85714" lon="2.30371">
        <ele>84.5</ele>
        <time>2015-01-19T20:59:33.895Z</time>
      </trkpt>
      <trkpt lat="48.85707" lon="2.30375">
        <ele>87.6</ele>
        <time>2015-01-19T20:59:34.904Z</time>
      </trkpt>
      <trkpt lat="48.857" lon="2.3038">
        <ele>89.7</ele>
        <time>2015-01-19T20:59:35.922Z</time>
      </trkpt>
      <trkpt lat="48.85691" lon="2.30379">
        <ele>90.6</ele>
        <time>2015-01-19T20:59:37.820Z</time>
      </trkpt>
      <trkpt lat="48.85688" lon="2.30379">
        <ele>91</ele>
        <time>2015-01-19T20:59:38.856Z</time>
      </trkpt>
      <trkpt lat="48.85677" lon="2.30378">
        <ele>92.3</ele>
        <time>2015-01-19T20:59:42.905Z</time>
      </trkpt>
      <trkpt lat="48.8568" lon="2.30387">
        <ele>90.3</ele>
        <time>2015-01-19T20:59:47.905Z</time>
      </trkpt>
      <trkpt lat="48.85683" lon="2.30388">
        <ele>89.9</ele>
        <time>2015-01-19T20:59:48.952Z</time>
      </trkpt>
      <trkpt lat="48.85688" lon="2.30395">
        <ele>90.2</ele>
        <time>2015-01-19T20:59:51.909Z</time>
      </trkpt>
      <trkpt lat="48.85689" lon="2.30398">
        <ele>90.6</ele>
        <time>2015-01-19T20:59:52.909Z</time>
      </trkpt>
      <trkpt lat="48.85695" lon="2.30408">
        <ele>91.6</ele>
        <time>2015-01-19T20:59:56.953Z</time>
      </trkpt>
      <trkpt lat="48.85695" lon="2.30411">
        <ele>91.6</ele>
        <time>2015-01-19T20:59:57.938Z</time>
      </trkpt>
      <trkpt lat="48.85703" lon="2.30416">
        <ele>93.7</ele>
        <time>2015-01-19T21:00:01.923Z</time>
      </trkpt>
      <trkpt lat="48.85705" lon="2.30418">
        <ele>93.7</ele>
        <time>2015-01-19T21:00:03.018Z</time>
      </trkpt>
      <trkpt lat="48.85709" lon="2.30426">
        <ele>95.5</ele>
        <time>2015-01-19T21:00:06.916Z</time>
      </trkpt>
      <trkpt lat="48.85712" lon="2.30426">
        <ele>95.7</ele>
        <time>2015-01-19T21:00:07.869Z</time>
      </trkpt>
      <trkpt lat="48.85718" lon="2.30431">
        <ele>95.7</ele>
        <time>2015-01-19T21:00:09.837Z</time>
      </trkpt>
      <trkpt lat="48.8572" lon="2.30434">
        <ele>95.8</ele>
        <time>2015-01-19T21:00:10.851Z</time>
      </trkpt>
      <trkpt lat="48.85722" lon="2.30446">
        <ele>96.8</ele>
        <time>2015-01-19T21:00:14.033Z</time>
      </trkpt>
      <trkpt lat="48.85722" lon="2.3045">
        <ele>97.6</ele>
        <time>2015-01-19T21:00:14.898Z</time>
      </trkpt>
      <trkpt lat="48.85723" lon="2.3046">
        <ele>100</ele>
        <time>2015-01-19T21:00:16.885Z</time>
      </trkpt>
      <trkpt lat="48.85724" lon="2.30466">
        <ele>100.8</ele>
        <time>2015-01-19T21:00:17.930Z</time>
      </trkpt>
      <trkpt lat="48.85726" lon="2.30476">
        <ele>101.9</ele>
        <time>2015-01-19T21:00:19.900Z</time>
      </trkpt>
      <trkpt lat="48.85727" lon="2.30482">
        <ele>102.4</ele>
        <time>2015-01-19T21:00:20.935Z</time>
      </trkpt>
      <trkpt lat="48.8573" lon="2.30494">
        <ele>103.3</ele>
        <time>2015-01-19T21:00:22.906Z</time>
      </trkpt>
      <trkpt lat="48.85732" lon="2.305">
        <ele>103.7</ele>
        <time>2015-01-19T21:00:23.882Z</time>
      </trkpt>
      <trkpt lat="48.85736" lon="2.30511">
        <ele>103.5</ele>
        <time>2015-01-19T21:00:25.944Z</time>
      </trkpt>
      <trkpt lat="48.85739" lon="2.30515">
        <ele>104.7</ele>
        <time>2015-01-19T21:00:26.958Z</time>
      </trkpt>
      <trkpt lat="48.85733" lon="2.3052">
        <ele>104.6</ele>
        <time>2015-01-19T21:00:29.900Z</time>
      </trkpt>
      <trkpt lat="48.85729" lon="2.30523">
        <ele>104.8</ele>
        <time>2015-01-19T21:00:30.920Z</time>
      </trkpt>
      <trkpt lat="48.85722" lon="2.30528">
        <ele>104.7</ele>
        <time>2015-01-19T21:00:32.928Z</time>
      </trkpt>
      <trkpt lat="48.85718" lon="2.3053">
        <ele>104.7</ele>
        <time>2015-01-19T21:00:33.944Z</time>
      </trkpt>
      <trkpt lat="48.8571" lon="2.30534">
        <ele>104.5</ele>
        <time>2015-01-19T21:00:35.837Z</time>
      </trkpt>
      <trkpt lat="48.85706" lon="2.30536">
        <ele>104.6</ele>
        <time>2015-01-19T21:00:36.850Z</time>
      </trkpt>
      <trkpt lat="48.85698" lon="2.30539">
        <ele>104.4</ele>
        <time>2015-01-19T21:00:38.944Z</time>
      </trkpt>
      <trkpt lat="48.85693" lon="2.3054">
        <ele>104.2</ele>
        <time>2015-01-19T21:00:39.828Z</time>
      </trkpt>
      <trkpt lat="48.85686" lon="2.30544">
        <ele>104.2</ele>
        <time>2015-01-19T21:00:41.865Z</time>
      </trkpt>
      <trkpt lat="48.85683" lon="2.30545">
        <ele>104.2</ele>
        <time>2015-01-19T21:00:42.879Z</time>
      </trkpt>
      <trkpt lat="48.85677" lon="2.30549">
        <ele>104.1</ele>
        <time>2015-01-19T21:00:44.950Z</time>
      </trkpt>
      <trkpt lat="48.85674" lon="2.3055">
        <ele>104</ele>
        <time>2015-01-19T21:00:45.826Z</time>
      </trkpt>
      <trkpt lat="48.85668" lon="2.30554">
        <ele>103.9</ele>
        <time>2015-01-19T21:00:47.880Z</time>
      </trkpt>
      <trkpt lat="48.85664" lon="2.30555">
        <ele>103.9</ele>
        <time>2015-01-19T21:00:48.887Z</time>
      </trkpt>
      <trkpt lat="48.85661" lon="2.30557">
        <ele>103.9</ele>
        <time>2015-01-19T21:00:49.907Z</time>
      </trkpt>
      <trkpt lat="48.85654" lon="2.30559">
        <ele>103.8</ele>
        <time>2015-01-19T21:00:51.819Z</time>
      </trkpt>
      <trkpt lat="48.85648" lon="2.30558">
        <ele>103.9</ele>
        <time>2015-01-19T21:00:53.845Z</time>
      </trkpt>
      <trkpt lat="48.85681" lon="2.30518">
        <ele>98.8</ele>
        <time>2015-01-19T21:01:42.856Z</time>
      </trkpt>
      <trkpt lat="48.85691" lon="2.30522">
        <ele>98</ele>
        <time>2015-01-19T21:01:43.867Z</time>
      </trkpt>
      <trkpt lat="48.85707" lon="2.30524">
        <ele>95.8</ele>
        <time>2015-01-19T21:01:44.872Z</time>
      </trkpt>
      <trkpt lat="48.85715" lon="2.30528">
        <ele>95.9</ele>
        <time>2015-01-19T21:01:45.894Z</time>
      </trkpt>
      <trkpt lat="48.85721" lon="2.30532">
        <ele>96.5</ele>
        <time>2015-01-19T21:01:46.919Z</time>
      </trkpt>
      <trkpt lat="48.85725" lon="2.30538">
        <ele>95.8</ele>
        <time>2015-01-19T21:01:47.841Z</time>
      </trkpt>
      <trkpt lat="48.8573" lon="2.30543">
        <ele>97</ele>
        <time>2015-01-19T21:01:48.839Z</time>
      </trkpt>
      <trkpt lat="48.85736" lon="2.30546">
        <ele>99.1</ele>
        <time>2015-01-19T21:01:49.852Z</time>
      </trkpt>
      <trkpt lat="48.85742" lon="2.30551">
        <ele>101</ele>
        <time>2015-01-19T21:01:50.879Z</time>
      </trkpt>
      <trkpt lat="48.85746" lon="2.30556">
        <ele>100.6</ele>
        <time>2015-01-19T21:01:51.906Z</time>
      </trkpt>
      <trkpt lat="48.8575" lon="2.30561">
        <ele>100.9</ele>
        <time>2015-01-19T21:01:52.917Z</time>
      </trkpt>
      <trkpt lat="48.85754" lon="2.30566">
        <ele>101.4</ele>
        <time>2015-01-19T21:01:53.850Z</time>
      </trkpt>
      <trkpt lat="48.85757" lon="2.3057">
        <ele>101.1</ele>
        <time>2015-01-19T21:01:54.850Z</time>
      </trkpt>
      <trkpt lat="48.85761" lon="2.30579">
        <ele>102</ele>
        <time>2015-01-19T21:01:56.902Z</time>
      </trkpt>
      <trkpt lat="48.85762" lon="2.30583">
        <ele>102.5</ele>
        <time>2015-01-19T21:01:57.928Z</time>
      </trkpt>
      <trkpt lat="48.85768" lon="2.3059">
        <ele>104.4</ele>
        <time>2015-01-19T21:02:00.861Z</time>
      </trkpt>
      <trkpt lat="48.8577" lon="2.30593">
        <ele>104.4</ele>
        <time>2015-01-19T21:02:01.888Z</time>
      </trkpt>
      <trkpt lat="48.85777" lon="2.30596">
        <ele>102.6</ele>
        <time>2015-01-19T21:02:03.840Z</time>
      </trkpt>
      <trkpt lat="48.85779" lon="2.30598">
        <ele>102.3</ele>
        <time>2015-01-19T21:02:04.849Z</time>
      </trkpt>
      <trkpt lat="48.85785" lon="2.30608">
        <ele>103.1</ele>
        <time>2015-01-19T21:02:08.892Z</time>
      </trkpt>
      <trkpt lat="48.85785" lon="2.30611">
        <ele>103.1</ele>
        <time>2015-01-19T21:02:09.849Z</time>
      </trkpt>
      <trkpt lat="48.85786" lon="2.30619">
        <ele>101.7</ele>
        <time>2015-01-19T21:02:11.883Z</time>
      </trkpt>
      <trkpt lat="48.85785" lon="2.30625">
        <ele>100.8</ele>
        <time>2015-01-19T21:02:12.888Z</time>
      </trkpt>
      <trkpt lat="48.85784" lon="2.30637">
        <ele>99.1</ele>
        <time>2015-01-19T21:02:14.871Z</time>
      </trkpt>
      <trkpt lat="48.85786" lon="2.30647">
        <ele>92.1</ele>
        <time>2015-01-19T21:02:15.878Z</time>
      </trkpt>
      <trkpt lat="48.85787" lon="2.30655">
        <ele>89.7</ele>
        <time>2015-01-19T21:02:16.843Z</time>
      </trkpt>
      <trkpt lat="48.8579" lon="2.30662">
        <ele>86.3</ele>
        <time>2015-01-19T21:02:17.841Z</time>
      </trkpt>
      <trkpt lat="48.8579" lon="2.30673">
        <ele>84.5</ele>
        <time>2015-01-19T21:02:19.857Z</time>
      </trkpt>
      <trkpt lat="48.85791" lon="2.30678">
        <ele>84.3</ele>
        <time>2015-01-19T21:02:20.867Z</time>
      </trkpt>
      <trkpt lat="48.8579" lon="2.30684">
        <ele>84.2</ele>
        <time>2015-01-19T21:02:21.879Z</time>
      </trkpt>
      <trkpt lat="48.85788" lon="2.30691">
        <ele>84.3</ele>
        <time>2015-01-19T21:02:22.992Z</time>
      </trkpt>
      <trkpt lat="48.85788" lon="2.30698">
        <ele>84.1</ele>
        <time>2015-01-19T21:02:23.840Z</time>
      </trkpt>
      <trkpt lat="48.85789" lon="2.30719">
        <ele>82.4</ele>
        <time>2015-01-19T21:02:26.867Z</time>
      </trkpt>
      <trkpt lat="48.8579" lon="2.30727">
        <ele>81.8</ele>
        <time>2015-01-19T21:02:27.874Z</time>
      </trkpt>
      <trkpt lat="48.85789" lon="2.30734">
        <ele>82</ele>
        <time>2015-01-19T21:02:28.879Z</time>
      </trkpt>
      <trkpt lat="48.85785" lon="2.30742">
        <ele>82.6</ele>
        <time>2015-01-19T21:02:29.896Z</time>
      </trkpt>
      <trkpt lat="48.85786" lon="2.30747">
        <ele>82.7</ele>
        <time>2015-01-19T21:02:30.907Z</time>
      </trkpt>
      <trkpt lat="48.85787" lon="2.3076">
        <ele>81</ele>
        <time>2015-01-19T21:02:32.918Z</time>
      </trkpt>
      <trkpt lat="48.85789" lon="2.30765">
        <ele>80.8</ele>
        <time>2015-01-19T21:02:33.843Z</time>
      </trkpt>
      <trkpt lat="48.85792" lon="2.3077">
        <ele>80.1</ele>
        <time>2015-01-19T21:02:34.815Z</time>
      </trkpt>
      <trkpt lat="48.85794" lon="2.30776">
        <ele>80</ele>
        <time>2015-01-19T21:02:35.835Z</time>
      </trkpt>
      <trkpt lat="48.85796" lon="2.30783">
        <ele>79.8</ele>
        <time>2015-01-19T21:02:36.838Z</time>
      </trkpt>
      <trkpt lat="48.85797" lon="2.30789">
        <ele>79.7</ele>
        <time>2015-01-19T21:02:37.850Z</time>
      </trkpt>
      <trkpt lat="48.85796" lon="2.30802">
        <ele>80.1</ele>
        <time>2015-01-19T21:02:39.906Z</time>
      </trkpt>
      <trkpt lat="48.85796" lon="2.30808">
        <ele>80.6</ele>
        <time>2015-01-19T21:02:40.808Z</time>
      </trkpt>
      <trkpt lat="48.85796" lon="2.30815">
        <ele>81.1</ele>
        <time>2015-01-19T21:02:41.848Z</time>
      </trkpt>
      <trkpt lat="48.85797" lon="2.30823">
        <ele>82</ele>
        <time>2015-01-19T21:02:42.825Z</time>
      </trkpt>
      <trkpt lat="48.85797" lon="2.30834">
        <ele>82.4</ele>
        <time>2015-01-19T21:02:44.921Z</time>
      </trkpt>
      <trkpt lat="48.85797" lon="2.3084">
        <ele>82.6</ele>
        <time>2015-01-19T21:02:45.870Z</time>
      </trkpt>
      <trkpt lat="48.85801" lon="2.30849">
        <ele>83</ele>
        <time>2015-01-19T21:02:46.883Z</time>
      </trkpt>
      <trkpt lat="48.85802" lon="2.30856">
        <ele>82.7</ele>
        <time>2015-01-19T21:02:47.887Z</time>
      </trkpt>
      <trkpt lat="48.85802" lon="2.30864">
        <ele>82.6</ele>
        <time>2015-01-19T21:02:48.915Z</time>
      </trkpt>
      <trkpt lat="48.85802" lon="2.3087">
        <ele>82.6</ele>
        <time>2015-01-19T21:02:49.925Z</time>
      </trkpt>
      <trkpt lat="48.85802" lon="2.30877">
        <ele>82.6</ele>
        <time>2015-01-19T21:02:50.939Z</time>
      </trkpt>
      <trkpt lat="48.85801" lon="2.30884">
        <ele>82.5</ele>
        <time>2015-01-19T21:02:51.833Z</time>
      </trkpt>
      <trkpt lat="48.858" lon="2.30897">
        <ele>82.5</ele>
        <time>2015-01-19T21:02:53.845Z</time>
      </trkpt>
      <trkpt lat="48.85799" lon="2.30905">
        <ele>82.6</ele>
        <time>2015-01-19T21:02:54.851Z</time>
      </trkpt>
      <trkpt lat="48.85797" lon="2.30912">
        <ele>82.8</ele>
        <time>2015-01-19T21:02:55.923Z</time>
      </trkpt>
      <trkpt lat="48.85796" lon="2.3092">
        <ele>83</ele>
        <time>2015-01-19T21:02:56.932Z</time>
      </trkpt>
      <trkpt lat="48.85797" lon="2.30927">
        <ele>83.2</ele>
        <time>2015-01-19T21:02:57.833Z</time>
      </trkpt>
      <trkpt lat="48.85796" lon="2.30934">
        <ele>83.3</ele>
        <time>2015-01-19T21:02:58.835Z</time>
      </trkpt>
      <trkpt lat="48.85795" lon="2.30946">
        <ele>83.4</ele>
        <time>2015-01-19T21:03:00.847Z</time>
      </trkpt>
      <trkpt lat="48.85795" lon="2.30951">
        <ele>83.4</ele>
        <time>2015-01-19T21:03:01.886Z</time>
      </trkpt>
      <trkpt lat="48.85793" lon="2.30963">
        <ele>83.6</ele>
        <time>2015-01-19T21:03:03.838Z</time>
      </trkpt>
      <trkpt lat="48.85793" lon="2.30968">
        <ele>83.8</ele>
        <time>2015-01-19T21:03:04.845Z</time>
      </trkpt>
      <trkpt lat="48.85796" lon="2.3098">
        <ele>83.9</ele>
        <time>2015-01-19T21:03:06.866Z</time>
      </trkpt>
      <trkpt lat="48.85798" lon="2.30983">
        <ele>84</ele>
        <time>2015-01-19T21:03:07.889Z</time>
      </trkpt>
      <trkpt lat="48.85801" lon="2.30995">
        <ele>85.2</ele>
        <time>2015-01-19T21:03:13.007Z</time>
      </trkpt>
      <trkpt lat="48.85801" lon="2.30998">
        <ele>85</ele>
        <time>2015-01-19T21:03:13.878Z</time>
      </trkpt>
      <trkpt lat="48.85804" lon="2.3101">
        <ele>86</ele>
        <time>2015-01-19T21:03:17.871Z</time>
      </trkpt>
      <trkpt lat="48.85806" lon="2.31013">
        <ele>86.2</ele>
        <time>2015-01-19T21:03:18.881Z</time>
      </trkpt>
      <trkpt lat="48.85808" lon="2.31023">
        <ele>85.7</ele>
        <time>2015-01-19T21:03:21.869Z</time>
      </trkpt>
      <trkpt lat="48.85809" lon="2.31027">
        <ele>85.5</ele>
        <time>2015-01-19T21:03:22.908Z</time>
      </trkpt>
      <trkpt lat="48.85811" lon="2.3104">
        <ele>86</ele>
        <time>2015-01-19T21:03:26.912Z</time>
      </trkpt>
      <trkpt lat="48.85811" lon="2.31042">
        <ele>86</ele>
        <time>2015-01-19T21:03:27.924Z</time>
      </trkpt>
      <trkpt lat="48.85812" lon="2.31045">
        <ele>85.8</ele>
        <time>2015-01-19T21:03:30.918Z</time>
      </trkpt>
      <trkpt lat="48.85811" lon="2.31045">
        <ele>85.4</ele>
        <time>2015-01-19T21:03:31.934Z</time>
      </trkpt>
      <trkpt lat="48.85811" lon="2.31046">
        <ele>85.9</ele>
        <time>2015-01-19T21:03:33.862Z</time>
      </trkpt>
      <trkpt lat="48.85812" lon="2.31046">
        <ele>86.2</ele>
        <time>2015-01-19T21:03:34.869Z</time>
      </trkpt>
      <trkpt lat="48.85815" lon="2.31059">
        <ele>87.5</ele>
        <time>2015-01-19T21:03:40.859Z</time>
      </trkpt>
      <trkpt lat="48.85814" lon="2.31063">
        <ele>87.5</ele>
        <time>2015-01-19T21:03:41.885Z</time>
      </trkpt>
      <trkpt lat="48.85815" lon="2.31076">
        <ele>87.8</ele>
        <time>2015-01-19T21:03:44.898Z</time>
      </trkpt>
      <trkpt lat="48.85816" lon="2.31081">
        <ele>87.6</ele>
        <time>2015-01-19T21:03:45.925Z</time>
      </trkpt>
      <trkpt lat="48.85816" lon="2.31091">
        <ele>87.5</ele>
        <time>2015-01-19T21:03:47.868Z</time>
      </trkpt>
      <trkpt lat="48.85817" lon="2.31095">
        <ele>87.3</ele>
        <time>2015-01-19T21:03:48.871Z</time>
      </trkpt>
      <trkpt lat="48.85822" lon="2.31106">
        <ele>86.2</ele>
        <time>2015-01-19T21:03:51.912Z</time>
      </trkpt>
      <trkpt lat="48.85823" lon="2.31108">
        <ele>86.1</ele>
        <time>2015-01-19T21:03:52.921Z</time>
      </trkpt>
      <trkpt lat="48.85831" lon="2.31113">
        <ele>85.5</ele>
        <time>2015-01-19T21:03:59.933Z</time>
      </trkpt>
      <trkpt lat="48.85831" lon="2.31114">
        <ele>85.5</ele>
        <time>2015-01-19T21:04:00.915Z</time>
      </trkpt>
      <trkpt lat="48.85833" lon="2.31126">
        <ele>86.2</ele>
        <time>2015-01-19T21:04:05.849Z</time>
      </trkpt>
      <trkpt lat="48.85834" lon="2.3113">
        <ele>86.5</ele>
        <time>2015-01-19T21:04:06.866Z</time>
      </trkpt>
      <trkpt lat="48.85837" lon="2.31141">
        <ele>86.6</ele>
        <time>2015-01-19T21:04:08.925Z</time>
      </trkpt>
      <trkpt lat="48.85838" lon="2.31148">
        <ele>87.2</ele>
        <time>2015-01-19T21:04:10.053Z</time>
      </trkpt>
      <trkpt lat="48.85838" lon="2.31159">
        <ele>87.2</ele>
        <time>2015-01-19T21:04:11.891Z</time>
      </trkpt>
      <trkpt lat="48.85839" lon="2.31164">
        <ele>87.3</ele>
        <time>2015-01-19T21:04:12.952Z</time>
      </trkpt>
      <trkpt lat="48.8584" lon="2.31174">
        <ele>87.6</ele>
        <time>2015-01-19T21:04:14.991Z</time>
      </trkpt>
      <trkpt lat="48.85841" lon="2.31179">
        <ele>87.7</ele>
        <time>2015-01-19T21:04:15.874Z</time>
      </trkpt>
      <trkpt lat="48.85842" lon="2.3119">
        <ele>87.4</ele>
        <time>2015-01-19T21:04:17.858Z</time>
      </trkpt>
      <trkpt lat="48.85843" lon="2.31195">
        <ele>87.5</ele>
        <time>2015-01-19T21:04:18.855Z</time>
      </trkpt>
      <trkpt lat="48.85845" lon="2.31204">
        <ele>87.4</ele>
        <time>2015-01-19T21:04:20.913Z</time>
      </trkpt>
      <trkpt lat="48.85845" lon="2.31209">
        <ele>87.4</ele>
        <time>2015-01-19T21:04:21.932Z</time>
      </trkpt>
      <trkpt lat="48.85846" lon="2.31219">
        <ele>87.1</ele>
        <time>2015-01-19T21:04:23.866Z</time>
      </trkpt>
      <trkpt lat="48.85846" lon="2.31224">
        <ele>86.9</ele>
        <time>2015-01-19T21:04:24.840Z</time>
      </trkpt>
      <trkpt lat="48.85846" lon="2.31235">
        <ele>86.6</ele>
        <time>2015-01-19T21:04:26.880Z</time>
      </trkpt>
      <trkpt lat="48.85846" lon="2.31241">
        <ele>86.7</ele>
        <time>2015-01-19T21:04:27.916Z</time>
      </trkpt>
      <trkpt lat="48.85845" lon="2.31253">
        <ele>86.7</ele>
        <time>2015-01-19T21:04:29.945Z</time>
      </trkpt>
      <trkpt lat="48.85845" lon="2.31259">
        <ele>86.5</ele>
        <time>2015-01-19T21:04:30.946Z</time>
      </trkpt>
      <trkpt lat="48.85845" lon="2.31269">
        <ele>86.1</ele>
        <time>2015-01-19T21:04:32.995Z</time>
      </trkpt>
      <trkpt lat="48.85845" lon="2.31274">
        <ele>85.9</ele>
        <time>2015-01-19T21:04:33.947Z</time>
      </trkpt>
      <trkpt lat="48.85844" lon="2.31286">
        <ele>85.7</ele>
        <time>2015-01-19T21:04:35.868Z</time>
      </trkpt>
      <trkpt lat="48.85844" lon="2.31292">
        <ele>85.6</ele>
        <time>2015-01-19T21:04:36.879Z</time>
      </trkpt>
      <trkpt lat="48.85844" lon="2.31304">
        <ele>85.4</ele>
        <time>2015-01-19T21:04:38.975Z</time>
      </trkpt>
      <trkpt lat="48.85844" lon="2.3131">
        <ele>85.3</ele>
        <time>2015-01-19T21:04:39.882Z</time>
      </trkpt>
      <trkpt lat="48.85842" lon="2.31323">
        <ele>85.1</ele>
        <time>2015-01-19T21:04:41.899Z</time>
      </trkpt>
      <trkpt lat="48.85841" lon="2.31329">
        <ele>85</ele>
        <time>2015-01-19T21:04:42.933Z</time>
      </trkpt>
      <trkpt lat="48.8584" lon="2.31341">
        <ele>84.7</ele>
        <time>2015-01-19T21:04:44.966Z</time>
      </trkpt>
      <trkpt lat="48.85839" lon="2.31347">
        <ele>84.7</ele>
        <time>2015-01-19T21:04:45.843Z</time>
      </trkpt>
      <trkpt lat="48.85837" lon="2.3136">
        <ele>84.7</ele>
        <time>2015-01-19T21:04:47.868Z</time>
      </trkpt>
      <trkpt lat="48.85836" lon="2.31366">
        <ele>84.8</ele>
        <time>2015-01-19T21:04:48.860Z</time>
      </trkpt>
      <trkpt lat="48.85835" lon="2.31377">
        <ele>84.6</ele>
        <time>2015-01-19T21:04:50.926Z</time>
      </trkpt>
      <trkpt lat="48.85834" lon="2.31384">
        <ele>84.2</ele>
        <time>2015-01-19T21:04:51.940Z</time>
      </trkpt>
      <trkpt lat="48.85832" lon="2.3139">
        <ele>83.9</ele>
        <time>2015-01-19T21:04:52.957Z</time>
      </trkpt>
      <trkpt lat="48.8583" lon="2.31396">
        <ele>83.9</ele>
        <time>2015-01-19T21:04:53.896Z</time>
      </trkpt>
      <trkpt lat="48.85828" lon="2.31408">
        <ele>84</ele>
        <time>2015-01-19T21:04:55.920Z</time>
      </trkpt>
      <trkpt lat="48.85827" lon="2.31413">
        <ele>84.1</ele>
        <time>2015-01-19T21:04:56.933Z</time>
      </trkpt>
      <trkpt lat="48.85824" lon="2.31424">
        <ele>84.6</ele>
        <time>2015-01-19T21:04:58.866Z</time>
      </trkpt>
      <trkpt lat="48.85823" lon="2.3143">
        <ele>85</ele>
        <time>2015-01-19T21:04:59.876Z</time>
      </trkpt>
      <trkpt lat="48.85821" lon="2.31439">
        <ele>85.4</ele>
        <time>2015-01-19T21:05:01.923Z</time>
      </trkpt>
      <trkpt lat="48.85818" lon="2.31443">
        <ele>85.6</ele>
        <time>2015-01-19T21:05:02.966Z</time>
      </trkpt>
      <trkpt lat="48.85813" lon="2.31452">
        <ele>86.1</ele>
        <time>2015-01-19T21:05:04.883Z</time>
      </trkpt>
      <trkpt lat="48.8581" lon="2.31455">
        <ele>86.2</ele>
        <time>2015-01-19T21:05:05.913Z</time>
      </trkpt>
      <trkpt lat="48.85806" lon="2.31464">
        <ele>86.1</ele>
        <time>2015-01-19T21:05:07.877Z</time>
      </trkpt>
      <trkpt lat="48.85805" lon="2.31468">
        <ele>86</ele>
        <time>2015-01-19T21:05:08.922Z</time>
      </trkpt>
      <trkpt lat="48.85803" lon="2.31479">
        <ele>86.3</ele>
        <time>2015-01-19T21:05:10.858Z</time>
      </trkpt>
      <trkpt lat="48.85802" lon="2.31483">
        <ele>86.4</ele>
        <time>2015-01-19T21:05:12.006Z</time>
      </trkpt>
      <trkpt lat="48.85799" lon="2.31492">
        <ele>86.5</ele>
        <time>2015-01-19T21:05:13.892Z</time>
      </trkpt>
      <trkpt lat="48.85798" lon="2.31496">
        <ele>86.5</ele>
        <time>2015-01-19T21:05:14.900Z</time>
      </trkpt>
      <trkpt lat="48.85792" lon="2.31506">
        <ele>86.9</ele>
        <time>2015-01-19T21:05:17.871Z</time>
      </trkpt>
      <trkpt lat="48.85787" lon="2.31508">
        <ele>86.5</ele>
        <time>2015-01-19T21:05:18.882Z</time>
      </trkpt>
      <trkpt lat="48.8578" lon="2.3151">
        <ele>85.7</ele>
        <time>2015-01-19T21:05:20.927Z</time>
      </trkpt>
      <trkpt lat="48.85778" lon="2.31511">
        <ele>85.7</ele>
        <time>2015-01-19T21:05:21.963Z</time>
      </trkpt>
      <trkpt lat="48.8577" lon="2.31511">
        <ele>85.8</ele>
        <time>2015-01-19T21:05:25.878Z</time>
      </trkpt>
      <trkpt lat="48.85764" lon="2.3151">
        <ele>85.1</ele>
        <time>2015-01-19T21:05:26.897Z</time>
      </trkpt>
      <trkpt lat="48.85758" lon="2.31509">
        <ele>85.1</ele>
        <time>2015-01-19T21:05:28.932Z</time>
      </trkpt>
      <trkpt lat="48.85754" lon="2.31508">
        <ele>85.1</ele>
        <time>2015-01-19T21:05:29.952Z</time>
      </trkpt>
      <trkpt lat="48.85747" lon="2.31505">
        <ele>85.1</ele>
        <time>2015-01-19T21:05:31.859Z</time>
      </trkpt>
      <trkpt lat="48.85744" lon="2.31504">
        <ele>85</ele>
        <time>2015-01-19T21:05:32.940Z</time>
      </trkpt>
      <trkpt lat="48.85737" lon="2.31502">
        <ele>85</ele>
        <time>2015-01-19T21:05:34.849Z</time>
      </trkpt>
      <trkpt lat="48.85733" lon="2.31501">
        <ele>84.9</ele>
        <time>2015-01-19T21:05:35.953Z</time>
      </trkpt>
      <trkpt lat="48.85725" lon="2.315">
        <ele>84.9</ele>
        <time>2015-01-19T21:05:37.857Z</time>
      </trkpt>
      <trkpt lat="48.85721" lon="2.31499">
        <ele>84.8</ele>
        <time>2015-01-19T21:05:38.910Z</time>
      </trkpt>
      <trkpt lat="48.85714" lon="2.31499">
        <ele>84.6</ele>
        <time>2015-01-19T21:05:40.850Z</time>
      </trkpt>
      <trkpt lat="48.8571" lon="2.31499">
        <ele>84.6</ele>
        <time>2015-01-19T21:05:41.923Z</time>
      </trkpt>
      <trkpt lat="48.85701" lon="2.31497">
        <ele>84.6</ele>
        <time>2015-01-19T21:05:43.885Z</time>
      </trkpt>
      <trkpt lat="48.85697" lon="2.31498">
        <ele>84.7</ele>
        <time>2015-01-19T21:05:44.912Z</time>
      </trkpt>
      <trkpt lat="48.8569" lon="2.31499">
        <ele>84.8</ele>
        <time>2015-01-19T21:05:46.850Z</time>
      </trkpt>
      <trkpt lat="48.85684" lon="2.315">
        <ele>84.1</ele>
        <time>2015-01-19T21:05:47.866Z</time>
      </trkpt>
      <trkpt lat="48.85679" lon="2.31501">
        <ele>83.6</ele>
        <time>2015-01-19T21:05:48.872Z</time>
      </trkpt>
      <trkpt lat="48.85674" lon="2.31502">
        <ele>83.3</ele>
        <time>2015-01-19T21:05:49.892Z</time>
      </trkpt>
      <trkpt lat="48.85666" lon="2.31503">
        <ele>83</ele>
        <time>2015-01-19T21:05:51.905Z</time>
      </trkpt>
      <trkpt lat="48.85662" lon="2.31504">
        <ele>83</ele>
        <time>2015-01-19T21:05:52.912Z</time>
      </trkpt>
      <trkpt lat="48.85655" lon="2.31503">
        <ele>83.1</ele>
        <time>2015-01-19T21:05:54.864Z</time>
      </trkpt>
      <trkpt lat="48.85651" lon="2.31502">
        <ele>83.2</ele>
        <time>2015-01-19T21:05:55.917Z</time>
      </trkpt>
      <trkpt lat="48.85643" lon="2.31501">
        <ele>83.6</ele>
        <time>2015-01-19T21:05:57.910Z</time>
      </trkpt>
      <trkpt lat="48.85637" lon="2.31501">
        <ele>83</ele>
        <time>2015-01-19T21:05:58.855Z</time>
      </trkpt>
      <trkpt lat="48.85628" lon="2.315">
        <ele>82.8</ele>
        <time>2015-01-19T21:06:00.878Z</time>
      </trkpt>
      <trkpt lat="48.85625" lon="2.31499">
        <ele>82.8</ele>
        <time>2015-01-19T21:06:01.888Z</time>
      </trkpt>
      <trkpt lat="48.85618" lon="2.315">
        <ele>82.5</ele>
        <time>2015-01-19T21:06:03.896Z</time>
      </trkpt>
      <trkpt lat="48.85615" lon="2.31502">
        <ele>82.3</ele>
        <time>2015-01-19T21:06:04.901Z</time>
      </trkpt>
      <trkpt lat="48.85613" lon="2.31513">
        <ele>82.7</ele>
        <time>2015-01-19T21:06:09.897Z</time>
      </trkpt>
      <trkpt lat="48.85613" lon="2.31516">
        <ele>82.7</ele>
        <time>2015-01-19T21:06:10.844Z</time>
      </trkpt>
      <trkpt lat="48.85611" lon="2.31528">
        <ele>83.2</ele>
        <time>2015-01-19T21:06:13.876Z</time>
      </trkpt>
      <trkpt lat="48.8561" lon="2.31533">
        <ele>83</ele>
        <time>2015-01-19T21:06:14.940Z</time>
      </trkpt>
      <trkpt lat="48.85606" lon="2.31542">
        <ele>83.1</ele>
        <time>2015-01-19T21:06:16.859Z</time>
      </trkpt>
      <trkpt lat="48.85604" lon="2.31547">
        <ele>83.2</ele>
        <time>2015-01-19T21:06:17.898Z</time>
      </trkpt>
      <trkpt lat="48.856" lon="2.31556">
        <ele>83.3</ele>
        <time>2015-01-19T21:06:19.895Z</time>
      </trkpt>
      <trkpt lat="48.85598" lon="2.31562">
        <ele>83.3</ele>
        <time>2015-01-19T21:06:20.916Z</time>
      </trkpt>
      <trkpt lat="48.85596" lon="2.31572">
        <ele>83.5</ele>
        <time>2015-01-19T21:06:22.944Z</time>
      </trkpt>
      <trkpt lat="48.85594" lon="2.31576">
        <ele>83.4</ele>
        <time>2015-01-19T21:06:23.843Z</time>
      </trkpt>
      <trkpt lat="48.85591" lon="2.31584">
        <ele>83.3</ele>
        <time>2015-01-19T21:06:25.903Z</time>
      </trkpt>
      <trkpt lat="48.85589" lon="2.31589">
        <ele>83.3</ele>
        <time>2015-01-19T21:06:26.966Z</time>
      </trkpt>
      <trkpt lat="48.85586" lon="2.31598">
        <ele>83.4</ele>
        <time>2015-01-19T21:06:28.835Z</time>
      </trkpt>
      <trkpt lat="48.85584" lon="2.31603">
        <ele>83.4</ele>
        <time>2015-01-19T21:06:29.851Z</time>
      </trkpt>
      <trkpt lat="48.85582" lon="2.31615">
        <ele>83.3</ele>
        <time>2015-01-19T21:06:31.870Z</time>
      </trkpt>
      <trkpt lat="48.8558" lon="2.31621">
        <ele>83.3</ele>
        <time>2015-01-19T21:06:32.903Z</time>
      </trkpt>
      <trkpt lat="48.85578" lon="2.31629">
        <ele>83.3</ele>
        <time>2015-01-19T21:06:33.835Z</time>
      </trkpt>
      <trkpt lat="48.85578" lon="2.31638">
        <ele>83.4</ele>
        <time>2015-01-19T21:06:34.848Z</time>
      </trkpt>
      <trkpt lat="48.85577" lon="2.31645">
        <ele>83.3</ele>
        <time>2015-01-19T21:06:35.876Z</time>
      </trkpt>
      <trkpt lat="48.85575" lon="2.31653">
        <ele>83.3</ele>
        <time>2015-01-19T21:06:36.886Z</time>
      </trkpt>
      <trkpt lat="48.85574" lon="2.3166">
        <ele>83.2</ele>
        <time>2015-01-19T21:06:37.910Z</time>
      </trkpt>
      <trkpt lat="48.85573" lon="2.31668">
        <ele>83.1</ele>
        <time>2015-01-19T21:06:38.912Z</time>
      </trkpt>
      <trkpt lat="48.85572" lon="2.31676">
        <ele>82.9</ele>
        <time>2015-01-19T21:06:39.827Z</time>
      </trkpt>
      <trkpt lat="48.8557" lon="2.31684">
        <ele>82.8</ele>
        <time>2015-01-19T21:06:40.832Z</time>
      </trkpt>
      <trkpt lat="48.85568" lon="2.31692">
        <ele>82.7</ele>
        <time>2015-01-19T21:06:41.843Z</time>
      </trkpt>
      <trkpt lat="48.85566" lon="2.31701">
        <ele>82.6</ele>
        <time>2015-01-19T21:06:42.849Z</time>
      </trkpt>
      <trkpt lat="48.85564" lon="2.3171">
        <ele>82.4</ele>
        <time>2015-01-19T21:06:43.871Z</time>
      </trkpt>
      <trkpt lat="48.85563" lon="2.3172">
        <ele>82.3</ele>
        <time>2015-01-19T21:06:44.884Z</time>
      </trkpt>
      <trkpt lat="48.85561" lon="2.3173">
        <ele>82.2</ele>
        <time>2015-01-19T21:06:45.893Z</time>
      </trkpt>
      <trkpt lat="48.8556" lon="2.3174">
        <ele>82</ele>
        <time>2015-01-19T21:06:46.902Z</time>
      </trkpt>
      <trkpt lat="48.85558" lon="2.31749">
        <ele>81.9</ele>
        <time>2015-01-19T21:06:47.908Z</time>
      </trkpt>
      <trkpt lat="48.85556" lon="2.31757">
        <ele>81.8</ele>
        <time>2015-01-19T21:06:48.912Z</time>
      </trkpt>
      <trkpt lat="48.85553" lon="2.31766">
        <ele>81.7</ele>
        <time>2015-01-19T21:06:49.880Z</time>
      </trkpt>
      <trkpt lat="48.85553" lon="2.31778">
        <ele>81.5</ele>
        <time>2015-01-19T21:06:50.885Z</time>
      </trkpt>
      <trkpt lat="48.85551" lon="2.31789">
        <ele>81.4</ele>
        <time>2015-01-19T21:06:51.895Z</time>
      </trkpt>
      <trkpt lat="48.85547" lon="2.31808">
        <ele>81</ele>
        <time>2015-01-19T21:06:53.927Z</time>
      </trkpt>
      <trkpt lat="48.85522" lon="2.31919">
        <ele>79.8</ele>
        <time>2015-01-19T21:07:04.824Z</time>
      </trkpt>
      <trkpt lat="48.85519" lon="2.31931">
        <ele>79.6</ele>
        <time>2015-01-19T21:07:05.822Z</time>
      </trkpt>
      <trkpt lat="48.85365" lon="2.32631">
        <ele>80.4</ele>
        <time>2015-01-19T21:08:32.906Z</time>
      </trkpt>
      <trkpt lat="48.85369" lon="2.32644">
        <ele>80.7</ele>
        <time>2015-01-19T21:08:53.886Z</time>
      </trkpt>
      <trkpt lat="48.85361" lon="2.32647">
        <ele>80.6</ele>
        <time>2015-01-19T21:08:59.823Z</time>
      </trkpt>
      <trkpt lat="48.85359" lon="2.32647">
        <ele>80.6</ele>
        <time>2015-01-19T21:09:00.872Z</time>
      </trkpt>
      <trkpt lat="48.85357" lon="2.32656">
        <ele>79.7</ele>
        <time>2015-01-19T21:09:04.805Z</time>
      </trkpt>
      <trkpt lat="48.85353" lon="2.32658">
        <ele>80</ele>
        <time>2015-01-19T21:09:05.818Z</time>
      </trkpt>
      <trkpt lat="48.8524" lon="2.32698">
        <ele>81.2</ele>
        <time>2015-01-19T21:10:00.843Z</time>
      </trkpt>
      <trkpt lat="48.85236" lon="2.32696">
        <ele>81.3</ele>
        <time>2015-01-19T21:10:01.854Z</time>
      </trkpt>
      <trkpt lat="48.85231" lon="2.32693">
        <ele>81.4</ele>
        <time>2015-01-19T21:10:02.904Z</time>
      </trkpt>
      <trkpt lat="48.85225" lon="2.32687">
        <ele>81.7</ele>
        <time>2015-01-19T21:10:05.876Z</time>
      </trkpt>
      <trkpt lat="48.8522" lon="2.32686">
        <ele>81.3</ele>
        <time>2015-01-19T21:10:06.885Z</time>
      </trkpt>
      <trkpt lat="48.85213" lon="2.32683">
        <ele>81</ele>
        <time>2015-01-19T21:10:10.833Z</time>
      </trkpt>
      <trkpt lat="48.85211" lon="2.32683">
        <ele>80.9</ele>
        <time>2015-01-19T21:10:11.860Z</time>
      </trkpt>
      <trkpt lat="48.85203" lon="2.32683">
        <ele>80.6</ele>
        <time>2015-01-19T21:10:13.899Z</time>
      </trkpt>
      <trkpt lat="48.852" lon="2.32682">
        <ele>80.7</ele>
        <time>2015-01-19T21:10:15.000Z</time>
      </trkpt>
      <trkpt lat="48.85194" lon="2.32682">
        <ele>80.7</ele>
        <time>2015-01-19T21:10:16.836Z</time>
      </trkpt>
      <trkpt lat="48.8519" lon="2.32683">
        <ele>80.5</ele>
        <time>2015-01-19T21:10:17.859Z</time>
      </trkpt>
      <trkpt lat="48.85183" lon="2.32684">
        <ele>80.7</ele>
        <time>2015-01-19T21:10:19.799Z</time>
      </trkpt>
      <trkpt lat="48.85181" lon="2.32685">
        <ele>80.7</ele>
        <time>2015-01-19T21:10:20.879Z</time>
      </trkpt>
      <trkpt lat="48.85176" lon="2.32685">
        <ele>81.7</ele>
        <time>2015-01-19T21:10:21.898Z</time>
      </trkpt>
      <trkpt lat="48.85171" lon="2.32686">
        <ele>82.8</ele>
        <time>2015-01-19T21:10:22.911Z</time>
      </trkpt>
      <trkpt lat="48.85165" lon="2.32691">
        <ele>84.7</ele>
        <time>2015-01-19T21:10:24.835Z</time>
      </trkpt>
      <trkpt lat="48.85163" lon="2.32696">
        <ele>85</ele>
        <time>2015-01-19T21:10:25.848Z</time>
      </trkpt>
      <trkpt lat="48.85158" lon="2.32706">
        <ele>85.1</ele>
        <time>2015-01-19T21:10:27.888Z</time>
      </trkpt>
      <trkpt lat="48.85159" lon="2.32713">
        <ele>84</ele>
        <time>2015-01-19T21:10:28.979Z</time>
      </trkpt>
      <trkpt lat="48.85157" lon="2.32725">
        <ele>83.2</ele>
        <time>2015-01-19T21:10:30.843Z</time>
      </trkpt>
      <trkpt lat="48.85157" lon="2.32732">
        <ele>82.7</ele>
        <time>2015-01-19T21:10:31.874Z</time>
      </trkpt>
      <trkpt lat="48.85157" lon="2.32739">
        <ele>82.2</ele>
        <time>2015-01-19T21:10:32.901Z</time>
      </trkpt>
      <trkpt lat="48.85158" lon="2.32747">
        <ele>81.4</ele>
        <time>2015-01-19T21:10:33.960Z</time>
      </trkpt>
      <trkpt lat="48.85158" lon="2.32754">
        <ele>81.1</ele>
        <time>2015-01-19T21:10:34.903Z</time>
      </trkpt>
      <trkpt lat="48.85159" lon="2.32761">
        <ele>80.6</ele>
        <time>2015-01-19T21:10:35.918Z</time>
      </trkpt>
      <trkpt lat="48.85159" lon="2.32768">
        <ele>80.4</ele>
        <time>2015-01-19T21:10:36.826Z</time>
      </trkpt>
      <trkpt lat="48.8516" lon="2.32775">
        <ele>80.1</ele>
        <time>2015-01-19T21:10:37.846Z</time>
      </trkpt>
      <trkpt lat="48.85161" lon="2.32783">
        <ele>79.9</ele>
        <time>2015-01-19T21:10:38.882Z</time>
      </trkpt>
      <trkpt lat="48.85162" lon="2.3279">
        <ele>79.8</ele>
        <time>2015-01-19T21:10:39.895Z</time>
      </trkpt>
      <trkpt lat="48.85163" lon="2.32798">
        <ele>79.6</ele>
        <time>2015-01-19T21:10:40.908Z</time>
      </trkpt>
      <trkpt lat="48.85165" lon="2.32805">
        <ele>79.5</ele>
        <time>2015-01-19T21:10:41.915Z</time>
      </trkpt>
      <trkpt lat="48.85166" lon="2.32818">
        <ele>79.4</ele>
        <time>2015-01-19T21:10:43.818Z</time>
      </trkpt>
      <trkpt lat="48.85167" lon="2.32824">
        <ele>79.3</ele>
        <time>2015-01-19T21:10:44.856Z</time>
      </trkpt>
      <trkpt lat="48.85169" lon="2.32831">
        <ele>79.2</ele>
        <time>2015-01-19T21:10:45.863Z</time>
      </trkpt>
      <trkpt lat="48.85173" lon="2.32837">
        <ele>79.1</ele>
        <time>2015-01-19T21:10:46.871Z</time>
      </trkpt>
      <trkpt lat="48.85175" lon="2.32843">
        <ele>79.1</ele>
        <time>2015-01-19T21:10:47.881Z</time>
      </trkpt>
      <trkpt lat="48.85176" lon="2.3285">
        <ele>79.2</ele>
        <time>2015-01-19T21:10:48.898Z</time>
      </trkpt>
      <trkpt lat="48.85178" lon="2.32856">
        <ele>79.2</ele>
        <time>2015-01-19T21:10:49.903Z</time>
      </trkpt>
      <trkpt lat="48.85181" lon="2.32863">
        <ele>79.1</ele>
        <time>2015-01-19T21:10:50.954Z</time>
      </trkpt>
      <trkpt lat="48.85182" lon="2.3287">
        <ele>79</ele>
        <time>2015-01-19T21:10:51.838Z</time>
      </trkpt>
      <trkpt lat="48.85185" lon="2.32876">
        <ele>79</ele>
        <time>2015-01-19T21:10:52.835Z</time>
      </trkpt>
      <trkpt lat="48.85186" lon="2.32883">
        <ele>78.9</ele>
        <time>2015-01-19T21:10:53.842Z</time>
      </trkpt>
      <trkpt lat="48.85187" lon="2.32889">
        <ele>78.7</ele>
        <time>2015-01-19T21:10:54.850Z</time>
      </trkpt>
      <trkpt lat="48.85189" lon="2.32902">
        <ele>78.5</ele>
        <time>2015-01-19T21:10:56.934Z</time>
      </trkpt>
      <trkpt lat="48.8519" lon="2.32909">
        <ele>78.6</ele>
        <time>2015-01-19T21:10:57.910Z</time>
      </trkpt>
      <trkpt lat="48.85192" lon="2.32916">
        <ele>78.7</ele>
        <time>2015-01-19T21:10:58.965Z</time>
      </trkpt>
      <trkpt lat="48.85194" lon="2.32922">
        <ele>78.7</ele>
        <time>2015-01-19T21:10:59.910Z</time>
      </trkpt>
      <trkpt lat="48.85198" lon="2.32934">
        <ele>79.1</ele>
        <time>2015-01-19T21:11:01.920Z</time>
      </trkpt>
      <trkpt lat="48.852" lon="2.3294">
        <ele>79.3</ele>
        <time>2015-01-19T21:11:02.971Z</time>
      </trkpt>
      <trkpt lat="48.852" lon="2.32949">
        <ele>79.6</ele>
        <time>2015-01-19T21:11:04.839Z</time>
      </trkpt>
      <trkpt lat="48.85202" lon="2.32953">
        <ele>79.8</ele>
        <time>2015-01-19T21:11:05.850Z</time>
      </trkpt>
      <trkpt lat="48.85199" lon="2.32964">
        <ele>80.6</ele>
        <time>2015-01-19T21:11:07.870Z</time>
      </trkpt>
      <trkpt lat="48.85197" lon="2.32967">
        <ele>80.9</ele>
        <time>2015-01-19T21:11:08.885Z</time>
      </trkpt>
      <trkpt lat="48.8519" lon="2.32959">
        <ele>82.7</ele>
        <time>2015-01-19T21:11:14.884Z</time>
      </trkpt>
      <trkpt lat="48.8519" lon="2.32957">
        <ele>82.9</ele>
        <time>2015-01-19T21:11:15.921Z</time>
      </trkpt>
      <trkpt lat="48.85185" lon="2.32949">
        <ele>83</ele>
        <time>2015-01-19T21:11:18.887Z</time>
      </trkpt>
      <trkpt lat="48.85183" lon="2.32946">
        <ele>83</ele>
        <time>2015-01-19T21:11:19.915Z</time>
      </trkpt>
      <trkpt lat="48.85178" lon="2.32939">
        <ele>83</ele>
        <time>2015-01-19T21:11:21.864Z</time>
      </trkpt>
      <trkpt lat="48.85172" lon="2.32933">
        <ele>83</ele>
        <time>2015-01-19T21:11:23.917Z</time>
      </trkpt>
      <trkpt lat="48.85134" lon="2.32907">
        <ele>82.9</ele>
        <time>2015-01-19T21:11:33.800Z</time>
      </trkpt>
      <trkpt lat="48.8513" lon="2.32897">
        <ele>82.9</ele>
        <time>2015-01-19T21:11:35.834Z</time>
      </trkpt>
      <trkpt lat="48.85126" lon="2.32892">
        <ele>82.8</ele>
        <time>2015-01-19T21:11:36.845Z</time>
      </trkpt>
      <trkpt lat="48.85121" lon="2.32885">
        <ele>82.7</ele>
        <time>2015-01-19T21:11:38.879Z</time>
      </trkpt>
      <trkpt lat="48.85118" lon="2.32881">
        <ele>82.6</ele>
        <time>2015-01-19T21:11:39.894Z</time>
      </trkpt>
      <trkpt lat="48.85115" lon="2.32876">
        <ele>82.6</ele>
        <time>2015-01-19T21:11:40.782Z</time>
      </trkpt>
      <trkpt lat="48.8511" lon="2.32867">
        <ele>82.6</ele>
        <time>2015-01-19T21:11:42.818Z</time>
      </trkpt>
      <trkpt lat="48.85104" lon="2.32859">
        <ele>82.5</ele>
        <time>2015-01-19T21:11:44.824Z</time>
      </trkpt>
      <trkpt lat="48.85101" lon="2.32855">
        <ele>82.4</ele>
        <time>2015-01-19T21:11:45.823Z</time>
      </trkpt>
      <trkpt lat="48.85096" lon="2.32845">
        <ele>82.2</ele>
        <time>2015-01-19T21:11:48.927Z</time>
      </trkpt>
      <trkpt lat="48.85093" lon="2.32841">
        <ele>82.2</ele>
        <time>2015-01-19T21:11:49.821Z</time>
      </trkpt>
      <trkpt lat="48.85088" lon="2.32833">
        <ele>82.3</ele>
        <time>2015-01-19T21:11:51.866Z</time>
      </trkpt>
      <trkpt lat="48.85085" lon="2.32829">
        <ele>82.4</ele>
        <time>2015-01-19T21:11:52.919Z</time>
      </trkpt>
      <trkpt lat="48.85083" lon="2.32826">
        <ele>82.4</ele>
        <time>2015-01-19T21:11:53.807Z</time>
      </trkpt>
      <trkpt lat="48.85079" lon="2.32819">
        <ele>82.1</ele>
        <time>2015-01-19T21:11:54.815Z</time>
      </trkpt>
      <trkpt lat="48.85073" lon="2.32809">
        <ele>81.3</ele>
        <time>2015-01-19T21:11:55.824Z</time>
      </trkpt>
      <trkpt lat="48.85068" lon="2.32804">
        <ele>80.9</ele>
        <time>2015-01-19T21:11:56.842Z</time>
      </trkpt>
      <trkpt lat="48.85062" lon="2.32798">
        <ele>80.6</ele>
        <time>2015-01-19T21:11:57.854Z</time>
      </trkpt>
      <trkpt lat="48.85057" lon="2.32796">
        <ele>80.5</ele>
        <time>2015-01-19T21:11:58.863Z</time>
      </trkpt>
      <trkpt lat="48.85049" lon="2.32793">
        <ele>80.4</ele>
        <time>2015-01-19T21:12:00.809Z</time>
      </trkpt>
      <trkpt lat="48.85046" lon="2.32795">
        <ele>80.5</ele>
        <time>2015-01-19T21:12:01.815Z</time>
      </trkpt>
      <trkpt lat="48.8504" lon="2.32799">
        <ele>80.5</ele>
        <time>2015-01-19T21:12:03.847Z</time>
      </trkpt>
      <trkpt lat="48.85037" lon="2.32802">
        <ele>80.3</ele>
        <time>2015-01-19T21:12:04.860Z</time>
      </trkpt>
      <trkpt lat="48.85032" lon="2.32807">
        <ele>80.3</ele>
        <time>2015-01-19T21:12:06.815Z</time>
      </trkpt>
      <trkpt lat="48.85021" lon="2.32818">
        <ele>80.4</ele>
        <time>2015-01-19T21:12:10.886Z</time>
      </trkpt>
      <trkpt lat="48.85019" lon="2.32819">
        <ele>80.5</ele>
        <time>2015-01-19T21:12:11.805Z</time>
      </trkpt>
      <trkpt lat="48.84992" lon="2.32823">
        <ele>80.3</ele>
        <time>2015-01-19T21:12:20.852Z</time>
      </trkpt>
      <trkpt lat="48.84986" lon="2.32822">
        <ele>80.1</ele>
        <time>2015-01-19T21:12:21.885Z</time>
      </trkpt>
      <trkpt lat="48.8498" lon="2.32822">
        <ele>79.9</ele>
        <time>2015-01-19T21:12:22.917Z</time>
      </trkpt>
      <trkpt lat="48.84974" lon="2.32824">
        <ele>79.7</ele>
        <time>2015-01-19T21:12:23.821Z</time>
      </trkpt>
      <trkpt lat="48.84968" lon="2.32826">
        <ele>79.6</ele>
        <time>2015-01-19T21:12:24.827Z</time>
      </trkpt>
      <trkpt lat="48.84963" lon="2.32827">
        <ele>79.5</ele>
        <time>2015-01-19T21:12:25.839Z</time>
      </trkpt>
      <trkpt lat="48.84957" lon="2.3283">
        <ele>79.3</ele>
        <time>2015-01-19T21:12:26.865Z</time>
      </trkpt>
      <trkpt lat="48.84949" lon="2.32835">
        <ele>79</ele>
        <time>2015-01-19T21:12:28.903Z</time>
      </trkpt>
      <trkpt lat="48.84944" lon="2.32839">
        <ele>78.8</ele>
        <time>2015-01-19T21:12:29.823Z</time>
      </trkpt>
      <trkpt lat="48.8494" lon="2.32841">
        <ele>78.7</ele>
        <time>2015-01-19T21:12:30.875Z</time>
      </trkpt>
      <trkpt lat="48.84931" lon="2.3284">
        <ele>79.9</ele>
        <time>2015-01-19T21:12:31.889Z</time>
      </trkpt>
      <trkpt lat="48.84924" lon="2.32842">
        <ele>80</ele>
        <time>2015-01-19T21:12:32.898Z</time>
      </trkpt>
      <trkpt lat="48.84921" lon="2.32847">
        <ele>80.2</ele>
        <time>2015-01-19T21:12:33.911Z</time>
      </trkpt>
      <trkpt lat="48.84918" lon="2.32854">
        <ele>80.5</ele>
        <time>2015-01-19T21:12:34.822Z</time>
      </trkpt>
      <trkpt lat="48.84914" lon="2.3286">
        <ele>80.7</ele>
        <time>2015-01-19T21:12:35.817Z</time>
      </trkpt>
      <trkpt lat="48.84909" lon="2.32867">
        <ele>81.2</ele>
        <time>2015-01-19T21:12:37.835Z</time>
      </trkpt>
      <trkpt lat="48.84906" lon="2.32871">
        <ele>81.2</ele>
        <time>2015-01-19T21:12:38.913Z</time>
      </trkpt>
      <trkpt lat="48.84903" lon="2.32875">
        <ele>81.2</ele>
        <time>2015-01-19T21:12:39.800Z</time>
      </trkpt>
      <trkpt lat="48.84899" lon="2.32879">
        <ele>81.4</ele>
        <time>2015-01-19T21:12:40.822Z</time>
      </trkpt>
      <trkpt lat="48.84895" lon="2.32883">
        <ele>81.5</ele>
        <time>2015-01-19T21:12:41.820Z</time>
      </trkpt>
      <trkpt lat="48.84891" lon="2.32885">
        <ele>81.6</ele>
        <time>2015-01-19T21:12:42.823Z</time>
      </trkpt>
      <trkpt lat="48.84887" lon="2.32887">
        <ele>81.8</ele>
        <time>2015-01-19T21:12:43.867Z</time>
      </trkpt>
      <trkpt lat="48.84882" lon="2.3289">
        <ele>81.9</ele>
        <time>2015-01-19T21:12:44.888Z</time>
      </trkpt>
      <trkpt lat="48.84876" lon="2.32892">
        <ele>82</ele>
        <time>2015-01-19T21:12:45.792Z</time>
      </trkpt>
      <trkpt lat="48.84872" lon="2.32895">
        <ele>82.1</ele>
        <time>2015-01-19T21:12:46.805Z</time>
      </trkpt>
      <trkpt lat="48.84868" lon="2.32898">
        <ele>82.1</ele>
        <time>2015-01-19T21:12:47.832Z</time>
      </trkpt>
      <trkpt lat="48.84863" lon="2.32903">
        <ele>82</ele>
        <time>2015-01-19T21:12:48.843Z</time>
      </trkpt>
      <trkpt lat="48.84858" lon="2.32906">
        <ele>82</ele>
        <time>2015-01-19T21:12:49.806Z</time>
      </trkpt>
      <trkpt lat="48.84853" lon="2.32908">
        <ele>82.1</ele>
        <time>2015-01-19T21:12:50.846Z</time>
      </trkpt>
      <trkpt lat="48.84848" lon="2.32911">
        <ele>82.2</ele>
        <time>2015-01-19T21:12:51.855Z</time>
      </trkpt>
      <trkpt lat="48.84843" lon="2.32915">
        <ele>82.2</ele>
        <time>2015-01-19T21:12:52.863Z</time>
      </trkpt>
      <trkpt lat="48.84793" lon="2.32947">
        <ele>82.6</ele>
        <time>2015-01-19T21:13:02.887Z</time>
      </trkpt>
      <trkpt lat="48.84786" lon="2.3295">
        <ele>82.5</ele>
        <time>2015-01-19T21:13:05.385Z</time>
      </trkpt>
      <trkpt lat="48.84784" lon="2.32952">
        <ele>82.7</ele>
        <time>2015-01-19T21:13:05.826Z</time>
      </trkpt>
      <trkpt lat="48.84777" lon="2.32956">
        <ele>85.4</ele>
        <time>2015-01-19T21:13:11.820Z</time>
      </trkpt>
      <trkpt lat="48.84775" lon="2.32958">
        <ele>85.7</ele>
        <time>2015-01-19T21:13:12.812Z</time>
      </trkpt>
      <trkpt lat="48.84769" lon="2.32965">
        <ele>86.2</ele>
        <time>2015-01-19T21:13:15.918Z</time>
      </trkpt>
      <trkpt lat="48.84767" lon="2.32968">
        <ele>86.3</ele>
        <time>2015-01-19T21:13:16.835Z</time>
      </trkpt>
      <trkpt lat="48.84759" lon="2.32975">
        <ele>86.3</ele>
        <time>2015-01-19T21:13:18.864Z</time>
      </trkpt>
      <trkpt lat="48.84754" lon="2.32978">
        <ele>86.3</ele>
        <time>2015-01-19T21:13:19.878Z</time>
      </trkpt>
      <trkpt lat="48.84692" lon="2.33008">
        <ele>86.8</ele>
        <time>2015-01-19T21:13:30.901Z</time>
      </trkpt>
      <trkpt lat="48.84682" lon="2.33013">
        <ele>87</ele>
        <time>2015-01-19T21:13:31.934Z</time>
      </trkpt>
      <trkpt lat="48.84673" lon="2.3302">
        <ele>87</ele>
        <time>2015-01-19T21:13:32.947Z</time>
      </trkpt>
      <trkpt lat="48.84666" lon="2.33025">
        <ele>87.2</ele>
        <time>2015-01-19T21:13:33.831Z</time>
      </trkpt>
      <trkpt lat="48.8465" lon="2.33035">
        <ele>87.2</ele>
        <time>2015-01-19T21:13:36.908Z</time>
      </trkpt>
      <trkpt lat="48.84648" lon="2.33042">
        <ele>87.2</ele>
        <time>2015-01-19T21:13:37.820Z</time>
      </trkpt>
      <trkpt lat="48.84643" lon="2.33048">
        <ele>87.3</ele>
        <time>2015-01-19T21:13:38.862Z</time>
      </trkpt>
      <trkpt lat="48.84637" lon="2.33053">
        <ele>87.2</ele>
        <time>2015-01-19T21:13:39.905Z</time>
      </trkpt>
      <trkpt lat="48.84631" lon="2.33057">
        <ele>87.2</ele>
        <time>2015-01-19T21:13:40.919Z</time>
      </trkpt>
      <trkpt lat="48.84626" lon="2.33061">
        <ele>87.2</ele>
        <time>2015-01-19T21:13:41.852Z</time>
      </trkpt>
      <trkpt lat="48.8462" lon="2.33066">
        <ele>87.3</ele>
        <time>2015-01-19T21:13:42.840Z</time>
      </trkpt>
      <trkpt lat="48.84615" lon="2.33071">
        <ele>87.4</ele>
        <time>2015-01-19T21:13:43.873Z</time>
      </trkpt>
      <trkpt lat="48.84608" lon="2.33076">
        <ele>87.5</ele>
        <time>2015-01-19T21:13:44.887Z</time>
      </trkpt>
      <trkpt lat="48.84595" lon="2.33088">
        <ele>87.5</ele>
        <time>2015-01-19T21:13:46.822Z</time>
      </trkpt>
      <trkpt lat="48.84543" lon="2.33188">
        <ele>91.3</ele>
        <time>2015-01-19T21:13:59.837Z</time>
      </trkpt>
      <trkpt lat="48.84537" lon="2.33192">
        <ele>90.9</ele>
        <time>2015-01-19T21:14:00.816Z</time>
      </trkpt>
      <trkpt lat="48.84531" lon="2.33197">
        <ele>90.8</ele>
        <time>2015-01-19T21:14:01.816Z</time>
      </trkpt>
      <trkpt lat="48.84489" lon="2.33219">
        <ele>89.1</ele>
        <time>2015-01-19T21:14:08.845Z</time>
      </trkpt>
      <trkpt lat="48.84482" lon="2.33226">
        <ele>88.7</ele>
        <time>2015-01-19T21:14:11.813Z</time>
      </trkpt>
      <trkpt lat="48.8448" lon="2.33228">
        <ele>88.3</ele>
        <time>2015-01-19T21:14:12.807Z</time>
      </trkpt>
      <trkpt lat="48.84477" lon="2.33238">
        <ele>84</ele>
        <time>2015-01-19T21:14:15.879Z</time>
      </trkpt>
      <trkpt lat="48.84473" lon="2.33242">
        <ele>84.6</ele>
        <time>2015-01-19T21:14:16.823Z</time>
      </trkpt>
      <trkpt lat="48.84468" lon="2.33247">
        <ele>85</ele>
        <time>2015-01-19T21:14:17.824Z</time>
      </trkpt>
      <trkpt lat="48.84465" lon="2.33251">
        <ele>85.2</ele>
        <time>2015-01-19T21:14:18.832Z</time>
      </trkpt>
      <trkpt lat="48.84457" lon="2.33257">
        <ele>85.8</ele>
        <time>2015-01-19T21:14:20.933Z</time>
      </trkpt>
      <trkpt lat="48.84455" lon="2.3326">
        <ele>86.1</ele>
        <time>2015-01-19T21:14:21.827Z</time>
      </trkpt>
      <trkpt lat="48.84448" lon="2.33267">
        <ele>86.6</ele>
        <time>2015-01-19T21:14:23.805Z</time>
      </trkpt>
      <trkpt lat="48.84447" lon="2.33271">
        <ele>87</ele>
        <time>2015-01-19T21:14:24.862Z</time>
      </trkpt>
      <trkpt lat="48.8444" lon="2.33277">
        <ele>87.3</ele>
        <time>2015-01-19T21:14:26.918Z</time>
      </trkpt>
      <trkpt lat="48.84437" lon="2.33282">
        <ele>87.9</ele>
        <time>2015-01-19T21:14:27.810Z</time>
      </trkpt>
      <trkpt lat="48.84431" lon="2.33291">
        <ele>89.1</ele>
        <time>2015-01-19T21:14:30.652Z</time>
      </trkpt>
      <trkpt lat="48.84428" lon="2.33295">
        <ele>89.7</ele>
        <time>2015-01-19T21:14:30.806Z</time>
      </trkpt>
      <trkpt lat="48.84432" lon="2.33305">
        <ele>90.1</ele>
        <time>2015-01-19T21:14:34.870Z</time>
      </trkpt>
      <trkpt lat="48.84433" lon="2.33308">
        <ele>90.2</ele>
        <time>2015-01-19T21:14:34.945Z</time>
      </trkpt>
      <trkpt lat="48.84435" lon="2.3332">
        <ele>88.8</ele>
        <time>2015-01-19T21:14:37.917Z</time>
      </trkpt>
      <trkpt lat="48.84434" lon="2.33326">
        <ele>88.6</ele>
        <time>2015-01-19T21:14:39.047Z</time>
      </trkpt>
      <trkpt lat="48.84434" lon="2.33336">
        <ele>89</ele>
        <time>2015-01-19T21:14:40.873Z</time>
      </trkpt>
      <trkpt lat="48.84434" lon="2.33341">
        <ele>89.3</ele>
        <time>2015-01-19T21:14:41.889Z</time>
      </trkpt>
      <trkpt lat="48.84433" lon="2.3335">
        <ele>89.8</ele>
        <time>2015-01-19T21:14:43.846Z</time>
      </trkpt>
      <trkpt lat="48.84432" lon="2.33355">
        <ele>90.2</ele>
        <time>2015-01-19T21:14:44.890Z</time>
      </trkpt>
      <trkpt lat="48.84431" lon="2.33368">
        <ele>90.1</ele>
        <time>2015-01-19T21:14:47.823Z</time>
      </trkpt>
      <trkpt lat="48.84429" lon="2.33372">
        <ele>89.9</ele>
        <time>2015-01-19T21:14:48.812Z</time>
      </trkpt>
      <trkpt lat="48.8443" lon="2.33383">
        <ele>90.4</ele>
        <time>2015-01-19T21:14:50.852Z</time>
      </trkpt>
      <trkpt lat="48.84431" lon="2.33388">
        <ele>90.5</ele>
        <time>2015-01-19T21:14:51.862Z</time>
      </trkpt>
      <trkpt lat="48.84431" lon="2.33399">
        <ele>91</ele>
        <time>2015-01-19T21:14:53.883Z</time>
      </trkpt>
      <trkpt lat="48.84431" lon="2.33405">
        <ele>91</ele>
        <time>2015-01-19T21:14:54.895Z</time>
      </trkpt>
      <trkpt lat="48.84431" lon="2.33417">
        <ele>91.5</ele>
        <time>2015-01-19T21:14:56.850Z</time>
      </trkpt>
      <trkpt lat="48.84429" lon="2.33423">
        <ele>91.9</ele>
        <time>2015-01-19T21:14:57.856Z</time>
      </trkpt>
      <trkpt lat="48.84428" lon="2.3343">
        <ele>92.3</ele>
        <time>2015-01-19T21:14:58.881Z</time>
      </trkpt>
      <trkpt lat="48.84427" lon="2.33436">
        <ele>92.3</ele>
        <time>2015-01-19T21:14:59.892Z</time>
      </trkpt>
      <trkpt lat="48.84425" lon="2.33448">
        <ele>91.9</ele>
        <time>2015-01-19T21:15:01.819Z</time>
      </trkpt>
      <trkpt lat="48.84423" lon="2.33454">
        <ele>92.1</ele>
        <time>2015-01-19T21:15:02.900Z</time>
      </trkpt>
      <trkpt lat="48.84424" lon="2.33466">
        <ele>92</ele>
        <time>2015-01-19T21:15:05.429Z</time>
      </trkpt>
      <trkpt lat="48.84423" lon="2.33473">
        <ele>91.9</ele>
        <time>2015-01-19T21:15:06.003Z</time>
      </trkpt>
      <trkpt lat="48.84422" lon="2.33485">
        <ele>92.1</ele>
        <time>2015-01-19T21:15:07.813Z</time>
      </trkpt>
      <trkpt lat="48.84421" lon="2.33493">
        <ele>93</ele>
        <time>2015-01-19T21:15:08.829Z</time>
      </trkpt>
      <trkpt lat="48.8442" lon="2.335">
        <ele>92.9</ele>
        <time>2015-01-19T21:15:10.575Z</time>
      </trkpt>
      <trkpt lat="48.84419" lon="2.33508">
        <ele>92.5</ele>
        <time>2015-01-19T21:15:10.850Z</time>
      </trkpt>
      <trkpt lat="48.8442" lon="2.33515">
        <ele>93.2</ele>
        <time>2015-01-19T21:15:11.795Z</time>
      </trkpt>
      <trkpt lat="48.84421" lon="2.33522">
        <ele>93.4</ele>
        <time>2015-01-19T21:15:12.899Z</time>
      </trkpt>
      <trkpt lat="48.8442" lon="2.33528">
        <ele>93.7</ele>
        <time>2015-01-19T21:15:13.923Z</time>
      </trkpt>
      <trkpt lat="48.84419" lon="2.33536">
        <ele>93.9</ele>
        <time>2015-01-19T21:15:14.929Z</time>
      </trkpt>
      <trkpt lat="48.84417" lon="2.33543">
        <ele>94</ele>
        <time>2015-01-19T21:15:15.790Z</time>
      </trkpt>
      <trkpt lat="48.84418" lon="2.3355">
        <ele>94</ele>
        <time>2015-01-19T21:15:16.935Z</time>
      </trkpt>
      <trkpt lat="48.84418" lon="2.33563">
        <ele>93.8</ele>
        <time>2015-01-19T21:15:18.841Z</time>
      </trkpt>
      <trkpt lat="48.84418" lon="2.33569">
        <ele>93.7</ele>
        <time>2015-01-19T21:15:19.855Z</time>
      </trkpt>
      <trkpt lat="48.84416" lon="2.33577">
        <ele>93.8</ele>
        <time>2015-01-19T21:15:20.887Z</time>
      </trkpt>
      <trkpt lat="48.84415" lon="2.33584">
        <ele>94</ele>
        <time>2015-01-19T21:15:21.905Z</time>
      </trkpt>
      <trkpt lat="48.84414" lon="2.33591">
        <ele>94.2</ele>
        <time>2015-01-19T21:15:22.818Z</time>
      </trkpt>
      <trkpt lat="48.84415" lon="2.336">
        <ele>93.3</ele>
        <time>2015-01-19T21:15:23.830Z</time>
      </trkpt>
      <trkpt lat="48.84417" lon="2.3361">
        <ele>92.5</ele>
        <time>2015-01-19T21:15:24.849Z</time>
      </trkpt>
      <trkpt lat="48.84419" lon="2.3362">
        <ele>91.9</ele>
        <time>2015-01-19T21:15:25.798Z</time>
      </trkpt>
      <trkpt lat="48.8442" lon="2.33628">
        <ele>91.1</ele>
        <time>2015-01-19T21:15:26.847Z</time>
      </trkpt>
      <trkpt lat="48.84417" lon="2.33635">
        <ele>91.2</ele>
        <time>2015-01-19T21:15:27.855Z</time>
      </trkpt>
      <trkpt lat="48.84417" lon="2.33643">
        <ele>91.4</ele>
        <time>2015-01-19T21:15:29.707Z</time>
      </trkpt>
      <trkpt lat="48.84417" lon="2.3365">
        <ele>91.7</ele>
        <time>2015-01-19T21:15:29.867Z</time>
      </trkpt>
      <trkpt lat="48.84417" lon="2.33657">
        <ele>92</ele>
        <time>2015-01-19T21:15:30.886Z</time>
      </trkpt>
      <trkpt lat="48.84417" lon="2.33664">
        <ele>92.3</ele>
        <time>2015-01-19T21:15:31.895Z</time>
      </trkpt>
      <trkpt lat="48.84419" lon="2.33671">
        <ele>92.7</ele>
        <time>2015-01-19T21:15:32.931Z</time>
      </trkpt>
      <trkpt lat="48.8442" lon="2.33678">
        <ele>93.2</ele>
        <time>2015-01-19T21:15:33.832Z</time>
      </trkpt>
      <trkpt lat="48.84421" lon="2.33686">
        <ele>93.6</ele>
        <time>2015-01-19T21:15:34.904Z</time>
      </trkpt>
      <trkpt lat="48.84421" lon="2.33693">
        <ele>93.8</ele>
        <time>2015-01-19T21:15:35.922Z</time>
      </trkpt>
      <trkpt lat="48.84422" lon="2.33699">
        <ele>94.3</ele>
        <time>2015-01-19T21:15:36.832Z</time>
      </trkpt>
      <trkpt lat="48.84424" lon="2.33706">
        <ele>95</ele>
        <time>2015-01-19T21:15:38.043Z</time>
      </trkpt>
      <trkpt lat="48.84425" lon="2.33718">
        <ele>95.6</ele>
        <time>2015-01-19T21:15:39.890Z</time>
      </trkpt>
      <trkpt lat="48.84425" lon="2.33725">
        <ele>95.8</ele>
        <time>2015-01-19T21:15:40.915Z</time>
      </trkpt>
      <trkpt lat="48.84426" lon="2.33737">
        <ele>96.4</ele>
        <time>2015-01-19T21:15:42.912Z</time>
      </trkpt>
      <trkpt lat="48.84426" lon="2.33743">
        <ele>96.7</ele>
        <time>2015-01-19T21:15:43.941Z</time>
      </trkpt>
      <trkpt lat="48.84427" lon="2.33754">
        <ele>96.7</ele>
        <time>2015-01-19T21:15:45.840Z</time>
      </trkpt>
      <trkpt lat="48.84428" lon="2.3376">
        <ele>96.4</ele>
        <time>2015-01-19T21:15:46.840Z</time>
      </trkpt>
      <trkpt lat="48.84426" lon="2.3377">
        <ele>96.4</ele>
        <time>2015-01-19T21:15:48.856Z</time>
      </trkpt>
      <trkpt lat="48.84425" lon="2.33775">
        <ele>96.7</ele>
        <time>2015-01-19T21:15:49.864Z</time>
      </trkpt>
      <trkpt lat="48.84421" lon="2.33786">
        <ele>97.4</ele>
        <time>2015-01-19T21:15:51.903Z</time>
      </trkpt>
      <trkpt lat="48.8442" lon="2.3379">
        <ele>97.2</ele>
        <time>2015-01-19T21:15:52.930Z</time>
      </trkpt>
      <trkpt lat="48.84418" lon="2.33799">
        <ele>97.5</ele>
        <time>2015-01-19T21:15:55.029Z</time>
      </trkpt>
      <trkpt lat="48.84416" lon="2.33805">
        <ele>97.9</ele>
        <time>2015-01-19T21:15:55.856Z</time>
      </trkpt>
      <trkpt lat="48.84414" lon="2.33817">
        <ele>98.6</ele>
        <time>2015-01-19T21:15:57.883Z</time>
      </trkpt>
      <trkpt lat="48.84412" lon="2.33822">
        <ele>98.9</ele>
        <time>2015-01-19T21:15:58.902Z</time>
      </trkpt>
      <trkpt lat="48.84406" lon="2.33831">
        <ele>99.1</ele>
        <time>2015-01-19T21:16:00.849Z</time>
      </trkpt>
      <trkpt lat="48.84403" lon="2.33836">
        <ele>99.3</ele>
        <time>2015-01-19T21:16:01.860Z</time>
      </trkpt>
      <trkpt lat="48.84401" lon="2.33846">
        <ele>99.4</ele>
        <time>2015-01-19T21:16:03.894Z</time>
      </trkpt>
      <trkpt lat="48.84401" lon="2.33851">
        <ele>99.2</ele>
        <time>2015-01-19T21:16:04.903Z</time>
      </trkpt>
      <trkpt lat="48.84402" lon="2.33861">
        <ele>99</ele>
        <time>2015-01-19T21:16:06.851Z</time>
      </trkpt>
      <trkpt lat="48.84402" lon="2.33865">
        <ele>99.1</ele>
        <time>2015-01-19T21:16:07.895Z</time>
      </trkpt>
      <trkpt lat="48.84404" lon="2.33878">
        <ele>99.4</ele>
        <time>2015-01-19T21:17:08.892Z</time>
      </trkpt>
      <trkpt lat="48.84385" lon="2.3391">
        <ele>118.4</ele>
        <time>2015-01-19T21:17:09.901Z</time>
      </trkpt>
      <trkpt lat="48.84387" lon="2.3392">
        <ele>118</ele>
        <time>2015-01-19T21:17:20.864Z</time>
      </trkpt>
      <trkpt lat="48.84386" lon="2.33923">
        <ele>117.8</ele>
        <time>2015-01-19T21:17:21.885Z</time>
      </trkpt>
      <trkpt lat="48.84385" lon="2.33933">
        <ele>116.8</ele>
        <time>2015-01-19T21:17:23.921Z</time>
      </trkpt>
      <trkpt lat="48.84384" lon="2.33937">
        <ele>116.7</ele>
        <time>2015-01-19T21:17:24.940Z</time>
      </trkpt>
      <trkpt lat="48.84385" lon="2.33948">
        <ele>116.6</ele>
        <time>2015-01-19T21:17:26.873Z</time>
      </trkpt>
      <trkpt lat="48.84385" lon="2.33953">
        <ele>116.2</ele>
        <time>2015-01-19T21:17:27.869Z</time>
      </trkpt>
      <trkpt lat="48.84384" lon="2.33962">
        <ele>115.4</ele>
        <time>2015-01-19T21:17:29.892Z</time>
      </trkpt>
      <trkpt lat="48.84382" lon="2.33966">
        <ele>115.1</ele>
        <time>2015-01-19T21:17:30.927Z</time>
      </trkpt>
      <trkpt lat="48.84381" lon="2.33979">
        <ele>114.8</ele>
        <time>2015-01-19T21:17:34.888Z</time>
      </trkpt>
      <trkpt lat="48.84382" lon="2.33983">
        <ele>114.6</ele>
        <time>2015-01-19T21:17:35.855Z</time>
      </trkpt>
      <trkpt lat="48.84385" lon="2.33994">
        <ele>114.4</ele>
        <time>2015-01-19T21:17:38.885Z</time>
      </trkpt>
      <trkpt lat="48.84384" lon="2.33997">
        <ele>114.3</ele>
        <time>2015-01-19T21:17:39.933Z</time>
      </trkpt>
      <trkpt lat="48.84382" lon="2.34009">
        <ele>114.1</ele>
        <time>2015-01-19T21:17:42.880Z</time>
      </trkpt>
      <trkpt lat="48.8438" lon="2.34014">
        <ele>114</ele>
        <time>2015-01-19T21:17:44.020Z</time>
      </trkpt>
      <trkpt lat="48.84377" lon="2.34023">
        <ele>114</ele>
        <time>2015-01-19T21:17:45.885Z</time>
      </trkpt>
      <trkpt lat="48.84376" lon="2.34027">
        <ele>114</ele>
        <time>2015-01-19T21:17:46.906Z</time>
      </trkpt>
      <trkpt lat="48.84373" lon="2.34035">
        <ele>114.1</ele>
        <time>2015-01-19T21:17:48.831Z</time>
      </trkpt>
      <trkpt lat="48.8437" lon="2.3404">
        <ele>114.2</ele>
        <time>2015-01-19T21:17:49.859Z</time>
      </trkpt>
      <trkpt lat="48.84364" lon="2.34048">
        <ele>114.9</ele>
        <time>2015-01-19T21:17:51.904Z</time>
      </trkpt>
      <trkpt lat="48.84362" lon="2.34052">
        <ele>115.2</ele>
        <time>2015-01-19T21:17:52.913Z</time>
      </trkpt>
      <trkpt lat="48.8436" lon="2.34058">
        <ele>115.4</ele>
        <time>2015-01-19T21:17:53.919Z</time>
      </trkpt>
      <trkpt lat="48.84357" lon="2.34065">
        <ele>115.5</ele>
        <time>2015-01-19T21:17:54.812Z</time>
      </trkpt>
      <trkpt lat="48.84356" lon="2.34072">
        <ele>115.6</ele>
        <time>2015-01-19T21:17:55.826Z</time>
      </trkpt>
      <trkpt lat="48.84354" lon="2.34079">
        <ele>115.7</ele>
        <time>2015-01-19T21:17:56.851Z</time>
      </trkpt>
      <trkpt lat="48.84324" lon="2.34129">
        <ele>115.8</ele>
        <time>2015-01-19T21:18:15.832Z</time>
      </trkpt>
      <trkpt lat="48.84337" lon="2.34148">
        <ele>117.3</ele>
        <time>2015-01-19T21:18:16.851Z</time>
      </trkpt>
      <trkpt lat="48.84342" lon="2.34151">
        <ele>117.7</ele>
        <time>2015-01-19T21:18:17.853Z</time>
      </trkpt>
      <trkpt lat="48.84346" lon="2.34153">
        <ele>118</ele>
        <time>2015-01-19T21:18:18.868Z</time>
      </trkpt>
      <trkpt lat="48.8435" lon="2.34157">
        <ele>118.2</ele>
        <time>2015-01-19T21:18:20.848Z</time>
      </trkpt>
      <trkpt lat="48.84355" lon="2.3416">
        <ele>118.4</ele>
        <time>2015-01-19T21:18:20.900Z</time>
      </trkpt>
      <trkpt lat="48.84363" lon="2.34163">
        <ele>119</ele>
        <time>2015-01-19T21:18:24.823Z</time>
      </trkpt>
      <trkpt lat="48.84366" lon="2.34165">
        <ele>119</ele>
        <time>2015-01-19T21:18:25.843Z</time>
      </trkpt>
      <trkpt lat="48.8437" lon="2.34167">
        <ele>119</ele>
        <time>2015-01-19T21:18:27.812Z</time>
      </trkpt>
      <trkpt lat="48.84377" lon="2.3417">
        <ele>119.6</ele>
        <time>2015-01-19T21:18:28.854Z</time>
      </trkpt>
      <trkpt lat="48.84384" lon="2.34178">
        <ele>119.8</ele>
        <time>2015-01-19T21:18:30.882Z</time>
      </trkpt>
      <trkpt lat="48.84388" lon="2.34183">
        <ele>119.7</ele>
        <time>2015-01-19T21:18:31.898Z</time>
      </trkpt>
      <trkpt lat="48.84395" lon="2.3419">
        <ele>120.2</ele>
        <time>2015-01-19T21:18:47.843Z</time>
      </trkpt>
      <trkpt lat="48.84409" lon="2.34212">
        <ele>120.9</ele>
        <time>2015-01-19T21:18:48.921Z</time>
      </trkpt>
      <trkpt lat="48.84416" lon="2.34219">
        <ele>120</ele>
        <time>2015-01-19T21:18:51.862Z</time>
      </trkpt>
      <trkpt lat="48.84418" lon="2.34221">
        <ele>120.1</ele>
        <time>2015-01-19T21:18:52.890Z</time>
      </trkpt>
      <trkpt lat="48.84426" lon="2.34222">
        <ele>120.3</ele>
        <time>2015-01-19T21:18:58.971Z</time>
      </trkpt>
      <trkpt lat="48.84427" lon="2.3422">
        <ele>120.3</ele>
        <time>2015-01-19T21:18:59.853Z</time>
      </trkpt>
      <trkpt lat="48.84432" lon="2.3422">
        <ele>120.4</ele>
        <time>2015-01-19T21:19:01.855Z</time>
      </trkpt>
      <trkpt lat="48.84437" lon="2.34219">
        <ele>120</ele>
        <time>2015-01-19T21:19:02.862Z</time>
      </trkpt>
      <trkpt lat="48.84442" lon="2.34218">
        <ele>119.7</ele>
        <time>2015-01-19T21:19:03.872Z</time>
      </trkpt>
      <trkpt lat="48.84448" lon="2.34219">
        <ele>119.1</ele>
        <time>2015-01-19T21:19:04.888Z</time>
      </trkpt>
      <trkpt lat="48.84454" lon="2.34219">
        <ele>118.4</ele>
        <time>2015-01-19T21:19:05.788Z</time>
      </trkpt>
      <trkpt lat="48.84459" lon="2.34222">
        <ele>118.7</ele>
        <time>2015-01-19T21:19:06.812Z</time>
      </trkpt>
      <trkpt lat="48.84466" lon="2.34226">
        <ele>119.5</ele>
        <time>2015-01-19T21:19:08.870Z</time>
      </trkpt>
      <trkpt lat="48.84473" lon="2.34231">
        <ele>120.1</ele>
        <time>2015-01-19T21:19:09.875Z</time>
      </trkpt>
      <trkpt lat="48.84479" lon="2.34236">
        <ele>120.7</ele>
        <time>2015-01-19T21:19:11.809Z</time>
      </trkpt>
      <trkpt lat="48.84482" lon="2.34237">
        <ele>120.8</ele>
        <time>2015-01-19T21:19:12.841Z</time>
      </trkpt>
      <trkpt lat="48.8449" lon="2.34239">
        <ele>120.8</ele>
        <time>2015-01-19T21:19:16.880Z</time>
      </trkpt>
      <trkpt lat="48.84491" lon="2.3424">
        <ele>120.6</ele>
        <time>2015-01-19T21:19:17.852Z</time>
      </trkpt>
      <trkpt lat="48.84495" lon="2.34246">
        <ele>120.3</ele>
        <time>2015-01-19T21:19:21.279Z</time>
      </trkpt>
      <trkpt lat="48.84498" lon="2.34248">
        <ele>120.5</ele>
        <time>2015-01-19T21:19:21.899Z</time>
      </trkpt>
      <trkpt lat="48.84502" lon="2.34251">
        <ele>120.8</ele>
        <time>2015-01-19T21:19:27.868Z</time>
      </trkpt>
      <trkpt lat="48.84509" lon="2.34257">
        <ele>120.8</ele>
        <time>2015-01-19T21:19:28.853Z</time>
      </trkpt>
      <trkpt lat="48.84511" lon="2.3426">
        <ele>120.7</ele>
        <time>2015-01-19T21:19:31.858Z</time>
      </trkpt>
      <trkpt lat="48.84604" lon="2.34332">
        <ele>120.9</ele>
        <time>2015-01-19T21:19:47.909Z</time>
      </trkpt>
      <trkpt lat="48.84611" lon="2.34333">
        <ele>121.2</ele>
        <time>2015-01-19T21:19:50.826Z</time>
      </trkpt>
      <trkpt lat="48.84614" lon="2.34336">
        <ele>121.3</ele>
        <time>2015-01-19T21:19:51.838Z</time>
      </trkpt>
      <trkpt lat="48.84618" lon="2.34338">
        <ele>121.2</ele>
        <time>2015-01-19T21:19:52.850Z</time>
      </trkpt>
      <trkpt lat="48.84625" lon="2.34336">
        <ele>121.4</ele>
        <time>2015-01-19T21:19:54.914Z</time>
      </trkpt>
      <trkpt lat="48.84633" lon="2.34337">
        <ele>121.2</ele>
        <time>2015-01-19T21:19:56.856Z</time>
      </trkpt>
      <trkpt lat="48.84637" lon="2.34339">
        <ele>121</ele>
        <time>2015-01-19T21:19:57.874Z</time>
      </trkpt>
      <trkpt lat="48.84641" lon="2.3434">
        <ele>121.2</ele>
        <time>2015-01-19T21:19:58.889Z</time>
      </trkpt>
      <trkpt lat="48.84646" lon="2.34341">
        <ele>121.3</ele>
        <time>2015-01-19T21:19:59.894Z</time>
      </trkpt>
      <trkpt lat="48.84651" lon="2.3434">
        <ele>121.7</ele>
        <time>2015-01-19T21:20:00.795Z</time>
      </trkpt>
      <trkpt lat="48.84658" lon="2.34335">
        <ele>120.7</ele>
        <time>2015-01-19T21:20:01.818Z</time>
      </trkpt>
      <trkpt lat="48.84667" lon="2.34337">
        <ele>120.2</ele>
        <time>2015-01-19T21:20:03.903Z</time>
      </trkpt>
      <trkpt lat="48.8467" lon="2.34338">
        <ele>119.8</ele>
        <time>2015-01-19T21:20:04.921Z</time>
      </trkpt>
      <trkpt lat="48.84671" lon="2.34337">
        <ele>119.9</ele>
        <time>2015-01-19T21:20:25.856Z</time>
      </trkpt>
      <trkpt lat="48.84687" lon="2.34337">
        <ele>122.5</ele>
        <time>2015-01-19T21:20:26.952Z</time>
      </trkpt>
      <trkpt lat="48.84695" lon="2.3434">
        <ele>123.4</ele>
        <time>2015-01-19T21:20:30.840Z</time>
      </trkpt>
      <trkpt lat="48.84697" lon="2.34342">
        <ele>123.3</ele>
        <time>2015-01-19T21:20:31.853Z</time>
      </trkpt>
      <trkpt lat="48.84704" lon="2.34345">
        <ele>123.6</ele>
        <time>2015-01-19T21:20:35.882Z</time>
      </trkpt>
      <trkpt lat="48.84706" lon="2.34345">
        <ele>123.5</ele>
        <time>2015-01-19T21:20:36.860Z</time>
      </trkpt>
      <trkpt lat="48.84713" lon="2.34347">
        <ele>123.9</ele>
        <time>2015-01-19T21:20:39.881Z</time>
      </trkpt>
      <trkpt lat="48.84716" lon="2.3435">
        <ele>124</ele>
        <time>2015-01-19T21:20:40.901Z</time>
      </trkpt>
      <trkpt lat="48.84723" lon="2.34356">
        <ele>124.2</ele>
        <time>2015-01-19T21:20:42.811Z</time>
      </trkpt>
      <trkpt lat="48.84727" lon="2.34358">
        <ele>124.1</ele>
        <time>2015-01-19T21:20:43.858Z</time>
      </trkpt>
      <trkpt lat="48.84735" lon="2.34359">
        <ele>123.9</ele>
        <time>2015-01-19T21:20:45.809Z</time>
      </trkpt>
      <trkpt lat="48.84737" lon="2.34358">
        <ele>123.7</ele>
        <time>2015-01-19T21:20:46.816Z</time>
      </trkpt>
      <trkpt lat="48.84743" lon="2.34364">
        <ele>123.9</ele>
        <time>2015-01-19T21:21:14.891Z</time>
      </trkpt>
      <trkpt lat="48.84745" lon="2.3437">
        <ele>123.7</ele>
        <time>2015-01-19T21:21:15.899Z</time>
      </trkpt>
      <trkpt lat="48.84749" lon="2.34375">
        <ele>123.3</ele>
        <time>2015-01-19T21:21:16.869Z</time>
      </trkpt>
      <trkpt lat="48.84756" lon="2.34379">
        <ele>122.9</ele>
        <time>2015-01-19T21:21:17.825Z</time>
      </trkpt>
      <trkpt lat="48.84763" lon="2.34383">
        <ele>122.5</ele>
        <time>2015-01-19T21:21:18.847Z</time>
      </trkpt>
      <trkpt lat="48.84769" lon="2.34387">
        <ele>122.3</ele>
        <time>2015-01-19T21:21:19.847Z</time>
      </trkpt>
      <trkpt lat="48.84776" lon="2.3439">
        <ele>122</ele>
        <time>2015-01-19T21:21:20.846Z</time>
      </trkpt>
      <trkpt lat="48.84783" lon="2.34392">
        <ele>121.5</ele>
        <time>2015-01-19T21:21:21.850Z</time>
      </trkpt>
      <trkpt lat="48.84789" lon="2.34393">
        <ele>121.1</ele>
        <time>2015-01-19T21:21:22.845Z</time>
      </trkpt>
      <trkpt lat="48.84796" lon="2.34395">
        <ele>121</ele>
        <time>2015-01-19T21:21:23.823Z</time>
      </trkpt>
      <trkpt lat="48.84804" lon="2.34397">
        <ele>121</ele>
        <time>2015-01-19T21:21:24.860Z</time>
      </trkpt>
      <trkpt lat="48.84811" lon="2.34399">
        <ele>120.8</ele>
        <time>2015-01-19T21:21:25.845Z</time>
      </trkpt>
      <trkpt lat="48.84817" lon="2.34401">
        <ele>120.3</ele>
        <time>2015-01-19T21:21:26.870Z</time>
      </trkpt>
      <trkpt lat="48.84823" lon="2.34403">
        <ele>120.3</ele>
        <time>2015-01-19T21:21:27.878Z</time>
      </trkpt>
      <trkpt lat="48.8483" lon="2.34406">
        <ele>120.2</ele>
        <time>2015-01-19T21:21:28.895Z</time>
      </trkpt>
      <trkpt lat="48.84835" lon="2.3441">
        <ele>120.3</ele>
        <time>2015-01-19T21:21:29.900Z</time>
      </trkpt>
      <trkpt lat="48.8484" lon="2.34413">
        <ele>119.9</ele>
        <time>2015-01-19T21:21:30.817Z</time>
      </trkpt>
      <trkpt lat="48.84843" lon="2.34416">
        <ele>119.2</ele>
        <time>2015-01-19T21:21:31.796Z</time>
      </trkpt>
      <trkpt lat="48.84848" lon="2.34427">
        <ele>118.5</ele>
        <time>2015-01-19T21:21:33.878Z</time>
      </trkpt>
      <trkpt lat="48.84849" lon="2.34435">
        <ele>117.7</ele>
        <time>2015-01-19T21:21:34.881Z</time>
      </trkpt>
      <trkpt lat="48.84852" lon="2.34441">
        <ele>116.8</ele>
        <time>2015-01-19T21:21:35.936Z</time>
      </trkpt>
      <trkpt lat="48.84855" lon="2.34446">
        <ele>116.3</ele>
        <time>2015-01-19T21:21:36.811Z</time>
      </trkpt>
      <trkpt lat="48.84859" lon="2.3445">
        <ele>115.8</ele>
        <time>2015-01-19T21:21:37.874Z</time>
      </trkpt>
      <trkpt lat="48.84863" lon="2.34454">
        <ele>115.5</ele>
        <time>2015-01-19T21:21:38.910Z</time>
      </trkpt>
      <trkpt lat="48.84867" lon="2.34458">
        <ele>115</ele>
        <time>2015-01-19T21:21:39.793Z</time>
      </trkpt>
      <trkpt lat="48.84872" lon="2.34461">
        <ele>114.7</ele>
        <time>2015-01-19T21:21:40.818Z</time>
      </trkpt>
      <trkpt lat="48.84879" lon="2.34464">
        <ele>114.5</ele>
        <time>2015-01-19T21:21:41.948Z</time>
      </trkpt>
      <trkpt lat="48.84886" lon="2.34468">
        <ele>114.5</ele>
        <time>2015-01-19T21:21:42.867Z</time>
      </trkpt>
      <trkpt lat="48.84894" lon="2.34471">
        <ele>114.3</ele>
        <time>2015-01-19T21:21:43.879Z</time>
      </trkpt>
      <trkpt lat="48.84902" lon="2.34473">
        <ele>114.1</ele>
        <time>2015-01-19T21:21:44.892Z</time>
      </trkpt>
      <trkpt lat="48.8491" lon="2.34475">
        <ele>114</ele>
        <time>2015-01-19T21:21:45.783Z</time>
      </trkpt>
      <trkpt lat="48.84919" lon="2.34477">
        <ele>113.9</ele>
        <time>2015-01-19T21:21:46.815Z</time>
      </trkpt>
      <trkpt lat="48.84927" lon="2.34479">
        <ele>114</ele>
        <time>2015-01-19T21:21:47.825Z</time>
      </trkpt>
      <trkpt lat="48.84935" lon="2.34481">
        <ele>114</ele>
        <time>2015-01-19T21:21:48.880Z</time>
      </trkpt>
      <trkpt lat="48.84944" lon="2.34479">
        <ele>113.6</ele>
        <time>2015-01-19T21:21:49.900Z</time>
      </trkpt>
      <trkpt lat="48.84951" lon="2.3448">
        <ele>113.6</ele>
        <time>2015-01-19T21:21:50.910Z</time>
      </trkpt>
      <trkpt lat="48.84956" lon="2.34481">
        <ele>113</ele>
        <time>2015-01-19T21:21:51.826Z</time>
      </trkpt>
      <trkpt lat="48.84964" lon="2.34486">
        <ele>113.3</ele>
        <time>2015-01-19T21:21:53.900Z</time>
      </trkpt>
      <trkpt lat="48.84962" lon="2.34493">
        <ele>113.5</ele>
        <time>2015-01-19T21:21:54.931Z</time>
      </trkpt>
      <trkpt lat="48.84957" lon="2.34497">
        <ele>112.9</ele>
        <time>2015-01-19T21:22:08.850Z</time>
      </trkpt>
      <trkpt lat="48.84948" lon="2.34491">
        <ele>107.9</ele>
        <time>2015-01-19T21:22:09.837Z</time>
      </trkpt>
      <trkpt lat="48.84954" lon="2.34492">
        <ele>108.3</ele>
        <time>2015-01-19T21:22:11.892Z</time>
      </trkpt>
      <trkpt lat="48.84958" lon="2.34493">
        <ele>109</ele>
        <time>2015-01-19T21:22:12.800Z</time>
      </trkpt>
      <trkpt lat="48.84964" lon="2.34497">
        <ele>109.7</ele>
        <time>2015-01-19T21:22:14.862Z</time>
      </trkpt>
      <trkpt lat="48.84968" lon="2.34499">
        <ele>110.1</ele>
        <time>2015-01-19T21:22:15.826Z</time>
      </trkpt>
      <trkpt lat="48.84975" lon="2.34504">
        <ele>110.9</ele>
        <time>2015-01-19T21:22:17.931Z</time>
      </trkpt>
      <trkpt lat="48.84981" lon="2.34507">
        <ele>111.5</ele>
        <time>2015-01-19T21:22:18.831Z</time>
      </trkpt>
      <trkpt lat="48.84986" lon="2.3451">
        <ele>111.9</ele>
        <time>2015-01-19T21:22:19.892Z</time>
      </trkpt>
      <trkpt lat="48.8499" lon="2.34511">
        <ele>112.1</ele>
        <time>2015-01-19T21:22:20.903Z</time>
      </trkpt>
      <trkpt lat="48.84995" lon="2.34511">
        <ele>111.8</ele>
        <time>2015-01-19T21:22:21.820Z</time>
      </trkpt>
      <trkpt lat="48.85" lon="2.34509">
        <ele>111.3</ele>
        <time>2015-01-19T21:22:22.824Z</time>
      </trkpt>
      <trkpt lat="48.85006" lon="2.34513">
        <ele>111.1</ele>
        <time>2015-01-19T21:22:24.867Z</time>
      </trkpt>
      <trkpt lat="48.85009" lon="2.34516">
        <ele>111.1</ele>
        <time>2015-01-19T21:22:25.917Z</time>
      </trkpt>
      <trkpt lat="48.85016" lon="2.34523">
        <ele>111.2</ele>
        <time>2015-01-19T21:22:26.863Z</time>
      </trkpt>
      <trkpt lat="48.85018" lon="2.34527">
        <ele>111.1</ele>
        <time>2015-01-19T21:22:27.871Z</time>
      </trkpt>
      <trkpt lat="48.85023" lon="2.34538">
        <ele>111.4</ele>
        <time>2015-01-19T21:22:31.802Z</time>
      </trkpt>
      <trkpt lat="48.85025" lon="2.3454">
        <ele>111.6</ele>
        <time>2015-01-19T21:22:32.953Z</time>
      </trkpt>
      <trkpt lat="48.85034" lon="2.34542">
        <ele>112</ele>
        <time>2015-01-19T21:22:34.825Z</time>
      </trkpt>
      <trkpt lat="48.85037" lon="2.34541">
        <ele>112.1</ele>
        <time>2015-01-19T21:22:35.824Z</time>
      </trkpt>
      <trkpt lat="48.85045" lon="2.34541">
        <ele>112.4</ele>
        <time>2015-01-19T21:22:38.903Z</time>
      </trkpt>
      <trkpt lat="48.8505" lon="2.3454">
        <ele>112.1</ele>
        <time>2015-01-19T21:22:39.825Z</time>
      </trkpt>
      <trkpt lat="48.85058" lon="2.34542">
        <ele>111</ele>
        <time>2015-01-19T21:22:41.790Z</time>
      </trkpt>
      <trkpt lat="48.85061" lon="2.34544">
        <ele>110.9</ele>
        <time>2015-01-19T21:22:42.813Z</time>
      </trkpt>
      <trkpt lat="48.85066" lon="2.34546">
        <ele>110.5</ele>
        <time>2015-01-19T21:22:43.822Z</time>
      </trkpt>
      <trkpt lat="48.8507" lon="2.34548">
        <ele>110.5</ele>
        <time>2015-01-19T21:22:44.886Z</time>
      </trkpt>
      <trkpt lat="48.85077" lon="2.34555">
        <ele>109.6</ele>
        <time>2015-01-19T21:22:46.812Z</time>
      </trkpt>
      <trkpt lat="48.85079" lon="2.34559">
        <ele>109.4</ele>
        <time>2015-01-19T21:22:47.830Z</time>
      </trkpt>
      <trkpt lat="48.85083" lon="2.34564">
        <ele>108.6</ele>
        <time>2015-01-19T21:22:48.833Z</time>
      </trkpt>
      <trkpt lat="48.85085" lon="2.34569">
        <ele>107.8</ele>
        <time>2015-01-19T21:22:49.809Z</time>
      </trkpt>
      <trkpt lat="48.8509" lon="2.34579">
        <ele>106.5</ele>
        <time>2015-01-19T21:22:52.856Z</time>
      </trkpt>
      <trkpt lat="48.85092" lon="2.34584">
        <ele>106.1</ele>
        <time>2015-01-19T21:22:53.935Z</time>
      </trkpt>
      <trkpt lat="48.85094" lon="2.34589">
        <ele>105.6</ele>
        <time>2015-01-19T21:22:54.819Z</time>
      </trkpt>
      <trkpt lat="48.85096" lon="2.34596">
        <ele>105.2</ele>
        <time>2015-01-19T21:22:55.826Z</time>
      </trkpt>
      <trkpt lat="48.85098" lon="2.34604">
        <ele>103.1</ele>
        <time>2015-01-19T21:22:56.852Z</time>
      </trkpt>
      <trkpt lat="48.851" lon="2.3461">
        <ele>102.9</ele>
        <time>2015-01-19T21:22:57.927Z</time>
      </trkpt>
      <trkpt lat="48.85103" lon="2.34615">
        <ele>102.5</ele>
        <time>2015-01-19T21:22:58.796Z</time>
      </trkpt>
      <trkpt lat="48.85108" lon="2.34621">
        <ele>102.3</ele>
        <time>2015-01-19T21:22:59.808Z</time>
      </trkpt>
      <trkpt lat="48.85113" lon="2.34631">
        <ele>101.7</ele>
        <time>2015-01-19T21:23:01.848Z</time>
      </trkpt>
      <trkpt lat="48.85115" lon="2.34636">
        <ele>101.4</ele>
        <time>2015-01-19T21:23:02.879Z</time>
      </trkpt>
      <trkpt lat="48.85117" lon="2.34642">
        <ele>101.1</ele>
        <time>2015-01-19T21:23:03.784Z</time>
      </trkpt>
      <trkpt lat="48.85119" lon="2.3465">
        <ele>100.9</ele>
        <time>2015-01-19T21:23:04.779Z</time>
      </trkpt>
      <trkpt lat="48.8512" lon="2.34658">
        <ele>100.6</ele>
        <time>2015-01-19T21:23:05.823Z</time>
      </trkpt>
      <trkpt lat="48.85121" lon="2.34666">
        <ele>100.5</ele>
        <time>2015-01-19T21:23:06.880Z</time>
      </trkpt>
      <trkpt lat="48.85123" lon="2.34674">
        <ele>100.3</ele>
        <time>2015-01-19T21:23:07.833Z</time>
      </trkpt>
      <trkpt lat="48.85125" lon="2.34681">
        <ele>100</ele>
        <time>2015-01-19T21:23:08.916Z</time>
      </trkpt>
      <trkpt lat="48.85125" lon="2.3469">
        <ele>99.8</ele>
        <time>2015-01-19T21:23:10.141Z</time>
      </trkpt>
      <trkpt lat="48.85126" lon="2.34699">
        <ele>99.8</ele>
        <time>2015-01-19T21:23:10.882Z</time>
      </trkpt>
      <trkpt lat="48.85127" lon="2.34707">
        <ele>99.7</ele>
        <time>2015-01-19T21:23:11.890Z</time>
      </trkpt>
      <trkpt lat="48.8513" lon="2.34715">
        <ele>99.9</ele>
        <time>2015-01-19T21:23:12.969Z</time>
      </trkpt>
      <trkpt lat="48.85132" lon="2.34722">
        <ele>100</ele>
        <time>2015-01-19T21:23:13.880Z</time>
      </trkpt>
      <trkpt lat="48.85136" lon="2.34728">
        <ele>99.9</ele>
        <time>2015-01-19T21:23:14.815Z</time>
      </trkpt>
      <trkpt lat="48.85177" lon="2.34788">
        <ele>102.8</ele>
        <time>2015-01-19T21:23:27.864Z</time>
      </trkpt>
      <trkpt lat="48.8518" lon="2.34791">
        <ele>103</ele>
        <time>2015-01-19T21:23:28.902Z</time>
      </trkpt>
      <trkpt lat="48.85187" lon="2.34793">
        <ele>103</ele>
        <time>2015-01-19T21:23:29.814Z</time>
      </trkpt>
      <trkpt lat="48.85195" lon="2.34795">
        <ele>103.3</ele>
        <time>2015-01-19T21:23:30.816Z</time>
      </trkpt>
      <trkpt lat="48.85203" lon="2.34797">
        <ele>103.6</ele>
        <time>2015-01-19T21:23:31.822Z</time>
      </trkpt>
      <trkpt lat="48.85209" lon="2.34798">
        <ele>103.8</ele>
        <time>2015-01-19T21:23:32.883Z</time>
      </trkpt>
      <trkpt lat="48.85215" lon="2.34801">
        <ele>103.7</ele>
        <time>2015-01-19T21:23:33.820Z</time>
      </trkpt>
      <trkpt lat="48.8522" lon="2.34803">
        <ele>103.2</ele>
        <time>2015-01-19T21:23:34.818Z</time>
      </trkpt>
      <trkpt lat="48.85224" lon="2.34804">
        <ele>102.5</ele>
        <time>2015-01-19T21:23:35.829Z</time>
      </trkpt>
      <trkpt lat="48.85231" lon="2.3481">
        <ele>99.9</ele>
        <time>2015-01-19T21:23:36.839Z</time>
      </trkpt>
      <trkpt lat="48.85235" lon="2.34812">
        <ele>99.7</ele>
        <time>2015-01-19T21:23:37.895Z</time>
      </trkpt>
      <trkpt lat="48.85241" lon="2.34816">
        <ele>98.6</ele>
        <time>2015-01-19T21:23:38.904Z</time>
      </trkpt>
      <trkpt lat="48.85245" lon="2.3482">
        <ele>96.8</ele>
        <time>2015-01-19T21:23:39.901Z</time>
      </trkpt>
      <trkpt lat="48.85246" lon="2.34822">
        <ele>94.9</ele>
        <time>2015-01-19T21:23:40.922Z</time>
      </trkpt>
      <trkpt lat="48.85246" lon="2.34822">
        <ele>94.2</ele>
        <time>2015-01-19T21:24:02.965Z</time>
      </trkpt>
      <trkpt lat="48.85244" lon="2.34839">
        <ele>93.6</ele>
        <time>2015-01-19T21:24:03.852Z</time>
      </trkpt>
      <trkpt lat="48.85248" lon="2.34846">
        <ele>93.1</ele>
        <time>2015-01-19T21:24:07.211Z</time>
      </trkpt>
      <trkpt lat="48.8525" lon="2.34848">
        <ele>92.6</ele>
        <time>2015-01-19T21:24:07.823Z</time>
      </trkpt>
      <trkpt lat="48.85257" lon="2.34854">
        <ele>91.9</ele>
        <time>2015-01-19T21:24:10.845Z</time>
      </trkpt>
      <trkpt lat="48.8526" lon="2.34856">
        <ele>91.9</ele>
        <time>2015-01-19T21:24:11.829Z</time>
      </trkpt>
      <trkpt lat="48.85265" lon="2.3486">
        <ele>92.1</ele>
        <time>2015-01-19T21:24:13.877Z</time>
      </trkpt>
      <trkpt lat="48.85269" lon="2.34862">
        <ele>92.4</ele>
        <time>2015-01-19T21:24:14.885Z</time>
      </trkpt>
      <trkpt lat="48.85273" lon="2.34865">
        <ele>92.4</ele>
        <time>2015-01-19T21:24:15.858Z</time>
      </trkpt>
      <trkpt lat="48.85281" lon="2.34869">
        <ele>92.7</ele>
        <time>2015-01-19T21:24:16.862Z</time>
      </trkpt>
      <trkpt lat="48.85287" lon="2.34875">
        <ele>93</ele>
        <time>2015-01-19T21:24:18.886Z</time>
      </trkpt>
      <trkpt lat="48.85292" lon="2.34878">
        <ele>93</ele>
        <time>2015-01-19T21:24:19.833Z</time>
      </trkpt>
      <trkpt lat="48.853" lon="2.34881">
        <ele>92.6</ele>
        <time>2015-01-19T21:24:22.416Z</time>
      </trkpt>
      <trkpt lat="48.85305" lon="2.34882">
        <ele>92.5</ele>
        <time>2015-01-19T21:24:22.902Z</time>
      </trkpt>
      <trkpt lat="48.85312" lon="2.34883">
        <ele>92.4</ele>
        <time>2015-01-19T21:24:24.817Z</time>
      </trkpt>
      <trkpt lat="48.85314" lon="2.34885">
        <ele>92.2</ele>
        <time>2015-01-19T21:24:25.908Z</time>
      </trkpt>
      <trkpt lat="48.85321" lon="2.3489">
        <ele>92</ele>
        <time>2015-01-19T21:24:27.819Z</time>
      </trkpt>
      <trkpt lat="48.85324" lon="2.34893">
        <ele>91.9</ele>
        <time>2015-01-19T21:24:28.886Z</time>
      </trkpt>
      <trkpt lat="48.85332" lon="2.34899">
        <ele>92</ele>
        <time>2015-01-19T21:24:31.888Z</time>
      </trkpt>
      <trkpt lat="48.85334" lon="2.349">
        <ele>91.8</ele>
        <time>2015-01-19T21:24:32.966Z</time>
      </trkpt>
      <trkpt lat="48.85341" lon="2.34901">
        <ele>92.6</ele>
        <time>2015-01-19T21:24:35.939Z</time>
      </trkpt>
      <trkpt lat="48.85344" lon="2.349">
        <ele>92.9</ele>
        <time>2015-01-19T21:24:36.852Z</time>
      </trkpt>
      <trkpt lat="48.85352" lon="2.34899">
        <ele>93.6</ele>
        <time>2015-01-19T21:24:38.988Z</time>
      </trkpt>
      <trkpt lat="48.85354" lon="2.34902">
        <ele>93.7</ele>
        <time>2015-01-19T21:24:39.880Z</time>
      </trkpt>
      <trkpt lat="48.8536" lon="2.34909">
        <ele>94.2</ele>
        <time>2015-01-19T21:24:41.860Z</time>
      </trkpt>
      <trkpt lat="48.85362" lon="2.34913">
        <ele>94.3</ele>
        <time>2015-01-19T21:24:42.887Z</time>
      </trkpt>
      <trkpt lat="48.85368" lon="2.34921">
        <ele>94.9</ele>
        <time>2015-01-19T21:24:46.876Z</time>
      </trkpt>
      <trkpt lat="48.8537" lon="2.34924">
        <ele>94.9</ele>
        <time>2015-01-19T21:24:47.877Z</time>
      </trkpt>
      <trkpt lat="48.85375" lon="2.34932">
        <ele>94.7</ele>
        <time>2015-01-19T21:24:49.822Z</time>
      </trkpt>
      <trkpt lat="48.85378" lon="2.34937">
        <ele>94.9</ele>
        <time>2015-01-19T21:24:50.906Z</time>
      </trkpt>
      <trkpt lat="48.85386" lon="2.34948">
        <ele>94.8</ele>
        <time>2015-01-19T21:24:52.831Z</time>
      </trkpt>
      <trkpt lat="48.8539" lon="2.34951">
        <ele>94.6</ele>
        <time>2015-01-19T21:24:53.811Z</time>
      </trkpt>
      <trkpt lat="48.85395" lon="2.34954">
        <ele>94.4</ele>
        <time>2015-01-19T21:24:54.820Z</time>
      </trkpt>
      <trkpt lat="48.85399" lon="2.34956">
        <ele>94.1</ele>
        <time>2015-01-19T21:24:55.849Z</time>
      </trkpt>
      <trkpt lat="48.85406" lon="2.3496">
        <ele>94.2</ele>
        <time>2015-01-19T21:24:56.913Z</time>
      </trkpt>
      <trkpt lat="48.85416" lon="2.34964">
        <ele>94.1</ele>
        <time>2015-01-19T21:24:57.812Z</time>
      </trkpt>
      <trkpt lat="48.85424" lon="2.34968">
        <ele>94.2</ele>
        <time>2015-01-19T21:24:58.809Z</time>
      </trkpt>
      <trkpt lat="48.8547" lon="2.34998">
        <ele>93.3</ele>
        <time>2015-01-19T21:25:10.788Z</time>
      </trkpt>
      <trkpt lat="48.85473" lon="2.35001">
        <ele>93.4</ele>
        <time>2015-01-19T21:25:11.837Z</time>
      </trkpt>
      <trkpt lat="48.85479" lon="2.35005">
        <ele>93.5</ele>
        <time>2015-01-19T21:25:12.800Z</time>
      </trkpt>
      <trkpt lat="48.85483" lon="2.35008">
        <ele>93.7</ele>
        <time>2015-01-19T21:25:13.864Z</time>
      </trkpt>
      <trkpt lat="48.85488" lon="2.35011">
        <ele>93.5</ele>
        <time>2015-01-19T21:25:14.825Z</time>
      </trkpt>
      <trkpt lat="48.85493" lon="2.3502">
        <ele>93.5</ele>
        <time>2015-01-19T21:25:16.994Z</time>
      </trkpt>
      <trkpt lat="48.85498" lon="2.35024">
        <ele>93.7</ele>
        <time>2015-01-19T21:25:17.884Z</time>
      </trkpt>
      <trkpt lat="48.85503" lon="2.35026">
        <ele>94.2</ele>
        <time>2015-01-19T21:25:18.801Z</time>
      </trkpt>
      <trkpt lat="48.85508" lon="2.35029">
        <ele>93.5</ele>
        <time>2015-01-19T21:25:19.825Z</time>
      </trkpt>
      <trkpt lat="48.85514" lon="2.35034">
        <ele>92</ele>
        <time>2015-01-19T21:25:36.858Z</time>
      </trkpt>
      <trkpt lat="48.85516" lon="2.35035">
        <ele>91.3</ele>
        <time>2015-01-19T21:25:37.833Z</time>
      </trkpt>
      <trkpt lat="48.85522" lon="2.35039">
        <ele>90.8</ele>
        <time>2015-01-19T21:25:40.133Z</time>
      </trkpt>
      <trkpt lat="48.85526" lon="2.35041">
        <ele>90.9</ele>
        <time>2015-01-19T21:25:40.907Z</time>
      </trkpt>
      <trkpt lat="48.85532" lon="2.35046">
        <ele>90.8</ele>
        <time>2015-01-19T21:25:42.955Z</time>
      </trkpt>
      <trkpt lat="48.85535" lon="2.35049">
        <ele>90.7</ele>
        <time>2015-01-19T21:25:43.963Z</time>
      </trkpt>
      <trkpt lat="48.85543" lon="2.35055">
        <ele>90.7</ele>
        <time>2015-01-19T21:25:45.828Z</time>
      </trkpt>
      <trkpt lat="48.85547" lon="2.35057">
        <ele>90.5</ele>
        <time>2015-01-19T21:25:46.843Z</time>
      </trkpt>
      <trkpt lat="48.85551" lon="2.3506">
        <ele>90.4</ele>
        <time>2015-01-19T21:25:47.888Z</time>
      </trkpt>
      <trkpt lat="48.85555" lon="2.35063">
        <ele>90.1</ele>
        <time>2015-01-19T21:25:48.875Z</time>
      </trkpt>
      <trkpt lat="48.85561" lon="2.35068">
        <ele>89.6</ele>
        <time>2015-01-19T21:25:50.878Z</time>
      </trkpt>
      <trkpt lat="48.85564" lon="2.35069">
        <ele>89.3</ele>
        <time>2015-01-19T21:25:51.893Z</time>
      </trkpt>
      <trkpt lat="48.85571" lon="2.35073">
        <ele>88.7</ele>
        <time>2015-01-19T21:25:55.847Z</time>
      </trkpt>
      <trkpt lat="48.85573" lon="2.35074">
        <ele>88.7</ele>
        <time>2015-01-19T21:25:56.890Z</time>
      </trkpt>
      <trkpt lat="48.85575" lon="2.35075">
        <ele>88.5</ele>
        <time>2015-01-19T21:26:04.831Z</time>
      </trkpt>
      <trkpt lat="48.85586" lon="2.35075">
        <ele>89.8</ele>
        <time>2015-01-19T21:26:05.841Z</time>
      </trkpt>
      <trkpt lat="48.8559" lon="2.35075">
        <ele>90.8</ele>
        <time>2015-01-19T21:26:32.903Z</time>
      </trkpt>
      <trkpt lat="48.856" lon="2.3508">
        <ele>94.1</ele>
        <time>2015-01-19T21:26:33.816Z</time>
      </trkpt>
      <trkpt lat="48.85608" lon="2.35076">
        <ele>93.7</ele>
        <time>2015-01-19T21:26:36.817Z</time>
      </trkpt>
      <trkpt lat="48.85612" lon="2.35074">
        <ele>93.2</ele>
        <time>2015-01-19T21:26:37.862Z</time>
      </trkpt>
      <trkpt lat="48.85618" lon="2.35072">
        <ele>93</ele>
        <time>2015-01-19T21:26:39.844Z</time>
      </trkpt>
      <trkpt lat="48.85621" lon="2.35073">
        <ele>93.1</ele>
        <time>2015-01-19T21:26:40.856Z</time>
      </trkpt>
      <trkpt lat="48.85628" lon="2.35074">
        <ele>92.9</ele>
        <time>2015-01-19T21:26:42.840Z</time>
      </trkpt>
      <trkpt lat="48.85631" lon="2.35076">
        <ele>92.9</ele>
        <time>2015-01-19T21:26:43.992Z</time>
      </trkpt>
      <trkpt lat="48.85637" lon="2.35082">
        <ele>93.4</ele>
        <time>2015-01-19T21:26:45.975Z</time>
      </trkpt>
      <trkpt lat="48.8564" lon="2.35086">
        <ele>93.6</ele>
        <time>2015-01-19T21:26:47.036Z</time>
      </trkpt>
      <trkpt lat="48.85645" lon="2.35094">
        <ele>94.1</ele>
        <time>2015-01-19T21:26:48.890Z</time>
      </trkpt>
      <trkpt lat="48.85648" lon="2.35098">
        <ele>94.4</ele>
        <time>2015-01-19T21:26:50.061Z</time>
      </trkpt>
      <trkpt lat="48.8565" lon="2.35103">
        <ele>94.3</ele>
        <time>2015-01-19T21:26:50.902Z</time>
      </trkpt>
      <trkpt lat="48.85654" lon="2.35109">
        <ele>93.1</ele>
        <time>2015-01-19T21:26:51.910Z</time>
      </trkpt>
      <trkpt lat="48.85661" lon="2.35111">
        <ele>91.5</ele>
        <time>2015-01-19T21:26:53.834Z</time>
      </trkpt>
      <trkpt lat="48.85667" lon="2.35109">
        <ele>90.9</ele>
        <time>2015-01-19T21:26:54.830Z</time>
      </trkpt>
      <trkpt lat="48.85672" lon="2.35107">
        <ele>90.3</ele>
        <time>2015-01-19T21:26:55.886Z</time>
      </trkpt>
      <trkpt lat="48.85675" lon="2.35103">
        <ele>90.2</ele>
        <time>2015-01-19T21:26:56.935Z</time>
      </trkpt>
      <trkpt lat="48.8568" lon="2.35098">
        <ele>89.7</ele>
        <time>2015-01-19T21:26:57.918Z</time>
      </trkpt>
      <trkpt lat="48.85683" lon="2.35094">
        <ele>90.1</ele>
        <time>2015-01-19T21:26:58.834Z</time>
      </trkpt>
      <trkpt lat="48.85687" lon="2.35087">
        <ele>90.1</ele>
        <time>2015-01-19T21:26:59.844Z</time>
      </trkpt>
      <trkpt lat="48.85691" lon="2.35081">
        <ele>89.7</ele>
        <time>2015-01-19T21:27:00.834Z</time>
      </trkpt>
      <trkpt lat="48.85695" lon="2.3507">
        <ele>89.7</ele>
        <time>2015-01-19T21:27:02.913Z</time>
      </trkpt>
      <trkpt lat="48.85697" lon="2.35065">
        <ele>89.8</ele>
        <time>2015-01-19T21:27:03.797Z</time>
      </trkpt>
      <trkpt lat="48.857" lon="2.35059">
        <ele>89.8</ele>
        <time>2015-01-19T21:27:04.854Z</time>
      </trkpt>
      <trkpt lat="48.85703" lon="2.35054">
        <ele>89.9</ele>
        <time>2015-01-19T21:27:05.862Z</time>
      </trkpt>
      <trkpt lat="48.85707" lon="2.35044">
        <ele>89.7</ele>
        <time>2015-01-19T21:27:07.825Z</time>
      </trkpt>
      <trkpt lat="48.85709" lon="2.35041">
        <ele>89.6</ele>
        <time>2015-01-19T21:27:08.869Z</time>
      </trkpt>
      <trkpt lat="48.85712" lon="2.35032">
        <ele>89.6</ele>
        <time>2015-01-19T21:27:10.815Z</time>
      </trkpt>
      <trkpt lat="48.85713" lon="2.35028">
        <ele>89.6</ele>
        <time>2015-01-19T21:27:11.814Z</time>
      </trkpt>
      <trkpt lat="48.85715" lon="2.35018">
        <ele>89.5</ele>
        <time>2015-01-19T21:27:13.835Z</time>
      </trkpt>
      <trkpt lat="48.85716" lon="2.35014">
        <ele>89.4</ele>
        <time>2015-01-19T21:27:14.849Z</time>
      </trkpt>
      <trkpt lat="48.85718" lon="2.35001">
        <ele>89</ele>
        <time>2015-01-19T21:27:16.798Z</time>
      </trkpt>
      <trkpt lat="48.85718" lon="2.34996">
        <ele>88.9</ele>
        <time>2015-01-19T21:27:17.810Z</time>
      </trkpt>
      <trkpt lat="48.85719" lon="2.34984">
        <ele>88.7</ele>
        <time>2015-01-19T21:27:20.876Z</time>
      </trkpt>
      <trkpt lat="48.8572" lon="2.34982">
        <ele>88.7</ele>
        <time>2015-01-19T21:27:21.885Z</time>
      </trkpt>
      <trkpt lat="48.85723" lon="2.34979">
        <ele>88.9</ele>
        <time>2015-01-19T21:27:40.819Z</time>
      </trkpt>
      <trkpt lat="48.85728" lon="2.34973">
        <ele>84.7</ele>
        <time>2015-01-19T21:27:42.016Z</time>
      </trkpt>
      <trkpt lat="48.8573" lon="2.34963">
        <ele>84.4</ele>
        <time>2015-01-19T21:27:44.959Z</time>
      </trkpt>
      <trkpt lat="48.85731" lon="2.34959">
        <ele>84.2</ele>
        <time>2015-01-19T21:27:45.825Z</time>
      </trkpt>
      <trkpt lat="48.85733" lon="2.34949">
        <ele>84.1</ele>
        <time>2015-01-19T21:27:47.863Z</time>
      </trkpt>
      <trkpt lat="48.85735" lon="2.34945">
        <ele>84.4</ele>
        <time>2015-01-19T21:27:48.885Z</time>
      </trkpt>
      <trkpt lat="48.85734" lon="2.34935">
        <ele>84.8</ele>
        <time>2015-01-19T21:27:50.861Z</time>
      </trkpt>
      <trkpt lat="48.85734" lon="2.3493">
        <ele>84.8</ele>
        <time>2015-01-19T21:27:51.891Z</time>
      </trkpt>
      <trkpt lat="48.85737" lon="2.3492">
        <ele>84.5</ele>
        <time>2015-01-19T21:27:53.834Z</time>
      </trkpt>
      <trkpt lat="48.85738" lon="2.34916">
        <ele>84.6</ele>
        <time>2015-01-19T21:27:54.865Z</time>
      </trkpt>
      <trkpt lat="48.85741" lon="2.34905">
        <ele>84.3</ele>
        <time>2015-01-19T21:27:56.906Z</time>
      </trkpt>
      <trkpt lat="48.85743" lon="2.349">
        <ele>84.1</ele>
        <time>2015-01-19T21:27:57.915Z</time>
      </trkpt>
      <trkpt lat="48.85747" lon="2.34889">
        <ele>84.1</ele>
        <time>2015-01-19T21:27:59.841Z</time>
      </trkpt>
      <trkpt lat="48.85749" lon="2.34882">
        <ele>83.9</ele>
        <time>2015-01-19T21:28:00.836Z</time>
      </trkpt>
      <trkpt lat="48.85753" lon="2.34871">
        <ele>83.5</ele>
        <time>2015-01-19T21:28:02.942Z</time>
      </trkpt>
      <trkpt lat="48.85755" lon="2.34865">
        <ele>83.6</ele>
        <time>2015-01-19T21:28:03.809Z</time>
      </trkpt>
      <trkpt lat="48.85757" lon="2.34853">
        <ele>83.8</ele>
        <time>2015-01-19T21:28:06.819Z</time>
      </trkpt>
      <trkpt lat="48.85757" lon="2.34847">
        <ele>84.1</ele>
        <time>2015-01-19T21:28:06.863Z</time>
      </trkpt>
      <trkpt lat="48.8576" lon="2.34837">
        <ele>84.4</ele>
        <time>2015-01-19T21:28:08.839Z</time>
      </trkpt>
      <trkpt lat="48.85761" lon="2.34831">
        <ele>84.2</ele>
        <time>2015-01-19T21:28:09.885Z</time>
      </trkpt>
      <trkpt lat="48.85763" lon="2.34821">
        <ele>84.3</ele>
        <time>2015-01-19T21:28:11.950Z</time>
      </trkpt>
      <trkpt lat="48.85764" lon="2.34816">
        <ele>83.9</ele>
        <time>2015-01-19T21:28:12.801Z</time>
      </trkpt>
      <trkpt lat="48.85766" lon="2.34806">
        <ele>84</ele>
        <time>2015-01-19T21:28:14.862Z</time>
      </trkpt>
      <trkpt lat="48.85767" lon="2.34801">
        <ele>83.9</ele>
        <time>2015-01-19T21:28:15.879Z</time>
      </trkpt>
      <trkpt lat="48.85769" lon="2.34788">
        <ele>83.9</ele>
        <time>2015-01-19T21:28:18.806Z</time>
      </trkpt>
      <trkpt lat="48.8577" lon="2.34784">
        <ele>83.8</ele>
        <time>2015-01-19T21:28:19.820Z</time>
      </trkpt>
      <trkpt lat="48.85775" lon="2.34776">
        <ele>83.8</ele>
        <time>2015-01-19T21:28:21.973Z</time>
      </trkpt>
      <trkpt lat="48.85778" lon="2.34772">
        <ele>84</ele>
        <time>2015-01-19T21:28:22.816Z</time>
      </trkpt>
      <trkpt lat="48.8578" lon="2.34765">
        <ele>83.8</ele>
        <time>2015-01-19T21:28:24.843Z</time>
      </trkpt>
      <trkpt lat="48.85782" lon="2.34759">
        <ele>83.7</ele>
        <time>2015-01-19T21:28:25.836Z</time>
      </trkpt>
      <trkpt lat="48.85784" lon="2.34748">
        <ele>83</ele>
        <time>2015-01-19T21:28:27.871Z</time>
      </trkpt>
      <trkpt lat="48.85785" lon="2.34742">
        <ele>82.8</ele>
        <time>2015-01-19T21:28:28.890Z</time>
      </trkpt>
      <trkpt lat="48.8579" lon="2.34731">
        <ele>81.9</ele>
        <time>2015-01-19T21:28:30.821Z</time>
      </trkpt>
      <trkpt lat="48.85794" lon="2.34729">
        <ele>82.1</ele>
        <time>2015-01-19T21:28:31.941Z</time>
      </trkpt>
      <trkpt lat="48.85802" lon="2.34726">
        <ele>82.5</ele>
        <time>2015-01-19T21:28:33.827Z</time>
      </trkpt>
      <trkpt lat="48.85807" lon="2.34727">
        <ele>83</ele>
        <time>2015-01-19T21:28:34.954Z</time>
      </trkpt>
      <trkpt lat="48.85815" lon="2.34731">
        <ele>83.8</ele>
        <time>2015-01-19T21:28:36.906Z</time>
      </trkpt>
      <trkpt lat="48.8582" lon="2.34732">
        <ele>84.2</ele>
        <time>2015-01-19T21:28:37.854Z</time>
      </trkpt>
      <trkpt lat="48.85824" lon="2.34733">
        <ele>84.2</ele>
        <time>2015-01-19T21:28:38.870Z</time>
      </trkpt>
      <trkpt lat="48.85829" lon="2.34731">
        <ele>84.4</ele>
        <time>2015-01-19T21:28:39.881Z</time>
      </trkpt>
      <trkpt lat="48.85835" lon="2.34732">
        <ele>85.5</ele>
        <time>2015-01-19T21:28:41.808Z</time>
      </trkpt>
      <trkpt lat="48.85838" lon="2.34734">
        <ele>86.2</ele>
        <time>2015-01-19T21:28:42.843Z</time>
      </trkpt>
      <trkpt lat="48.85845" lon="2.34734">
        <ele>87.6</ele>
        <time>2015-01-19T21:28:45.874Z</time>
      </trkpt>
      <trkpt lat="48.85848" lon="2.34734">
        <ele>87.9</ele>
        <time>2015-01-19T21:28:46.887Z</time>
      </trkpt>
      <trkpt lat="48.85853" lon="2.34734">
        <ele>87.9</ele>
        <time>2015-01-19T21:28:47.917Z</time>
      </trkpt>
      <trkpt lat="48.85858" lon="2.34734">
        <ele>87.9</ele>
        <time>2015-01-19T21:28:48.817Z</time>
      </trkpt>
      <trkpt lat="48.85863" lon="2.34733">
        <ele>87.6</ele>
        <time>2015-01-19T21:28:49.834Z</time>
      </trkpt>
      <trkpt lat="48.85867" lon="2.34733">
        <ele>87.8</ele>
        <time>2015-01-19T21:28:50.873Z</time>
      </trkpt>
      <trkpt lat="48.85876" lon="2.34732">
        <ele>87.9</ele>
        <time>2015-01-19T21:28:52.893Z</time>
      </trkpt>
      <trkpt lat="48.85881" lon="2.34733">
        <ele>87.9</ele>
        <time>2015-01-19T21:28:53.928Z</time>
      </trkpt>
      <trkpt lat="48.85888" lon="2.34735">
        <ele>88.8</ele>
        <time>2015-01-19T21:28:55.830Z</time>
      </trkpt>
      <trkpt lat="48.85891" lon="2.34733">
        <ele>89.2</ele>
        <time>2015-01-19T21:28:56.897Z</time>
      </trkpt>
      <trkpt lat="48.85897" lon="2.34726">
        <ele>90.2</ele>
        <time>2015-01-19T21:28:59.867Z</time>
      </trkpt>
      <trkpt lat="48.85899" lon="2.34724">
        <ele>90.4</ele>
        <time>2015-01-19T21:29:00.885Z</time>
      </trkpt>
      <trkpt lat="48.85906" lon="2.34717">
        <ele>91.2</ele>
        <time>2015-01-19T21:29:02.983Z</time>
      </trkpt>
      <trkpt lat="48.85909" lon="2.34713">
        <ele>91.2</ele>
        <time>2015-01-19T21:29:03.927Z</time>
      </trkpt>
      <trkpt lat="48.85913" lon="2.34702">
        <ele>92.3</ele>
        <time>2015-01-19T21:29:05.948Z</time>
      </trkpt>
      <trkpt lat="48.85917" lon="2.34699">
        <ele>92.9</ele>
        <time>2015-01-19T21:29:06.868Z</time>
      </trkpt>
      <trkpt lat="48.85924" lon="2.34698">
        <ele>92.7</ele>
        <time>2015-01-19T21:29:09.300Z</time>
      </trkpt>
      <trkpt lat="48.85926" lon="2.347">
        <ele>93</ele>
        <time>2015-01-19T21:29:09.925Z</time>
      </trkpt>
      <trkpt lat="48.85934" lon="2.34705">
        <ele>93.2</ele>
        <time>2015-01-19T21:29:12.861Z</time>
      </trkpt>
      <trkpt lat="48.85936" lon="2.34706">
        <ele>93.3</ele>
        <time>2015-01-19T21:29:13.873Z</time>
      </trkpt>
      <trkpt lat="48.85939" lon="2.34708">
        <ele>93.4</ele>
        <time>2015-01-19T21:29:24.446Z</time>
      </trkpt>
      <trkpt lat="48.85957" lon="2.34719">
        <ele>99.6</ele>
        <time>2015-01-19T21:29:24.894Z</time>
      </trkpt>
      <trkpt lat="48.85959" lon="2.3472">
        <ele>101.3</ele>
        <time>2015-01-19T21:30:09.913Z</time>
      </trkpt>
    </trkseg>
  </trk>
</gpx>